<?xml version="1.0" encoding="UTF-8" standalone="no" ?>
<gpx xmlns="http://www.topografix.com/GPX/1/1" xmlns:xsi="http://www.w3.org/2001/XMLSchema-instance" xsi:schemaLocation="http://www.topografix.com/GPX/1/1 http://www.topografix.com/GPX/1/1/gpx.xsd" version="1.1" creator="VisuGPX - https://www.visugpx.com">
  <metadata>
    <name>Raid des Dentelles de Montmirail - Jour 2</name>
    <desc><![CDATA[Équipe A Raid de Courir
Martin & Thomas
Résultats : http://400teamraid.fr/Documents/resultats%20aventure%202011.pdf
Belle course!
1-Trail\'O sommet du Ventoux au lever du soleil   CO
2- Descente VTT 1000m D-
3- VTT\'O
4- CO
5- VTT\'O]]></desc>
  </metadata>
  <trk>
    <name><![CDATA[Raid des Dentelles de Montmirail - Jour 2_1]]></name>
    <trkseg>
      <trkpt lat="44.18133" lon="5.25741">
        <ele>1425.77246</ele>
        <time>2011-04-17T05:53:30+02:00</time>
      </trkpt>
      <trkpt lat="44.18132" lon="5.25729">
        <ele>1426.25317</ele>
        <time>2011-04-17T05:53:34+02:00</time>
      </trkpt>
      <trkpt lat="44.18133" lon="5.25708">
        <ele>1427.2146</ele>
        <time>2011-04-17T05:53:40+02:00</time>
      </trkpt>
      <trkpt lat="44.18131" lon="5.25697">
        <ele>1427.69507</ele>
        <time>2011-04-17T05:53:44+02:00</time>
      </trkpt>
      <trkpt lat="44.18131" lon="5.25695">
        <ele>1427.69507</ele>
        <time>2011-04-17T05:53:47+02:00</time>
      </trkpt>
      <trkpt lat="44.1813" lon="5.25694">
        <ele>1427.69507</ele>
        <time>2011-04-17T05:53:48+02:00</time>
      </trkpt>
      <trkpt lat="44.18128" lon="5.25686">
        <ele>1428.17578</ele>
        <time>2011-04-17T05:53:51+02:00</time>
      </trkpt>
      <trkpt lat="44.18119" lon="5.25674">
        <ele>1428.17578</ele>
        <time>2011-04-17T05:53:55+02:00</time>
      </trkpt>
      <trkpt lat="44.18116" lon="5.25662">
        <ele>1427.69507</ele>
        <time>2011-04-17T05:54:01+02:00</time>
      </trkpt>
      <trkpt lat="44.18117" lon="5.25655">
        <ele>1428.17578</ele>
        <time>2011-04-17T05:54:05+02:00</time>
      </trkpt>
      <trkpt lat="44.18117" lon="5.2565">
        <ele>1428.17578</ele>
        <time>2011-04-17T05:54:07+02:00</time>
      </trkpt>
      <trkpt lat="44.18116" lon="5.25644">
        <ele>1428.17578</ele>
        <time>2011-04-17T05:54:09+02:00</time>
      </trkpt>
      <trkpt lat="44.18114" lon="5.25627">
        <ele>1428.17578</ele>
        <time>2011-04-17T05:54:13+02:00</time>
      </trkpt>
      <trkpt lat="44.1811" lon="5.25604">
        <ele>1426.73389</ele>
        <time>2011-04-17T05:54:18+02:00</time>
      </trkpt>
      <trkpt lat="44.18105" lon="5.25581">
        <ele>1424.81128</ele>
        <time>2011-04-17T05:54:23+02:00</time>
      </trkpt>
      <trkpt lat="44.18103" lon="5.25563">
        <ele>1424.81128</ele>
        <time>2011-04-17T05:54:27+02:00</time>
      </trkpt>
      <trkpt lat="44.18098" lon="5.25544">
        <ele>1423.84985</ele>
        <time>2011-04-17T05:54:31+02:00</time>
      </trkpt>
      <trkpt lat="44.18094" lon="5.25531">
        <ele>1421.92725</ele>
        <time>2011-04-17T05:54:34+02:00</time>
      </trkpt>
      <trkpt lat="44.18091" lon="5.25514">
        <ele>1420.00464</ele>
        <time>2011-04-17T05:54:38+02:00</time>
      </trkpt>
      <trkpt lat="44.1809" lon="5.25504">
        <ele>1419.52393</ele>
        <time>2011-04-17T05:54:41+02:00</time>
      </trkpt>
      <trkpt lat="44.18093" lon="5.25491">
        <ele>1419.52393</ele>
        <time>2011-04-17T05:54:45+02:00</time>
      </trkpt>
      <trkpt lat="44.18093" lon="5.25489">
        <ele>1420.00464</ele>
        <time>2011-04-17T05:54:48+02:00</time>
      </trkpt>
      <trkpt lat="44.18092" lon="5.25479">
        <ele>1419.04321</ele>
        <time>2011-04-17T05:54:53+02:00</time>
      </trkpt>
      <trkpt lat="44.18096" lon="5.25474">
        <ele>1418.5625</ele>
        <time>2011-04-17T05:54:56+02:00</time>
      </trkpt>
      <trkpt lat="44.18095" lon="5.25459">
        <ele>1417.12061</ele>
        <time>2011-04-17T05:55:02+02:00</time>
      </trkpt>
      <trkpt lat="44.18097" lon="5.25455">
        <ele>1417.60107</ele>
        <time>2011-04-17T05:55:07+02:00</time>
      </trkpt>
      <trkpt lat="44.18101" lon="5.25457">
        <ele>1420.48535</ele>
        <time>2011-04-17T05:55:17+02:00</time>
      </trkpt>
      <trkpt lat="44.18098" lon="5.25466">
        <ele>1421.44653</ele>
        <time>2011-04-17T05:55:22+02:00</time>
      </trkpt>
      <trkpt lat="44.18098" lon="5.25475">
        <ele>1422.88867</ele>
        <time>2011-04-17T05:55:28+02:00</time>
      </trkpt>
      <trkpt lat="44.18099" lon="5.25478">
        <ele>1423.84985</ele>
        <time>2011-04-17T05:55:30+02:00</time>
      </trkpt>
      <trkpt lat="44.18099" lon="5.25483">
        <ele>1425.77246</ele>
        <time>2011-04-17T05:55:35+02:00</time>
      </trkpt>
      <trkpt lat="44.18097" lon="5.25489">
        <ele>1426.73389</ele>
        <time>2011-04-17T05:55:39+02:00</time>
      </trkpt>
      <trkpt lat="44.18099" lon="5.25494">
        <ele>1428.17578</ele>
        <time>2011-04-17T05:55:45+02:00</time>
      </trkpt>
      <trkpt lat="44.18097" lon="5.25498">
        <ele>1427.69507</ele>
        <time>2011-04-17T05:55:50+02:00</time>
      </trkpt>
      <trkpt lat="44.18094" lon="5.25496">
        <ele>1427.69507</ele>
        <time>2011-04-17T05:55:56+02:00</time>
      </trkpt>
      <trkpt lat="44.18092" lon="5.25495">
        <ele>1427.69507</ele>
        <time>2011-04-17T05:56:09+02:00</time>
      </trkpt>
      <trkpt lat="44.18086" lon="5.25495">
        <ele>1427.2146</ele>
        <time>2011-04-17T05:56:14+02:00</time>
      </trkpt>
      <trkpt lat="44.18074" lon="5.25497">
        <ele>1427.2146</ele>
        <time>2011-04-17T05:56:22+02:00</time>
      </trkpt>
      <trkpt lat="44.18072" lon="5.25499">
        <ele>1426.73389</ele>
        <time>2011-04-17T05:56:24+02:00</time>
      </trkpt>
      <trkpt lat="44.1807" lon="5.25503">
        <ele>1428.17578</ele>
        <time>2011-04-17T05:56:31+02:00</time>
      </trkpt>
      <trkpt lat="44.18071" lon="5.25506">
        <ele>1428.65649</ele>
        <time>2011-04-17T05:56:35+02:00</time>
      </trkpt>
      <trkpt lat="44.18075" lon="5.25513">
        <ele>1429.61768</ele>
        <time>2011-04-17T05:56:43+02:00</time>
      </trkpt>
      <trkpt lat="44.18076" lon="5.25514">
        <ele>1429.13696</ele>
        <time>2011-04-17T05:56:48+02:00</time>
      </trkpt>
      <trkpt lat="44.1808" lon="5.25523">
        <ele>1428.65649</ele>
        <time>2011-04-17T05:56:54+02:00</time>
      </trkpt>
      <trkpt lat="44.18081" lon="5.25524">
        <ele>1428.65649</ele>
        <time>2011-04-17T05:56:55+02:00</time>
      </trkpt>
      <trkpt lat="44.18082" lon="5.25534">
        <ele>1430.5791</ele>
        <time>2011-04-17T05:57:02+02:00</time>
      </trkpt>
      <trkpt lat="44.1808" lon="5.2554">
        <ele>1432.50171</ele>
        <time>2011-04-17T05:57:07+02:00</time>
      </trkpt>
      <trkpt lat="44.1808" lon="5.25542">
        <ele>1432.50171</ele>
        <time>2011-04-17T05:57:08+02:00</time>
      </trkpt>
      <trkpt lat="44.18079" lon="5.25548">
        <ele>1432.98218</ele>
        <time>2011-04-17T05:57:12+02:00</time>
      </trkpt>
      <trkpt lat="44.18076" lon="5.25558">
        <ele>1434.42432</ele>
        <time>2011-04-17T05:57:18+02:00</time>
      </trkpt>
      <trkpt lat="44.18072" lon="5.2556">
        <ele>1435.3855</ele>
        <time>2011-04-17T05:57:22+02:00</time>
      </trkpt>
      <trkpt lat="44.18069" lon="5.25562">
        <ele>1435.86621</ele>
        <time>2011-04-17T05:57:24+02:00</time>
      </trkpt>
      <trkpt lat="44.18059" lon="5.25557">
        <ele>1438.26978</ele>
        <time>2011-04-17T05:57:32+02:00</time>
      </trkpt>
      <trkpt lat="44.18054" lon="5.25554">
        <ele>1439.71167</ele>
        <time>2011-04-17T05:57:37+02:00</time>
      </trkpt>
      <trkpt lat="44.18043" lon="5.25548">
        <ele>1444.0376</ele>
        <time>2011-04-17T05:57:45+02:00</time>
      </trkpt>
      <trkpt lat="44.18037" lon="5.25544">
        <ele>1443.55688</ele>
        <time>2011-04-17T05:57:49+02:00</time>
      </trkpt>
      <trkpt lat="44.1803" lon="5.25539">
        <ele>1443.07617</ele>
        <time>2011-04-17T05:57:54+02:00</time>
      </trkpt>
      <trkpt lat="44.1802" lon="5.25533">
        <ele>1443.07617</ele>
        <time>2011-04-17T05:58:01+02:00</time>
      </trkpt>
      <trkpt lat="44.18013" lon="5.25527">
        <ele>1442.11499</ele>
        <time>2011-04-17T05:58:06+02:00</time>
      </trkpt>
      <trkpt lat="44.18003" lon="5.25519">
        <ele>1443.55688</ele>
        <time>2011-04-17T05:58:14+02:00</time>
      </trkpt>
      <trkpt lat="44.17996" lon="5.25514">
        <ele>1446.44092</ele>
        <time>2011-04-17T05:58:20+02:00</time>
      </trkpt>
      <trkpt lat="44.17989" lon="5.25508">
        <ele>1445.47949</ele>
        <time>2011-04-17T05:58:26+02:00</time>
      </trkpt>
      <trkpt lat="44.17978" lon="5.25494">
        <ele>1447.88281</ele>
        <time>2011-04-17T05:58:36+02:00</time>
      </trkpt>
      <trkpt lat="44.17975" lon="5.25484">
        <ele>1448.84399</ele>
        <time>2011-04-17T05:58:41+02:00</time>
      </trkpt>
      <trkpt lat="44.17971" lon="5.25475">
        <ele>1451.24731</ele>
        <time>2011-04-17T05:58:47+02:00</time>
      </trkpt>
      <trkpt lat="44.1797" lon="5.25473">
        <ele>1453.17017</ele>
        <time>2011-04-17T05:58:54+02:00</time>
      </trkpt>
      <trkpt lat="44.17971" lon="5.25473">
        <ele>1454.13159</ele>
        <time>2011-04-17T05:58:57+02:00</time>
      </trkpt>
      <trkpt lat="44.17967" lon="5.25463">
        <ele>1451.24731</ele>
        <time>2011-04-17T05:59:02+02:00</time>
      </trkpt>
      <trkpt lat="44.17966" lon="5.25459">
        <ele>1449.80542</ele>
        <time>2011-04-17T05:59:04+02:00</time>
      </trkpt>
      <trkpt lat="44.17963" lon="5.2545">
        <ele>1447.88281</ele>
        <time>2011-04-17T05:59:10+02:00</time>
      </trkpt>
      <trkpt lat="44.17963" lon="5.25445">
        <ele>1446.44092</ele>
        <time>2011-04-17T05:59:13+02:00</time>
      </trkpt>
      <trkpt lat="44.17959" lon="5.2543">
        <ele>1447.4021</ele>
        <time>2011-04-17T05:59:20+02:00</time>
      </trkpt>
      <trkpt lat="44.17956" lon="5.25415">
        <ele>1448.84399</ele>
        <time>2011-04-17T05:59:27+02:00</time>
      </trkpt>
      <trkpt lat="44.17949" lon="5.25396">
        <ele>1452.20874</ele>
        <time>2011-04-17T05:59:36+02:00</time>
      </trkpt>
      <trkpt lat="44.17943" lon="5.25379">
        <ele>1454.61206</ele>
        <time>2011-04-17T05:59:44+02:00</time>
      </trkpt>
      <trkpt lat="44.17936" lon="5.25363">
        <ele>1454.13159</ele>
        <time>2011-04-17T05:59:51+02:00</time>
      </trkpt>
      <trkpt lat="44.17932" lon="5.25349">
        <ele>1454.61206</ele>
        <time>2011-04-17T05:59:57+02:00</time>
      </trkpt>
      <trkpt lat="44.1793" lon="5.25338">
        <ele>1455.57349</ele>
        <time>2011-04-17T06:00:02+02:00</time>
      </trkpt>
      <trkpt lat="44.17927" lon="5.25324">
        <ele>1456.53467</ele>
        <time>2011-04-17T06:00:08+02:00</time>
      </trkpt>
      <trkpt lat="44.17926" lon="5.25315">
        <ele>1457.01538</ele>
        <time>2011-04-17T06:00:12+02:00</time>
      </trkpt>
      <trkpt lat="44.17926" lon="5.25313">
        <ele>1457.01538</ele>
        <time>2011-04-17T06:00:13+02:00</time>
      </trkpt>
      <trkpt lat="44.17922" lon="5.25297">
        <ele>1458.45728</ele>
        <time>2011-04-17T06:00:21+02:00</time>
      </trkpt>
      <trkpt lat="44.17919" lon="5.25286">
        <ele>1458.93799</ele>
        <time>2011-04-17T06:00:26+02:00</time>
      </trkpt>
      <trkpt lat="44.17915" lon="5.25263">
        <ele>1461.82202</ele>
        <time>2011-04-17T06:00:37+02:00</time>
      </trkpt>
      <trkpt lat="44.1791" lon="5.25243">
        <ele>1464.2251</ele>
        <time>2011-04-17T06:00:46+02:00</time>
      </trkpt>
      <trkpt lat="44.17904" lon="5.25227">
        <ele>1466.62842</ele>
        <time>2011-04-17T06:00:54+02:00</time>
      </trkpt>
      <trkpt lat="44.17898" lon="5.25214">
        <ele>1467.5896</ele>
        <time>2011-04-17T06:01:01+02:00</time>
      </trkpt>
      <trkpt lat="44.17895" lon="5.25207">
        <ele>1469.99316</ele>
        <time>2011-04-17T06:01:06+02:00</time>
      </trkpt>
      <trkpt lat="44.17892" lon="5.252">
        <ele>1471.91577</ele>
        <time>2011-04-17T06:01:10+02:00</time>
      </trkpt>
      <trkpt lat="44.17891" lon="5.25182">
        <ele>1472.8772</ele>
        <time>2011-04-17T06:01:18+02:00</time>
      </trkpt>
      <trkpt lat="44.17894" lon="5.25169">
        <ele>1474.7998</ele>
        <time>2011-04-17T06:01:24+02:00</time>
      </trkpt>
      <trkpt lat="44.17897" lon="5.25156">
        <ele>1476.72241</ele>
        <time>2011-04-17T06:01:30+02:00</time>
      </trkpt>
      <trkpt lat="44.179" lon="5.25141">
        <ele>1478.64502</ele>
        <time>2011-04-17T06:01:37+02:00</time>
      </trkpt>
      <trkpt lat="44.17903" lon="5.25128">
        <ele>1480.08691</ele>
        <time>2011-04-17T06:01:43+02:00</time>
      </trkpt>
      <trkpt lat="44.17903" lon="5.2512">
        <ele>1481.04834</ele>
        <time>2011-04-17T06:01:47+02:00</time>
      </trkpt>
      <trkpt lat="44.17902" lon="5.25107">
        <ele>1482.00952</ele>
        <time>2011-04-17T06:01:53+02:00</time>
      </trkpt>
      <trkpt lat="44.17901" lon="5.25097">
        <ele>1483.45142</ele>
        <time>2011-04-17T06:01:58+02:00</time>
      </trkpt>
      <trkpt lat="44.17901" lon="5.25084">
        <ele>1486.33569</ele>
        <time>2011-04-17T06:02:05+02:00</time>
      </trkpt>
      <trkpt lat="44.17898" lon="5.25074">
        <ele>1488.2583</ele>
        <time>2011-04-17T06:02:10+02:00</time>
      </trkpt>
      <trkpt lat="44.17892" lon="5.25057">
        <ele>1490.18091</ele>
        <time>2011-04-17T06:02:19+02:00</time>
      </trkpt>
      <trkpt lat="44.17887" lon="5.25047">
        <ele>1489.21948</ele>
        <time>2011-04-17T06:02:25+02:00</time>
      </trkpt>
      <trkpt lat="44.17886" lon="5.25041">
        <ele>1490.66138</ele>
        <time>2011-04-17T06:02:28+02:00</time>
      </trkpt>
      <trkpt lat="44.17881" lon="5.2503">
        <ele>1491.6228</ele>
        <time>2011-04-17T06:02:34+02:00</time>
      </trkpt>
      <trkpt lat="44.17876" lon="5.25017">
        <ele>1489.7002</ele>
        <time>2011-04-17T06:02:41+02:00</time>
      </trkpt>
      <trkpt lat="44.17872" lon="5.25007">
        <ele>1489.21948</ele>
        <time>2011-04-17T06:02:47+02:00</time>
      </trkpt>
      <trkpt lat="44.17865" lon="5.24991">
        <ele>1489.7002</ele>
        <time>2011-04-17T06:02:55+02:00</time>
      </trkpt>
      <trkpt lat="44.17863" lon="5.24988">
        <ele>1490.18091</ele>
        <time>2011-04-17T06:02:57+02:00</time>
      </trkpt>
      <trkpt lat="44.17856" lon="5.24972">
        <ele>1493.0647</ele>
        <time>2011-04-17T06:03:06+02:00</time>
      </trkpt>
      <trkpt lat="44.1785" lon="5.24956">
        <ele>1492.58423</ele>
        <time>2011-04-17T06:03:14+02:00</time>
      </trkpt>
      <trkpt lat="44.17844" lon="5.24942">
        <ele>1494.50659</ele>
        <time>2011-04-17T06:03:21+02:00</time>
      </trkpt>
      <trkpt lat="44.17838" lon="5.24931">
        <ele>1495.94873</ele>
        <time>2011-04-17T06:03:27+02:00</time>
      </trkpt>
      <trkpt lat="44.17832" lon="5.24919">
        <ele>1496.90991</ele>
        <time>2011-04-17T06:03:34+02:00</time>
      </trkpt>
      <trkpt lat="44.17821" lon="5.24903">
        <ele>1497.87134</ele>
        <time>2011-04-17T06:03:44+02:00</time>
      </trkpt>
      <trkpt lat="44.17818" lon="5.24897">
        <ele>1497.87134</ele>
        <time>2011-04-17T06:03:49+02:00</time>
      </trkpt>
      <trkpt lat="44.17818" lon="5.24899">
        <ele>1497.87134</ele>
        <time>2011-04-17T06:03:54+02:00</time>
      </trkpt>
      <trkpt lat="44.17814" lon="5.24894">
        <ele>1498.83252</ele>
        <time>2011-04-17T06:03:58+02:00</time>
      </trkpt>
      <trkpt lat="44.17807" lon="5.24883">
        <ele>1504.12012</ele>
        <time>2011-04-17T06:04:06+02:00</time>
      </trkpt>
      <trkpt lat="44.17801" lon="5.24872">
        <ele>1504.60059</ele>
        <time>2011-04-17T06:04:13+02:00</time>
      </trkpt>
      <trkpt lat="44.17795" lon="5.24862">
        <ele>1505.56201</ele>
        <time>2011-04-17T06:04:19+02:00</time>
      </trkpt>
      <trkpt lat="44.17785" lon="5.24845">
        <ele>1508.4458</ele>
        <time>2011-04-17T06:04:29+02:00</time>
      </trkpt>
      <trkpt lat="44.17777" lon="5.24834">
        <ele>1507.96533</ele>
        <time>2011-04-17T06:04:36+02:00</time>
      </trkpt>
      <trkpt lat="44.17768" lon="5.24819">
        <ele>1509.40723</ele>
        <time>2011-04-17T06:04:44+02:00</time>
      </trkpt>
      <trkpt lat="44.17758" lon="5.24803">
        <ele>1511.81055</ele>
        <time>2011-04-17T06:04:54+02:00</time>
      </trkpt>
      <trkpt lat="44.17747" lon="5.24786">
        <ele>1511.81055</ele>
        <time>2011-04-17T06:05:04+02:00</time>
      </trkpt>
      <trkpt lat="44.17739" lon="5.24772">
        <ele>1513.73291</ele>
        <time>2011-04-17T06:05:12+02:00</time>
      </trkpt>
      <trkpt lat="44.17735" lon="5.24767">
        <ele>1514.69434</ele>
        <time>2011-04-17T06:05:16+02:00</time>
      </trkpt>
      <trkpt lat="44.17723" lon="5.24752">
        <ele>1517.0979</ele>
        <time>2011-04-17T06:05:26+02:00</time>
      </trkpt>
      <trkpt lat="44.17714" lon="5.2474">
        <ele>1518.53979</ele>
        <time>2011-04-17T06:05:34+02:00</time>
      </trkpt>
      <trkpt lat="44.17708" lon="5.24731">
        <ele>1520.4624</ele>
        <time>2011-04-17T06:05:40+02:00</time>
      </trkpt>
      <trkpt lat="44.17702" lon="5.24724">
        <ele>1520.94312</ele>
        <time>2011-04-17T06:05:45+02:00</time>
      </trkpt>
      <trkpt lat="44.17695" lon="5.24714">
        <ele>1521.42358</ele>
        <time>2011-04-17T06:05:51+02:00</time>
      </trkpt>
      <trkpt lat="44.17689" lon="5.24702">
        <ele>1521.9043</ele>
        <time>2011-04-17T06:05:58+02:00</time>
      </trkpt>
      <trkpt lat="44.17683" lon="5.24684">
        <ele>1522.38501</ele>
        <time>2011-04-17T06:06:07+02:00</time>
      </trkpt>
      <trkpt lat="44.17678" lon="5.24673">
        <ele>1522.86572</ele>
        <time>2011-04-17T06:06:13+02:00</time>
      </trkpt>
      <trkpt lat="44.17668" lon="5.24659">
        <ele>1525.2688</ele>
        <time>2011-04-17T06:06:22+02:00</time>
      </trkpt>
      <trkpt lat="44.17657" lon="5.24647">
        <ele>1526.71094</ele>
        <time>2011-04-17T06:06:31+02:00</time>
      </trkpt>
      <trkpt lat="44.17656" lon="5.24642">
        <ele>1526.71094</ele>
        <time>2011-04-17T06:06:36+02:00</time>
      </trkpt>
      <trkpt lat="44.17656" lon="5.24642">
        <ele>1527.67212</ele>
        <time>2011-04-17T06:06:50+02:00</time>
      </trkpt>
      <trkpt lat="44.17651" lon="5.24633">
        <ele>1527.19165</ele>
        <time>2011-04-17T06:06:54+02:00</time>
      </trkpt>
      <trkpt lat="44.17643" lon="5.24609">
        <ele>1526.71094</ele>
        <time>2011-04-17T06:07:00+02:00</time>
      </trkpt>
      <trkpt lat="44.17637" lon="5.24592">
        <ele>1526.23022</ele>
        <time>2011-04-17T06:07:04+02:00</time>
      </trkpt>
      <trkpt lat="44.17628" lon="5.2457">
        <ele>1524.78833</ele>
        <time>2011-04-17T06:07:09+02:00</time>
      </trkpt>
      <trkpt lat="44.17618" lon="5.24552">
        <ele>1523.34644</ele>
        <time>2011-04-17T06:07:13+02:00</time>
      </trkpt>
      <trkpt lat="44.1761" lon="5.24537">
        <ele>1521.42358</ele>
        <time>2011-04-17T06:07:16+02:00</time>
      </trkpt>
      <trkpt lat="44.17603" lon="5.24524">
        <ele>1521.42358</ele>
        <time>2011-04-17T06:07:19+02:00</time>
      </trkpt>
      <trkpt lat="44.17593" lon="5.24502">
        <ele>1521.9043</ele>
        <time>2011-04-17T06:07:24+02:00</time>
      </trkpt>
      <trkpt lat="44.17587" lon="5.24486">
        <ele>1523.34644</ele>
        <time>2011-04-17T06:07:28+02:00</time>
      </trkpt>
      <trkpt lat="44.17581" lon="5.24466">
        <ele>1524.30762</ele>
        <time>2011-04-17T06:07:33+02:00</time>
      </trkpt>
      <trkpt lat="44.17573" lon="5.24443">
        <ele>1525.74951</ele>
        <time>2011-04-17T06:07:38+02:00</time>
      </trkpt>
      <trkpt lat="44.17567" lon="5.24427">
        <ele>1525.2688</ele>
        <time>2011-04-17T06:07:42+02:00</time>
      </trkpt>
      <trkpt lat="44.17561" lon="5.24414">
        <ele>1524.30762</ele>
        <time>2011-04-17T06:07:46+02:00</time>
      </trkpt>
      <trkpt lat="44.17554" lon="5.24401">
        <ele>1523.34644</ele>
        <time>2011-04-17T06:07:50+02:00</time>
      </trkpt>
      <trkpt lat="44.17547" lon="5.24389">
        <ele>1521.9043</ele>
        <time>2011-04-17T06:07:54+02:00</time>
      </trkpt>
      <trkpt lat="44.17541" lon="5.24378">
        <ele>1520.94312</ele>
        <time>2011-04-17T06:07:58+02:00</time>
      </trkpt>
      <trkpt lat="44.17541" lon="5.24376">
        <ele>1520.94312</ele>
        <time>2011-04-17T06:08:02+02:00</time>
      </trkpt>
      <trkpt lat="44.1754" lon="5.24374">
        <ele>1521.9043</ele>
        <time>2011-04-17T06:08:11+02:00</time>
      </trkpt>
      <trkpt lat="44.17533" lon="5.24362">
        <ele>1520.4624</ele>
        <time>2011-04-17T06:08:15+02:00</time>
      </trkpt>
      <trkpt lat="44.17521" lon="5.24345">
        <ele>1518.53979</ele>
        <time>2011-04-17T06:08:21+02:00</time>
      </trkpt>
      <trkpt lat="44.17517" lon="5.2434">
        <ele>1518.53979</ele>
        <time>2011-04-17T06:08:23+02:00</time>
      </trkpt>
      <trkpt lat="44.17507" lon="5.24333">
        <ele>1517.0979</ele>
        <time>2011-04-17T06:08:27+02:00</time>
      </trkpt>
      <trkpt lat="44.17494" lon="5.24318">
        <ele>1516.13647</ele>
        <time>2011-04-17T06:08:32+02:00</time>
      </trkpt>
      <trkpt lat="44.17484" lon="5.24307">
        <ele>1513.25244</ele>
        <time>2011-04-17T06:08:36+02:00</time>
      </trkpt>
      <trkpt lat="44.17474" lon="5.24295">
        <ele>1511.81055</ele>
        <time>2011-04-17T06:08:40+02:00</time>
      </trkpt>
      <trkpt lat="44.17463" lon="5.24285">
        <ele>1511.32983</ele>
        <time>2011-04-17T06:08:44+02:00</time>
      </trkpt>
      <trkpt lat="44.1745" lon="5.24273">
        <ele>1511.81055</ele>
        <time>2011-04-17T06:08:49+02:00</time>
      </trkpt>
      <trkpt lat="44.1744" lon="5.24263">
        <ele>1513.25244</ele>
        <time>2011-04-17T06:08:53+02:00</time>
      </trkpt>
      <trkpt lat="44.17427" lon="5.24245">
        <ele>1516.61719</ele>
        <time>2011-04-17T06:08:59+02:00</time>
      </trkpt>
      <trkpt lat="44.17418" lon="5.24233">
        <ele>1519.50122</ele>
        <time>2011-04-17T06:09:03+02:00</time>
      </trkpt>
      <trkpt lat="44.17411" lon="5.24216">
        <ele>1519.98169</ele>
        <time>2011-04-17T06:09:07+02:00</time>
      </trkpt>
      <trkpt lat="44.17407" lon="5.24192">
        <ele>1519.02051</ele>
        <time>2011-04-17T06:09:12+02:00</time>
      </trkpt>
      <trkpt lat="44.17406" lon="5.24187">
        <ele>1519.02051</ele>
        <time>2011-04-17T06:09:13+02:00</time>
      </trkpt>
      <trkpt lat="44.17407" lon="5.24162">
        <ele>1516.61719</ele>
        <time>2011-04-17T06:09:19+02:00</time>
      </trkpt>
      <trkpt lat="44.17409" lon="5.24144">
        <ele>1515.65576</ele>
        <time>2011-04-17T06:09:23+02:00</time>
      </trkpt>
      <trkpt lat="44.1741" lon="5.2414">
        <ele>1516.13647</ele>
        <time>2011-04-17T06:09:24+02:00</time>
      </trkpt>
      <trkpt lat="44.17411" lon="5.24124">
        <ele>1515.17505</ele>
        <time>2011-04-17T06:09:28+02:00</time>
      </trkpt>
      <trkpt lat="44.17411" lon="5.24103">
        <ele>1512.29102</ele>
        <time>2011-04-17T06:09:33+02:00</time>
      </trkpt>
      <trkpt lat="44.17411" lon="5.2409">
        <ele>1511.81055</ele>
        <time>2011-04-17T06:09:36+02:00</time>
      </trkpt>
      <trkpt lat="44.17408" lon="5.24068">
        <ele>1509.40723</ele>
        <time>2011-04-17T06:09:41+02:00</time>
      </trkpt>
      <trkpt lat="44.17407" lon="5.24064">
        <ele>1508.92651</ele>
        <time>2011-04-17T06:09:42+02:00</time>
      </trkpt>
      <trkpt lat="44.17406" lon="5.24056">
        <ele>1507.48462</ele>
        <time>2011-04-17T06:09:44+02:00</time>
      </trkpt>
      <trkpt lat="44.17402" lon="5.24041">
        <ele>1504.12012</ele>
        <time>2011-04-17T06:09:48+02:00</time>
      </trkpt>
      <trkpt lat="44.17397" lon="5.24018">
        <ele>1502.19727</ele>
        <time>2011-04-17T06:09:54+02:00</time>
      </trkpt>
      <trkpt lat="44.17391" lon="5.24002">
        <ele>1501.7168</ele>
        <time>2011-04-17T06:09:59+02:00</time>
      </trkpt>
      <trkpt lat="44.17381" lon="5.23981">
        <ele>1501.7168</ele>
        <time>2011-04-17T06:10:05+02:00</time>
      </trkpt>
      <trkpt lat="44.17374" lon="5.23963">
        <ele>1502.67798</ele>
        <time>2011-04-17T06:10:10+02:00</time>
      </trkpt>
      <trkpt lat="44.17364" lon="5.23943">
        <ele>1502.67798</ele>
        <time>2011-04-17T06:10:16+02:00</time>
      </trkpt>
      <trkpt lat="44.17353" lon="5.23923">
        <ele>1501.7168</ele>
        <time>2011-04-17T06:10:22+02:00</time>
      </trkpt>
      <trkpt lat="44.17346" lon="5.23909">
        <ele>1502.67798</ele>
        <time>2011-04-17T06:10:26+02:00</time>
      </trkpt>
      <trkpt lat="44.17338" lon="5.23897">
        <ele>1503.15869</ele>
        <time>2011-04-17T06:10:30+02:00</time>
      </trkpt>
      <trkpt lat="44.17336" lon="5.23894">
        <ele>1502.19727</ele>
        <time>2011-04-17T06:10:31+02:00</time>
      </trkpt>
      <trkpt lat="44.17335" lon="5.23892">
        <ele>1502.67798</ele>
        <time>2011-04-17T06:10:40+02:00</time>
      </trkpt>
      <trkpt lat="44.17332" lon="5.23887">
        <ele>1502.67798</ele>
        <time>2011-04-17T06:10:44+02:00</time>
      </trkpt>
      <trkpt lat="44.17325" lon="5.23875">
        <ele>1502.19727</ele>
        <time>2011-04-17T06:10:50+02:00</time>
      </trkpt>
      <trkpt lat="44.17322" lon="5.23868">
        <ele>1501.7168</ele>
        <time>2011-04-17T06:10:53+02:00</time>
      </trkpt>
      <trkpt lat="44.17318" lon="5.2386">
        <ele>1501.23608</ele>
        <time>2011-04-17T06:10:59+02:00</time>
      </trkpt>
      <trkpt lat="44.17313" lon="5.23851">
        <ele>1500.2749</ele>
        <time>2011-04-17T06:11:05+02:00</time>
      </trkpt>
      <trkpt lat="44.17307" lon="5.23841">
        <ele>1498.83252</ele>
        <time>2011-04-17T06:11:10+02:00</time>
      </trkpt>
      <trkpt lat="44.17296" lon="5.23824">
        <ele>1497.87134</ele>
        <time>2011-04-17T06:11:15+02:00</time>
      </trkpt>
      <trkpt lat="44.17285" lon="5.23808">
        <ele>1496.42944</ele>
        <time>2011-04-17T06:11:20+02:00</time>
      </trkpt>
      <trkpt lat="44.17275" lon="5.23795">
        <ele>1495.94873</ele>
        <time>2011-04-17T06:11:24+02:00</time>
      </trkpt>
      <trkpt lat="44.17267" lon="5.23785">
        <ele>1496.90991</ele>
        <time>2011-04-17T06:11:28+02:00</time>
      </trkpt>
      <trkpt lat="44.17258" lon="5.23772">
        <ele>1496.42944</ele>
        <time>2011-04-17T06:11:32+02:00</time>
      </trkpt>
      <trkpt lat="44.17247" lon="5.23757">
        <ele>1495.94873</ele>
        <time>2011-04-17T06:11:37+02:00</time>
      </trkpt>
      <trkpt lat="44.17234" lon="5.23745">
        <ele>1495.46802</ele>
        <time>2011-04-17T06:11:42+02:00</time>
      </trkpt>
      <trkpt lat="44.17227" lon="5.23738">
        <ele>1494.02612</ele>
        <time>2011-04-17T06:11:45+02:00</time>
      </trkpt>
      <trkpt lat="44.17217" lon="5.2373">
        <ele>1492.10352</ele>
        <time>2011-04-17T06:11:49+02:00</time>
      </trkpt>
      <trkpt lat="44.1721" lon="5.23728">
        <ele>1490.66138</ele>
        <time>2011-04-17T06:11:54+02:00</time>
      </trkpt>
      <trkpt lat="44.17205" lon="5.23726">
        <ele>1489.7002</ele>
        <time>2011-04-17T06:11:58+02:00</time>
      </trkpt>
      <trkpt lat="44.17198" lon="5.23723">
        <ele>1490.18091</ele>
        <time>2011-04-17T06:12:04+02:00</time>
      </trkpt>
      <trkpt lat="44.17195" lon="5.23721">
        <ele>1490.18091</ele>
        <time>2011-04-17T06:12:08+02:00</time>
      </trkpt>
      <trkpt lat="44.17193" lon="5.23722">
        <ele>1491.6228</ele>
        <time>2011-04-17T06:12:15+02:00</time>
      </trkpt>
      <trkpt lat="44.17196" lon="5.23725">
        <ele>1491.14209</ele>
        <time>2011-04-17T06:12:18+02:00</time>
      </trkpt>
      <trkpt lat="44.17196" lon="5.23727">
        <ele>1492.10352</ele>
        <time>2011-04-17T06:12:24+02:00</time>
      </trkpt>
      <trkpt lat="44.17195" lon="5.2373">
        <ele>1495.46802</ele>
        <time>2011-04-17T06:12:49+02:00</time>
      </trkpt>
      <trkpt lat="44.17196" lon="5.23734">
        <ele>1496.90991</ele>
        <time>2011-04-17T06:12:55+02:00</time>
      </trkpt>
      <trkpt lat="44.17197" lon="5.23739">
        <ele>1498.83252</ele>
        <time>2011-04-17T06:13:01+02:00</time>
      </trkpt>
      <trkpt lat="44.17201" lon="5.23747">
        <ele>1500.2749</ele>
        <time>2011-04-17T06:13:07+02:00</time>
      </trkpt>
      <trkpt lat="44.17202" lon="5.23748">
        <ele>1500.2749</ele>
        <time>2011-04-17T06:13:08+02:00</time>
      </trkpt>
      <trkpt lat="44.17204" lon="5.23754">
        <ele>1501.7168</ele>
        <time>2011-04-17T06:13:15+02:00</time>
      </trkpt>
      <trkpt lat="44.17207" lon="5.2376">
        <ele>1502.19727</ele>
        <time>2011-04-17T06:13:21+02:00</time>
      </trkpt>
      <trkpt lat="44.17208" lon="5.23764">
        <ele>1503.15869</ele>
        <time>2011-04-17T06:13:24+02:00</time>
      </trkpt>
      <trkpt lat="44.1721" lon="5.23769">
        <ele>1505.0813</ele>
        <time>2011-04-17T06:13:29+02:00</time>
      </trkpt>
      <trkpt lat="44.17211" lon="5.23774">
        <ele>1506.52319</ele>
        <time>2011-04-17T06:13:36+02:00</time>
      </trkpt>
      <trkpt lat="44.17212" lon="5.23778">
        <ele>1508.92651</ele>
        <time>2011-04-17T06:13:42+02:00</time>
      </trkpt>
      <trkpt lat="44.17209" lon="5.23782">
        <ele>1508.4458</ele>
        <time>2011-04-17T06:13:47+02:00</time>
      </trkpt>
      <trkpt lat="44.17207" lon="5.23788">
        <ele>1509.40723</ele>
        <time>2011-04-17T06:13:53+02:00</time>
      </trkpt>
      <trkpt lat="44.17206" lon="5.23794">
        <ele>1509.8877</ele>
        <time>2011-04-17T06:13:58+02:00</time>
      </trkpt>
      <trkpt lat="44.17206" lon="5.23802">
        <ele>1511.81055</ele>
        <time>2011-04-17T06:14:04+02:00</time>
      </trkpt>
      <trkpt lat="44.17203" lon="5.23804">
        <ele>1514.21362</ele>
        <time>2011-04-17T06:14:07+02:00</time>
      </trkpt>
      <trkpt lat="44.17199" lon="5.23805">
        <ele>1517.0979</ele>
        <time>2011-04-17T06:14:11+02:00</time>
      </trkpt>
      <trkpt lat="44.17198" lon="5.23807">
        <ele>1518.05908</ele>
        <time>2011-04-17T06:14:13+02:00</time>
      </trkpt>
      <trkpt lat="44.17198" lon="5.23815">
        <ele>1520.94312</ele>
        <time>2011-04-17T06:14:18+02:00</time>
      </trkpt>
      <trkpt lat="44.17202" lon="5.23822">
        <ele>1523.34644</ele>
        <time>2011-04-17T06:14:24+02:00</time>
      </trkpt>
      <trkpt lat="44.17202" lon="5.23823">
        <ele>1523.8269</ele>
        <time>2011-04-17T06:14:25+02:00</time>
      </trkpt>
      <trkpt lat="44.17202" lon="5.23826">
        <ele>1523.8269</ele>
        <time>2011-04-17T06:14:31+02:00</time>
      </trkpt>
      <trkpt lat="44.17202" lon="5.23826">
        <ele>1522.38501</ele>
        <time>2011-04-17T06:14:38+02:00</time>
      </trkpt>
      <trkpt lat="44.172" lon="5.23827">
        <ele>1521.9043</ele>
        <time>2011-04-17T06:14:43+02:00</time>
      </trkpt>
      <trkpt lat="44.17199" lon="5.23828">
        <ele>1522.38501</ele>
        <time>2011-04-17T06:14:51+02:00</time>
      </trkpt>
      <trkpt lat="44.17199" lon="5.23827">
        <ele>1526.23022</ele>
        <time>2011-04-17T06:14:58+02:00</time>
      </trkpt>
      <trkpt lat="44.17199" lon="5.23827">
        <ele>1527.67212</ele>
        <time>2011-04-17T06:15:06+02:00</time>
      </trkpt>
      <trkpt lat="44.17199" lon="5.23828">
        <ele>1525.2688</ele>
        <time>2011-04-17T06:15:14+02:00</time>
      </trkpt>
      <trkpt lat="44.172" lon="5.23832">
        <ele>1524.78833</ele>
        <time>2011-04-17T06:15:20+02:00</time>
      </trkpt>
      <trkpt lat="44.17201" lon="5.23836">
        <ele>1526.23022</ele>
        <time>2011-04-17T06:15:27+02:00</time>
      </trkpt>
      <trkpt lat="44.17201" lon="5.23838">
        <ele>1527.67212</ele>
        <time>2011-04-17T06:15:33+02:00</time>
      </trkpt>
      <trkpt lat="44.17198" lon="5.23843">
        <ele>1528.63354</ele>
        <time>2011-04-17T06:15:40+02:00</time>
      </trkpt>
      <trkpt lat="44.17197" lon="5.23848">
        <ele>1530.55615</ele>
        <time>2011-04-17T06:15:46+02:00</time>
      </trkpt>
      <trkpt lat="44.17194" lon="5.23853">
        <ele>1531.51733</ele>
        <time>2011-04-17T06:15:51+02:00</time>
      </trkpt>
      <trkpt lat="44.17196" lon="5.23859">
        <ele>1532.479</ele>
        <time>2011-04-17T06:15:56+02:00</time>
      </trkpt>
      <trkpt lat="44.17199" lon="5.23866">
        <ele>1533.44019</ele>
        <time>2011-04-17T06:16:03+02:00</time>
      </trkpt>
      <trkpt lat="44.17198" lon="5.23871">
        <ele>1535.36279</ele>
        <time>2011-04-17T06:16:08+02:00</time>
      </trkpt>
      <trkpt lat="44.17197" lon="5.23874">
        <ele>1536.80469</ele>
        <time>2011-04-17T06:16:13+02:00</time>
      </trkpt>
      <trkpt lat="44.17198" lon="5.23881">
        <ele>1538.72754</ele>
        <time>2011-04-17T06:16:19+02:00</time>
      </trkpt>
      <trkpt lat="44.17196" lon="5.23885">
        <ele>1540.16943</ele>
        <time>2011-04-17T06:16:24+02:00</time>
      </trkpt>
      <trkpt lat="44.17195" lon="5.23886">
        <ele>1543.05322</ele>
        <time>2011-04-17T06:16:30+02:00</time>
      </trkpt>
      <trkpt lat="44.17193" lon="5.2389">
        <ele>1545.93726</ele>
        <time>2011-04-17T06:16:37+02:00</time>
      </trkpt>
      <trkpt lat="44.17193" lon="5.23895">
        <ele>1545.93726</ele>
        <time>2011-04-17T06:16:41+02:00</time>
      </trkpt>
      <trkpt lat="44.17195" lon="5.239">
        <ele>1546.41797</ele>
        <time>2011-04-17T06:16:47+02:00</time>
      </trkpt>
      <trkpt lat="44.17194" lon="5.23907">
        <ele>1548.34058</ele>
        <time>2011-04-17T06:16:55+02:00</time>
      </trkpt>
      <trkpt lat="44.17191" lon="5.23911">
        <ele>1548.82129</ele>
        <time>2011-04-17T06:17:00+02:00</time>
      </trkpt>
      <trkpt lat="44.17192" lon="5.23915">
        <ele>1550.7439</ele>
        <time>2011-04-17T06:17:04+02:00</time>
      </trkpt>
      <trkpt lat="44.17193" lon="5.2392">
        <ele>1552.18579</ele>
        <time>2011-04-17T06:17:09+02:00</time>
      </trkpt>
      <trkpt lat="44.17194" lon="5.23924">
        <ele>1553.62793</ele>
        <time>2011-04-17T06:17:14+02:00</time>
      </trkpt>
      <trkpt lat="44.17193" lon="5.23928">
        <ele>1556.03101</ele>
        <time>2011-04-17T06:17:20+02:00</time>
      </trkpt>
      <trkpt lat="44.17193" lon="5.23933">
        <ele>1558.91504</ele>
        <time>2011-04-17T06:17:26+02:00</time>
      </trkpt>
      <trkpt lat="44.17192" lon="5.23938">
        <ele>1561.31836</ele>
        <time>2011-04-17T06:17:32+02:00</time>
      </trkpt>
      <trkpt lat="44.17189" lon="5.23941">
        <ele>1562.76025</ele>
        <time>2011-04-17T06:17:37+02:00</time>
      </trkpt>
      <trkpt lat="44.1719" lon="5.23944">
        <ele>1563.72144</ele>
        <time>2011-04-17T06:17:42+02:00</time>
      </trkpt>
      <trkpt lat="44.1719" lon="5.23947">
        <ele>1566.125</ele>
        <time>2011-04-17T06:17:47+02:00</time>
      </trkpt>
      <trkpt lat="44.17189" lon="5.23951">
        <ele>1566.60571</ele>
        <time>2011-04-17T06:17:52+02:00</time>
      </trkpt>
      <trkpt lat="44.17187" lon="5.23956">
        <ele>1566.60571</ele>
        <time>2011-04-17T06:17:58+02:00</time>
      </trkpt>
      <trkpt lat="44.17187" lon="5.2396">
        <ele>1567.56689</ele>
        <time>2011-04-17T06:18:03+02:00</time>
      </trkpt>
      <trkpt lat="44.17187" lon="5.23963">
        <ele>1568.04761</ele>
        <time>2011-04-17T06:18:07+02:00</time>
      </trkpt>
      <trkpt lat="44.17188" lon="5.2397">
        <ele>1569.48975</ele>
        <time>2011-04-17T06:18:14+02:00</time>
      </trkpt>
      <trkpt lat="44.17185" lon="5.23975">
        <ele>1569.97021</ele>
        <time>2011-04-17T06:18:20+02:00</time>
      </trkpt>
      <trkpt lat="44.17181" lon="5.2398">
        <ele>1570.93164</ele>
        <time>2011-04-17T06:18:26+02:00</time>
      </trkpt>
      <trkpt lat="44.17179" lon="5.23983">
        <ele>1573.81543</ele>
        <time>2011-04-17T06:18:31+02:00</time>
      </trkpt>
      <trkpt lat="44.17173" lon="5.23986">
        <ele>1575.25732</ele>
        <time>2011-04-17T06:18:37+02:00</time>
      </trkpt>
      <trkpt lat="44.1717" lon="5.23988">
        <ele>1577.18018</ele>
        <time>2011-04-17T06:18:41+02:00</time>
      </trkpt>
      <trkpt lat="44.17168" lon="5.23993">
        <ele>1578.14136</ele>
        <time>2011-04-17T06:18:47+02:00</time>
      </trkpt>
      <trkpt lat="44.17166" lon="5.23996">
        <ele>1579.58325</ele>
        <time>2011-04-17T06:18:54+02:00</time>
      </trkpt>
      <trkpt lat="44.17165" lon="5.24">
        <ele>1581.5061</ele>
        <time>2011-04-17T06:19:00+02:00</time>
      </trkpt>
      <trkpt lat="44.17164" lon="5.24001">
        <ele>1582.46753</ele>
        <time>2011-04-17T06:19:04+02:00</time>
      </trkpt>
      <trkpt lat="44.17161" lon="5.24004">
        <ele>1584.39014</ele>
        <time>2011-04-17T06:19:09+02:00</time>
      </trkpt>
      <trkpt lat="44.1716" lon="5.24005">
        <ele>1586.31274</ele>
        <time>2011-04-17T06:19:14+02:00</time>
      </trkpt>
      <trkpt lat="44.17159" lon="5.2401">
        <ele>1588.23535</ele>
        <time>2011-04-17T06:19:20+02:00</time>
      </trkpt>
      <trkpt lat="44.17159" lon="5.24013">
        <ele>1589.67725</ele>
        <time>2011-04-17T06:19:25+02:00</time>
      </trkpt>
      <trkpt lat="44.17156" lon="5.24015">
        <ele>1591.11914</ele>
        <time>2011-04-17T06:19:31+02:00</time>
      </trkpt>
      <trkpt lat="44.17157" lon="5.24017">
        <ele>1592.08057</ele>
        <time>2011-04-17T06:19:39+02:00</time>
      </trkpt>
      <trkpt lat="44.17158" lon="5.24022">
        <ele>1592.56128</ele>
        <time>2011-04-17T06:19:44+02:00</time>
      </trkpt>
      <trkpt lat="44.1716" lon="5.24021">
        <ele>1593.52246</ele>
        <time>2011-04-17T06:19:50+02:00</time>
      </trkpt>
      <trkpt lat="44.1716" lon="5.24022">
        <ele>1594.48364</ele>
        <time>2011-04-17T06:19:58+02:00</time>
      </trkpt>
      <trkpt lat="44.17159" lon="5.24023">
        <ele>1593.52246</ele>
        <time>2011-04-17T06:20:06+02:00</time>
      </trkpt>
      <trkpt lat="44.17158" lon="5.24025">
        <ele>1593.52246</ele>
        <time>2011-04-17T06:20:21+02:00</time>
      </trkpt>
      <trkpt lat="44.17157" lon="5.24028">
        <ele>1594.00317</ele>
        <time>2011-04-17T06:20:28+02:00</time>
      </trkpt>
      <trkpt lat="44.17157" lon="5.24035">
        <ele>1594.00317</ele>
        <time>2011-04-17T06:20:34+02:00</time>
      </trkpt>
      <trkpt lat="44.17157" lon="5.24042">
        <ele>1594.96436</ele>
        <time>2011-04-17T06:20:39+02:00</time>
      </trkpt>
      <trkpt lat="44.17158" lon="5.24047">
        <ele>1597.36792</ele>
        <time>2011-04-17T06:20:44+02:00</time>
      </trkpt>
      <trkpt lat="44.1716" lon="5.24054">
        <ele>1599.29053</ele>
        <time>2011-04-17T06:20:50+02:00</time>
      </trkpt>
      <trkpt lat="44.17161" lon="5.24062">
        <ele>1600.73242</ele>
        <time>2011-04-17T06:20:56+02:00</time>
      </trkpt>
      <trkpt lat="44.17163" lon="5.24066">
        <ele>1602.65503</ele>
        <time>2011-04-17T06:21:01+02:00</time>
      </trkpt>
      <trkpt lat="44.17166" lon="5.24067">
        <ele>1604.57764</ele>
        <time>2011-04-17T06:21:06+02:00</time>
      </trkpt>
      <trkpt lat="44.1717" lon="5.2407">
        <ele>1606.98096</ele>
        <time>2011-04-17T06:21:12+02:00</time>
      </trkpt>
      <trkpt lat="44.17173" lon="5.24071">
        <ele>1607.94238</ele>
        <time>2011-04-17T06:21:16+02:00</time>
      </trkpt>
      <trkpt lat="44.17175" lon="5.24075">
        <ele>1607.94238</ele>
        <time>2011-04-17T06:21:21+02:00</time>
      </trkpt>
      <trkpt lat="44.17178" lon="5.2408">
        <ele>1607.94238</ele>
        <time>2011-04-17T06:21:26+02:00</time>
      </trkpt>
      <trkpt lat="44.17181" lon="5.24086">
        <ele>1608.42285</ele>
        <time>2011-04-17T06:21:31+02:00</time>
      </trkpt>
      <trkpt lat="44.17182" lon="5.24091">
        <ele>1609.86475</ele>
        <time>2011-04-17T06:21:36+02:00</time>
      </trkpt>
      <trkpt lat="44.17183" lon="5.24097">
        <ele>1610.34546</ele>
        <time>2011-04-17T06:21:40+02:00</time>
      </trkpt>
      <trkpt lat="44.17182" lon="5.24102">
        <ele>1611.30688</ele>
        <time>2011-04-17T06:21:44+02:00</time>
      </trkpt>
      <trkpt lat="44.17183" lon="5.24108">
        <ele>1611.7876</ele>
        <time>2011-04-17T06:21:49+02:00</time>
      </trkpt>
      <trkpt lat="44.17185" lon="5.24115">
        <ele>1613.22974</ele>
        <time>2011-04-17T06:21:56+02:00</time>
      </trkpt>
      <trkpt lat="44.17188" lon="5.24121">
        <ele>1614.67163</ele>
        <time>2011-04-17T06:22:01+02:00</time>
      </trkpt>
      <trkpt lat="44.17192" lon="5.24128">
        <ele>1618.51685</ele>
        <time>2011-04-17T06:22:08+02:00</time>
      </trkpt>
      <trkpt lat="44.17196" lon="5.24131">
        <ele>1619.47827</ele>
        <time>2011-04-17T06:22:13+02:00</time>
      </trkpt>
      <trkpt lat="44.17198" lon="5.24136">
        <ele>1619.47827</ele>
        <time>2011-04-17T06:22:18+02:00</time>
      </trkpt>
      <trkpt lat="44.17199" lon="5.24141">
        <ele>1620.92017</ele>
        <time>2011-04-17T06:22:22+02:00</time>
      </trkpt>
      <trkpt lat="44.17201" lon="5.24149">
        <ele>1622.84277</ele>
        <time>2011-04-17T06:22:28+02:00</time>
      </trkpt>
      <trkpt lat="44.17203" lon="5.24154">
        <ele>1624.28467</ele>
        <time>2011-04-17T06:22:33+02:00</time>
      </trkpt>
      <trkpt lat="44.17206" lon="5.24156">
        <ele>1625.24585</ele>
        <time>2011-04-17T06:22:38+02:00</time>
      </trkpt>
      <trkpt lat="44.17209" lon="5.2416">
        <ele>1626.68799</ele>
        <time>2011-04-17T06:22:43+02:00</time>
      </trkpt>
      <trkpt lat="44.17212" lon="5.24166">
        <ele>1628.13013</ele>
        <time>2011-04-17T06:22:49+02:00</time>
      </trkpt>
      <trkpt lat="44.17213" lon="5.24172">
        <ele>1629.57202</ele>
        <time>2011-04-17T06:22:54+02:00</time>
      </trkpt>
      <trkpt lat="44.17213" lon="5.24177">
        <ele>1630.05273</ele>
        <time>2011-04-17T06:22:58+02:00</time>
      </trkpt>
      <trkpt lat="44.17215" lon="5.24181">
        <ele>1630.05273</ele>
        <time>2011-04-17T06:23:03+02:00</time>
      </trkpt>
      <trkpt lat="44.17218" lon="5.24189">
        <ele>1630.05273</ele>
        <time>2011-04-17T06:23:10+02:00</time>
      </trkpt>
      <trkpt lat="44.17221" lon="5.24193">
        <ele>1631.01416</ele>
        <time>2011-04-17T06:23:15+02:00</time>
      </trkpt>
      <trkpt lat="44.17222" lon="5.24198">
        <ele>1632.45605</ele>
        <time>2011-04-17T06:23:20+02:00</time>
      </trkpt>
      <trkpt lat="44.17223" lon="5.24205">
        <ele>1634.37866</ele>
        <time>2011-04-17T06:23:27+02:00</time>
      </trkpt>
      <trkpt lat="44.17225" lon="5.24209">
        <ele>1636.30127</ele>
        <time>2011-04-17T06:23:32+02:00</time>
      </trkpt>
      <trkpt lat="44.17227" lon="5.24214">
        <ele>1637.26245</ele>
        <time>2011-04-17T06:23:37+02:00</time>
      </trkpt>
      <trkpt lat="44.17227" lon="5.24215">
        <ele>1637.74316</ele>
        <time>2011-04-17T06:23:38+02:00</time>
      </trkpt>
      <trkpt lat="44.17227" lon="5.24222">
        <ele>1638.70459</ele>
        <time>2011-04-17T06:23:44+02:00</time>
      </trkpt>
      <trkpt lat="44.17225" lon="5.24227">
        <ele>1639.66577</ele>
        <time>2011-04-17T06:23:48+02:00</time>
      </trkpt>
      <trkpt lat="44.17226" lon="5.24229">
        <ele>1640.14648</ele>
        <time>2011-04-17T06:23:53+02:00</time>
      </trkpt>
      <trkpt lat="44.17226" lon="5.24231">
        <ele>1639.66577</ele>
        <time>2011-04-17T06:24:12+02:00</time>
      </trkpt>
      <trkpt lat="44.17226" lon="5.24239">
        <ele>1641.10767</ele>
        <time>2011-04-17T06:24:17+02:00</time>
      </trkpt>
      <trkpt lat="44.17225" lon="5.24246">
        <ele>1641.58838</ele>
        <time>2011-04-17T06:24:22+02:00</time>
      </trkpt>
      <trkpt lat="44.17226" lon="5.2425">
        <ele>1642.5498</ele>
        <time>2011-04-17T06:24:26+02:00</time>
      </trkpt>
      <trkpt lat="44.17223" lon="5.24259">
        <ele>1643.51099</ele>
        <time>2011-04-17T06:24:33+02:00</time>
      </trkpt>
      <trkpt lat="44.17224" lon="5.24265">
        <ele>1645.91455</ele>
        <time>2011-04-17T06:24:38+02:00</time>
      </trkpt>
      <trkpt lat="44.17226" lon="5.2427">
        <ele>1647.83716</ele>
        <time>2011-04-17T06:24:44+02:00</time>
      </trkpt>
      <trkpt lat="44.17224" lon="5.24276">
        <ele>1648.79834</ele>
        <time>2011-04-17T06:24:49+02:00</time>
      </trkpt>
      <trkpt lat="44.17223" lon="5.2428">
        <ele>1648.79834</ele>
        <time>2011-04-17T06:24:53+02:00</time>
      </trkpt>
      <trkpt lat="44.1722" lon="5.24288">
        <ele>1649.27905</ele>
        <time>2011-04-17T06:24:58+02:00</time>
      </trkpt>
      <trkpt lat="44.17218" lon="5.24296">
        <ele>1649.75977</ele>
        <time>2011-04-17T06:25:04+02:00</time>
      </trkpt>
      <trkpt lat="44.17217" lon="5.24304">
        <ele>1649.75977</ele>
        <time>2011-04-17T06:25:09+02:00</time>
      </trkpt>
      <trkpt lat="44.17216" lon="5.24311">
        <ele>1651.68237</ele>
        <time>2011-04-17T06:25:15+02:00</time>
      </trkpt>
      <trkpt lat="44.17216" lon="5.24312">
        <ele>1651.68237</ele>
        <time>2011-04-17T06:25:16+02:00</time>
      </trkpt>
      <trkpt lat="44.17217" lon="5.2432">
        <ele>1652.64355</ele>
        <time>2011-04-17T06:25:22+02:00</time>
      </trkpt>
      <trkpt lat="44.1722" lon="5.24327">
        <ele>1654.56616</ele>
        <time>2011-04-17T06:25:28+02:00</time>
      </trkpt>
      <trkpt lat="44.17224" lon="5.24332">
        <ele>1655.52759</ele>
        <time>2011-04-17T06:25:34+02:00</time>
      </trkpt>
      <trkpt lat="44.17228" lon="5.24337">
        <ele>1656.96948</ele>
        <time>2011-04-17T06:25:42+02:00</time>
      </trkpt>
      <trkpt lat="44.1723" lon="5.24337">
        <ele>1657.4502</ele>
        <time>2011-04-17T06:25:46+02:00</time>
      </trkpt>
      <trkpt lat="44.17231" lon="5.24339">
        <ele>1658.41138</ele>
        <time>2011-04-17T06:25:55+02:00</time>
      </trkpt>
      <trkpt lat="44.17231" lon="5.24349">
        <ele>1660.33423</ele>
        <time>2011-04-17T06:26:02+02:00</time>
      </trkpt>
      <trkpt lat="44.17231" lon="5.24353">
        <ele>1661.29565</ele>
        <time>2011-04-17T06:26:07+02:00</time>
      </trkpt>
      <trkpt lat="44.17234" lon="5.24357">
        <ele>1662.73755</ele>
        <time>2011-04-17T06:26:13+02:00</time>
      </trkpt>
      <trkpt lat="44.17236" lon="5.24367">
        <ele>1664.17944</ele>
        <time>2011-04-17T06:26:20+02:00</time>
      </trkpt>
      <trkpt lat="44.17236" lon="5.24372">
        <ele>1664.17944</ele>
        <time>2011-04-17T06:26:24+02:00</time>
      </trkpt>
      <trkpt lat="44.17235" lon="5.24379">
        <ele>1665.14087</ele>
        <time>2011-04-17T06:26:29+02:00</time>
      </trkpt>
      <trkpt lat="44.17239" lon="5.24387">
        <ele>1666.58276</ele>
        <time>2011-04-17T06:26:36+02:00</time>
      </trkpt>
      <trkpt lat="44.17241" lon="5.24391">
        <ele>1667.06348</ele>
        <time>2011-04-17T06:26:40+02:00</time>
      </trkpt>
      <trkpt lat="44.17242" lon="5.24398">
        <ele>1668.98608</ele>
        <time>2011-04-17T06:26:46+02:00</time>
      </trkpt>
      <trkpt lat="44.17245" lon="5.24403">
        <ele>1670.90869</ele>
        <time>2011-04-17T06:26:52+02:00</time>
      </trkpt>
      <trkpt lat="44.17246" lon="5.2441">
        <ele>1672.35059</ele>
        <time>2011-04-17T06:26:58+02:00</time>
      </trkpt>
      <trkpt lat="44.17249" lon="5.24415">
        <ele>1675.23438</ele>
        <time>2011-04-17T06:27:03+02:00</time>
      </trkpt>
      <trkpt lat="44.17249" lon="5.24421">
        <ele>1676.67676</ele>
        <time>2011-04-17T06:27:09+02:00</time>
      </trkpt>
      <trkpt lat="44.17247" lon="5.24429">
        <ele>1677.63794</ele>
        <time>2011-04-17T06:27:14+02:00</time>
      </trkpt>
      <trkpt lat="44.17248" lon="5.24435">
        <ele>1677.63794</ele>
        <time>2011-04-17T06:27:19+02:00</time>
      </trkpt>
      <trkpt lat="44.17248" lon="5.24438">
        <ele>1678.59937</ele>
        <time>2011-04-17T06:27:21+02:00</time>
      </trkpt>
      <trkpt lat="44.17246" lon="5.24445">
        <ele>1679.07983</ele>
        <time>2011-04-17T06:27:26+02:00</time>
      </trkpt>
      <trkpt lat="44.17247" lon="5.2445">
        <ele>1680.04126</ele>
        <time>2011-04-17T06:27:31+02:00</time>
      </trkpt>
      <trkpt lat="44.17249" lon="5.24453">
        <ele>1681.96387</ele>
        <time>2011-04-17T06:27:37+02:00</time>
      </trkpt>
      <trkpt lat="44.17251" lon="5.24454">
        <ele>1684.36719</ele>
        <time>2011-04-17T06:27:41+02:00</time>
      </trkpt>
      <trkpt lat="44.17255" lon="5.24457">
        <ele>1686.28979</ele>
        <time>2011-04-17T06:27:47+02:00</time>
      </trkpt>
      <trkpt lat="44.17257" lon="5.24464">
        <ele>1687.25098</ele>
        <time>2011-04-17T06:27:53+02:00</time>
      </trkpt>
      <trkpt lat="44.1726" lon="5.24467">
        <ele>1687.73169</ele>
        <time>2011-04-17T06:27:58+02:00</time>
      </trkpt>
      <trkpt lat="44.17261" lon="5.24468">
        <ele>1688.2124</ele>
        <time>2011-04-17T06:28:03+02:00</time>
      </trkpt>
      <trkpt lat="44.17262" lon="5.24473">
        <ele>1687.73169</ele>
        <time>2011-04-17T06:28:08+02:00</time>
      </trkpt>
      <trkpt lat="44.17265" lon="5.24481">
        <ele>1688.2124</ele>
        <time>2011-04-17T06:28:14+02:00</time>
      </trkpt>
      <trkpt lat="44.17265" lon="5.24487">
        <ele>1688.69312</ele>
        <time>2011-04-17T06:28:19+02:00</time>
      </trkpt>
      <trkpt lat="44.17266" lon="5.24493">
        <ele>1689.6543</ele>
        <time>2011-04-17T06:28:24+02:00</time>
      </trkpt>
      <trkpt lat="44.17267" lon="5.24501">
        <ele>1690.61548</ele>
        <time>2011-04-17T06:28:30+02:00</time>
      </trkpt>
      <trkpt lat="44.17269" lon="5.24509">
        <ele>1692.53857</ele>
        <time>2011-04-17T06:28:37+02:00</time>
      </trkpt>
      <trkpt lat="44.1727" lon="5.24518">
        <ele>1693.49976</ele>
        <time>2011-04-17T06:28:44+02:00</time>
      </trkpt>
      <trkpt lat="44.17272" lon="5.24527">
        <ele>1695.90308</ele>
        <time>2011-04-17T06:28:51+02:00</time>
      </trkpt>
      <trkpt lat="44.17272" lon="5.24532">
        <ele>1696.86426</ele>
        <time>2011-04-17T06:28:55+02:00</time>
      </trkpt>
      <trkpt lat="44.17273" lon="5.24539">
        <ele>1697.82568</ele>
        <time>2011-04-17T06:29:01+02:00</time>
      </trkpt>
      <trkpt lat="44.17276" lon="5.24546">
        <ele>1699.74829</ele>
        <time>2011-04-17T06:29:08+02:00</time>
      </trkpt>
      <trkpt lat="44.17279" lon="5.2455">
        <ele>1701.6709</ele>
        <time>2011-04-17T06:29:13+02:00</time>
      </trkpt>
      <trkpt lat="44.17282" lon="5.24554">
        <ele>1702.63208</ele>
        <time>2011-04-17T06:29:18+02:00</time>
      </trkpt>
      <trkpt lat="44.17284" lon="5.24559">
        <ele>1703.11279</ele>
        <time>2011-04-17T06:29:23+02:00</time>
      </trkpt>
      <trkpt lat="44.17286" lon="5.24567">
        <ele>1704.07422</ele>
        <time>2011-04-17T06:29:29+02:00</time>
      </trkpt>
      <trkpt lat="44.17288" lon="5.24577">
        <ele>1705.51611</ele>
        <time>2011-04-17T06:29:36+02:00</time>
      </trkpt>
      <trkpt lat="44.17289" lon="5.24586">
        <ele>1706.95801</ele>
        <time>2011-04-17T06:29:42+02:00</time>
      </trkpt>
      <trkpt lat="44.17289" lon="5.24592">
        <ele>1707.43872</ele>
        <time>2011-04-17T06:29:46+02:00</time>
      </trkpt>
      <trkpt lat="44.17285" lon="5.24599">
        <ele>1705.99658</ele>
        <time>2011-04-17T06:29:52+02:00</time>
      </trkpt>
      <trkpt lat="44.17284" lon="5.24608">
        <ele>1706.47729</ele>
        <time>2011-04-17T06:29:58+02:00</time>
      </trkpt>
      <trkpt lat="44.17285" lon="5.24613">
        <ele>1708.40015</ele>
        <time>2011-04-17T06:30:03+02:00</time>
      </trkpt>
      <trkpt lat="44.17287" lon="5.24621">
        <ele>1709.84204</ele>
        <time>2011-04-17T06:30:09+02:00</time>
      </trkpt>
      <trkpt lat="44.1729" lon="5.2463">
        <ele>1711.76489</ele>
        <time>2011-04-17T06:30:17+02:00</time>
      </trkpt>
      <trkpt lat="44.17292" lon="5.24638">
        <ele>1713.68726</ele>
        <time>2011-04-17T06:30:23+02:00</time>
      </trkpt>
      <trkpt lat="44.17294" lon="5.24645">
        <ele>1714.64868</ele>
        <time>2011-04-17T06:30:29+02:00</time>
      </trkpt>
      <trkpt lat="44.17295" lon="5.24651">
        <ele>1715.61011</ele>
        <time>2011-04-17T06:30:34+02:00</time>
      </trkpt>
      <trkpt lat="44.17296" lon="5.2466">
        <ele>1716.57129</ele>
        <time>2011-04-17T06:30:40+02:00</time>
      </trkpt>
      <trkpt lat="44.17298" lon="5.2467">
        <ele>1717.052</ele>
        <time>2011-04-17T06:30:46+02:00</time>
      </trkpt>
      <trkpt lat="44.17298" lon="5.24675">
        <ele>1716.57129</ele>
        <time>2011-04-17T06:30:49+02:00</time>
      </trkpt>
      <trkpt lat="44.17301" lon="5.24683">
        <ele>1718.4939</ele>
        <time>2011-04-17T06:30:56+02:00</time>
      </trkpt>
      <trkpt lat="44.17302" lon="5.24692">
        <ele>1719.45532</ele>
        <time>2011-04-17T06:31:03+02:00</time>
      </trkpt>
      <trkpt lat="44.17304" lon="5.24704">
        <ele>1720.89722</ele>
        <time>2011-04-17T06:31:11+02:00</time>
      </trkpt>
      <trkpt lat="44.17304" lon="5.24712">
        <ele>1721.37769</ele>
        <time>2011-04-17T06:31:16+02:00</time>
      </trkpt>
      <trkpt lat="44.17304" lon="5.24717">
        <ele>1721.8584</ele>
        <time>2011-04-17T06:31:20+02:00</time>
      </trkpt>
      <trkpt lat="44.17304" lon="5.24729">
        <ele>1722.33911</ele>
        <time>2011-04-17T06:31:27+02:00</time>
      </trkpt>
      <trkpt lat="44.17304" lon="5.24737">
        <ele>1722.81982</ele>
        <time>2011-04-17T06:31:32+02:00</time>
      </trkpt>
      <trkpt lat="44.17306" lon="5.24743">
        <ele>1722.81982</ele>
        <time>2011-04-17T06:31:37+02:00</time>
      </trkpt>
      <trkpt lat="44.17306" lon="5.24746">
        <ele>1722.81982</ele>
        <time>2011-04-17T06:31:39+02:00</time>
      </trkpt>
      <trkpt lat="44.17308" lon="5.24754">
        <ele>1721.37769</ele>
        <time>2011-04-17T06:31:45+02:00</time>
      </trkpt>
      <trkpt lat="44.1731" lon="5.24763">
        <ele>1720.89722</ele>
        <time>2011-04-17T06:31:52+02:00</time>
      </trkpt>
      <trkpt lat="44.1731" lon="5.24765">
        <ele>1721.37769</ele>
        <time>2011-04-17T06:31:58+02:00</time>
      </trkpt>
      <trkpt lat="44.17311" lon="5.24767">
        <ele>1721.8584</ele>
        <time>2011-04-17T06:31:59+02:00</time>
      </trkpt>
      <trkpt lat="44.17314" lon="5.24778">
        <ele>1722.33911</ele>
        <time>2011-04-17T06:32:06+02:00</time>
      </trkpt>
      <trkpt lat="44.17315" lon="5.24786">
        <ele>1723.30054</ele>
        <time>2011-04-17T06:32:11+02:00</time>
      </trkpt>
      <trkpt lat="44.17319" lon="5.24792">
        <ele>1725.22314</ele>
        <time>2011-04-17T06:32:16+02:00</time>
      </trkpt>
      <trkpt lat="44.17319" lon="5.24801">
        <ele>1725.70386</ele>
        <time>2011-04-17T06:32:21+02:00</time>
      </trkpt>
      <trkpt lat="44.17322" lon="5.24812">
        <ele>1727.146</ele>
        <time>2011-04-17T06:32:28+02:00</time>
      </trkpt>
      <trkpt lat="44.17324" lon="5.24821">
        <ele>1727.62646</ele>
        <time>2011-04-17T06:32:33+02:00</time>
      </trkpt>
      <trkpt lat="44.17326" lon="5.24823">
        <ele>1728.58789</ele>
        <time>2011-04-17T06:32:35+02:00</time>
      </trkpt>
      <trkpt lat="44.1733" lon="5.24835">
        <ele>1730.5105</ele>
        <time>2011-04-17T06:32:42+02:00</time>
      </trkpt>
      <trkpt lat="44.17334" lon="5.24848">
        <ele>1732.91357</ele>
        <time>2011-04-17T06:32:49+02:00</time>
      </trkpt>
      <trkpt lat="44.17338" lon="5.24859">
        <ele>1734.35571</ele>
        <time>2011-04-17T06:32:55+02:00</time>
      </trkpt>
      <trkpt lat="44.17342" lon="5.24872">
        <ele>1736.75879</ele>
        <time>2011-04-17T06:33:03+02:00</time>
      </trkpt>
      <trkpt lat="44.17346" lon="5.2489">
        <ele>1737.2395</ele>
        <time>2011-04-17T06:33:10+02:00</time>
      </trkpt>
      <trkpt lat="44.17345" lon="5.249">
        <ele>1737.72021</ele>
        <time>2011-04-17T06:33:13+02:00</time>
      </trkpt>
      <trkpt lat="44.17347" lon="5.24915">
        <ele>1738.20093</ele>
        <time>2011-04-17T06:33:18+02:00</time>
      </trkpt>
      <trkpt lat="44.17348" lon="5.2492">
        <ele>1738.68164</ele>
        <time>2011-04-17T06:33:20+02:00</time>
      </trkpt>
      <trkpt lat="44.17355" lon="5.24938">
        <ele>1741.08496</ele>
        <time>2011-04-17T06:33:27+02:00</time>
      </trkpt>
      <trkpt lat="44.17357" lon="5.24948">
        <ele>1742.04639</ele>
        <time>2011-04-17T06:33:33+02:00</time>
      </trkpt>
      <trkpt lat="44.1736" lon="5.24959">
        <ele>1742.04639</ele>
        <time>2011-04-17T06:33:38+02:00</time>
      </trkpt>
      <trkpt lat="44.17361" lon="5.2497">
        <ele>1743.00757</ele>
        <time>2011-04-17T06:33:44+02:00</time>
      </trkpt>
      <trkpt lat="44.17361" lon="5.24979">
        <ele>1742.5271</ele>
        <time>2011-04-17T06:33:47+02:00</time>
      </trkpt>
      <trkpt lat="44.1736" lon="5.24982">
        <ele>1742.04639</ele>
        <time>2011-04-17T06:33:48+02:00</time>
      </trkpt>
      <trkpt lat="44.17357" lon="5.24993">
        <ele>1740.60425</ele>
        <time>2011-04-17T06:33:51+02:00</time>
      </trkpt>
      <trkpt lat="44.17357" lon="5.25005">
        <ele>1738.68164</ele>
        <time>2011-04-17T06:33:55+02:00</time>
      </trkpt>
      <trkpt lat="44.17361" lon="5.25013">
        <ele>1738.20093</ele>
        <time>2011-04-17T06:34:00+02:00</time>
      </trkpt>
      <trkpt lat="44.17364" lon="5.25023">
        <ele>1738.20093</ele>
        <time>2011-04-17T06:34:06+02:00</time>
      </trkpt>
      <trkpt lat="44.17365" lon="5.25027">
        <ele>1737.2395</ele>
        <time>2011-04-17T06:34:09+02:00</time>
      </trkpt>
      <trkpt lat="44.17366" lon="5.25032">
        <ele>1737.2395</ele>
        <time>2011-04-17T06:34:11+02:00</time>
      </trkpt>
      <trkpt lat="44.1737" lon="5.25041">
        <ele>1739.16211</ele>
        <time>2011-04-17T06:34:18+02:00</time>
      </trkpt>
      <trkpt lat="44.1737" lon="5.25042">
        <ele>1739.64282</ele>
        <time>2011-04-17T06:34:19+02:00</time>
      </trkpt>
      <trkpt lat="44.17371" lon="5.25047">
        <ele>1742.04639</ele>
        <time>2011-04-17T06:34:25+02:00</time>
      </trkpt>
      <trkpt lat="44.17369" lon="5.25052">
        <ele>1742.5271</ele>
        <time>2011-04-17T06:34:29+02:00</time>
      </trkpt>
      <trkpt lat="44.1737" lon="5.25061">
        <ele>1743.00757</ele>
        <time>2011-04-17T06:34:33+02:00</time>
      </trkpt>
      <trkpt lat="44.1737" lon="5.25063">
        <ele>1743.48828</ele>
        <time>2011-04-17T06:34:34+02:00</time>
      </trkpt>
      <trkpt lat="44.1737" lon="5.25067">
        <ele>1743.96899</ele>
        <time>2011-04-17T06:34:37+02:00</time>
      </trkpt>
      <trkpt lat="44.17372" lon="5.25072">
        <ele>1743.96899</ele>
        <time>2011-04-17T06:34:43+02:00</time>
      </trkpt>
      <trkpt lat="44.17371" lon="5.25075">
        <ele>1744.44946</ele>
        <time>2011-04-17T06:34:48+02:00</time>
      </trkpt>
      <trkpt lat="44.17369" lon="5.25079">
        <ele>1743.96899</ele>
        <time>2011-04-17T06:34:52+02:00</time>
      </trkpt>
      <trkpt lat="44.1737" lon="5.25083">
        <ele>1742.5271</ele>
        <time>2011-04-17T06:34:56+02:00</time>
      </trkpt>
      <trkpt lat="44.1737" lon="5.25089">
        <ele>1741.56567</ele>
        <time>2011-04-17T06:35:01+02:00</time>
      </trkpt>
      <trkpt lat="44.1737" lon="5.25097">
        <ele>1741.08496</ele>
        <time>2011-04-17T06:35:06+02:00</time>
      </trkpt>
      <trkpt lat="44.1737" lon="5.25103">
        <ele>1741.08496</ele>
        <time>2011-04-17T06:35:10+02:00</time>
      </trkpt>
      <trkpt lat="44.17371" lon="5.25112">
        <ele>1742.04639</ele>
        <time>2011-04-17T06:35:15+02:00</time>
      </trkpt>
      <trkpt lat="44.17374" lon="5.2512">
        <ele>1744.93018</ele>
        <time>2011-04-17T06:35:20+02:00</time>
      </trkpt>
      <trkpt lat="44.17376" lon="5.25122">
        <ele>1746.37231</ele>
        <time>2011-04-17T06:35:22+02:00</time>
      </trkpt>
      <trkpt lat="44.17379" lon="5.25129">
        <ele>1749.2561</ele>
        <time>2011-04-17T06:35:27+02:00</time>
      </trkpt>
      <trkpt lat="44.17378" lon="5.25139">
        <ele>1751.65942</ele>
        <time>2011-04-17T06:35:33+02:00</time>
      </trkpt>
      <trkpt lat="44.17381" lon="5.25145">
        <ele>1753.58203</ele>
        <time>2011-04-17T06:35:37+02:00</time>
      </trkpt>
      <trkpt lat="44.17381" lon="5.25152">
        <ele>1754.54321</ele>
        <time>2011-04-17T06:35:41+02:00</time>
      </trkpt>
      <trkpt lat="44.1738" lon="5.25159">
        <ele>1755.02393</ele>
        <time>2011-04-17T06:35:45+02:00</time>
      </trkpt>
      <trkpt lat="44.17377" lon="5.25168">
        <ele>1755.02393</ele>
        <time>2011-04-17T06:35:50+02:00</time>
      </trkpt>
      <trkpt lat="44.17378" lon="5.25175">
        <ele>1755.50464</ele>
        <time>2011-04-17T06:35:55+02:00</time>
      </trkpt>
      <trkpt lat="44.17379" lon="5.25182">
        <ele>1755.50464</ele>
        <time>2011-04-17T06:35:59+02:00</time>
      </trkpt>
      <trkpt lat="44.17379" lon="5.25188">
        <ele>1755.98511</ele>
        <time>2011-04-17T06:36:06+02:00</time>
      </trkpt>
      <trkpt lat="44.17378" lon="5.25194">
        <ele>1755.02393</ele>
        <time>2011-04-17T06:36:10+02:00</time>
      </trkpt>
      <trkpt lat="44.17379" lon="5.25206">
        <ele>1756.46606</ele>
        <time>2011-04-17T06:36:17+02:00</time>
      </trkpt>
      <trkpt lat="44.1738" lon="5.25214">
        <ele>1758.38867</ele>
        <time>2011-04-17T06:36:22+02:00</time>
      </trkpt>
      <trkpt lat="44.1738" lon="5.25215">
        <ele>1758.38867</ele>
        <time>2011-04-17T06:36:23+02:00</time>
      </trkpt>
      <trkpt lat="44.1738" lon="5.25226">
        <ele>1760.31128</ele>
        <time>2011-04-17T06:36:30+02:00</time>
      </trkpt>
      <trkpt lat="44.17381" lon="5.25229">
        <ele>1761.27271</ele>
        <time>2011-04-17T06:36:33+02:00</time>
      </trkpt>
      <trkpt lat="44.17382" lon="5.25237">
        <ele>1762.7146</ele>
        <time>2011-04-17T06:36:39+02:00</time>
      </trkpt>
      <trkpt lat="44.17384" lon="5.25243">
        <ele>1764.15649</ele>
        <time>2011-04-17T06:36:44+02:00</time>
      </trkpt>
      <trkpt lat="44.17385" lon="5.25249">
        <ele>1766.0791</ele>
        <time>2011-04-17T06:36:50+02:00</time>
      </trkpt>
      <trkpt lat="44.17385" lon="5.25255">
        <ele>1767.04053</ele>
        <time>2011-04-17T06:36:55+02:00</time>
      </trkpt>
      <trkpt lat="44.17385" lon="5.25263">
        <ele>1768.48242</ele>
        <time>2011-04-17T06:37:00+02:00</time>
      </trkpt>
      <trkpt lat="44.17385" lon="5.25264">
        <ele>1768.48242</ele>
        <time>2011-04-17T06:37:01+02:00</time>
      </trkpt>
      <trkpt lat="44.17389" lon="5.25278">
        <ele>1770.40503</ele>
        <time>2011-04-17T06:37:10+02:00</time>
      </trkpt>
      <trkpt lat="44.17391" lon="5.25289">
        <ele>1770.40503</ele>
        <time>2011-04-17T06:37:16+02:00</time>
      </trkpt>
      <trkpt lat="44.17391" lon="5.25293">
        <ele>1769.92432</ele>
        <time>2011-04-17T06:37:18+02:00</time>
      </trkpt>
      <trkpt lat="44.17389" lon="5.25302">
        <ele>1768.96313</ele>
        <time>2011-04-17T06:37:22+02:00</time>
      </trkpt>
      <trkpt lat="44.1739" lon="5.25305">
        <ele>1769.44385</ele>
        <time>2011-04-17T06:37:24+02:00</time>
      </trkpt>
      <trkpt lat="44.17392" lon="5.25316">
        <ele>1771.36621</ele>
        <time>2011-04-17T06:37:31+02:00</time>
      </trkpt>
      <trkpt lat="44.17393" lon="5.2533">
        <ele>1772.80859</ele>
        <time>2011-04-17T06:37:38+02:00</time>
      </trkpt>
      <trkpt lat="44.17393" lon="5.25339">
        <ele>1773.76978</ele>
        <time>2011-04-17T06:37:44+02:00</time>
      </trkpt>
      <trkpt lat="44.17393" lon="5.25345">
        <ele>1774.7312</ele>
        <time>2011-04-17T06:37:48+02:00</time>
      </trkpt>
      <trkpt lat="44.17391" lon="5.25353">
        <ele>1775.21167</ele>
        <time>2011-04-17T06:37:53+02:00</time>
      </trkpt>
      <trkpt lat="44.17387" lon="5.25361">
        <ele>1775.69238</ele>
        <time>2011-04-17T06:37:58+02:00</time>
      </trkpt>
      <trkpt lat="44.17387" lon="5.25374">
        <ele>1776.65381</ele>
        <time>2011-04-17T06:38:06+02:00</time>
      </trkpt>
      <trkpt lat="44.17388" lon="5.25383">
        <ele>1777.61499</ele>
        <time>2011-04-17T06:38:12+02:00</time>
      </trkpt>
      <trkpt lat="44.17389" lon="5.25386">
        <ele>1777.61499</ele>
        <time>2011-04-17T06:38:14+02:00</time>
      </trkpt>
      <trkpt lat="44.17392" lon="5.25393">
        <ele>1779.05688</ele>
        <time>2011-04-17T06:38:19+02:00</time>
      </trkpt>
      <trkpt lat="44.17393" lon="5.25399">
        <ele>1780.49902</ele>
        <time>2011-04-17T06:38:23+02:00</time>
      </trkpt>
      <trkpt lat="44.17392" lon="5.25408">
        <ele>1782.42163</ele>
        <time>2011-04-17T06:38:29+02:00</time>
      </trkpt>
      <trkpt lat="44.17393" lon="5.25418">
        <ele>1783.38281</ele>
        <time>2011-04-17T06:38:35+02:00</time>
      </trkpt>
      <trkpt lat="44.17395" lon="5.2543">
        <ele>1785.78613</ele>
        <time>2011-04-17T06:38:43+02:00</time>
      </trkpt>
      <trkpt lat="44.17395" lon="5.25431">
        <ele>1785.78613</ele>
        <time>2011-04-17T06:38:44+02:00</time>
      </trkpt>
      <trkpt lat="44.174" lon="5.25436">
        <ele>1787.70874</ele>
        <time>2011-04-17T06:38:50+02:00</time>
      </trkpt>
      <trkpt lat="44.17401" lon="5.25448">
        <ele>1789.63159</ele>
        <time>2011-04-17T06:38:57+02:00</time>
      </trkpt>
      <trkpt lat="44.174" lon="5.2546">
        <ele>1790.1123</ele>
        <time>2011-04-17T06:39:04+02:00</time>
      </trkpt>
      <trkpt lat="44.17399" lon="5.2547">
        <ele>1791.07349</ele>
        <time>2011-04-17T06:39:10+02:00</time>
      </trkpt>
      <trkpt lat="44.17398" lon="5.25482">
        <ele>1791.5542</ele>
        <time>2011-04-17T06:39:18+02:00</time>
      </trkpt>
      <trkpt lat="44.17397" lon="5.25495">
        <ele>1792.99609</ele>
        <time>2011-04-17T06:39:26+02:00</time>
      </trkpt>
      <trkpt lat="44.17396" lon="5.25509">
        <ele>1793.95752</ele>
        <time>2011-04-17T06:39:35+02:00</time>
      </trkpt>
      <trkpt lat="44.17394" lon="5.25523">
        <ele>1794.43799</ele>
        <time>2011-04-17T06:39:44+02:00</time>
      </trkpt>
      <trkpt lat="44.17395" lon="5.25536">
        <ele>1795.88013</ele>
        <time>2011-04-17T06:39:51+02:00</time>
      </trkpt>
      <trkpt lat="44.17391" lon="5.25548">
        <ele>1796.84131</ele>
        <time>2011-04-17T06:39:58+02:00</time>
      </trkpt>
      <trkpt lat="44.17391" lon="5.2555">
        <ele>1796.84131</ele>
        <time>2011-04-17T06:39:59+02:00</time>
      </trkpt>
      <trkpt lat="44.17394" lon="5.25563">
        <ele>1798.2832</ele>
        <time>2011-04-17T06:40:08+02:00</time>
      </trkpt>
      <trkpt lat="44.17396" lon="5.25569">
        <ele>1799.24463</ele>
        <time>2011-04-17T06:40:12+02:00</time>
      </trkpt>
      <trkpt lat="44.17394" lon="5.25579">
        <ele>1800.20605</ele>
        <time>2011-04-17T06:40:18+02:00</time>
      </trkpt>
      <trkpt lat="44.17392" lon="5.25588">
        <ele>1800.68652</ele>
        <time>2011-04-17T06:40:24+02:00</time>
      </trkpt>
      <trkpt lat="44.17388" lon="5.25596">
        <ele>1800.68652</ele>
        <time>2011-04-17T06:40:30+02:00</time>
      </trkpt>
      <trkpt lat="44.17386" lon="5.256">
        <ele>1800.68652</ele>
        <time>2011-04-17T06:40:33+02:00</time>
      </trkpt>
      <trkpt lat="44.17385" lon="5.25603">
        <ele>1801.16724</ele>
        <time>2011-04-17T06:40:35+02:00</time>
      </trkpt>
      <trkpt lat="44.17388" lon="5.25614">
        <ele>1802.12842</ele>
        <time>2011-04-17T06:40:42+02:00</time>
      </trkpt>
      <trkpt lat="44.17387" lon="5.25616">
        <ele>1802.12842</ele>
        <time>2011-04-17T06:40:43+02:00</time>
      </trkpt>
      <trkpt lat="44.17388" lon="5.25626">
        <ele>1803.57056</ele>
        <time>2011-04-17T06:40:49+02:00</time>
      </trkpt>
      <trkpt lat="44.17388" lon="5.25637">
        <ele>1804.53198</ele>
        <time>2011-04-17T06:40:55+02:00</time>
      </trkpt>
      <trkpt lat="44.17386" lon="5.25648">
        <ele>1805.0127</ele>
        <time>2011-04-17T06:41:01+02:00</time>
      </trkpt>
      <trkpt lat="44.17384" lon="5.2566">
        <ele>1805.97388</ele>
        <time>2011-04-17T06:41:07+02:00</time>
      </trkpt>
      <trkpt lat="44.17381" lon="5.25674">
        <ele>1806.45459</ele>
        <time>2011-04-17T06:41:15+02:00</time>
      </trkpt>
      <trkpt lat="44.17379" lon="5.25686">
        <ele>1806.9353</ele>
        <time>2011-04-17T06:41:22+02:00</time>
      </trkpt>
      <trkpt lat="44.17377" lon="5.25696">
        <ele>1806.9353</ele>
        <time>2011-04-17T06:41:27+02:00</time>
      </trkpt>
      <trkpt lat="44.17378" lon="5.25707">
        <ele>1807.89673</ele>
        <time>2011-04-17T06:41:33+02:00</time>
      </trkpt>
      <trkpt lat="44.17379" lon="5.2572">
        <ele>1807.89673</ele>
        <time>2011-04-17T06:41:40+02:00</time>
      </trkpt>
      <trkpt lat="44.17379" lon="5.2573">
        <ele>1807.41602</ele>
        <time>2011-04-17T06:41:45+02:00</time>
      </trkpt>
      <trkpt lat="44.17377" lon="5.2574">
        <ele>1806.9353</ele>
        <time>2011-04-17T06:41:49+02:00</time>
      </trkpt>
      <trkpt lat="44.17378" lon="5.25752">
        <ele>1806.9353</ele>
        <time>2011-04-17T06:41:53+02:00</time>
      </trkpt>
      <trkpt lat="44.17379" lon="5.25766">
        <ele>1805.49341</ele>
        <time>2011-04-17T06:41:58+02:00</time>
      </trkpt>
      <trkpt lat="44.17379" lon="5.25773">
        <ele>1805.0127</ele>
        <time>2011-04-17T06:42:01+02:00</time>
      </trkpt>
      <trkpt lat="44.17376" lon="5.25779">
        <ele>1805.0127</ele>
        <time>2011-04-17T06:42:04+02:00</time>
      </trkpt>
      <trkpt lat="44.17374" lon="5.25794">
        <ele>1803.08984</ele>
        <time>2011-04-17T06:42:09+02:00</time>
      </trkpt>
      <trkpt lat="44.17374" lon="5.258">
        <ele>1802.60913</ele>
        <time>2011-04-17T06:42:11+02:00</time>
      </trkpt>
      <trkpt lat="44.17379" lon="5.25823">
        <ele>1802.60913</ele>
        <time>2011-04-17T06:42:18+02:00</time>
      </trkpt>
      <trkpt lat="44.17383" lon="5.25837">
        <ele>1803.57056</ele>
        <time>2011-04-17T06:42:23+02:00</time>
      </trkpt>
      <trkpt lat="44.17388" lon="5.25851">
        <ele>1806.9353</ele>
        <time>2011-04-17T06:42:28+02:00</time>
      </trkpt>
      <trkpt lat="44.1739" lon="5.25866">
        <ele>1806.45459</ele>
        <time>2011-04-17T06:42:35+02:00</time>
      </trkpt>
      <trkpt lat="44.17389" lon="5.25879">
        <ele>1805.49341</ele>
        <time>2011-04-17T06:42:39+02:00</time>
      </trkpt>
      <trkpt lat="44.17392" lon="5.25898">
        <ele>1806.45459</ele>
        <time>2011-04-17T06:42:46+02:00</time>
      </trkpt>
      <trkpt lat="44.17391" lon="5.25901">
        <ele>1805.97388</ele>
        <time>2011-04-17T06:42:51+02:00</time>
      </trkpt>
      <trkpt lat="44.17392" lon="5.25904">
        <ele>1805.97388</ele>
        <time>2011-04-17T06:42:53+02:00</time>
      </trkpt>
      <trkpt lat="44.17395" lon="5.25915">
        <ele>1805.97388</ele>
        <time>2011-04-17T06:42:58+02:00</time>
      </trkpt>
      <trkpt lat="44.17395" lon="5.25929">
        <ele>1805.0127</ele>
        <time>2011-04-17T06:43:03+02:00</time>
      </trkpt>
      <trkpt lat="44.17394" lon="5.25937">
        <ele>1805.0127</ele>
        <time>2011-04-17T06:43:07+02:00</time>
      </trkpt>
      <trkpt lat="44.17391" lon="5.25943">
        <ele>1805.49341</ele>
        <time>2011-04-17T06:43:10+02:00</time>
      </trkpt>
      <trkpt lat="44.17392" lon="5.2595">
        <ele>1806.9353</ele>
        <time>2011-04-17T06:43:16+02:00</time>
      </trkpt>
      <trkpt lat="44.17395" lon="5.25957">
        <ele>1808.3772</ele>
        <time>2011-04-17T06:43:22+02:00</time>
      </trkpt>
      <trkpt lat="44.17396" lon="5.25961">
        <ele>1808.85791</ele>
        <time>2011-04-17T06:43:26+02:00</time>
      </trkpt>
      <trkpt lat="44.17398" lon="5.2597">
        <ele>1810.78052</ele>
        <time>2011-04-17T06:43:33+02:00</time>
      </trkpt>
      <trkpt lat="44.17398" lon="5.25975">
        <ele>1811.26123</ele>
        <time>2011-04-17T06:43:36+02:00</time>
      </trkpt>
      <trkpt lat="44.17397" lon="5.25991">
        <ele>1812.22241</ele>
        <time>2011-04-17T06:43:44+02:00</time>
      </trkpt>
      <trkpt lat="44.17396" lon="5.26002">
        <ele>1812.70312</ele>
        <time>2011-04-17T06:43:50+02:00</time>
      </trkpt>
      <trkpt lat="44.17394" lon="5.26011">
        <ele>1812.70312</ele>
        <time>2011-04-17T06:43:54+02:00</time>
      </trkpt>
      <trkpt lat="44.17394" lon="5.26024">
        <ele>1812.22241</ele>
        <time>2011-04-17T06:44:00+02:00</time>
      </trkpt>
      <trkpt lat="44.17394" lon="5.26043">
        <ele>1809.33862</ele>
        <time>2011-04-17T06:44:06+02:00</time>
      </trkpt>
      <trkpt lat="44.17398" lon="5.2606">
        <ele>1809.33862</ele>
        <time>2011-04-17T06:44:12+02:00</time>
      </trkpt>
      <trkpt lat="44.17399" lon="5.26063">
        <ele>1809.81909</ele>
        <time>2011-04-17T06:44:13+02:00</time>
      </trkpt>
      <trkpt lat="44.17399" lon="5.26083">
        <ele>1810.2998</ele>
        <time>2011-04-17T06:44:20+02:00</time>
      </trkpt>
      <trkpt lat="44.174" lon="5.26084">
        <ele>1810.78052</ele>
        <time>2011-04-17T06:44:24+02:00</time>
      </trkpt>
      <trkpt lat="44.17401" lon="5.26093">
        <ele>1812.22241</ele>
        <time>2011-04-17T06:44:30+02:00</time>
      </trkpt>
      <trkpt lat="44.17401" lon="5.261">
        <ele>1813.18384</ele>
        <time>2011-04-17T06:44:36+02:00</time>
      </trkpt>
      <trkpt lat="44.17401" lon="5.26101">
        <ele>1813.18384</ele>
        <time>2011-04-17T06:44:42+02:00</time>
      </trkpt>
      <trkpt lat="44.17402" lon="5.26101">
        <ele>1813.18384</ele>
        <time>2011-04-17T06:44:49+02:00</time>
      </trkpt>
      <trkpt lat="44.17402" lon="5.26101">
        <ele>1813.18384</ele>
        <time>2011-04-17T06:44:59+02:00</time>
      </trkpt>
      <trkpt lat="44.17402" lon="5.26109">
        <ele>1813.66431</ele>
        <time>2011-04-17T06:45:04+02:00</time>
      </trkpt>
      <trkpt lat="44.17403" lon="5.26117">
        <ele>1813.66431</ele>
        <time>2011-04-17T06:45:10+02:00</time>
      </trkpt>
      <trkpt lat="44.17406" lon="5.26124">
        <ele>1814.62573</ele>
        <time>2011-04-17T06:45:17+02:00</time>
      </trkpt>
      <trkpt lat="44.17406" lon="5.26126">
        <ele>1815.10645</ele>
        <time>2011-04-17T06:45:22+02:00</time>
      </trkpt>
      <trkpt lat="44.17405" lon="5.26131">
        <ele>1815.10645</ele>
        <time>2011-04-17T06:45:25+02:00</time>
      </trkpt>
      <trkpt lat="44.17404" lon="5.26139">
        <ele>1816.06763</ele>
        <time>2011-04-17T06:45:28+02:00</time>
      </trkpt>
      <trkpt lat="44.17406" lon="5.26154">
        <ele>1817.99023</ele>
        <time>2011-04-17T06:45:33+02:00</time>
      </trkpt>
      <trkpt lat="44.17405" lon="5.2617">
        <ele>1819.91284</ele>
        <time>2011-04-17T06:45:38+02:00</time>
      </trkpt>
      <trkpt lat="44.17404" lon="5.26184">
        <ele>1822.31641</ele>
        <time>2011-04-17T06:45:42+02:00</time>
      </trkpt>
      <trkpt lat="44.17404" lon="5.26202">
        <ele>1825.68091</ele>
        <time>2011-04-17T06:45:48+02:00</time>
      </trkpt>
      <trkpt lat="44.17405" lon="5.26212">
        <ele>1826.64233</ele>
        <time>2011-04-17T06:45:52+02:00</time>
      </trkpt>
      <trkpt lat="44.17405" lon="5.26224">
        <ele>1827.12305</ele>
        <time>2011-04-17T06:45:58+02:00</time>
      </trkpt>
      <trkpt lat="44.17404" lon="5.26236">
        <ele>1826.64233</ele>
        <time>2011-04-17T06:46:05+02:00</time>
      </trkpt>
      <trkpt lat="44.17403" lon="5.26248">
        <ele>1827.12305</ele>
        <time>2011-04-17T06:46:12+02:00</time>
      </trkpt>
      <trkpt lat="44.17402" lon="5.2626">
        <ele>1827.60352</ele>
        <time>2011-04-17T06:46:19+02:00</time>
      </trkpt>
      <trkpt lat="44.17401" lon="5.26269">
        <ele>1827.60352</ele>
        <time>2011-04-17T06:46:25+02:00</time>
      </trkpt>
      <trkpt lat="44.174" lon="5.26277">
        <ele>1827.60352</ele>
        <time>2011-04-17T06:46:30+02:00</time>
      </trkpt>
      <trkpt lat="44.17402" lon="5.26286">
        <ele>1828.56494</ele>
        <time>2011-04-17T06:46:37+02:00</time>
      </trkpt>
      <trkpt lat="44.17404" lon="5.26292">
        <ele>1830.00684</ele>
        <time>2011-04-17T06:46:44+02:00</time>
      </trkpt>
      <trkpt lat="44.17403" lon="5.263">
        <ele>1830.48755</ele>
        <time>2011-04-17T06:46:49+02:00</time>
      </trkpt>
      <trkpt lat="44.17403" lon="5.26302">
        <ele>1830.48755</ele>
        <time>2011-04-17T06:46:50+02:00</time>
      </trkpt>
      <trkpt lat="44.17403" lon="5.26311">
        <ele>1830.48755</ele>
        <time>2011-04-17T06:46:55+02:00</time>
      </trkpt>
      <trkpt lat="44.17403" lon="5.26322">
        <ele>1830.96826</ele>
        <time>2011-04-17T06:47:02+02:00</time>
      </trkpt>
      <trkpt lat="44.17404" lon="5.26333">
        <ele>1831.92944</ele>
        <time>2011-04-17T06:47:09+02:00</time>
      </trkpt>
      <trkpt lat="44.17403" lon="5.26346">
        <ele>1832.89062</ele>
        <time>2011-04-17T06:47:16+02:00</time>
      </trkpt>
      <trkpt lat="44.17404" lon="5.26356">
        <ele>1833.85205</ele>
        <time>2011-04-17T06:47:22+02:00</time>
      </trkpt>
      <trkpt lat="44.17405" lon="5.26367">
        <ele>1834.33276</ele>
        <time>2011-04-17T06:47:28+02:00</time>
      </trkpt>
      <trkpt lat="44.17405" lon="5.26374">
        <ele>1834.81348</ele>
        <time>2011-04-17T06:47:33+02:00</time>
      </trkpt>
      <trkpt lat="44.17405" lon="5.26378">
        <ele>1834.81348</ele>
        <time>2011-04-17T06:47:35+02:00</time>
      </trkpt>
      <trkpt lat="44.17406" lon="5.26384">
        <ele>1833.85205</ele>
        <time>2011-04-17T06:47:40+02:00</time>
      </trkpt>
      <trkpt lat="44.17407" lon="5.2639">
        <ele>1834.33276</ele>
        <time>2011-04-17T06:47:47+02:00</time>
      </trkpt>
      <trkpt lat="44.17407" lon="5.26394">
        <ele>1833.85205</ele>
        <time>2011-04-17T06:47:56+02:00</time>
      </trkpt>
      <trkpt lat="44.17407" lon="5.26403">
        <ele>1833.85205</ele>
        <time>2011-04-17T06:48:03+02:00</time>
      </trkpt>
      <trkpt lat="44.17406" lon="5.26405">
        <ele>1832.89062</ele>
        <time>2011-04-17T06:48:11+02:00</time>
      </trkpt>
      <trkpt lat="44.17406" lon="5.26409">
        <ele>1833.85205</ele>
        <time>2011-04-17T06:48:25+02:00</time>
      </trkpt>
      <trkpt lat="44.17405" lon="5.26415">
        <ele>1834.33276</ele>
        <time>2011-04-17T06:48:29+02:00</time>
      </trkpt>
      <trkpt lat="44.17406" lon="5.26419">
        <ele>1834.81348</ele>
        <time>2011-04-17T06:48:36+02:00</time>
      </trkpt>
      <trkpt lat="44.17407" lon="5.26427">
        <ele>1835.29395</ele>
        <time>2011-04-17T06:48:39+02:00</time>
      </trkpt>
      <trkpt lat="44.17408" lon="5.26441">
        <ele>1835.29395</ele>
        <time>2011-04-17T06:48:43+02:00</time>
      </trkpt>
      <trkpt lat="44.17412" lon="5.26456">
        <ele>1835.77466</ele>
        <time>2011-04-17T06:48:48+02:00</time>
      </trkpt>
      <trkpt lat="44.17411" lon="5.26467">
        <ele>1835.77466</ele>
        <time>2011-04-17T06:48:51+02:00</time>
      </trkpt>
      <trkpt lat="44.17412" lon="5.26486">
        <ele>1835.29395</ele>
        <time>2011-04-17T06:48:57+02:00</time>
      </trkpt>
      <trkpt lat="44.17411" lon="5.26498">
        <ele>1834.81348</ele>
        <time>2011-04-17T06:49:01+02:00</time>
      </trkpt>
      <trkpt lat="44.1741" lon="5.2651">
        <ele>1833.85205</ele>
        <time>2011-04-17T06:49:05+02:00</time>
      </trkpt>
      <trkpt lat="44.17411" lon="5.26521">
        <ele>1831.92944</ele>
        <time>2011-04-17T06:49:09+02:00</time>
      </trkpt>
      <trkpt lat="44.1741" lon="5.26531">
        <ele>1830.00684</ele>
        <time>2011-04-17T06:49:13+02:00</time>
      </trkpt>
      <trkpt lat="44.17411" lon="5.26541">
        <ele>1828.08423</ele>
        <time>2011-04-17T06:49:18+02:00</time>
      </trkpt>
      <trkpt lat="44.17413" lon="5.26558">
        <ele>1827.12305</ele>
        <time>2011-04-17T06:49:23+02:00</time>
      </trkpt>
      <trkpt lat="44.17416" lon="5.26577">
        <ele>1828.08423</ele>
        <time>2011-04-17T06:49:29+02:00</time>
      </trkpt>
      <trkpt lat="44.17416" lon="5.26592">
        <ele>1828.56494</ele>
        <time>2011-04-17T06:49:35+02:00</time>
      </trkpt>
      <trkpt lat="44.17418" lon="5.26609">
        <ele>1829.04541</ele>
        <time>2011-04-17T06:49:40+02:00</time>
      </trkpt>
      <trkpt lat="44.17422" lon="5.2663">
        <ele>1830.48755</ele>
        <time>2011-04-17T06:49:46+02:00</time>
      </trkpt>
      <trkpt lat="44.17424" lon="5.26648">
        <ele>1830.96826</ele>
        <time>2011-04-17T06:49:52+02:00</time>
      </trkpt>
      <trkpt lat="44.17426" lon="5.26666">
        <ele>1832.41016</ele>
        <time>2011-04-17T06:49:59+02:00</time>
      </trkpt>
      <trkpt lat="44.17426" lon="5.26675">
        <ele>1832.41016</ele>
        <time>2011-04-17T06:50:05+02:00</time>
      </trkpt>
      <trkpt lat="44.17426" lon="5.26685">
        <ele>1830.96826</ele>
        <time>2011-04-17T06:50:10+02:00</time>
      </trkpt>
      <trkpt lat="44.17426" lon="5.26698">
        <ele>1830.00684</ele>
        <time>2011-04-17T06:50:16+02:00</time>
      </trkpt>
      <trkpt lat="44.17427" lon="5.26706">
        <ele>1830.00684</ele>
        <time>2011-04-17T06:50:21+02:00</time>
      </trkpt>
      <trkpt lat="44.17428" lon="5.26712">
        <ele>1829.52612</ele>
        <time>2011-04-17T06:50:24+02:00</time>
      </trkpt>
      <trkpt lat="44.17435" lon="5.26729">
        <ele>1830.00684</ele>
        <time>2011-04-17T06:50:30+02:00</time>
      </trkpt>
      <trkpt lat="44.17436" lon="5.26735">
        <ele>1830.48755</ele>
        <time>2011-04-17T06:50:32+02:00</time>
      </trkpt>
      <trkpt lat="44.17435" lon="5.26755">
        <ele>1830.00684</ele>
        <time>2011-04-17T06:50:38+02:00</time>
      </trkpt>
      <trkpt lat="44.17433" lon="5.26766">
        <ele>1831.44873</ele>
        <time>2011-04-17T06:50:44+02:00</time>
      </trkpt>
      <trkpt lat="44.17434" lon="5.26775">
        <ele>1832.89062</ele>
        <time>2011-04-17T06:50:50+02:00</time>
      </trkpt>
      <trkpt lat="44.17435" lon="5.26785">
        <ele>1833.37134</ele>
        <time>2011-04-17T06:50:55+02:00</time>
      </trkpt>
      <trkpt lat="44.17437" lon="5.26799">
        <ele>1834.33276</ele>
        <time>2011-04-17T06:51:02+02:00</time>
      </trkpt>
      <trkpt lat="44.17437" lon="5.26809">
        <ele>1835.29395</ele>
        <time>2011-04-17T06:51:07+02:00</time>
      </trkpt>
      <trkpt lat="44.17436" lon="5.26822">
        <ele>1835.77466</ele>
        <time>2011-04-17T06:51:14+02:00</time>
      </trkpt>
      <trkpt lat="44.17434" lon="5.26832">
        <ele>1835.29395</ele>
        <time>2011-04-17T06:51:19+02:00</time>
      </trkpt>
      <trkpt lat="44.17432" lon="5.26845">
        <ele>1834.33276</ele>
        <time>2011-04-17T06:51:25+02:00</time>
      </trkpt>
      <trkpt lat="44.17426" lon="5.26851">
        <ele>1831.92944</ele>
        <time>2011-04-17T06:51:30+02:00</time>
      </trkpt>
      <trkpt lat="44.17422" lon="5.26865">
        <ele>1829.52612</ele>
        <time>2011-04-17T06:51:34+02:00</time>
      </trkpt>
      <trkpt lat="44.1742" lon="5.26886">
        <ele>1827.60352</ele>
        <time>2011-04-17T06:51:39+02:00</time>
      </trkpt>
      <trkpt lat="44.17417" lon="5.26907">
        <ele>1824.71973</ele>
        <time>2011-04-17T06:51:44+02:00</time>
      </trkpt>
      <trkpt lat="44.17417" lon="5.26938">
        <ele>1821.83569</ele>
        <time>2011-04-17T06:51:51+02:00</time>
      </trkpt>
      <trkpt lat="44.17419" lon="5.26959">
        <ele>1821.35498</ele>
        <time>2011-04-17T06:51:56+02:00</time>
      </trkpt>
      <trkpt lat="44.1742" lon="5.26979">
        <ele>1820.87451</ele>
        <time>2011-04-17T06:52:01+02:00</time>
      </trkpt>
      <trkpt lat="44.17423" lon="5.27004">
        <ele>1821.83569</ele>
        <time>2011-04-17T06:52:07+02:00</time>
      </trkpt>
      <trkpt lat="44.17423" lon="5.27028">
        <ele>1820.87451</ele>
        <time>2011-04-17T06:52:13+02:00</time>
      </trkpt>
      <trkpt lat="44.17425" lon="5.27052">
        <ele>1821.83569</ele>
        <time>2011-04-17T06:52:19+02:00</time>
      </trkpt>
      <trkpt lat="44.17427" lon="5.27078">
        <ele>1824.23901</ele>
        <time>2011-04-17T06:52:25+02:00</time>
      </trkpt>
      <trkpt lat="44.1743" lon="5.27098">
        <ele>1824.71973</ele>
        <time>2011-04-17T06:52:30+02:00</time>
      </trkpt>
      <trkpt lat="44.17432" lon="5.27121">
        <ele>1825.2002</ele>
        <time>2011-04-17T06:52:36+02:00</time>
      </trkpt>
      <trkpt lat="44.17432" lon="5.27139">
        <ele>1826.64233</ele>
        <time>2011-04-17T06:52:41+02:00</time>
      </trkpt>
      <trkpt lat="44.17432" lon="5.27158">
        <ele>1826.64233</ele>
        <time>2011-04-17T06:52:46+02:00</time>
      </trkpt>
      <trkpt lat="44.17427" lon="5.27178">
        <ele>1827.12305</ele>
        <time>2011-04-17T06:52:52+02:00</time>
      </trkpt>
      <trkpt lat="44.17418" lon="5.27198">
        <ele>1825.68091</ele>
        <time>2011-04-17T06:52:58+02:00</time>
      </trkpt>
      <trkpt lat="44.17409" lon="5.27221">
        <ele>1824.23901</ele>
        <time>2011-04-17T06:53:05+02:00</time>
      </trkpt>
      <trkpt lat="44.17401" lon="5.27239">
        <ele>1826.16162</ele>
        <time>2011-04-17T06:53:11+02:00</time>
      </trkpt>
      <trkpt lat="44.17397" lon="5.27246">
        <ele>1826.64233</ele>
        <time>2011-04-17T06:53:16+02:00</time>
      </trkpt>
      <trkpt lat="44.1739" lon="5.2725">
        <ele>1828.08423</ele>
        <time>2011-04-17T06:53:22+02:00</time>
      </trkpt>
      <trkpt lat="44.17376" lon="5.27245">
        <ele>1828.56494</ele>
        <time>2011-04-17T06:53:31+02:00</time>
      </trkpt>
      <trkpt lat="44.17362" lon="5.27246">
        <ele>1829.52612</ele>
        <time>2011-04-17T06:53:40+02:00</time>
      </trkpt>
      <trkpt lat="44.1735" lon="5.27254">
        <ele>1830.48755</ele>
        <time>2011-04-17T06:53:49+02:00</time>
      </trkpt>
      <trkpt lat="44.17345" lon="5.27265">
        <ele>1830.96826</ele>
        <time>2011-04-17T06:53:55+02:00</time>
      </trkpt>
      <trkpt lat="44.17341" lon="5.27282">
        <ele>1831.92944</ele>
        <time>2011-04-17T06:54:04+02:00</time>
      </trkpt>
      <trkpt lat="44.17335" lon="5.27293">
        <ele>1833.85205</ele>
        <time>2011-04-17T06:54:11+02:00</time>
      </trkpt>
      <trkpt lat="44.17332" lon="5.27303">
        <ele>1834.81348</ele>
        <time>2011-04-17T06:54:17+02:00</time>
      </trkpt>
      <trkpt lat="44.17331" lon="5.27314">
        <ele>1836.25562</ele>
        <time>2011-04-17T06:54:23+02:00</time>
      </trkpt>
      <trkpt lat="44.17333" lon="5.27323">
        <ele>1837.2168</ele>
        <time>2011-04-17T06:54:28+02:00</time>
      </trkpt>
      <trkpt lat="44.17331" lon="5.27332">
        <ele>1838.65894</ele>
        <time>2011-04-17T06:54:34+02:00</time>
      </trkpt>
      <trkpt lat="44.17331" lon="5.27343">
        <ele>1840.10083</ele>
        <time>2011-04-17T06:54:41+02:00</time>
      </trkpt>
      <trkpt lat="44.1733" lon="5.2735">
        <ele>1841.06201</ele>
        <time>2011-04-17T06:54:46+02:00</time>
      </trkpt>
      <trkpt lat="44.1733" lon="5.27352">
        <ele>1841.06201</ele>
        <time>2011-04-17T06:54:48+02:00</time>
      </trkpt>
      <trkpt lat="44.1733" lon="5.2736">
        <ele>1841.54272</ele>
        <time>2011-04-17T06:54:53+02:00</time>
      </trkpt>
      <trkpt lat="44.1733" lon="5.27371">
        <ele>1843.46533</ele>
        <time>2011-04-17T06:55:00+02:00</time>
      </trkpt>
      <trkpt lat="44.1733" lon="5.27381">
        <ele>1844.90723</ele>
        <time>2011-04-17T06:55:06+02:00</time>
      </trkpt>
      <trkpt lat="44.1733" lon="5.27389">
        <ele>1845.86865</ele>
        <time>2011-04-17T06:55:11+02:00</time>
      </trkpt>
      <trkpt lat="44.17331" lon="5.27397">
        <ele>1846.34937</ele>
        <time>2011-04-17T06:55:16+02:00</time>
      </trkpt>
      <trkpt lat="44.17331" lon="5.27406">
        <ele>1847.31055</ele>
        <time>2011-04-17T06:55:21+02:00</time>
      </trkpt>
      <trkpt lat="44.17331" lon="5.27407">
        <ele>1847.31055</ele>
        <time>2011-04-17T06:55:22+02:00</time>
      </trkpt>
      <trkpt lat="44.17332" lon="5.27418">
        <ele>1849.23315</ele>
        <time>2011-04-17T06:55:29+02:00</time>
      </trkpt>
      <trkpt lat="44.17332" lon="5.27421">
        <ele>1849.71387</ele>
        <time>2011-04-17T06:55:31+02:00</time>
      </trkpt>
      <trkpt lat="44.1733" lon="5.2743">
        <ele>1852.11719</ele>
        <time>2011-04-17T06:55:38+02:00</time>
      </trkpt>
      <trkpt lat="44.1733" lon="5.27436">
        <ele>1853.55933</ele>
        <time>2011-04-17T06:55:43+02:00</time>
      </trkpt>
      <trkpt lat="44.17328" lon="5.27443">
        <ele>1854.52051</ele>
        <time>2011-04-17T06:55:49+02:00</time>
      </trkpt>
      <trkpt lat="44.17326" lon="5.2745">
        <ele>1855.9624</ele>
        <time>2011-04-17T06:55:54+02:00</time>
      </trkpt>
      <trkpt lat="44.17325" lon="5.27457">
        <ele>1856.92383</ele>
        <time>2011-04-17T06:55:59+02:00</time>
      </trkpt>
      <trkpt lat="44.17326" lon="5.27468">
        <ele>1857.88525</ele>
        <time>2011-04-17T06:56:04+02:00</time>
      </trkpt>
      <trkpt lat="44.17327" lon="5.2748">
        <ele>1858.84644</ele>
        <time>2011-04-17T06:56:10+02:00</time>
      </trkpt>
      <trkpt lat="44.17326" lon="5.27494">
        <ele>1859.80762</ele>
        <time>2011-04-17T06:56:17+02:00</time>
      </trkpt>
      <trkpt lat="44.17323" lon="5.27506">
        <ele>1860.76904</ele>
        <time>2011-04-17T06:56:24+02:00</time>
      </trkpt>
      <trkpt lat="44.17321" lon="5.27514">
        <ele>1861.73047</ele>
        <time>2011-04-17T06:56:30+02:00</time>
      </trkpt>
      <trkpt lat="44.17318" lon="5.2752">
        <ele>1863.17236</ele>
        <time>2011-04-17T06:56:35+02:00</time>
      </trkpt>
      <trkpt lat="44.17317" lon="5.2753">
        <ele>1865.09497</ele>
        <time>2011-04-17T06:56:41+02:00</time>
      </trkpt>
      <trkpt lat="44.17313" lon="5.27543">
        <ele>1864.61426</ele>
        <time>2011-04-17T06:56:47+02:00</time>
      </trkpt>
      <trkpt lat="44.17313" lon="5.27546">
        <ele>1864.61426</ele>
        <time>2011-04-17T06:56:48+02:00</time>
      </trkpt>
      <trkpt lat="44.17312" lon="5.2755">
        <ele>1864.13354</ele>
        <time>2011-04-17T06:56:50+02:00</time>
      </trkpt>
      <trkpt lat="44.17309" lon="5.27549">
        <ele>1862.21094</ele>
        <time>2011-04-17T06:56:56+02:00</time>
      </trkpt>
      <trkpt lat="44.17307" lon="5.27542">
        <ele>1864.13354</ele>
        <time>2011-04-17T06:57:03+02:00</time>
      </trkpt>
      <trkpt lat="44.17308" lon="5.27545">
        <ele>1861.24976</ele>
        <time>2011-04-17T06:57:10+02:00</time>
      </trkpt>
      <trkpt lat="44.1731" lon="5.27548">
        <ele>1857.88525</ele>
        <time>2011-04-17T06:57:14+02:00</time>
      </trkpt>
      <trkpt lat="44.17315" lon="5.27544">
        <ele>1860.28833</ele>
        <time>2011-04-17T06:57:18+02:00</time>
      </trkpt>
      <trkpt lat="44.17317" lon="5.27551">
        <ele>1862.21094</ele>
        <time>2011-04-17T06:57:22+02:00</time>
      </trkpt>
      <trkpt lat="44.17317" lon="5.27554">
        <ele>1862.69165</ele>
        <time>2011-04-17T06:57:24+02:00</time>
      </trkpt>
      <trkpt lat="44.17315" lon="5.27558">
        <ele>1863.17236</ele>
        <time>2011-04-17T06:57:26+02:00</time>
      </trkpt>
      <trkpt lat="44.17318" lon="5.27569">
        <ele>1865.57568</ele>
        <time>2011-04-17T06:57:32+02:00</time>
      </trkpt>
      <trkpt lat="44.1732" lon="5.27575">
        <ele>1867.97876</ele>
        <time>2011-04-17T06:57:37+02:00</time>
      </trkpt>
      <trkpt lat="44.17322" lon="5.27582">
        <ele>1869.42114</ele>
        <time>2011-04-17T06:57:42+02:00</time>
      </trkpt>
      <trkpt lat="44.17324" lon="5.2759">
        <ele>1871.82422</ele>
        <time>2011-04-17T06:57:47+02:00</time>
      </trkpt>
      <trkpt lat="44.17327" lon="5.27603">
        <ele>1874.70825</ele>
        <time>2011-04-17T06:57:55+02:00</time>
      </trkpt>
      <trkpt lat="44.1733" lon="5.27612">
        <ele>1876.63086</ele>
        <time>2011-04-17T06:58:02+02:00</time>
      </trkpt>
      <trkpt lat="44.17332" lon="5.2762">
        <ele>1878.07275</ele>
        <time>2011-04-17T06:58:07+02:00</time>
      </trkpt>
      <trkpt lat="44.17334" lon="5.27631">
        <ele>1880.47607</ele>
        <time>2011-04-17T06:58:14+02:00</time>
      </trkpt>
      <trkpt lat="44.17335" lon="5.27639">
        <ele>1881.43726</ele>
        <time>2011-04-17T06:58:19+02:00</time>
      </trkpt>
      <trkpt lat="44.17338" lon="5.27652">
        <ele>1882.87915</ele>
        <time>2011-04-17T06:58:27+02:00</time>
      </trkpt>
      <trkpt lat="44.17341" lon="5.27663">
        <ele>1884.80225</ele>
        <time>2011-04-17T06:58:34+02:00</time>
      </trkpt>
      <trkpt lat="44.17342" lon="5.27671">
        <ele>1886.24414</ele>
        <time>2011-04-17T06:58:39+02:00</time>
      </trkpt>
      <trkpt lat="44.17345" lon="5.27681">
        <ele>1887.68604</ele>
        <time>2011-04-17T06:58:45+02:00</time>
      </trkpt>
      <trkpt lat="44.17347" lon="5.27685">
        <ele>1888.64746</ele>
        <time>2011-04-17T06:58:48+02:00</time>
      </trkpt>
      <trkpt lat="44.17347" lon="5.27691">
        <ele>1889.60864</ele>
        <time>2011-04-17T06:58:51+02:00</time>
      </trkpt>
      <trkpt lat="44.17347" lon="5.27693">
        <ele>1890.08936</ele>
        <time>2011-04-17T06:58:53+02:00</time>
      </trkpt>
      <trkpt lat="44.17354" lon="5.27702">
        <ele>1891.53125</ele>
        <time>2011-04-17T06:59:00+02:00</time>
      </trkpt>
      <trkpt lat="44.1736" lon="5.27714">
        <ele>1892.49268</ele>
        <time>2011-04-17T06:59:08+02:00</time>
      </trkpt>
      <trkpt lat="44.17369" lon="5.27724">
        <ele>1892.49268</ele>
        <time>2011-04-17T06:59:16+02:00</time>
      </trkpt>
      <trkpt lat="44.17379" lon="5.27736">
        <ele>1893.45386</ele>
        <time>2011-04-17T06:59:25+02:00</time>
      </trkpt>
      <trkpt lat="44.17388" lon="5.27747">
        <ele>1893.93457</ele>
        <time>2011-04-17T06:59:33+02:00</time>
      </trkpt>
      <trkpt lat="44.17395" lon="5.27755">
        <ele>1893.93457</ele>
        <time>2011-04-17T06:59:39+02:00</time>
      </trkpt>
      <trkpt lat="44.17403" lon="5.27766">
        <ele>1894.89575</ele>
        <time>2011-04-17T06:59:46+02:00</time>
      </trkpt>
      <trkpt lat="44.1741" lon="5.27777">
        <ele>1895.85718</ele>
        <time>2011-04-17T06:59:53+02:00</time>
      </trkpt>
      <trkpt lat="44.17418" lon="5.27791">
        <ele>1898.26025</ele>
        <time>2011-04-17T07:00:01+02:00</time>
      </trkpt>
      <trkpt lat="44.17423" lon="5.27803">
        <ele>1900.18335</ele>
        <time>2011-04-17T07:00:08+02:00</time>
      </trkpt>
      <trkpt lat="44.17424" lon="5.27813">
        <ele>1901.14453</ele>
        <time>2011-04-17T07:00:13+02:00</time>
      </trkpt>
      <trkpt lat="44.17421" lon="5.27822">
        <ele>1903.06714</ele>
        <time>2011-04-17T07:00:19+02:00</time>
      </trkpt>
      <trkpt lat="44.1742" lon="5.27828">
        <ele>1904.02856</ele>
        <time>2011-04-17T07:00:23+02:00</time>
      </trkpt>
      <trkpt lat="44.17418" lon="5.27834">
        <ele>1905.47046</ele>
        <time>2011-04-17T07:00:29+02:00</time>
      </trkpt>
      <trkpt lat="44.17414" lon="5.27834">
        <ele>1907.39307</ele>
        <time>2011-04-17T07:00:33+02:00</time>
      </trkpt>
      <trkpt lat="44.1741" lon="5.27836">
        <ele>1908.35425</ele>
        <time>2011-04-17T07:00:38+02:00</time>
      </trkpt>
      <trkpt lat="44.17406" lon="5.2784">
        <ele>1910.27686</ele>
        <time>2011-04-17T07:00:44+02:00</time>
      </trkpt>
      <trkpt lat="44.17403" lon="5.27841">
        <ele>1911.71899</ele>
        <time>2011-04-17T07:00:50+02:00</time>
      </trkpt>
      <trkpt lat="44.17403" lon="5.2784">
        <ele>1911.71899</ele>
        <time>2011-04-17T07:00:58+02:00</time>
      </trkpt>
      <trkpt lat="44.17403" lon="5.2784">
        <ele>1911.71899</ele>
        <time>2011-04-17T07:01:03+02:00</time>
      </trkpt>
      <trkpt lat="44.17405" lon="5.2784">
        <ele>1910.27686</ele>
        <time>2011-04-17T07:01:09+02:00</time>
      </trkpt>
      <trkpt lat="44.17407" lon="5.27838">
        <ele>1909.79614</ele>
        <time>2011-04-17T07:01:11+02:00</time>
      </trkpt>
      <trkpt lat="44.17412" lon="5.27835">
        <ele>1909.31567</ele>
        <time>2011-04-17T07:01:15+02:00</time>
      </trkpt>
      <trkpt lat="44.17417" lon="5.27834">
        <ele>1908.35425</ele>
        <time>2011-04-17T07:01:19+02:00</time>
      </trkpt>
      <trkpt lat="44.17418" lon="5.27834">
        <ele>1907.39307</ele>
        <time>2011-04-17T07:01:23+02:00</time>
      </trkpt>
      <trkpt lat="44.17418" lon="5.27829">
        <ele>1906.43164</ele>
        <time>2011-04-17T07:01:26+02:00</time>
      </trkpt>
      <trkpt lat="44.17422" lon="5.27818">
        <ele>1903.54785</ele>
        <time>2011-04-17T07:01:32+02:00</time>
      </trkpt>
      <trkpt lat="44.17423" lon="5.27811">
        <ele>1902.58643</ele>
        <time>2011-04-17T07:01:35+02:00</time>
      </trkpt>
      <trkpt lat="44.17424" lon="5.27809">
        <ele>1902.10571</ele>
        <time>2011-04-17T07:01:37+02:00</time>
      </trkpt>
      <trkpt lat="44.17423" lon="5.278">
        <ele>1901.14453</ele>
        <time>2011-04-17T07:01:42+02:00</time>
      </trkpt>
      <trkpt lat="44.17418" lon="5.27787">
        <ele>1899.70239</ele>
        <time>2011-04-17T07:01:51+02:00</time>
      </trkpt>
      <trkpt lat="44.17412" lon="5.27778">
        <ele>1899.22168</ele>
        <time>2011-04-17T07:01:58+02:00</time>
      </trkpt>
      <trkpt lat="44.17411" lon="5.27779">
        <ele>1898.74097</ele>
        <time>2011-04-17T07:02:02+02:00</time>
      </trkpt>
      <trkpt lat="44.17409" lon="5.27775">
        <ele>1897.77979</ele>
        <time>2011-04-17T07:02:09+02:00</time>
      </trkpt>
      <trkpt lat="44.17407" lon="5.27772">
        <ele>1897.29907</ele>
        <time>2011-04-17T07:02:18+02:00</time>
      </trkpt>
      <trkpt lat="44.17397" lon="5.2776">
        <ele>1896.81836</ele>
        <time>2011-04-17T07:02:26+02:00</time>
      </trkpt>
      <trkpt lat="44.17386" lon="5.27746">
        <ele>1896.81836</ele>
        <time>2011-04-17T07:02:32+02:00</time>
      </trkpt>
      <trkpt lat="44.17375" lon="5.27732">
        <ele>1895.85718</ele>
        <time>2011-04-17T07:02:41+02:00</time>
      </trkpt>
      <trkpt lat="44.17364" lon="5.27721">
        <ele>1896.33789</ele>
        <time>2011-04-17T07:02:45+02:00</time>
      </trkpt>
      <trkpt lat="44.17349" lon="5.27703">
        <ele>1894.89575</ele>
        <time>2011-04-17T07:02:51+02:00</time>
      </trkpt>
      <trkpt lat="44.17342" lon="5.27692">
        <ele>1893.45386</ele>
        <time>2011-04-17T07:02:55+02:00</time>
      </trkpt>
      <trkpt lat="44.17341" lon="5.27677">
        <ele>1892.01196</ele>
        <time>2011-04-17T07:03:00+02:00</time>
      </trkpt>
      <trkpt lat="44.17339" lon="5.27672">
        <ele>1892.01196</ele>
        <time>2011-04-17T07:03:02+02:00</time>
      </trkpt>
      <trkpt lat="44.17336" lon="5.27655">
        <ele>1888.64746</ele>
        <time>2011-04-17T07:03:08+02:00</time>
      </trkpt>
      <trkpt lat="44.17333" lon="5.27642">
        <ele>1887.20532</ele>
        <time>2011-04-17T07:03:12+02:00</time>
      </trkpt>
      <trkpt lat="44.17329" lon="5.27621">
        <ele>1883.84058</ele>
        <time>2011-04-17T07:03:18+02:00</time>
      </trkpt>
      <trkpt lat="44.17329" lon="5.27619">
        <ele>1883.35986</ele>
        <time>2011-04-17T07:03:19+02:00</time>
      </trkpt>
      <trkpt lat="44.17327" lon="5.27607">
        <ele>1879.51465</ele>
        <time>2011-04-17T07:03:24+02:00</time>
      </trkpt>
      <trkpt lat="44.17323" lon="5.27591">
        <ele>1876.63086</ele>
        <time>2011-04-17T07:03:30+02:00</time>
      </trkpt>
      <trkpt lat="44.17322" lon="5.27589">
        <ele>1876.15015</ele>
        <time>2011-04-17T07:03:31+02:00</time>
      </trkpt>
      <trkpt lat="44.17319" lon="5.27578">
        <ele>1873.26636</ele>
        <time>2011-04-17T07:03:36+02:00</time>
      </trkpt>
      <trkpt lat="44.17318" lon="5.27567">
        <ele>1870.38232</ele>
        <time>2011-04-17T07:03:41+02:00</time>
      </trkpt>
      <trkpt lat="44.17317" lon="5.27557">
        <ele>1869.42114</ele>
        <time>2011-04-17T07:03:45+02:00</time>
      </trkpt>
      <trkpt lat="44.17317" lon="5.27542">
        <ele>1868.45972</ele>
        <time>2011-04-17T07:03:50+02:00</time>
      </trkpt>
      <trkpt lat="44.17316" lon="5.27535">
        <ele>1868.45972</ele>
        <time>2011-04-17T07:03:52+02:00</time>
      </trkpt>
      <trkpt lat="44.17318" lon="5.27526">
        <ele>1867.97876</ele>
        <time>2011-04-17T07:03:57+02:00</time>
      </trkpt>
      <trkpt lat="44.17318" lon="5.27519">
        <ele>1867.97876</ele>
        <time>2011-04-17T07:04:00+02:00</time>
      </trkpt>
      <trkpt lat="44.17322" lon="5.27505">
        <ele>1865.57568</ele>
        <time>2011-04-17T07:04:06+02:00</time>
      </trkpt>
      <trkpt lat="44.17325" lon="5.27487">
        <ele>1862.69165</ele>
        <time>2011-04-17T07:04:11+02:00</time>
      </trkpt>
      <trkpt lat="44.17324" lon="5.27465">
        <ele>1859.80762</ele>
        <time>2011-04-17T07:04:17+02:00</time>
      </trkpt>
      <trkpt lat="44.17324" lon="5.27452">
        <ele>1858.84644</ele>
        <time>2011-04-17T07:04:21+02:00</time>
      </trkpt>
      <trkpt lat="44.17328" lon="5.27437">
        <ele>1855.9624</ele>
        <time>2011-04-17T07:04:27+02:00</time>
      </trkpt>
      <trkpt lat="44.17329" lon="5.27432">
        <ele>1855.48193</ele>
        <time>2011-04-17T07:04:29+02:00</time>
      </trkpt>
      <trkpt lat="44.17331" lon="5.27416">
        <ele>1851.63647</ele>
        <time>2011-04-17T07:04:35+02:00</time>
      </trkpt>
      <trkpt lat="44.17331" lon="5.27413">
        <ele>1851.15576</ele>
        <time>2011-04-17T07:04:36+02:00</time>
      </trkpt>
      <trkpt lat="44.17328" lon="5.27388">
        <ele>1849.23315</ele>
        <time>2011-04-17T07:04:43+02:00</time>
      </trkpt>
      <trkpt lat="44.17328" lon="5.2737">
        <ele>1847.79126</ele>
        <time>2011-04-17T07:04:49+02:00</time>
      </trkpt>
      <trkpt lat="44.17329" lon="5.27355">
        <ele>1846.34937</ele>
        <time>2011-04-17T07:04:54+02:00</time>
      </trkpt>
      <trkpt lat="44.1733" lon="5.27335">
        <ele>1842.50415</ele>
        <time>2011-04-17T07:05:00+02:00</time>
      </trkpt>
      <trkpt lat="44.17331" lon="5.27317">
        <ele>1839.62012</ele>
        <time>2011-04-17T07:05:06+02:00</time>
      </trkpt>
      <trkpt lat="44.17333" lon="5.27301">
        <ele>1835.29395</ele>
        <time>2011-04-17T07:05:11+02:00</time>
      </trkpt>
      <trkpt lat="44.17338" lon="5.27283">
        <ele>1832.41016</ele>
        <time>2011-04-17T07:05:16+02:00</time>
      </trkpt>
      <trkpt lat="44.17343" lon="5.27277">
        <ele>1830.96826</ele>
        <time>2011-04-17T07:05:18+02:00</time>
      </trkpt>
      <trkpt lat="44.17352" lon="5.27252">
        <ele>1828.56494</ele>
        <time>2011-04-17T07:05:25+02:00</time>
      </trkpt>
      <trkpt lat="44.17354" lon="5.27249">
        <ele>1829.04541</ele>
        <time>2011-04-17T07:05:26+02:00</time>
      </trkpt>
      <trkpt lat="44.17356" lon="5.27249">
        <ele>1829.04541</ele>
        <time>2011-04-17T07:05:31+02:00</time>
      </trkpt>
      <trkpt lat="44.17356" lon="5.27247">
        <ele>1829.04541</ele>
        <time>2011-04-17T07:05:48+02:00</time>
      </trkpt>
      <trkpt lat="44.17371" lon="5.27243">
        <ele>1828.56494</ele>
        <time>2011-04-17T07:05:54+02:00</time>
      </trkpt>
      <trkpt lat="44.1739" lon="5.27247">
        <ele>1828.08423</ele>
        <time>2011-04-17T07:06:01+02:00</time>
      </trkpt>
      <trkpt lat="44.17393" lon="5.27248">
        <ele>1827.60352</ele>
        <time>2011-04-17T07:06:04+02:00</time>
      </trkpt>
      <trkpt lat="44.17399" lon="5.27239">
        <ele>1825.68091</ele>
        <time>2011-04-17T07:06:11+02:00</time>
      </trkpt>
      <trkpt lat="44.17405" lon="5.27228">
        <ele>1824.23901</ele>
        <time>2011-04-17T07:06:15+02:00</time>
      </trkpt>
      <trkpt lat="44.17412" lon="5.27213">
        <ele>1823.27783</ele>
        <time>2011-04-17T07:06:20+02:00</time>
      </trkpt>
      <trkpt lat="44.17416" lon="5.27203">
        <ele>1822.79712</ele>
        <time>2011-04-17T07:06:25+02:00</time>
      </trkpt>
      <trkpt lat="44.17424" lon="5.27187">
        <ele>1822.31641</ele>
        <time>2011-04-17T07:06:30+02:00</time>
      </trkpt>
      <trkpt lat="44.17429" lon="5.27168">
        <ele>1822.31641</ele>
        <time>2011-04-17T07:06:35+02:00</time>
      </trkpt>
      <trkpt lat="44.17434" lon="5.27145">
        <ele>1821.83569</ele>
        <time>2011-04-17T07:06:41+02:00</time>
      </trkpt>
      <trkpt lat="44.17437" lon="5.27126">
        <ele>1823.27783</ele>
        <time>2011-04-17T07:06:46+02:00</time>
      </trkpt>
      <trkpt lat="44.17439" lon="5.27108">
        <ele>1822.79712</ele>
        <time>2011-04-17T07:06:51+02:00</time>
      </trkpt>
      <trkpt lat="44.1744" lon="5.27101">
        <ele>1822.31641</ele>
        <time>2011-04-17T07:06:53+02:00</time>
      </trkpt>
      <trkpt lat="44.17443" lon="5.27096">
        <ele>1822.31641</ele>
        <time>2011-04-17T07:06:58+02:00</time>
      </trkpt>
      <trkpt lat="44.17446" lon="5.27094">
        <ele>1821.83569</ele>
        <time>2011-04-17T07:07:03+02:00</time>
      </trkpt>
      <trkpt lat="44.17447" lon="5.27094">
        <ele>1821.35498</ele>
        <time>2011-04-17T07:07:04+02:00</time>
      </trkpt>
      <trkpt lat="44.17453" lon="5.27092">
        <ele>1819.91284</ele>
        <time>2011-04-17T07:07:09+02:00</time>
      </trkpt>
      <trkpt lat="44.1746" lon="5.27089">
        <ele>1816.54834</ele>
        <time>2011-04-17T07:07:14+02:00</time>
      </trkpt>
      <trkpt lat="44.17468" lon="5.27085">
        <ele>1812.22241</ele>
        <time>2011-04-17T07:07:19+02:00</time>
      </trkpt>
      <trkpt lat="44.17473" lon="5.27082">
        <ele>1809.81909</ele>
        <time>2011-04-17T07:07:22+02:00</time>
      </trkpt>
      <trkpt lat="44.17475" lon="5.27079">
        <ele>1808.3772</ele>
        <time>2011-04-17T07:07:24+02:00</time>
      </trkpt>
      <trkpt lat="44.17486" lon="5.27074">
        <ele>1803.57056</ele>
        <time>2011-04-17T07:07:30+02:00</time>
      </trkpt>
      <trkpt lat="44.17493" lon="5.27069">
        <ele>1799.72534</ele>
        <time>2011-04-17T07:07:34+02:00</time>
      </trkpt>
      <trkpt lat="44.17505" lon="5.2706">
        <ele>1792.99609</ele>
        <time>2011-04-17T07:07:41+02:00</time>
      </trkpt>
      <trkpt lat="44.17508" lon="5.27056">
        <ele>1792.03491</ele>
        <time>2011-04-17T07:07:43+02:00</time>
      </trkpt>
      <trkpt lat="44.17524" lon="5.27051">
        <ele>1785.30542</ele>
        <time>2011-04-17T07:07:50+02:00</time>
      </trkpt>
      <trkpt lat="44.17526" lon="5.27051">
        <ele>1784.34424</ele>
        <time>2011-04-17T07:07:51+02:00</time>
      </trkpt>
      <trkpt lat="44.17532" lon="5.27049">
        <ele>1780.97974</ele>
        <time>2011-04-17T07:07:54+02:00</time>
      </trkpt>
      <trkpt lat="44.17535" lon="5.27045">
        <ele>1778.57642</ele>
        <time>2011-04-17T07:07:58+02:00</time>
      </trkpt>
      <trkpt lat="44.17535" lon="5.27043">
        <ele>1778.0957</ele>
        <time>2011-04-17T07:08:08+02:00</time>
      </trkpt>
      <trkpt lat="44.17536" lon="5.27044">
        <ele>1778.57642</ele>
        <time>2011-04-17T07:08:21+02:00</time>
      </trkpt>
      <trkpt lat="44.17536" lon="5.27046">
        <ele>1778.0957</ele>
        <time>2011-04-17T07:08:34+02:00</time>
      </trkpt>
      <trkpt lat="44.17537" lon="5.27047">
        <ele>1777.61499</ele>
        <time>2011-04-17T07:08:42+02:00</time>
      </trkpt>
      <trkpt lat="44.17543" lon="5.2705">
        <ele>1774.7312</ele>
        <time>2011-04-17T07:08:46+02:00</time>
      </trkpt>
      <trkpt lat="44.1756" lon="5.27044">
        <ele>1768.00171</ele>
        <time>2011-04-17T07:08:53+02:00</time>
      </trkpt>
      <trkpt lat="44.17574" lon="5.2704">
        <ele>1760.79199</ele>
        <time>2011-04-17T07:09:00+02:00</time>
      </trkpt>
      <trkpt lat="44.17581" lon="5.27038">
        <ele>1757.42749</ele>
        <time>2011-04-17T07:09:04+02:00</time>
      </trkpt>
      <trkpt lat="44.17582" lon="5.27037">
        <ele>1757.9082</ele>
        <time>2011-04-17T07:09:13+02:00</time>
      </trkpt>
      <trkpt lat="44.17581" lon="5.27036">
        <ele>1757.9082</ele>
        <time>2011-04-17T07:09:17+02:00</time>
      </trkpt>
      <trkpt lat="44.17581" lon="5.27016">
        <ele>1759.83057</ele>
        <time>2011-04-17T07:09:24+02:00</time>
      </trkpt>
      <trkpt lat="44.17586" lon="5.27005">
        <ele>1758.86938</ele>
        <time>2011-04-17T07:09:28+02:00</time>
      </trkpt>
      <trkpt lat="44.17595" lon="5.26993">
        <ele>1754.06274</ele>
        <time>2011-04-17T07:09:34+02:00</time>
      </trkpt>
      <trkpt lat="44.17602" lon="5.26982">
        <ele>1750.21753</ele>
        <time>2011-04-17T07:09:39+02:00</time>
      </trkpt>
      <trkpt lat="44.17606" lon="5.2697">
        <ele>1746.85278</ele>
        <time>2011-04-17T07:09:44+02:00</time>
      </trkpt>
      <trkpt lat="44.17612" lon="5.26959">
        <ele>1743.96899</ele>
        <time>2011-04-17T07:09:48+02:00</time>
      </trkpt>
      <trkpt lat="44.17613" lon="5.26952">
        <ele>1742.5271</ele>
        <time>2011-04-17T07:09:50+02:00</time>
      </trkpt>
      <trkpt lat="44.17615" lon="5.26929">
        <ele>1739.64282</ele>
        <time>2011-04-17T07:09:56+02:00</time>
      </trkpt>
      <trkpt lat="44.17618" lon="5.26919">
        <ele>1738.68164</ele>
        <time>2011-04-17T07:10:00+02:00</time>
      </trkpt>
      <trkpt lat="44.17623" lon="5.26907">
        <ele>1736.75879</ele>
        <time>2011-04-17T07:10:04+02:00</time>
      </trkpt>
      <trkpt lat="44.17625" lon="5.2689">
        <ele>1733.39429</ele>
        <time>2011-04-17T07:10:10+02:00</time>
      </trkpt>
      <trkpt lat="44.1763" lon="5.26873">
        <ele>1730.5105</ele>
        <time>2011-04-17T07:10:16+02:00</time>
      </trkpt>
      <trkpt lat="44.17632" lon="5.26872">
        <ele>1729.54907</ele>
        <time>2011-04-17T07:10:17+02:00</time>
      </trkpt>
      <trkpt lat="44.17635" lon="5.26858">
        <ele>1729.54907</ele>
        <time>2011-04-17T07:10:22+02:00</time>
      </trkpt>
      <trkpt lat="44.17638" lon="5.26849">
        <ele>1728.10718</ele>
        <time>2011-04-17T07:10:25+02:00</time>
      </trkpt>
      <trkpt lat="44.17645" lon="5.26827">
        <ele>1724.26196</ele>
        <time>2011-04-17T07:10:32+02:00</time>
      </trkpt>
      <trkpt lat="44.1765" lon="5.26808">
        <ele>1720.4165</ele>
        <time>2011-04-17T07:10:38+02:00</time>
      </trkpt>
      <trkpt lat="44.17654" lon="5.26793">
        <ele>1718.01318</ele>
        <time>2011-04-17T07:10:43+02:00</time>
      </trkpt>
      <trkpt lat="44.1766" lon="5.26779">
        <ele>1715.12939</ele>
        <time>2011-04-17T07:10:48+02:00</time>
      </trkpt>
      <trkpt lat="44.17664" lon="5.26764">
        <ele>1712.72607</ele>
        <time>2011-04-17T07:10:53+02:00</time>
      </trkpt>
      <trkpt lat="44.17667" lon="5.26746">
        <ele>1709.36157</ele>
        <time>2011-04-17T07:10:59+02:00</time>
      </trkpt>
      <trkpt lat="44.17673" lon="5.26734">
        <ele>1706.47729</ele>
        <time>2011-04-17T07:11:04+02:00</time>
      </trkpt>
      <trkpt lat="44.1768" lon="5.26724">
        <ele>1702.15137</ele>
        <time>2011-04-17T07:11:09+02:00</time>
      </trkpt>
      <trkpt lat="44.17685" lon="5.26712">
        <ele>1697.34497</ele>
        <time>2011-04-17T07:11:14+02:00</time>
      </trkpt>
      <trkpt lat="44.1769" lon="5.26699">
        <ele>1693.49976</ele>
        <time>2011-04-17T07:11:19+02:00</time>
      </trkpt>
      <trkpt lat="44.17697" lon="5.26684">
        <ele>1688.2124</ele>
        <time>2011-04-17T07:11:25+02:00</time>
      </trkpt>
      <trkpt lat="44.177" lon="5.26671">
        <ele>1684.36719</ele>
        <time>2011-04-17T07:11:30+02:00</time>
      </trkpt>
      <trkpt lat="44.17702" lon="5.2667">
        <ele>1683.88647</ele>
        <time>2011-04-17T07:11:31+02:00</time>
      </trkpt>
      <trkpt lat="44.17705" lon="5.26657">
        <ele>1679.56055</ele>
        <time>2011-04-17T07:11:37+02:00</time>
      </trkpt>
      <trkpt lat="44.17709" lon="5.26647">
        <ele>1676.67676</ele>
        <time>2011-04-17T07:11:42+02:00</time>
      </trkpt>
      <trkpt lat="44.17711" lon="5.26637">
        <ele>1674.27319</ele>
        <time>2011-04-17T07:11:46+02:00</time>
      </trkpt>
      <trkpt lat="44.17715" lon="5.26618">
        <ele>1669.4668</ele>
        <time>2011-04-17T07:11:54+02:00</time>
      </trkpt>
      <trkpt lat="44.17718" lon="5.26606">
        <ele>1666.58276</ele>
        <time>2011-04-17T07:11:59+02:00</time>
      </trkpt>
      <trkpt lat="44.17722" lon="5.26589">
        <ele>1662.73755</ele>
        <time>2011-04-17T07:12:05+02:00</time>
      </trkpt>
      <trkpt lat="44.17722" lon="5.26586">
        <ele>1662.73755</ele>
        <time>2011-04-17T07:12:06+02:00</time>
      </trkpt>
      <trkpt lat="44.17724" lon="5.26582">
        <ele>1661.29565</ele>
        <time>2011-04-17T07:12:11+02:00</time>
      </trkpt>
      <trkpt lat="44.17729" lon="5.26573">
        <ele>1660.81494</ele>
        <time>2011-04-17T07:12:15+02:00</time>
      </trkpt>
      <trkpt lat="44.17737" lon="5.26559">
        <ele>1659.3728</ele>
        <time>2011-04-17T07:12:20+02:00</time>
      </trkpt>
      <trkpt lat="44.17738" lon="5.26556">
        <ele>1658.89209</ele>
        <time>2011-04-17T07:12:21+02:00</time>
      </trkpt>
      <trkpt lat="44.17745" lon="5.26545">
        <ele>1656.48877</ele>
        <time>2011-04-17T07:12:25+02:00</time>
      </trkpt>
      <trkpt lat="44.17752" lon="5.26532">
        <ele>1652.64355</ele>
        <time>2011-04-17T07:12:30+02:00</time>
      </trkpt>
      <trkpt lat="44.17758" lon="5.26518">
        <ele>1649.27905</ele>
        <time>2011-04-17T07:12:36+02:00</time>
      </trkpt>
      <trkpt lat="44.17758" lon="5.26515">
        <ele>1649.75977</ele>
        <time>2011-04-17T07:12:41+02:00</time>
      </trkpt>
      <trkpt lat="44.1776" lon="5.26509">
        <ele>1646.87573</ele>
        <time>2011-04-17T07:12:49+02:00</time>
      </trkpt>
      <trkpt lat="44.17765" lon="5.26496">
        <ele>1643.9917</ele>
        <time>2011-04-17T07:12:54+02:00</time>
      </trkpt>
      <trkpt lat="44.17768" lon="5.26485">
        <ele>1642.06909</ele>
        <time>2011-04-17T07:12:58+02:00</time>
      </trkpt>
      <trkpt lat="44.17769" lon="5.26479">
        <ele>1641.10767</ele>
        <time>2011-04-17T07:13:00+02:00</time>
      </trkpt>
      <trkpt lat="44.17779" lon="5.26454">
        <ele>1633.89795</ele>
        <time>2011-04-17T07:13:10+02:00</time>
      </trkpt>
      <trkpt lat="44.17788" lon="5.26445">
        <ele>1631.97534</ele>
        <time>2011-04-17T07:13:15+02:00</time>
      </trkpt>
      <trkpt lat="44.17792" lon="5.26431">
        <ele>1629.57202</ele>
        <time>2011-04-17T07:13:20+02:00</time>
      </trkpt>
      <trkpt lat="44.17794" lon="5.26421">
        <ele>1627.1687</ele>
        <time>2011-04-17T07:13:23+02:00</time>
      </trkpt>
      <trkpt lat="44.17796" lon="5.26411">
        <ele>1624.76538</ele>
        <time>2011-04-17T07:13:26+02:00</time>
      </trkpt>
      <trkpt lat="44.17796" lon="5.26405">
        <ele>1622.36206</ele>
        <time>2011-04-17T07:13:28+02:00</time>
      </trkpt>
      <trkpt lat="44.17801" lon="5.26394">
        <ele>1619.47827</ele>
        <time>2011-04-17T07:13:33+02:00</time>
      </trkpt>
      <trkpt lat="44.17804" lon="5.26398">
        <ele>1617.07495</ele>
        <time>2011-04-17T07:13:36+02:00</time>
      </trkpt>
      <trkpt lat="44.17808" lon="5.26399">
        <ele>1615.15234</ele>
        <time>2011-04-17T07:13:42+02:00</time>
      </trkpt>
      <trkpt lat="44.17805" lon="5.26398">
        <ele>1615.15234</ele>
        <time>2011-04-17T07:13:47+02:00</time>
      </trkpt>
      <trkpt lat="44.17802" lon="5.26395">
        <ele>1618.03613</ele>
        <time>2011-04-17T07:13:54+02:00</time>
      </trkpt>
      <trkpt lat="44.17802" lon="5.26395">
        <ele>1618.51685</ele>
        <time>2011-04-17T07:14:01+02:00</time>
      </trkpt>
      <trkpt lat="44.17804" lon="5.26393">
        <ele>1619.95874</ele>
        <time>2011-04-17T07:14:45+02:00</time>
      </trkpt>
      <trkpt lat="44.17803" lon="5.26389">
        <ele>1619.47827</ele>
        <time>2011-04-17T07:14:47+02:00</time>
      </trkpt>
      <trkpt lat="44.17803" lon="5.26382">
        <ele>1618.51685</ele>
        <time>2011-04-17T07:14:50+02:00</time>
      </trkpt>
      <trkpt lat="44.17804" lon="5.26369">
        <ele>1617.07495</ele>
        <time>2011-04-17T07:14:54+02:00</time>
      </trkpt>
      <trkpt lat="44.17804" lon="5.2635">
        <ele>1616.11353</ele>
        <time>2011-04-17T07:14:59+02:00</time>
      </trkpt>
      <trkpt lat="44.17804" lon="5.26322">
        <ele>1614.19092</ele>
        <time>2011-04-17T07:15:06+02:00</time>
      </trkpt>
      <trkpt lat="44.17802" lon="5.26307">
        <ele>1612.74902</ele>
        <time>2011-04-17T07:15:09+02:00</time>
      </trkpt>
      <trkpt lat="44.17804" lon="5.26291">
        <ele>1611.7876</ele>
        <time>2011-04-17T07:15:13+02:00</time>
      </trkpt>
      <trkpt lat="44.17808" lon="5.26266">
        <ele>1609.38428</ele>
        <time>2011-04-17T07:15:19+02:00</time>
      </trkpt>
      <trkpt lat="44.1781" lon="5.26255">
        <ele>1607.46167</ele>
        <time>2011-04-17T07:15:22+02:00</time>
      </trkpt>
      <trkpt lat="44.17809" lon="5.26237">
        <ele>1604.57764</ele>
        <time>2011-04-17T07:15:26+02:00</time>
      </trkpt>
      <trkpt lat="44.17809" lon="5.26215">
        <ele>1600.73242</ele>
        <time>2011-04-17T07:15:31+02:00</time>
      </trkpt>
      <trkpt lat="44.17812" lon="5.26199">
        <ele>1598.3291</ele>
        <time>2011-04-17T07:15:35+02:00</time>
      </trkpt>
      <trkpt lat="44.17817" lon="5.26179">
        <ele>1594.96436</ele>
        <time>2011-04-17T07:15:40+02:00</time>
      </trkpt>
      <trkpt lat="44.1782" lon="5.26172">
        <ele>1594.00317</ele>
        <time>2011-04-17T07:15:42+02:00</time>
      </trkpt>
      <trkpt lat="44.17826" lon="5.26148">
        <ele>1589.19653</ele>
        <time>2011-04-17T07:15:48+02:00</time>
      </trkpt>
      <trkpt lat="44.17831" lon="5.26133">
        <ele>1585.83203</ele>
        <time>2011-04-17T07:15:53+02:00</time>
      </trkpt>
      <trkpt lat="44.17835" lon="5.26123">
        <ele>1581.98682</ele>
        <time>2011-04-17T07:15:57+02:00</time>
      </trkpt>
      <trkpt lat="44.1784" lon="5.26117">
        <ele>1579.10254</ele>
        <time>2011-04-17T07:16:00+02:00</time>
      </trkpt>
      <trkpt lat="44.17845" lon="5.26105">
        <ele>1575.25732</ele>
        <time>2011-04-17T07:16:05+02:00</time>
      </trkpt>
      <trkpt lat="44.17852" lon="5.26099">
        <ele>1572.37354</ele>
        <time>2011-04-17T07:16:10+02:00</time>
      </trkpt>
      <trkpt lat="44.17854" lon="5.26096">
        <ele>1571.41211</ele>
        <time>2011-04-17T07:16:16+02:00</time>
      </trkpt>
      <trkpt lat="44.17854" lon="5.26094">
        <ele>1570.93164</ele>
        <time>2011-04-17T07:16:17+02:00</time>
      </trkpt>
      <trkpt lat="44.17861" lon="5.26091">
        <ele>1567.56689</ele>
        <time>2011-04-17T07:16:22+02:00</time>
      </trkpt>
      <trkpt lat="44.17869" lon="5.26085">
        <ele>1562.76025</ele>
        <time>2011-04-17T07:16:27+02:00</time>
      </trkpt>
      <trkpt lat="44.17875" lon="5.26086">
        <ele>1558.43433</ele>
        <time>2011-04-17T07:16:31+02:00</time>
      </trkpt>
      <trkpt lat="44.17882" lon="5.26088">
        <ele>1553.62793</ele>
        <time>2011-04-17T07:16:35+02:00</time>
      </trkpt>
      <trkpt lat="44.17893" lon="5.26088">
        <ele>1544.97583</ele>
        <time>2011-04-17T07:16:41+02:00</time>
      </trkpt>
      <trkpt lat="44.179" lon="5.26088">
        <ele>1540.6499</ele>
        <time>2011-04-17T07:16:45+02:00</time>
      </trkpt>
      <trkpt lat="44.17909" lon="5.26088">
        <ele>1536.32422</ele>
        <time>2011-04-17T07:16:50+02:00</time>
      </trkpt>
      <trkpt lat="44.17917" lon="5.26089">
        <ele>1531.51733</ele>
        <time>2011-04-17T07:16:55+02:00</time>
      </trkpt>
      <trkpt lat="44.17921" lon="5.26087">
        <ele>1529.11401</ele>
        <time>2011-04-17T07:16:58+02:00</time>
      </trkpt>
      <trkpt lat="44.17928" lon="5.26087">
        <ele>1524.30762</ele>
        <time>2011-04-17T07:17:02+02:00</time>
      </trkpt>
      <trkpt lat="44.17932" lon="5.26086">
        <ele>1522.86572</ele>
        <time>2011-04-17T07:17:04+02:00</time>
      </trkpt>
      <trkpt lat="44.17939" lon="5.26085">
        <ele>1518.53979</ele>
        <time>2011-04-17T07:17:08+02:00</time>
      </trkpt>
      <trkpt lat="44.17948" lon="5.26086">
        <ele>1514.21362</ele>
        <time>2011-04-17T07:17:13+02:00</time>
      </trkpt>
      <trkpt lat="44.17957" lon="5.26085">
        <ele>1509.8877</ele>
        <time>2011-04-17T07:17:18+02:00</time>
      </trkpt>
      <trkpt lat="44.17966" lon="5.26085">
        <ele>1504.60059</ele>
        <time>2011-04-17T07:17:23+02:00</time>
      </trkpt>
      <trkpt lat="44.17967" lon="5.26084">
        <ele>1503.6394</ele>
        <time>2011-04-17T07:17:24+02:00</time>
      </trkpt>
      <trkpt lat="44.17975" lon="5.26086">
        <ele>1498.83252</ele>
        <time>2011-04-17T07:17:28+02:00</time>
      </trkpt>
      <trkpt lat="44.1798" lon="5.26085">
        <ele>1495.46802</ele>
        <time>2011-04-17T07:17:33+02:00</time>
      </trkpt>
      <trkpt lat="44.17982" lon="5.26085">
        <ele>1494.02612</ele>
        <time>2011-04-17T07:17:39+02:00</time>
      </trkpt>
      <trkpt lat="44.17991" lon="5.26084">
        <ele>1490.18091</ele>
        <time>2011-04-17T07:17:44+02:00</time>
      </trkpt>
      <trkpt lat="44.17994" lon="5.26083">
        <ele>1488.2583</ele>
        <time>2011-04-17T07:17:51+02:00</time>
      </trkpt>
      <trkpt lat="44.17994" lon="5.26084">
        <ele>1487.29688</ele>
        <time>2011-04-17T07:18:04+02:00</time>
      </trkpt>
      <trkpt lat="44.17993" lon="5.26084">
        <ele>1487.29688</ele>
        <time>2011-04-17T07:18:13+02:00</time>
      </trkpt>
      <trkpt lat="44.17992" lon="5.26084">
        <ele>1488.2583</ele>
        <time>2011-04-17T07:18:17+02:00</time>
      </trkpt>
      <trkpt lat="44.17992" lon="5.26082">
        <ele>1490.18091</ele>
        <time>2011-04-17T07:18:28+02:00</time>
      </trkpt>
      <trkpt lat="44.17994" lon="5.26082">
        <ele>1490.66138</ele>
        <time>2011-04-17T07:18:36+02:00</time>
      </trkpt>
      <trkpt lat="44.18001" lon="5.26079">
        <ele>1489.21948</ele>
        <time>2011-04-17T07:18:40+02:00</time>
      </trkpt>
      <trkpt lat="44.18011" lon="5.26084">
        <ele>1483.93213</ele>
        <time>2011-04-17T07:18:45+02:00</time>
      </trkpt>
      <trkpt lat="44.18022" lon="5.26081">
        <ele>1476.72241</ele>
        <time>2011-04-17T07:18:51+02:00</time>
      </trkpt>
      <trkpt lat="44.18034" lon="5.26081">
        <ele>1470.95459</ele>
        <time>2011-04-17T07:18:56+02:00</time>
      </trkpt>
      <trkpt lat="44.18043" lon="5.26082">
        <ele>1465.18652</ele>
        <time>2011-04-17T07:19:00+02:00</time>
      </trkpt>
      <trkpt lat="44.18058" lon="5.26081">
        <ele>1457.49609</ele>
        <time>2011-04-17T07:19:08+02:00</time>
      </trkpt>
      <trkpt lat="44.18068" lon="5.26081">
        <ele>1453.17017</ele>
        <time>2011-04-17T07:19:13+02:00</time>
      </trkpt>
      <trkpt lat="44.18076" lon="5.26078">
        <ele>1450.28613</ele>
        <time>2011-04-17T07:19:17+02:00</time>
      </trkpt>
      <trkpt lat="44.18085" lon="5.26069">
        <ele>1445.47949</ele>
        <time>2011-04-17T07:19:23+02:00</time>
      </trkpt>
      <trkpt lat="44.18086" lon="5.26067">
        <ele>1444.99878</ele>
        <time>2011-04-17T07:19:24+02:00</time>
      </trkpt>
      <trkpt lat="44.18094" lon="5.26052">
        <ele>1440.67285</ele>
        <time>2011-04-17T07:19:30+02:00</time>
      </trkpt>
      <trkpt lat="44.18096" lon="5.26047">
        <ele>1439.71167</ele>
        <time>2011-04-17T07:19:32+02:00</time>
      </trkpt>
      <trkpt lat="44.181" lon="5.26031">
        <ele>1437.30835</ele>
        <time>2011-04-17T07:19:37+02:00</time>
      </trkpt>
      <trkpt lat="44.18104" lon="5.26014">
        <ele>1434.42432</ele>
        <time>2011-04-17T07:19:41+02:00</time>
      </trkpt>
      <trkpt lat="44.18111" lon="5.25997">
        <ele>1432.021</ele>
        <time>2011-04-17T07:19:45+02:00</time>
      </trkpt>
      <trkpt lat="44.18119" lon="5.25986">
        <ele>1431.54028</ele>
        <time>2011-04-17T07:19:49+02:00</time>
      </trkpt>
      <trkpt lat="44.18131" lon="5.2598">
        <ele>1432.021</ele>
        <time>2011-04-17T07:19:54+02:00</time>
      </trkpt>
      <trkpt lat="44.18144" lon="5.25969">
        <ele>1432.50171</ele>
        <time>2011-04-17T07:20:00+02:00</time>
      </trkpt>
      <trkpt lat="44.18156" lon="5.25963">
        <ele>1431.54028</ele>
        <time>2011-04-17T07:20:04+02:00</time>
      </trkpt>
      <trkpt lat="44.1817" lon="5.25957">
        <ele>1428.65649</ele>
        <time>2011-04-17T07:20:09+02:00</time>
      </trkpt>
      <trkpt lat="44.18187" lon="5.25948">
        <ele>1424.33057</ele>
        <time>2011-04-17T07:20:15+02:00</time>
      </trkpt>
      <trkpt lat="44.18201" lon="5.25941">
        <ele>1420.00464</ele>
        <time>2011-04-17T07:20:20+02:00</time>
      </trkpt>
      <trkpt lat="44.18216" lon="5.25934">
        <ele>1416.63989</ele>
        <time>2011-04-17T07:20:25+02:00</time>
      </trkpt>
      <trkpt lat="44.1823" lon="5.25927">
        <ele>1412.79468</ele>
        <time>2011-04-17T07:20:30+02:00</time>
      </trkpt>
      <trkpt lat="44.18246" lon="5.25923">
        <ele>1409.43018</ele>
        <time>2011-04-17T07:20:35+02:00</time>
      </trkpt>
      <trkpt lat="44.18263" lon="5.25915">
        <ele>1407.98828</ele>
        <time>2011-04-17T07:20:41+02:00</time>
      </trkpt>
      <trkpt lat="44.18274" lon="5.25913">
        <ele>1407.98828</ele>
        <time>2011-04-17T07:20:45+02:00</time>
      </trkpt>
      <trkpt lat="44.18282" lon="5.25913">
        <ele>1407.98828</ele>
        <time>2011-04-17T07:20:49+02:00</time>
      </trkpt>
      <trkpt lat="44.1829" lon="5.25908">
        <ele>1407.98828</ele>
        <time>2011-04-17T07:20:55+02:00</time>
      </trkpt>
      <trkpt lat="44.18292" lon="5.25906">
        <ele>1407.50757</ele>
        <time>2011-04-17T07:20:59+02:00</time>
      </trkpt>
      <trkpt lat="44.18299" lon="5.25904">
        <ele>1408.94946</ele>
        <time>2011-04-17T07:21:04+02:00</time>
      </trkpt>
      <trkpt lat="44.18313" lon="5.25898">
        <ele>1411.35278</ele>
        <time>2011-04-17T07:21:14+02:00</time>
      </trkpt>
      <trkpt lat="44.18324" lon="5.25894">
        <ele>1414.23657</ele>
        <time>2011-04-17T07:21:23+02:00</time>
      </trkpt>
      <trkpt lat="44.18332" lon="5.2589">
        <ele>1417.12061</ele>
        <time>2011-04-17T07:21:32+02:00</time>
      </trkpt>
      <trkpt lat="44.18337" lon="5.25889">
        <ele>1418.5625</ele>
        <time>2011-04-17T07:21:36+02:00</time>
      </trkpt>
      <trkpt lat="44.18339" lon="5.25888">
        <ele>1419.04321</ele>
        <time>2011-04-17T07:21:39+02:00</time>
      </trkpt>
      <trkpt lat="44.18347" lon="5.25891">
        <ele>1420.96606</ele>
        <time>2011-04-17T07:21:46+02:00</time>
      </trkpt>
      <trkpt lat="44.18349" lon="5.25892">
        <ele>1421.44653</ele>
        <time>2011-04-17T07:21:49+02:00</time>
      </trkpt>
      <trkpt lat="44.18357" lon="5.25897">
        <ele>1422.40796</ele>
        <time>2011-04-17T07:21:57+02:00</time>
      </trkpt>
      <trkpt lat="44.18362" lon="5.25898">
        <ele>1423.36938</ele>
        <time>2011-04-17T07:22:02+02:00</time>
      </trkpt>
      <trkpt lat="44.18368" lon="5.25899">
        <ele>1424.33057</ele>
        <time>2011-04-17T07:22:08+02:00</time>
      </trkpt>
      <trkpt lat="44.18376" lon="5.25898">
        <ele>1425.77246</ele>
        <time>2011-04-17T07:22:16+02:00</time>
      </trkpt>
      <trkpt lat="44.18377" lon="5.25897">
        <ele>1426.25317</ele>
        <time>2011-04-17T07:22:21+02:00</time>
      </trkpt>
      <trkpt lat="44.18378" lon="5.25894">
        <ele>1426.73389</ele>
        <time>2011-04-17T07:22:24+02:00</time>
      </trkpt>
      <trkpt lat="44.18383" lon="5.25885">
        <ele>1427.69507</ele>
        <time>2011-04-17T07:22:30+02:00</time>
      </trkpt>
      <trkpt lat="44.18384" lon="5.25883">
        <ele>1428.17578</ele>
        <time>2011-04-17T07:22:32+02:00</time>
      </trkpt>
      <trkpt lat="44.18388" lon="5.25877">
        <ele>1428.17578</ele>
        <time>2011-04-17T07:22:37+02:00</time>
      </trkpt>
      <trkpt lat="44.18395" lon="5.25876">
        <ele>1427.2146</ele>
        <time>2011-04-17T07:22:43+02:00</time>
      </trkpt>
      <trkpt lat="44.18399" lon="5.25876">
        <ele>1425.77246</ele>
        <time>2011-04-17T07:22:50+02:00</time>
      </trkpt>
      <trkpt lat="44.18403" lon="5.25877">
        <ele>1424.33057</ele>
        <time>2011-04-17T07:22:53+02:00</time>
      </trkpt>
      <trkpt lat="44.18411" lon="5.25877">
        <ele>1423.36938</ele>
        <time>2011-04-17T07:22:58+02:00</time>
      </trkpt>
      <trkpt lat="44.18418" lon="5.25878">
        <ele>1422.40796</ele>
        <time>2011-04-17T07:23:02+02:00</time>
      </trkpt>
      <trkpt lat="44.18425" lon="5.25879">
        <ele>1422.40796</ele>
        <time>2011-04-17T07:23:07+02:00</time>
      </trkpt>
      <trkpt lat="44.18425" lon="5.25879">
        <ele>1422.40796</ele>
        <time>2011-04-17T07:23:14+02:00</time>
      </trkpt>
      <trkpt lat="44.18425" lon="5.25877">
        <ele>1420.96606</ele>
        <time>2011-04-17T07:23:25+02:00</time>
      </trkpt>
      <trkpt lat="44.18434" lon="5.2586">
        <ele>1420.00464</ele>
        <time>2011-04-17T07:23:35+02:00</time>
      </trkpt>
      <trkpt lat="44.18437" lon="5.25854">
        <ele>1419.52393</ele>
        <time>2011-04-17T07:23:39+02:00</time>
      </trkpt>
      <trkpt lat="44.18443" lon="5.25847">
        <ele>1419.04321</ele>
        <time>2011-04-17T07:23:45+02:00</time>
      </trkpt>
      <trkpt lat="44.18444" lon="5.25846">
        <ele>1419.04321</ele>
        <time>2011-04-17T07:23:50+02:00</time>
      </trkpt>
      <trkpt lat="44.18444" lon="5.25845">
        <ele>1419.52393</ele>
        <time>2011-04-17T07:23:51+02:00</time>
      </trkpt>
      <trkpt lat="44.18442" lon="5.25829">
        <ele>1420.96606</ele>
        <time>2011-04-17T07:23:58+02:00</time>
      </trkpt>
      <trkpt lat="44.1844" lon="5.25817">
        <ele>1422.40796</ele>
        <time>2011-04-17T07:24:03+02:00</time>
      </trkpt>
      <trkpt lat="44.18438" lon="5.2581">
        <ele>1422.88867</ele>
        <time>2011-04-17T07:24:08+02:00</time>
      </trkpt>
      <trkpt lat="44.18436" lon="5.25798">
        <ele>1422.88867</ele>
        <time>2011-04-17T07:24:14+02:00</time>
      </trkpt>
      <trkpt lat="44.18433" lon="5.2578">
        <ele>1422.40796</ele>
        <time>2011-04-17T07:24:21+02:00</time>
      </trkpt>
      <trkpt lat="44.18427" lon="5.25764">
        <ele>1420.00464</ele>
        <time>2011-04-17T07:24:26+02:00</time>
      </trkpt>
      <trkpt lat="44.18423" lon="5.25745">
        <ele>1416.15918</ele>
        <time>2011-04-17T07:24:33+02:00</time>
      </trkpt>
      <trkpt lat="44.18422" lon="5.25743">
        <ele>1415.67871</ele>
        <time>2011-04-17T07:24:34+02:00</time>
      </trkpt>
      <trkpt lat="44.18426" lon="5.25734">
        <ele>1414.23657</ele>
        <time>2011-04-17T07:24:39+02:00</time>
      </trkpt>
      <trkpt lat="44.18428" lon="5.25733">
        <ele>1414.23657</ele>
        <time>2011-04-17T07:24:40+02:00</time>
      </trkpt>
      <trkpt lat="44.18433" lon="5.25733">
        <ele>1414.23657</ele>
        <time>2011-04-17T07:24:45+02:00</time>
      </trkpt>
      <trkpt lat="44.18436" lon="5.25732">
        <ele>1414.23657</ele>
        <time>2011-04-17T07:24:47+02:00</time>
      </trkpt>
      <trkpt lat="44.18445" lon="5.25731">
        <ele>1413.27539</ele>
        <time>2011-04-17T07:24:52+02:00</time>
      </trkpt>
      <trkpt lat="44.18449" lon="5.25729">
        <ele>1412.79468</ele>
        <time>2011-04-17T07:24:55+02:00</time>
      </trkpt>
      <trkpt lat="44.18458" lon="5.25727">
        <ele>1411.35278</ele>
        <time>2011-04-17T07:25:00+02:00</time>
      </trkpt>
      <trkpt lat="44.18461" lon="5.25725">
        <ele>1410.87207</ele>
        <time>2011-04-17T07:25:01+02:00</time>
      </trkpt>
      <trkpt lat="44.18469" lon="5.25711">
        <ele>1408.46875</ele>
        <time>2011-04-17T07:25:06+02:00</time>
      </trkpt>
      <trkpt lat="44.18477" lon="5.25703">
        <ele>1405.58496</ele>
        <time>2011-04-17T07:25:10+02:00</time>
      </trkpt>
      <trkpt lat="44.18485" lon="5.25698">
        <ele>1404.14307</ele>
        <time>2011-04-17T07:25:15+02:00</time>
      </trkpt>
      <trkpt lat="44.1849" lon="5.25702">
        <ele>1403.66211</ele>
        <time>2011-04-17T07:25:18+02:00</time>
      </trkpt>
      <trkpt lat="44.18491" lon="5.25703">
        <ele>1404.62354</ele>
        <time>2011-04-17T07:25:21+02:00</time>
      </trkpt>
      <trkpt lat="44.18492" lon="5.25705">
        <ele>1405.58496</ele>
        <time>2011-04-17T07:25:27+02:00</time>
      </trkpt>
      <trkpt lat="44.18492" lon="5.25707">
        <ele>1405.58496</ele>
        <time>2011-04-17T07:25:33+02:00</time>
      </trkpt>
      <trkpt lat="44.18492" lon="5.25711">
        <ele>1405.58496</ele>
        <time>2011-04-17T07:25:38+02:00</time>
      </trkpt>
      <trkpt lat="44.18491" lon="5.25714">
        <ele>1404.62354</ele>
        <time>2011-04-17T07:25:45+02:00</time>
      </trkpt>
      <trkpt lat="44.18491" lon="5.25723">
        <ele>1402.21997</ele>
        <time>2011-04-17T07:25:50+02:00</time>
      </trkpt>
      <trkpt lat="44.18491" lon="5.25727">
        <ele>1401.7395</ele>
        <time>2011-04-17T07:25:53+02:00</time>
      </trkpt>
      <trkpt lat="44.18498" lon="5.25735">
        <ele>1400.29761</ele>
        <time>2011-04-17T07:25:58+02:00</time>
      </trkpt>
      <trkpt lat="44.18501" lon="5.25744">
        <ele>1399.81689</ele>
        <time>2011-04-17T07:26:02+02:00</time>
      </trkpt>
      <trkpt lat="44.18505" lon="5.25754">
        <ele>1400.29761</ele>
        <time>2011-04-17T07:26:06+02:00</time>
      </trkpt>
      <trkpt lat="44.18512" lon="5.25776">
        <ele>1399.81689</ele>
        <time>2011-04-17T07:26:13+02:00</time>
      </trkpt>
      <trkpt lat="44.18513" lon="5.25788">
        <ele>1400.29761</ele>
        <time>2011-04-17T07:26:18+02:00</time>
      </trkpt>
      <trkpt lat="44.18517" lon="5.25806">
        <ele>1401.25879</ele>
        <time>2011-04-17T07:26:23+02:00</time>
      </trkpt>
      <trkpt lat="44.18518" lon="5.25821">
        <ele>1401.7395</ele>
        <time>2011-04-17T07:26:28+02:00</time>
      </trkpt>
      <trkpt lat="44.18519" lon="5.25824">
        <ele>1402.21997</ele>
        <time>2011-04-17T07:26:29+02:00</time>
      </trkpt>
      <trkpt lat="44.18529" lon="5.2583">
        <ele>1403.1814</ele>
        <time>2011-04-17T07:26:34+02:00</time>
      </trkpt>
      <trkpt lat="44.18533" lon="5.25831">
        <ele>1403.66211</ele>
        <time>2011-04-17T07:26:37+02:00</time>
      </trkpt>
      <trkpt lat="44.18535" lon="5.25835">
        <ele>1404.14307</ele>
        <time>2011-04-17T07:26:42+02:00</time>
      </trkpt>
      <trkpt lat="44.18538" lon="5.25837">
        <ele>1404.14307</ele>
        <time>2011-04-17T07:26:47+02:00</time>
      </trkpt>
      <trkpt lat="44.18543" lon="5.25841">
        <ele>1405.58496</ele>
        <time>2011-04-17T07:26:53+02:00</time>
      </trkpt>
      <trkpt lat="44.18548" lon="5.25846">
        <ele>1406.06543</ele>
        <time>2011-04-17T07:26:56+02:00</time>
      </trkpt>
      <trkpt lat="44.18556" lon="5.25854">
        <ele>1404.14307</ele>
        <time>2011-04-17T07:27:00+02:00</time>
      </trkpt>
      <trkpt lat="44.18558" lon="5.25857">
        <ele>1403.66211</ele>
        <time>2011-04-17T07:27:02+02:00</time>
      </trkpt>
      <trkpt lat="44.18564" lon="5.25863">
        <ele>1401.7395</ele>
        <time>2011-04-17T07:27:08+02:00</time>
      </trkpt>
      <trkpt lat="44.18571" lon="5.25865">
        <ele>1400.29761</ele>
        <time>2011-04-17T07:27:13+02:00</time>
      </trkpt>
      <trkpt lat="44.18573" lon="5.25867">
        <ele>1398.85547</ele>
        <time>2011-04-17T07:27:16+02:00</time>
      </trkpt>
      <trkpt lat="44.18576" lon="5.25873">
        <ele>1397.41357</ele>
        <time>2011-04-17T07:27:21+02:00</time>
      </trkpt>
      <trkpt lat="44.18578" lon="5.25875">
        <ele>1396.93286</ele>
        <time>2011-04-17T07:27:23+02:00</time>
      </trkpt>
      <trkpt lat="44.18582" lon="5.25879">
        <ele>1396.45239</ele>
        <time>2011-04-17T07:27:29+02:00</time>
      </trkpt>
      <trkpt lat="44.18582" lon="5.25882">
        <ele>1396.45239</ele>
        <time>2011-04-17T07:27:34+02:00</time>
      </trkpt>
      <trkpt lat="44.18582" lon="5.25891">
        <ele>1396.93286</ele>
        <time>2011-04-17T07:27:38+02:00</time>
      </trkpt>
      <trkpt lat="44.18586" lon="5.25903">
        <ele>1396.45239</ele>
        <time>2011-04-17T07:27:43+02:00</time>
      </trkpt>
      <trkpt lat="44.18589" lon="5.25911">
        <ele>1397.41357</ele>
        <time>2011-04-17T07:27:48+02:00</time>
      </trkpt>
      <trkpt lat="44.18592" lon="5.25918">
        <ele>1398.37476</ele>
        <time>2011-04-17T07:27:53+02:00</time>
      </trkpt>
      <trkpt lat="44.18595" lon="5.25922">
        <ele>1398.85547</ele>
        <time>2011-04-17T07:27:56+02:00</time>
      </trkpt>
      <trkpt lat="44.18599" lon="5.25928">
        <ele>1399.81689</ele>
        <time>2011-04-17T07:28:01+02:00</time>
      </trkpt>
      <trkpt lat="44.18601" lon="5.25934">
        <ele>1399.81689</ele>
        <time>2011-04-17T07:28:05+02:00</time>
      </trkpt>
      <trkpt lat="44.18604" lon="5.25939">
        <ele>1400.29761</ele>
        <time>2011-04-17T07:28:10+02:00</time>
      </trkpt>
      <trkpt lat="44.18607" lon="5.25946">
        <ele>1400.29761</ele>
        <time>2011-04-17T07:28:15+02:00</time>
      </trkpt>
      <trkpt lat="44.18608" lon="5.2595">
        <ele>1400.29761</ele>
        <time>2011-04-17T07:28:23+02:00</time>
      </trkpt>
      <trkpt lat="44.1861" lon="5.25957">
        <ele>1399.81689</ele>
        <time>2011-04-17T07:28:28+02:00</time>
      </trkpt>
      <trkpt lat="44.18611" lon="5.25962">
        <ele>1399.81689</ele>
        <time>2011-04-17T07:28:33+02:00</time>
      </trkpt>
      <trkpt lat="44.18612" lon="5.25967">
        <ele>1400.77808</ele>
        <time>2011-04-17T07:28:39+02:00</time>
      </trkpt>
      <trkpt lat="44.18615" lon="5.25968">
        <ele>1401.7395</ele>
        <time>2011-04-17T07:28:43+02:00</time>
      </trkpt>
      <trkpt lat="44.18617" lon="5.25972">
        <ele>1401.25879</ele>
        <time>2011-04-17T07:28:47+02:00</time>
      </trkpt>
      <trkpt lat="44.18617" lon="5.25977">
        <ele>1401.7395</ele>
        <time>2011-04-17T07:28:52+02:00</time>
      </trkpt>
      <trkpt lat="44.18617" lon="5.25981">
        <ele>1402.21997</ele>
        <time>2011-04-17T07:28:56+02:00</time>
      </trkpt>
      <trkpt lat="44.18624" lon="5.25986">
        <ele>1404.14307</ele>
        <time>2011-04-17T07:29:02+02:00</time>
      </trkpt>
      <trkpt lat="44.18625" lon="5.25988">
        <ele>1403.66211</ele>
        <time>2011-04-17T07:29:03+02:00</time>
      </trkpt>
      <trkpt lat="44.18632" lon="5.25998">
        <ele>1401.25879</ele>
        <time>2011-04-17T07:29:09+02:00</time>
      </trkpt>
      <trkpt lat="44.18633" lon="5.25998">
        <ele>1401.7395</ele>
        <time>2011-04-17T07:29:10+02:00</time>
      </trkpt>
      <trkpt lat="44.18639" lon="5.26009">
        <ele>1399.33618</ele>
        <time>2011-04-17T07:29:17+02:00</time>
      </trkpt>
      <trkpt lat="44.18641" lon="5.26013">
        <ele>1398.37476</ele>
        <time>2011-04-17T07:29:19+02:00</time>
      </trkpt>
      <trkpt lat="44.18649" lon="5.26012">
        <ele>1397.41357</ele>
        <time>2011-04-17T07:29:25+02:00</time>
      </trkpt>
      <trkpt lat="44.18651" lon="5.26011">
        <ele>1397.41357</ele>
        <time>2011-04-17T07:29:26+02:00</time>
      </trkpt>
      <trkpt lat="44.18655" lon="5.26008">
        <ele>1396.93286</ele>
        <time>2011-04-17T07:29:28+02:00</time>
      </trkpt>
      <trkpt lat="44.18661" lon="5.26005">
        <ele>1394.04907</ele>
        <time>2011-04-17T07:29:33+02:00</time>
      </trkpt>
      <trkpt lat="44.18667" lon="5.26003">
        <ele>1392.60718</ele>
        <time>2011-04-17T07:29:37+02:00</time>
      </trkpt>
      <trkpt lat="44.18674" lon="5.26003">
        <ele>1389.72314</ele>
        <time>2011-04-17T07:29:43+02:00</time>
      </trkpt>
      <trkpt lat="44.18676" lon="5.26003">
        <ele>1388.76196</ele>
        <time>2011-04-17T07:29:46+02:00</time>
      </trkpt>
      <trkpt lat="44.18685" lon="5.26004">
        <ele>1389.72314</ele>
        <time>2011-04-17T07:29:51+02:00</time>
      </trkpt>
      <trkpt lat="44.18693" lon="5.26006">
        <ele>1390.20386</ele>
        <time>2011-04-17T07:29:55+02:00</time>
      </trkpt>
      <trkpt lat="44.18699" lon="5.26008">
        <ele>1390.20386</ele>
        <time>2011-04-17T07:29:59+02:00</time>
      </trkpt>
      <trkpt lat="44.1871" lon="5.26013">
        <ele>1388.76196</ele>
        <time>2011-04-17T07:30:04+02:00</time>
      </trkpt>
      <trkpt lat="44.1871" lon="5.26013">
        <ele>1390.68433</ele>
        <time>2011-04-17T07:30:14+02:00</time>
      </trkpt>
      <trkpt lat="44.18706" lon="5.26015">
        <ele>1390.20386</ele>
        <time>2011-04-17T07:30:18+02:00</time>
      </trkpt>
      <trkpt lat="44.18701" lon="5.26018">
        <ele>1390.20386</ele>
        <time>2011-04-17T07:30:22+02:00</time>
      </trkpt>
      <trkpt lat="44.18699" lon="5.2602">
        <ele>1391.16504</ele>
        <time>2011-04-17T07:30:27+02:00</time>
      </trkpt>
      <trkpt lat="44.18698" lon="5.26021">
        <ele>1395.49097</ele>
        <time>2011-04-17T07:30:37+02:00</time>
      </trkpt>
      <trkpt lat="44.18696" lon="5.26025">
        <ele>1394.52954</ele>
        <time>2011-04-17T07:30:43+02:00</time>
      </trkpt>
      <trkpt lat="44.18694" lon="5.26028">
        <ele>1394.52954</ele>
        <time>2011-04-17T07:30:46+02:00</time>
      </trkpt>
      <trkpt lat="44.1869" lon="5.26045">
        <ele>1393.56836</ele>
        <time>2011-04-17T07:30:51+02:00</time>
      </trkpt>
      <trkpt lat="44.1869" lon="5.26061">
        <ele>1391.16504</ele>
        <time>2011-04-17T07:30:56+02:00</time>
      </trkpt>
      <trkpt lat="44.18692" lon="5.26072">
        <ele>1388.76196</ele>
        <time>2011-04-17T07:31:00+02:00</time>
      </trkpt>
      <trkpt lat="44.1869" lon="5.26083">
        <ele>1387.31958</ele>
        <time>2011-04-17T07:31:04+02:00</time>
      </trkpt>
      <trkpt lat="44.18689" lon="5.26091">
        <ele>1384.43579</ele>
        <time>2011-04-17T07:31:08+02:00</time>
      </trkpt>
      <trkpt lat="44.18691" lon="5.261">
        <ele>1382.99365</ele>
        <time>2011-04-17T07:31:13+02:00</time>
      </trkpt>
      <trkpt lat="44.18693" lon="5.26107">
        <ele>1380.10986</ele>
        <time>2011-04-17T07:31:17+02:00</time>
      </trkpt>
      <trkpt lat="44.18692" lon="5.26115">
        <ele>1376.26465</ele>
        <time>2011-04-17T07:31:22+02:00</time>
      </trkpt>
      <trkpt lat="44.18691" lon="5.26121">
        <ele>1376.26465</ele>
        <time>2011-04-17T07:31:24+02:00</time>
      </trkpt>
      <trkpt lat="44.1869" lon="5.26137">
        <ele>1378.18726</ele>
        <time>2011-04-17T07:31:30+02:00</time>
      </trkpt>
      <trkpt lat="44.1869" lon="5.26149">
        <ele>1375.30322</ele>
        <time>2011-04-17T07:31:35+02:00</time>
      </trkpt>
      <trkpt lat="44.18685" lon="5.26158">
        <ele>1372.90015</ele>
        <time>2011-04-17T07:31:39+02:00</time>
      </trkpt>
      <trkpt lat="44.18684" lon="5.26162">
        <ele>1371.93848</ele>
        <time>2011-04-17T07:31:41+02:00</time>
      </trkpt>
      <trkpt lat="44.1868" lon="5.26171">
        <ele>1370.49658</ele>
        <time>2011-04-17T07:31:47+02:00</time>
      </trkpt>
      <trkpt lat="44.18675" lon="5.26179">
        <ele>1366.17065</ele>
        <time>2011-04-17T07:31:54+02:00</time>
      </trkpt>
      <trkpt lat="44.18677" lon="5.26187">
        <ele>1363.76733</ele>
        <time>2011-04-17T07:31:58+02:00</time>
      </trkpt>
      <trkpt lat="44.18676" lon="5.26193">
        <ele>1362.80615</ele>
        <time>2011-04-17T07:32:00+02:00</time>
      </trkpt>
      <trkpt lat="44.18667" lon="5.26207">
        <ele>1360.40283</ele>
        <time>2011-04-17T07:32:05+02:00</time>
      </trkpt>
      <trkpt lat="44.18667" lon="5.26208">
        <ele>1359.92212</ele>
        <time>2011-04-17T07:32:09+02:00</time>
      </trkpt>
      <trkpt lat="44.18668" lon="5.2621">
        <ele>1358.96094</ele>
        <time>2011-04-17T07:32:21+02:00</time>
      </trkpt>
      <trkpt lat="44.18659" lon="5.26223">
        <ele>1358.48022</ele>
        <time>2011-04-17T07:32:26+02:00</time>
      </trkpt>
      <trkpt lat="44.18649" lon="5.26244">
        <ele>1357.51904</ele>
        <time>2011-04-17T07:32:32+02:00</time>
      </trkpt>
      <trkpt lat="44.18641" lon="5.26262">
        <ele>1356.55762</ele>
        <time>2011-04-17T07:32:37+02:00</time>
      </trkpt>
      <trkpt lat="44.18631" lon="5.26284">
        <ele>1357.99976</ele>
        <time>2011-04-17T07:32:42+02:00</time>
      </trkpt>
      <trkpt lat="44.18626" lon="5.263">
        <ele>1357.51904</ele>
        <time>2011-04-17T07:32:46+02:00</time>
      </trkpt>
      <trkpt lat="44.18615" lon="5.26313">
        <ele>1356.55762</ele>
        <time>2011-04-17T07:32:50+02:00</time>
      </trkpt>
      <trkpt lat="44.186" lon="5.2632">
        <ele>1355.11548</ele>
        <time>2011-04-17T07:32:55+02:00</time>
      </trkpt>
      <trkpt lat="44.18586" lon="5.26323">
        <ele>1353.67358</ele>
        <time>2011-04-17T07:33:00+02:00</time>
      </trkpt>
      <trkpt lat="44.18571" lon="5.26327">
        <ele>1353.19287</ele>
        <time>2011-04-17T07:33:05+02:00</time>
      </trkpt>
      <trkpt lat="44.18561" lon="5.26327">
        <ele>1353.67358</ele>
        <time>2011-04-17T07:33:09+02:00</time>
      </trkpt>
      <trkpt lat="44.18552" lon="5.26325">
        <ele>1356.0769</ele>
        <time>2011-04-17T07:33:14+02:00</time>
      </trkpt>
      <trkpt lat="44.18543" lon="5.2632">
        <ele>1357.51904</ele>
        <time>2011-04-17T07:33:21+02:00</time>
      </trkpt>
      <trkpt lat="44.18537" lon="5.26319">
        <ele>1360.88354</ele>
        <time>2011-04-17T07:33:26+02:00</time>
      </trkpt>
      <trkpt lat="44.18532" lon="5.26327">
        <ele>1364.24805</ele>
        <time>2011-04-17T07:33:31+02:00</time>
      </trkpt>
      <trkpt lat="44.18528" lon="5.26339">
        <ele>1368.09326</ele>
        <time>2011-04-17T07:33:37+02:00</time>
      </trkpt>
      <trkpt lat="44.18524" lon="5.2635">
        <ele>1369.05469</ele>
        <time>2011-04-17T07:33:43+02:00</time>
      </trkpt>
      <trkpt lat="44.18522" lon="5.26356">
        <ele>1369.05469</ele>
        <time>2011-04-17T07:33:46+02:00</time>
      </trkpt>
      <trkpt lat="44.1852" lon="5.26359">
        <ele>1369.05469</ele>
        <time>2011-04-17T07:33:48+02:00</time>
      </trkpt>
      <trkpt lat="44.18519" lon="5.26363">
        <ele>1368.57397</ele>
        <time>2011-04-17T07:33:50+02:00</time>
      </trkpt>
      <trkpt lat="44.18521" lon="5.26377">
        <ele>1366.17065</ele>
        <time>2011-04-17T07:33:55+02:00</time>
      </trkpt>
      <trkpt lat="44.18528" lon="5.26389">
        <ele>1364.72876</ele>
        <time>2011-04-17T07:33:59+02:00</time>
      </trkpt>
      <trkpt lat="44.18536" lon="5.26402">
        <ele>1363.28687</ele>
        <time>2011-04-17T07:34:03+02:00</time>
      </trkpt>
      <trkpt lat="44.18548" lon="5.26417">
        <ele>1361.84497</ele>
        <time>2011-04-17T07:34:08+02:00</time>
      </trkpt>
      <trkpt lat="44.18558" lon="5.26427">
        <ele>1361.36426</ele>
        <time>2011-04-17T07:34:12+02:00</time>
      </trkpt>
      <trkpt lat="44.18572" lon="5.26425">
        <ele>1359.92212</ele>
        <time>2011-04-17T07:34:18+02:00</time>
      </trkpt>
      <trkpt lat="44.1858" lon="5.26426">
        <ele>1359.92212</ele>
        <time>2011-04-17T07:34:23+02:00</time>
      </trkpt>
      <trkpt lat="44.18583" lon="5.26426">
        <ele>1360.40283</ele>
        <time>2011-04-17T07:34:27+02:00</time>
      </trkpt>
      <trkpt lat="44.18591" lon="5.26433">
        <ele>1360.40283</ele>
        <time>2011-04-17T07:34:31+02:00</time>
      </trkpt>
      <trkpt lat="44.18596" lon="5.26436">
        <ele>1360.40283</ele>
        <time>2011-04-17T07:34:34+02:00</time>
      </trkpt>
      <trkpt lat="44.18599" lon="5.26442">
        <ele>1360.40283</ele>
        <time>2011-04-17T07:34:40+02:00</time>
      </trkpt>
      <trkpt lat="44.18603" lon="5.26442">
        <ele>1358.48022</ele>
        <time>2011-04-17T07:34:44+02:00</time>
      </trkpt>
      <trkpt lat="44.18608" lon="5.26449">
        <ele>1357.99976</ele>
        <time>2011-04-17T07:34:50+02:00</time>
      </trkpt>
      <trkpt lat="44.18609" lon="5.2645">
        <ele>1360.88354</ele>
        <time>2011-04-17T07:34:58+02:00</time>
      </trkpt>
      <trkpt lat="44.18605" lon="5.26447">
        <ele>1357.99976</ele>
        <time>2011-04-17T07:35:16+02:00</time>
      </trkpt>
      <trkpt lat="44.18606" lon="5.26447">
        <ele>1356.0769</ele>
        <time>2011-04-17T07:35:27+02:00</time>
      </trkpt>
      <trkpt lat="44.18604" lon="5.26448">
        <ele>1357.51904</ele>
        <time>2011-04-17T07:35:36+02:00</time>
      </trkpt>
      <trkpt lat="44.186" lon="5.26444">
        <ele>1357.99976</ele>
        <time>2011-04-17T07:35:41+02:00</time>
      </trkpt>
      <trkpt lat="44.18597" lon="5.26445">
        <ele>1359.44165</ele>
        <time>2011-04-17T07:35:46+02:00</time>
      </trkpt>
      <trkpt lat="44.18596" lon="5.26446">
        <ele>1363.28687</ele>
        <time>2011-04-17T07:35:51+02:00</time>
      </trkpt>
      <trkpt lat="44.18594" lon="5.26448">
        <ele>1363.28687</ele>
        <time>2011-04-17T07:35:57+02:00</time>
      </trkpt>
      <trkpt lat="44.1859" lon="5.26446">
        <ele>1362.32544</ele>
        <time>2011-04-17T07:36:03+02:00</time>
      </trkpt>
      <trkpt lat="44.18585" lon="5.26447">
        <ele>1361.84497</ele>
        <time>2011-04-17T07:36:12+02:00</time>
      </trkpt>
      <trkpt lat="44.18581" lon="5.2645">
        <ele>1363.76733</ele>
        <time>2011-04-17T07:36:16+02:00</time>
      </trkpt>
      <trkpt lat="44.18581" lon="5.26458">
        <ele>1362.80615</ele>
        <time>2011-04-17T07:36:21+02:00</time>
      </trkpt>
      <trkpt lat="44.18584" lon="5.26471">
        <ele>1362.80615</ele>
        <time>2011-04-17T07:36:26+02:00</time>
      </trkpt>
      <trkpt lat="44.18583" lon="5.26494">
        <ele>1362.80615</ele>
        <time>2011-04-17T07:36:32+02:00</time>
      </trkpt>
      <trkpt lat="44.18583" lon="5.265">
        <ele>1364.24805</ele>
        <time>2011-04-17T07:36:34+02:00</time>
      </trkpt>
      <trkpt lat="44.18585" lon="5.26505">
        <ele>1364.24805</ele>
        <time>2011-04-17T07:36:38+02:00</time>
      </trkpt>
      <trkpt lat="44.18589" lon="5.26508">
        <ele>1362.80615</ele>
        <time>2011-04-17T07:36:43+02:00</time>
      </trkpt>
      <trkpt lat="44.18591" lon="5.26508">
        <ele>1362.32544</ele>
        <time>2011-04-17T07:36:44+02:00</time>
      </trkpt>
      <trkpt lat="44.18601" lon="5.26511">
        <ele>1361.84497</ele>
        <time>2011-04-17T07:36:52+02:00</time>
      </trkpt>
      <trkpt lat="44.18603" lon="5.26511">
        <ele>1361.36426</ele>
        <time>2011-04-17T07:36:55+02:00</time>
      </trkpt>
      <trkpt lat="44.1861" lon="5.26514">
        <ele>1358.96094</ele>
        <time>2011-04-17T07:37:00+02:00</time>
      </trkpt>
      <trkpt lat="44.18616" lon="5.26523">
        <ele>1355.11548</ele>
        <time>2011-04-17T07:37:07+02:00</time>
      </trkpt>
      <trkpt lat="44.18621" lon="5.26526">
        <ele>1354.63477</ele>
        <time>2011-04-17T07:37:10+02:00</time>
      </trkpt>
      <trkpt lat="44.18629" lon="5.26527">
        <ele>1357.51904</ele>
        <time>2011-04-17T07:37:16+02:00</time>
      </trkpt>
      <trkpt lat="44.1863" lon="5.26529">
        <ele>1357.51904</ele>
        <time>2011-04-17T07:37:18+02:00</time>
      </trkpt>
      <trkpt lat="44.18637" lon="5.26532">
        <ele>1354.63477</ele>
        <time>2011-04-17T07:37:22+02:00</time>
      </trkpt>
      <trkpt lat="44.18639" lon="5.26532">
        <ele>1354.1543</ele>
        <time>2011-04-17T07:37:24+02:00</time>
      </trkpt>
      <trkpt lat="44.18639" lon="5.26534">
        <ele>1353.67358</ele>
        <time>2011-04-17T07:37:26+02:00</time>
      </trkpt>
      <trkpt lat="44.18642" lon="5.26536">
        <ele>1351.27026</ele>
        <time>2011-04-17T07:37:33+02:00</time>
      </trkpt>
      <trkpt lat="44.18643" lon="5.26537">
        <ele>1351.75098</ele>
        <time>2011-04-17T07:37:37+02:00</time>
      </trkpt>
      <trkpt lat="44.18644" lon="5.26543">
        <ele>1351.75098</ele>
        <time>2011-04-17T07:37:46+02:00</time>
      </trkpt>
      <trkpt lat="44.18642" lon="5.26544">
        <ele>1351.75098</ele>
        <time>2011-04-17T07:37:51+02:00</time>
      </trkpt>
      <trkpt lat="44.18641" lon="5.26545">
        <ele>1352.71216</ele>
        <time>2011-04-17T07:37:52+02:00</time>
      </trkpt>
      <trkpt lat="44.18638" lon="5.26549">
        <ele>1352.71216</ele>
        <time>2011-04-17T07:37:58+02:00</time>
      </trkpt>
      <trkpt lat="44.18635" lon="5.26552">
        <ele>1355.59619</ele>
        <time>2011-04-17T07:38:04+02:00</time>
      </trkpt>
      <trkpt lat="44.18633" lon="5.26559">
        <ele>1356.55762</ele>
        <time>2011-04-17T07:38:10+02:00</time>
      </trkpt>
      <trkpt lat="44.18629" lon="5.26568">
        <ele>1357.51904</ele>
        <time>2011-04-17T07:38:16+02:00</time>
      </trkpt>
      <trkpt lat="44.18626" lon="5.26571">
        <ele>1357.03833</ele>
        <time>2011-04-17T07:38:21+02:00</time>
      </trkpt>
      <trkpt lat="44.18627" lon="5.26578">
        <ele>1357.99976</ele>
        <time>2011-04-17T07:38:28+02:00</time>
      </trkpt>
      <trkpt lat="44.18627" lon="5.26582">
        <ele>1358.96094</ele>
        <time>2011-04-17T07:38:32+02:00</time>
      </trkpt>
      <trkpt lat="44.18624" lon="5.26591">
        <ele>1359.44165</ele>
        <time>2011-04-17T07:38:37+02:00</time>
      </trkpt>
      <trkpt lat="44.18624" lon="5.26592">
        <ele>1359.92212</ele>
        <time>2011-04-17T07:38:39+02:00</time>
      </trkpt>
      <trkpt lat="44.1862" lon="5.26603">
        <ele>1360.40283</ele>
        <time>2011-04-17T07:38:45+02:00</time>
      </trkpt>
      <trkpt lat="44.1862" lon="5.26605">
        <ele>1360.40283</ele>
        <time>2011-04-17T07:38:47+02:00</time>
      </trkpt>
      <trkpt lat="44.18618" lon="5.26613">
        <ele>1362.32544</ele>
        <time>2011-04-17T07:38:52+02:00</time>
      </trkpt>
      <trkpt lat="44.18617" lon="5.26623">
        <ele>1361.36426</ele>
        <time>2011-04-17T07:38:58+02:00</time>
      </trkpt>
      <trkpt lat="44.18616" lon="5.26625">
        <ele>1361.84497</ele>
        <time>2011-04-17T07:38:59+02:00</time>
      </trkpt>
      <trkpt lat="44.18615" lon="5.26633">
        <ele>1360.40283</ele>
        <time>2011-04-17T07:39:03+02:00</time>
      </trkpt>
      <trkpt lat="44.18614" lon="5.26641">
        <ele>1360.40283</ele>
        <time>2011-04-17T07:39:08+02:00</time>
      </trkpt>
      <trkpt lat="44.18613" lon="5.26642">
        <ele>1360.88354</ele>
        <time>2011-04-17T07:39:09+02:00</time>
      </trkpt>
      <trkpt lat="44.18609" lon="5.26645">
        <ele>1360.88354</ele>
        <time>2011-04-17T07:39:13+02:00</time>
      </trkpt>
      <trkpt lat="44.18611" lon="5.26652">
        <ele>1363.76733</ele>
        <time>2011-04-17T07:39:18+02:00</time>
      </trkpt>
      <trkpt lat="44.18614" lon="5.26663">
        <ele>1365.69019</ele>
        <time>2011-04-17T07:39:23+02:00</time>
      </trkpt>
      <trkpt lat="44.18614" lon="5.26677">
        <ele>1366.17065</ele>
        <time>2011-04-17T07:39:30+02:00</time>
      </trkpt>
      <trkpt lat="44.18613" lon="5.26683">
        <ele>1366.17065</ele>
        <time>2011-04-17T07:39:33+02:00</time>
      </trkpt>
      <trkpt lat="44.18609" lon="5.26694">
        <ele>1367.13208</ele>
        <time>2011-04-17T07:39:39+02:00</time>
      </trkpt>
      <trkpt lat="44.18603" lon="5.26701">
        <ele>1369.5354</ele>
        <time>2011-04-17T07:39:44+02:00</time>
      </trkpt>
      <trkpt lat="44.18592" lon="5.26704">
        <ele>1370.49658</ele>
        <time>2011-04-17T07:39:51+02:00</time>
      </trkpt>
      <trkpt lat="44.18584" lon="5.26705">
        <ele>1370.97729</ele>
        <time>2011-04-17T07:39:56+02:00</time>
      </trkpt>
      <trkpt lat="44.18573" lon="5.26707">
        <ele>1369.5354</ele>
        <time>2011-04-17T07:40:03+02:00</time>
      </trkpt>
      <trkpt lat="44.18567" lon="5.26711">
        <ele>1369.5354</ele>
        <time>2011-04-17T07:40:07+02:00</time>
      </trkpt>
      <trkpt lat="44.1856" lon="5.26717">
        <ele>1371.93848</ele>
        <time>2011-04-17T07:40:11+02:00</time>
      </trkpt>
      <trkpt lat="44.18553" lon="5.26721">
        <ele>1372.90015</ele>
        <time>2011-04-17T07:40:16+02:00</time>
      </trkpt>
      <trkpt lat="44.18547" lon="5.26725">
        <ele>1370.97729</ele>
        <time>2011-04-17T07:40:22+02:00</time>
      </trkpt>
      <trkpt lat="44.18546" lon="5.2673">
        <ele>1369.05469</ele>
        <time>2011-04-17T07:40:27+02:00</time>
      </trkpt>
      <trkpt lat="44.18546" lon="5.26732">
        <ele>1369.05469</ele>
        <time>2011-04-17T07:40:28+02:00</time>
      </trkpt>
      <trkpt lat="44.18548" lon="5.26738">
        <ele>1368.09326</ele>
        <time>2011-04-17T07:40:32+02:00</time>
      </trkpt>
      <trkpt lat="44.18549" lon="5.26746">
        <ele>1370.49658</ele>
        <time>2011-04-17T07:40:37+02:00</time>
      </trkpt>
      <trkpt lat="44.18546" lon="5.26749">
        <ele>1371.45776</ele>
        <time>2011-04-17T07:40:40+02:00</time>
      </trkpt>
      <trkpt lat="44.18541" lon="5.26754">
        <ele>1373.86133</ele>
        <time>2011-04-17T07:40:46+02:00</time>
      </trkpt>
      <trkpt lat="44.18537" lon="5.26759">
        <ele>1374.82275</ele>
        <time>2011-04-17T07:40:50+02:00</time>
      </trkpt>
      <trkpt lat="44.18531" lon="5.26766">
        <ele>1375.78394</ele>
        <time>2011-04-17T07:40:56+02:00</time>
      </trkpt>
      <trkpt lat="44.18528" lon="5.26767">
        <ele>1376.26465</ele>
        <time>2011-04-17T07:40:58+02:00</time>
      </trkpt>
      <trkpt lat="44.1852" lon="5.26772">
        <ele>1378.18726</ele>
        <time>2011-04-17T07:41:04+02:00</time>
      </trkpt>
      <trkpt lat="44.18514" lon="5.26776">
        <ele>1379.62915</ele>
        <time>2011-04-17T07:41:09+02:00</time>
      </trkpt>
      <trkpt lat="44.18506" lon="5.26775">
        <ele>1380.10986</ele>
        <time>2011-04-17T07:41:15+02:00</time>
      </trkpt>
      <trkpt lat="44.18503" lon="5.26774">
        <ele>1379.62915</ele>
        <time>2011-04-17T07:41:18+02:00</time>
      </trkpt>
      <trkpt lat="44.18495" lon="5.26769">
        <ele>1380.59058</ele>
        <time>2011-04-17T07:41:25+02:00</time>
      </trkpt>
      <trkpt lat="44.1849" lon="5.26769">
        <ele>1381.07129</ele>
        <time>2011-04-17T07:41:29+02:00</time>
      </trkpt>
      <trkpt lat="44.18481" lon="5.26772">
        <ele>1382.51318</ele>
        <time>2011-04-17T07:41:36+02:00</time>
      </trkpt>
      <trkpt lat="44.18478" lon="5.26775">
        <ele>1382.51318</ele>
        <time>2011-04-17T07:41:40+02:00</time>
      </trkpt>
      <trkpt lat="44.18475" lon="5.26777">
        <ele>1382.99365</ele>
        <time>2011-04-17T07:41:44+02:00</time>
      </trkpt>
      <trkpt lat="44.18472" lon="5.26783">
        <ele>1383.47437</ele>
        <time>2011-04-17T07:41:49+02:00</time>
      </trkpt>
      <trkpt lat="44.18468" lon="5.26783">
        <ele>1383.47437</ele>
        <time>2011-04-17T07:41:54+02:00</time>
      </trkpt>
      <trkpt lat="44.18467" lon="5.26781">
        <ele>1379.62915</ele>
        <time>2011-04-17T07:42:01+02:00</time>
      </trkpt>
      <trkpt lat="44.18467" lon="5.26783">
        <ele>1379.62915</ele>
        <time>2011-04-17T07:42:04+02:00</time>
      </trkpt>
      <trkpt lat="44.18463" lon="5.2679">
        <ele>1384.43579</ele>
        <time>2011-04-17T07:42:09+02:00</time>
      </trkpt>
      <trkpt lat="44.18459" lon="5.26797">
        <ele>1387.31958</ele>
        <time>2011-04-17T07:42:14+02:00</time>
      </trkpt>
      <trkpt lat="44.18458" lon="5.26801">
        <ele>1390.20386</ele>
        <time>2011-04-17T07:42:17+02:00</time>
      </trkpt>
      <trkpt lat="44.18457" lon="5.26812">
        <ele>1391.16504</ele>
        <time>2011-04-17T07:42:24+02:00</time>
      </trkpt>
      <trkpt lat="44.18454" lon="5.26815">
        <ele>1392.12646</ele>
        <time>2011-04-17T07:42:27+02:00</time>
      </trkpt>
      <trkpt lat="44.18449" lon="5.2682">
        <ele>1393.56836</ele>
        <time>2011-04-17T07:42:32+02:00</time>
      </trkpt>
      <trkpt lat="44.18447" lon="5.26821">
        <ele>1393.56836</ele>
        <time>2011-04-17T07:42:34+02:00</time>
      </trkpt>
      <trkpt lat="44.18444" lon="5.26818">
        <ele>1393.08765</ele>
        <time>2011-04-17T07:42:38+02:00</time>
      </trkpt>
      <trkpt lat="44.18437" lon="5.26815">
        <ele>1394.52954</ele>
        <time>2011-04-17T07:42:46+02:00</time>
      </trkpt>
      <trkpt lat="44.18435" lon="5.26816">
        <ele>1395.01025</ele>
        <time>2011-04-17T07:42:48+02:00</time>
      </trkpt>
      <trkpt lat="44.1843" lon="5.26824">
        <ele>1397.41357</ele>
        <time>2011-04-17T07:42:55+02:00</time>
      </trkpt>
      <trkpt lat="44.18426" lon="5.2683">
        <ele>1398.85547</ele>
        <time>2011-04-17T07:43:00+02:00</time>
      </trkpt>
      <trkpt lat="44.18421" lon="5.26832">
        <ele>1400.77808</ele>
        <time>2011-04-17T07:43:04+02:00</time>
      </trkpt>
      <trkpt lat="44.18417" lon="5.26834">
        <ele>1402.21997</ele>
        <time>2011-04-17T07:43:09+02:00</time>
      </trkpt>
      <trkpt lat="44.18416" lon="5.26835">
        <ele>1402.70068</ele>
        <time>2011-04-17T07:43:10+02:00</time>
      </trkpt>
      <trkpt lat="44.1841" lon="5.26835">
        <ele>1403.1814</ele>
        <time>2011-04-17T07:43:16+02:00</time>
      </trkpt>
      <trkpt lat="44.18408" lon="5.26841">
        <ele>1404.14307</ele>
        <time>2011-04-17T07:43:21+02:00</time>
      </trkpt>
      <trkpt lat="44.18406" lon="5.26859">
        <ele>1404.14307</ele>
        <time>2011-04-17T07:43:30+02:00</time>
      </trkpt>
      <trkpt lat="44.18408" lon="5.26876">
        <ele>1404.14307</ele>
        <time>2011-04-17T07:43:38+02:00</time>
      </trkpt>
      <trkpt lat="44.18408" lon="5.26878">
        <ele>1404.14307</ele>
        <time>2011-04-17T07:43:39+02:00</time>
      </trkpt>
      <trkpt lat="44.18407" lon="5.26894">
        <ele>1404.62354</ele>
        <time>2011-04-17T07:43:46+02:00</time>
      </trkpt>
      <trkpt lat="44.18407" lon="5.26898">
        <ele>1404.62354</ele>
        <time>2011-04-17T07:43:48+02:00</time>
      </trkpt>
      <trkpt lat="44.18403" lon="5.26909">
        <ele>1406.06543</ele>
        <time>2011-04-17T07:43:54+02:00</time>
      </trkpt>
      <trkpt lat="44.18398" lon="5.26922">
        <ele>1407.50757</ele>
        <time>2011-04-17T07:44:00+02:00</time>
      </trkpt>
      <trkpt lat="44.18394" lon="5.26934">
        <ele>1408.94946</ele>
        <time>2011-04-17T07:44:06+02:00</time>
      </trkpt>
      <trkpt lat="44.1839" lon="5.26948">
        <ele>1409.91064</ele>
        <time>2011-04-17T07:44:13+02:00</time>
      </trkpt>
      <trkpt lat="44.18388" lon="5.26965">
        <ele>1410.39136</ele>
        <time>2011-04-17T07:44:21+02:00</time>
      </trkpt>
      <trkpt lat="44.18386" lon="5.26978">
        <ele>1412.31396</ele>
        <time>2011-04-17T07:44:28+02:00</time>
      </trkpt>
      <trkpt lat="44.18385" lon="5.26989">
        <ele>1413.27539</ele>
        <time>2011-04-17T07:44:34+02:00</time>
      </trkpt>
      <trkpt lat="44.18384" lon="5.27">
        <ele>1414.23657</ele>
        <time>2011-04-17T07:44:40+02:00</time>
      </trkpt>
      <trkpt lat="44.18383" lon="5.27011">
        <ele>1415.198</ele>
        <time>2011-04-17T07:44:46+02:00</time>
      </trkpt>
      <trkpt lat="44.18382" lon="5.27014">
        <ele>1415.67871</ele>
        <time>2011-04-17T07:44:48+02:00</time>
      </trkpt>
      <trkpt lat="44.18381" lon="5.27021">
        <ele>1416.15918</ele>
        <time>2011-04-17T07:44:53+02:00</time>
      </trkpt>
      <trkpt lat="44.18377" lon="5.27032">
        <ele>1417.60107</ele>
        <time>2011-04-17T07:45:00+02:00</time>
      </trkpt>
      <trkpt lat="44.18377" lon="5.27036">
        <ele>1417.60107</ele>
        <time>2011-04-17T07:45:03+02:00</time>
      </trkpt>
      <trkpt lat="44.18374" lon="5.27043">
        <ele>1419.04321</ele>
        <time>2011-04-17T07:45:08+02:00</time>
      </trkpt>
      <trkpt lat="44.18372" lon="5.27051">
        <ele>1420.48535</ele>
        <time>2011-04-17T07:45:13+02:00</time>
      </trkpt>
      <trkpt lat="44.18371" lon="5.27053">
        <ele>1420.96606</ele>
        <time>2011-04-17T07:45:14+02:00</time>
      </trkpt>
      <trkpt lat="44.18369" lon="5.27065">
        <ele>1423.36938</ele>
        <time>2011-04-17T07:45:22+02:00</time>
      </trkpt>
      <trkpt lat="44.18367" lon="5.27075">
        <ele>1424.33057</ele>
        <time>2011-04-17T07:45:28+02:00</time>
      </trkpt>
      <trkpt lat="44.18365" lon="5.27082">
        <ele>1424.81128</ele>
        <time>2011-04-17T07:45:33+02:00</time>
      </trkpt>
      <trkpt lat="44.18364" lon="5.27083">
        <ele>1425.29175</ele>
        <time>2011-04-17T07:45:34+02:00</time>
      </trkpt>
      <trkpt lat="44.18364" lon="5.27095">
        <ele>1426.25317</ele>
        <time>2011-04-17T07:45:41+02:00</time>
      </trkpt>
      <trkpt lat="44.18365" lon="5.27106">
        <ele>1431.05981</ele>
        <time>2011-04-17T07:45:47+02:00</time>
      </trkpt>
      <trkpt lat="44.18364" lon="5.27113">
        <ele>1431.54028</ele>
        <time>2011-04-17T07:45:52+02:00</time>
      </trkpt>
      <trkpt lat="44.18364" lon="5.27123">
        <ele>1432.98218</ele>
        <time>2011-04-17T07:45:58+02:00</time>
      </trkpt>
      <trkpt lat="44.18362" lon="5.27129">
        <ele>1433.46289</ele>
        <time>2011-04-17T07:46:02+02:00</time>
      </trkpt>
      <trkpt lat="44.18359" lon="5.27142">
        <ele>1435.86621</ele>
        <time>2011-04-17T07:46:10+02:00</time>
      </trkpt>
      <trkpt lat="44.18358" lon="5.27153">
        <ele>1438.26978</ele>
        <time>2011-04-17T07:46:16+02:00</time>
      </trkpt>
      <trkpt lat="44.18356" lon="5.27163">
        <ele>1438.26978</ele>
        <time>2011-04-17T07:46:21+02:00</time>
      </trkpt>
      <trkpt lat="44.18358" lon="5.27173">
        <ele>1438.26978</ele>
        <time>2011-04-17T07:46:27+02:00</time>
      </trkpt>
      <trkpt lat="44.18358" lon="5.2718">
        <ele>1438.26978</ele>
        <time>2011-04-17T07:46:31+02:00</time>
      </trkpt>
      <trkpt lat="44.18355" lon="5.27193">
        <ele>1439.71167</ele>
        <time>2011-04-17T07:46:39+02:00</time>
      </trkpt>
      <trkpt lat="44.18354" lon="5.27202">
        <ele>1440.67285</ele>
        <time>2011-04-17T07:46:44+02:00</time>
      </trkpt>
      <trkpt lat="44.18352" lon="5.27206">
        <ele>1441.15356</ele>
        <time>2011-04-17T07:46:46+02:00</time>
      </trkpt>
      <trkpt lat="44.18352" lon="5.27212">
        <ele>1441.63428</ele>
        <time>2011-04-17T07:46:51+02:00</time>
      </trkpt>
      <trkpt lat="44.1835" lon="5.27212">
        <ele>1442.11499</ele>
        <time>2011-04-17T07:46:55+02:00</time>
      </trkpt>
      <trkpt lat="44.1835" lon="5.27211">
        <ele>1440.67285</ele>
        <time>2011-04-17T07:47:02+02:00</time>
      </trkpt>
      <trkpt lat="44.18353" lon="5.27217">
        <ele>1440.19238</ele>
        <time>2011-04-17T07:47:05+02:00</time>
      </trkpt>
      <trkpt lat="44.18355" lon="5.27233">
        <ele>1440.67285</ele>
        <time>2011-04-17T07:47:12+02:00</time>
      </trkpt>
      <trkpt lat="44.18356" lon="5.27247">
        <ele>1441.15356</ele>
        <time>2011-04-17T07:47:18+02:00</time>
      </trkpt>
      <trkpt lat="44.18361" lon="5.27259">
        <ele>1441.63428</ele>
        <time>2011-04-17T07:47:24+02:00</time>
      </trkpt>
      <trkpt lat="44.18364" lon="5.27267">
        <ele>1440.67285</ele>
        <time>2011-04-17T07:47:28+02:00</time>
      </trkpt>
      <trkpt lat="44.18366" lon="5.27279">
        <ele>1441.63428</ele>
        <time>2011-04-17T07:47:33+02:00</time>
      </trkpt>
      <trkpt lat="44.18369" lon="5.27293">
        <ele>1441.63428</ele>
        <time>2011-04-17T07:47:37+02:00</time>
      </trkpt>
      <trkpt lat="44.18374" lon="5.27316">
        <ele>1440.19238</ele>
        <time>2011-04-17T07:47:43+02:00</time>
      </trkpt>
      <trkpt lat="44.18375" lon="5.27333">
        <ele>1439.71167</ele>
        <time>2011-04-17T07:47:47+02:00</time>
      </trkpt>
      <trkpt lat="44.18376" lon="5.27347">
        <ele>1439.71167</ele>
        <time>2011-04-17T07:47:51+02:00</time>
      </trkpt>
      <trkpt lat="44.1838" lon="5.27363">
        <ele>1441.15356</ele>
        <time>2011-04-17T07:47:55+02:00</time>
      </trkpt>
      <trkpt lat="44.18384" lon="5.27381">
        <ele>1441.15356</ele>
        <time>2011-04-17T07:48:00+02:00</time>
      </trkpt>
      <trkpt lat="44.18387" lon="5.27397">
        <ele>1440.19238</ele>
        <time>2011-04-17T07:48:04+02:00</time>
      </trkpt>
      <trkpt lat="44.18389" lon="5.27417">
        <ele>1438.26978</ele>
        <time>2011-04-17T07:48:09+02:00</time>
      </trkpt>
      <trkpt lat="44.1839" lon="5.27434">
        <ele>1436.82764</ele>
        <time>2011-04-17T07:48:14+02:00</time>
      </trkpt>
      <trkpt lat="44.18391" lon="5.27442">
        <ele>1437.78906</ele>
        <time>2011-04-17T07:48:19+02:00</time>
      </trkpt>
      <trkpt lat="44.18391" lon="5.27457">
        <ele>1438.26978</ele>
        <time>2011-04-17T07:48:24+02:00</time>
      </trkpt>
      <trkpt lat="44.18392" lon="5.2747">
        <ele>1439.23096</ele>
        <time>2011-04-17T07:48:28+02:00</time>
      </trkpt>
      <trkpt lat="44.18389" lon="5.27486">
        <ele>1440.67285</ele>
        <time>2011-04-17T07:48:33+02:00</time>
      </trkpt>
      <trkpt lat="44.1839" lon="5.27496">
        <ele>1441.63428</ele>
        <time>2011-04-17T07:48:36+02:00</time>
      </trkpt>
      <trkpt lat="44.18382" lon="5.27507">
        <ele>1441.63428</ele>
        <time>2011-04-17T07:48:41+02:00</time>
      </trkpt>
      <trkpt lat="44.18376" lon="5.27515">
        <ele>1441.15356</ele>
        <time>2011-04-17T07:48:45+02:00</time>
      </trkpt>
      <trkpt lat="44.18372" lon="5.27523">
        <ele>1440.67285</ele>
        <time>2011-04-17T07:48:51+02:00</time>
      </trkpt>
      <trkpt lat="44.18364" lon="5.2754">
        <ele>1441.15356</ele>
        <time>2011-04-17T07:48:59+02:00</time>
      </trkpt>
      <trkpt lat="44.18357" lon="5.27548">
        <ele>1440.67285</ele>
        <time>2011-04-17T07:49:05+02:00</time>
      </trkpt>
      <trkpt lat="44.18349" lon="5.27558">
        <ele>1441.63428</ele>
        <time>2011-04-17T07:49:11+02:00</time>
      </trkpt>
      <trkpt lat="44.18341" lon="5.27562">
        <ele>1440.19238</ele>
        <time>2011-04-17T07:49:16+02:00</time>
      </trkpt>
      <trkpt lat="44.18333" lon="5.27568">
        <ele>1439.71167</ele>
        <time>2011-04-17T07:49:21+02:00</time>
      </trkpt>
      <trkpt lat="44.18332" lon="5.2757">
        <ele>1440.67285</ele>
        <time>2011-04-17T07:49:24+02:00</time>
      </trkpt>
      <trkpt lat="44.18333" lon="5.27582">
        <ele>1441.15356</ele>
        <time>2011-04-17T07:49:30+02:00</time>
      </trkpt>
      <trkpt lat="44.18335" lon="5.27591">
        <ele>1444.51807</ele>
        <time>2011-04-17T07:49:36+02:00</time>
      </trkpt>
      <trkpt lat="44.18329" lon="5.27598">
        <ele>1444.51807</ele>
        <time>2011-04-17T07:49:41+02:00</time>
      </trkpt>
      <trkpt lat="44.18326" lon="5.27599">
        <ele>1444.51807</ele>
        <time>2011-04-17T07:49:48+02:00</time>
      </trkpt>
      <trkpt lat="44.18327" lon="5.27598">
        <ele>1444.51807</ele>
        <time>2011-04-17T07:49:52+02:00</time>
      </trkpt>
      <trkpt lat="44.18334" lon="5.27602">
        <ele>1444.99878</ele>
        <time>2011-04-17T07:49:56+02:00</time>
      </trkpt>
      <trkpt lat="44.18341" lon="5.27607">
        <ele>1446.92139</ele>
        <time>2011-04-17T07:50:02+02:00</time>
      </trkpt>
      <trkpt lat="44.18346" lon="5.27608">
        <ele>1447.88281</ele>
        <time>2011-04-17T07:50:04+02:00</time>
      </trkpt>
      <trkpt lat="44.1836" lon="5.2762">
        <ele>1444.0376</ele>
        <time>2011-04-17T07:50:11+02:00</time>
      </trkpt>
      <trkpt lat="44.18361" lon="5.27621">
        <ele>1443.07617</ele>
        <time>2011-04-17T07:50:12+02:00</time>
      </trkpt>
      <trkpt lat="44.1837" lon="5.27627">
        <ele>1439.23096</ele>
        <time>2011-04-17T07:50:18+02:00</time>
      </trkpt>
      <trkpt lat="44.18374" lon="5.27628">
        <ele>1438.75049</ele>
        <time>2011-04-17T07:50:20+02:00</time>
      </trkpt>
      <trkpt lat="44.18386" lon="5.2764">
        <ele>1435.3855</ele>
        <time>2011-04-17T07:50:26+02:00</time>
      </trkpt>
      <trkpt lat="44.18388" lon="5.27643">
        <ele>1433.9436</ele>
        <time>2011-04-17T07:50:27+02:00</time>
      </trkpt>
      <trkpt lat="44.184" lon="5.27658">
        <ele>1427.69507</ele>
        <time>2011-04-17T07:50:32+02:00</time>
      </trkpt>
      <trkpt lat="44.18412" lon="5.27674">
        <ele>1423.36938</ele>
        <time>2011-04-17T07:50:37+02:00</time>
      </trkpt>
      <trkpt lat="44.1842" lon="5.27689">
        <ele>1421.92725</ele>
        <time>2011-04-17T07:50:41+02:00</time>
      </trkpt>
      <trkpt lat="44.18424" lon="5.2771">
        <ele>1419.52393</ele>
        <time>2011-04-17T07:50:46+02:00</time>
      </trkpt>
      <trkpt lat="44.18426" lon="5.27734">
        <ele>1417.12061</ele>
        <time>2011-04-17T07:50:52+02:00</time>
      </trkpt>
      <trkpt lat="44.18428" lon="5.27755">
        <ele>1416.63989</ele>
        <time>2011-04-17T07:50:57+02:00</time>
      </trkpt>
      <trkpt lat="44.1843" lon="5.27776">
        <ele>1416.15918</ele>
        <time>2011-04-17T07:51:02+02:00</time>
      </trkpt>
      <trkpt lat="44.18431" lon="5.27793">
        <ele>1417.60107</ele>
        <time>2011-04-17T07:51:06+02:00</time>
      </trkpt>
      <trkpt lat="44.18431" lon="5.27819">
        <ele>1417.60107</ele>
        <time>2011-04-17T07:51:13+02:00</time>
      </trkpt>
      <trkpt lat="44.18434" lon="5.27837">
        <ele>1418.08179</ele>
        <time>2011-04-17T07:51:18+02:00</time>
      </trkpt>
      <trkpt lat="44.18439" lon="5.27853">
        <ele>1418.08179</ele>
        <time>2011-04-17T07:51:22+02:00</time>
      </trkpt>
      <trkpt lat="44.18443" lon="5.27869">
        <ele>1417.60107</ele>
        <time>2011-04-17T07:51:26+02:00</time>
      </trkpt>
      <trkpt lat="44.1845" lon="5.2789">
        <ele>1416.63989</ele>
        <time>2011-04-17T07:51:32+02:00</time>
      </trkpt>
      <trkpt lat="44.18453" lon="5.27908">
        <ele>1415.198</ele>
        <time>2011-04-17T07:51:37+02:00</time>
      </trkpt>
      <trkpt lat="44.18454" lon="5.27916">
        <ele>1414.71729</ele>
        <time>2011-04-17T07:51:39+02:00</time>
      </trkpt>
      <trkpt lat="44.18449" lon="5.27924">
        <ele>1414.71729</ele>
        <time>2011-04-17T07:51:44+02:00</time>
      </trkpt>
      <trkpt lat="44.18447" lon="5.27924">
        <ele>1415.198</ele>
        <time>2011-04-17T07:51:45+02:00</time>
      </trkpt>
      <trkpt lat="44.18443" lon="5.27914">
        <ele>1417.12061</ele>
        <time>2011-04-17T07:51:52+02:00</time>
      </trkpt>
      <trkpt lat="44.18435" lon="5.27906">
        <ele>1419.52393</ele>
        <time>2011-04-17T07:52:00+02:00</time>
      </trkpt>
      <trkpt lat="44.18431" lon="5.27902">
        <ele>1420.96606</ele>
        <time>2011-04-17T07:52:05+02:00</time>
      </trkpt>
      <trkpt lat="44.18427" lon="5.27901">
        <ele>1422.40796</ele>
        <time>2011-04-17T07:52:09+02:00</time>
      </trkpt>
      <trkpt lat="44.18422" lon="5.279">
        <ele>1424.33057</ele>
        <time>2011-04-17T07:52:15+02:00</time>
      </trkpt>
      <trkpt lat="44.18418" lon="5.27901">
        <ele>1425.77246</ele>
        <time>2011-04-17T07:52:21+02:00</time>
      </trkpt>
      <trkpt lat="44.18415" lon="5.279">
        <ele>1427.69507</ele>
        <time>2011-04-17T07:52:26+02:00</time>
      </trkpt>
      <trkpt lat="44.18416" lon="5.279">
        <ele>1428.17578</ele>
        <time>2011-04-17T07:52:30+02:00</time>
      </trkpt>
      <trkpt lat="44.1842" lon="5.27899">
        <ele>1426.73389</ele>
        <time>2011-04-17T07:52:35+02:00</time>
      </trkpt>
      <trkpt lat="44.18424" lon="5.27899">
        <ele>1425.77246</ele>
        <time>2011-04-17T07:52:38+02:00</time>
      </trkpt>
      <trkpt lat="44.18432" lon="5.279">
        <ele>1424.81128</ele>
        <time>2011-04-17T07:52:43+02:00</time>
      </trkpt>
      <trkpt lat="44.18439" lon="5.279">
        <ele>1422.40796</ele>
        <time>2011-04-17T07:52:47+02:00</time>
      </trkpt>
      <trkpt lat="44.18442" lon="5.27891">
        <ele>1420.00464</ele>
        <time>2011-04-17T07:52:52+02:00</time>
      </trkpt>
      <trkpt lat="44.18442" lon="5.27889">
        <ele>1419.52393</ele>
        <time>2011-04-17T07:52:55+02:00</time>
      </trkpt>
      <trkpt lat="44.18445" lon="5.27875">
        <ele>1417.60107</ele>
        <time>2011-04-17T07:52:59+02:00</time>
      </trkpt>
      <trkpt lat="44.18438" lon="5.27857">
        <ele>1418.08179</ele>
        <time>2011-04-17T07:53:04+02:00</time>
      </trkpt>
      <trkpt lat="44.18434" lon="5.27846">
        <ele>1418.5625</ele>
        <time>2011-04-17T07:53:07+02:00</time>
      </trkpt>
      <trkpt lat="44.18432" lon="5.27831">
        <ele>1420.00464</ele>
        <time>2011-04-17T07:53:11+02:00</time>
      </trkpt>
      <trkpt lat="44.18431" lon="5.27817">
        <ele>1420.00464</ele>
        <time>2011-04-17T07:53:15+02:00</time>
      </trkpt>
      <trkpt lat="44.18431" lon="5.27798">
        <ele>1420.96606</ele>
        <time>2011-04-17T07:53:20+02:00</time>
      </trkpt>
      <trkpt lat="44.18431" lon="5.27794">
        <ele>1420.96606</ele>
        <time>2011-04-17T07:53:21+02:00</time>
      </trkpt>
      <trkpt lat="44.18431" lon="5.27771">
        <ele>1421.92725</ele>
        <time>2011-04-17T07:53:27+02:00</time>
      </trkpt>
      <trkpt lat="44.18429" lon="5.27746">
        <ele>1421.92725</ele>
        <time>2011-04-17T07:53:33+02:00</time>
      </trkpt>
      <trkpt lat="44.18428" lon="5.27728">
        <ele>1421.92725</ele>
        <time>2011-04-17T07:53:38+02:00</time>
      </trkpt>
      <trkpt lat="44.18427" lon="5.27712">
        <ele>1421.44653</ele>
        <time>2011-04-17T07:53:42+02:00</time>
      </trkpt>
      <trkpt lat="44.18429" lon="5.27694">
        <ele>1420.48535</ele>
        <time>2011-04-17T07:53:47+02:00</time>
      </trkpt>
      <trkpt lat="44.18437" lon="5.27672">
        <ele>1418.5625</ele>
        <time>2011-04-17T07:53:54+02:00</time>
      </trkpt>
      <trkpt lat="44.1844" lon="5.27662">
        <ele>1418.08179</ele>
        <time>2011-04-17T07:53:59+02:00</time>
      </trkpt>
      <trkpt lat="44.18442" lon="5.27659">
        <ele>1418.08179</ele>
        <time>2011-04-17T07:54:01+02:00</time>
      </trkpt>
      <trkpt lat="44.18445" lon="5.27657">
        <ele>1420.00464</ele>
        <time>2011-04-17T07:54:07+02:00</time>
      </trkpt>
      <trkpt lat="44.18445" lon="5.27656">
        <ele>1420.48535</ele>
        <time>2011-04-17T07:54:10+02:00</time>
      </trkpt>
      <trkpt lat="44.18452" lon="5.27642">
        <ele>1420.00464</ele>
        <time>2011-04-17T07:54:18+02:00</time>
      </trkpt>
      <trkpt lat="44.18461" lon="5.27632">
        <ele>1419.04321</ele>
        <time>2011-04-17T07:54:25+02:00</time>
      </trkpt>
      <trkpt lat="44.18468" lon="5.27626">
        <ele>1418.5625</ele>
        <time>2011-04-17T07:54:28+02:00</time>
      </trkpt>
      <trkpt lat="44.18477" lon="5.27612">
        <ele>1419.04321</ele>
        <time>2011-04-17T07:54:33+02:00</time>
      </trkpt>
      <trkpt lat="44.18485" lon="5.27603">
        <ele>1419.52393</ele>
        <time>2011-04-17T07:54:37+02:00</time>
      </trkpt>
      <trkpt lat="44.18498" lon="5.27585">
        <ele>1420.00464</ele>
        <time>2011-04-17T07:54:44+02:00</time>
      </trkpt>
      <trkpt lat="44.18501" lon="5.2758">
        <ele>1419.52393</ele>
        <time>2011-04-17T07:54:48+02:00</time>
      </trkpt>
      <trkpt lat="44.185" lon="5.2758">
        <ele>1420.00464</ele>
        <time>2011-04-17T07:54:55+02:00</time>
      </trkpt>
      <trkpt lat="44.185" lon="5.27577">
        <ele>1420.96606</ele>
        <time>2011-04-17T07:55:00+02:00</time>
      </trkpt>
      <trkpt lat="44.18501" lon="5.2758">
        <ele>1421.44653</ele>
        <time>2011-04-17T07:55:04+02:00</time>
      </trkpt>
      <trkpt lat="44.18501" lon="5.2758">
        <ele>1420.96606</ele>
        <time>2011-04-17T07:55:11+02:00</time>
      </trkpt>
      <trkpt lat="44.18504" lon="5.27582">
        <ele>1423.36938</ele>
        <time>2011-04-17T07:55:29+02:00</time>
      </trkpt>
      <trkpt lat="44.18503" lon="5.27583">
        <ele>1423.36938</ele>
        <time>2011-04-17T07:55:38+02:00</time>
      </trkpt>
      <trkpt lat="44.18503" lon="5.27584">
        <ele>1423.36938</ele>
        <time>2011-04-17T07:55:53+02:00</time>
      </trkpt>
      <trkpt lat="44.18502" lon="5.27584">
        <ele>1423.36938</ele>
        <time>2011-04-17T07:55:57+02:00</time>
      </trkpt>
      <trkpt lat="44.18502" lon="5.27584">
        <ele>1423.36938</ele>
        <time>2011-04-17T07:56:03+02:00</time>
      </trkpt>
      <trkpt lat="44.18502" lon="5.27584">
        <ele>1421.92725</ele>
        <time>2011-04-17T07:56:11+02:00</time>
      </trkpt>
      <trkpt lat="44.18501" lon="5.27583">
        <ele>1421.44653</ele>
        <time>2011-04-17T07:56:17+02:00</time>
      </trkpt>
      <trkpt lat="44.18501" lon="5.27583">
        <ele>1421.44653</ele>
        <time>2011-04-17T07:56:23+02:00</time>
      </trkpt>
      <trkpt lat="44.185" lon="5.27582">
        <ele>1421.92725</ele>
        <time>2011-04-17T07:56:31+02:00</time>
      </trkpt>
      <trkpt lat="44.185" lon="5.2758">
        <ele>1422.40796</ele>
        <time>2011-04-17T07:56:40+02:00</time>
      </trkpt>
      <trkpt lat="44.18497" lon="5.2758">
        <ele>1422.88867</ele>
        <time>2011-04-17T07:56:44+02:00</time>
      </trkpt>
      <trkpt lat="44.18495" lon="5.27578">
        <ele>1423.36938</ele>
        <time>2011-04-17T07:56:46+02:00</time>
      </trkpt>
      <trkpt lat="44.18489" lon="5.27564">
        <ele>1423.36938</ele>
        <time>2011-04-17T07:56:54+02:00</time>
      </trkpt>
      <trkpt lat="44.18485" lon="5.27552">
        <ele>1423.36938</ele>
        <time>2011-04-17T07:57:00+02:00</time>
      </trkpt>
      <trkpt lat="44.18483" lon="5.27541">
        <ele>1424.33057</ele>
        <time>2011-04-17T07:57:05+02:00</time>
      </trkpt>
      <trkpt lat="44.18479" lon="5.27526">
        <ele>1423.84985</ele>
        <time>2011-04-17T07:57:09+02:00</time>
      </trkpt>
      <trkpt lat="44.18472" lon="5.27515">
        <ele>1423.36938</ele>
        <time>2011-04-17T07:57:14+02:00</time>
      </trkpt>
      <trkpt lat="44.18471" lon="5.27509">
        <ele>1422.40796</ele>
        <time>2011-04-17T07:57:20+02:00</time>
      </trkpt>
      <trkpt lat="44.18477" lon="5.27496">
        <ele>1421.44653</ele>
        <time>2011-04-17T07:57:24+02:00</time>
      </trkpt>
      <trkpt lat="44.18479" lon="5.27492">
        <ele>1421.44653</ele>
        <time>2011-04-17T07:57:25+02:00</time>
      </trkpt>
      <trkpt lat="44.18483" lon="5.27474">
        <ele>1420.96606</ele>
        <time>2011-04-17T07:57:30+02:00</time>
      </trkpt>
      <trkpt lat="44.18484" lon="5.27459">
        <ele>1421.44653</ele>
        <time>2011-04-17T07:57:34+02:00</time>
      </trkpt>
      <trkpt lat="44.18484" lon="5.27455">
        <ele>1421.44653</ele>
        <time>2011-04-17T07:57:35+02:00</time>
      </trkpt>
      <trkpt lat="44.18487" lon="5.27441">
        <ele>1419.04321</ele>
        <time>2011-04-17T07:57:40+02:00</time>
      </trkpt>
      <trkpt lat="44.18486" lon="5.27435">
        <ele>1419.52393</ele>
        <time>2011-04-17T07:57:44+02:00</time>
      </trkpt>
      <trkpt lat="44.18486" lon="5.27434">
        <ele>1421.92725</ele>
        <time>2011-04-17T07:57:51+02:00</time>
      </trkpt>
      <trkpt lat="44.18486" lon="5.27433">
        <ele>1421.44653</ele>
        <time>2011-04-17T07:57:57+02:00</time>
      </trkpt>
      <trkpt lat="44.18487" lon="5.27431">
        <ele>1420.96606</ele>
        <time>2011-04-17T07:57:59+02:00</time>
      </trkpt>
      <trkpt lat="44.1849" lon="5.2744">
        <ele>1420.48535</ele>
        <time>2011-04-17T07:58:04+02:00</time>
      </trkpt>
      <trkpt lat="44.18486" lon="5.27473">
        <ele>1419.52393</ele>
        <time>2011-04-17T07:58:13+02:00</time>
      </trkpt>
      <trkpt lat="44.18475" lon="5.27504">
        <ele>1418.08179</ele>
        <time>2011-04-17T07:58:22+02:00</time>
      </trkpt>
      <trkpt lat="44.18466" lon="5.27514">
        <ele>1417.60107</ele>
        <time>2011-04-17T07:58:28+02:00</time>
      </trkpt>
      <trkpt lat="44.18465" lon="5.27513">
        <ele>1418.08179</ele>
        <time>2011-04-17T07:58:32+02:00</time>
      </trkpt>
      <trkpt lat="44.18468" lon="5.27514">
        <ele>1418.08179</ele>
        <time>2011-04-17T07:58:36+02:00</time>
      </trkpt>
      <trkpt lat="44.18468" lon="5.27514">
        <ele>1417.12061</ele>
        <time>2011-04-17T07:58:42+02:00</time>
      </trkpt>
      <trkpt lat="44.18468" lon="5.27513">
        <ele>1418.5625</ele>
        <time>2011-04-17T07:58:49+02:00</time>
      </trkpt>
      <trkpt lat="44.18465" lon="5.27512">
        <ele>1419.04321</ele>
        <time>2011-04-17T07:58:55+02:00</time>
      </trkpt>
      <trkpt lat="44.18465" lon="5.27513">
        <ele>1421.44653</ele>
        <time>2011-04-17T07:59:07+02:00</time>
      </trkpt>
      <trkpt lat="44.18465" lon="5.27515">
        <ele>1423.84985</ele>
        <time>2011-04-17T07:59:15+02:00</time>
      </trkpt>
      <trkpt lat="44.18467" lon="5.27513">
        <ele>1424.81128</ele>
        <time>2011-04-17T07:59:31+02:00</time>
      </trkpt>
      <trkpt lat="44.18468" lon="5.27512">
        <ele>1424.33057</ele>
        <time>2011-04-17T07:59:51+02:00</time>
      </trkpt>
      <trkpt lat="44.18469" lon="5.27512">
        <ele>1423.36938</ele>
        <time>2011-04-17T07:59:59+02:00</time>
      </trkpt>
      <trkpt lat="44.18469" lon="5.27513">
        <ele>1422.40796</ele>
        <time>2011-04-17T08:00:08+02:00</time>
      </trkpt>
      <trkpt lat="44.18469" lon="5.27513">
        <ele>1420.96606</ele>
        <time>2011-04-17T08:00:16+02:00</time>
      </trkpt>
      <trkpt lat="44.1847" lon="5.27512">
        <ele>1419.04321</ele>
        <time>2011-04-17T08:00:34+02:00</time>
      </trkpt>
      <trkpt lat="44.1847" lon="5.2751">
        <ele>1419.04321</ele>
        <time>2011-04-17T08:00:39+02:00</time>
      </trkpt>
      <trkpt lat="44.18471" lon="5.27508">
        <ele>1419.52393</ele>
        <time>2011-04-17T08:00:44+02:00</time>
      </trkpt>
      <trkpt lat="44.18473" lon="5.2751">
        <ele>1419.04321</ele>
        <time>2011-04-17T08:00:50+02:00</time>
      </trkpt>
      <trkpt lat="44.18473" lon="5.2751">
        <ele>1419.04321</ele>
        <time>2011-04-17T08:01:00+02:00</time>
      </trkpt>
      <trkpt lat="44.18473" lon="5.2751">
        <ele>1418.5625</ele>
        <time>2011-04-17T08:01:06+02:00</time>
      </trkpt>
      <trkpt lat="44.18473" lon="5.27512">
        <ele>1418.08179</ele>
        <time>2011-04-17T08:01:10+02:00</time>
      </trkpt>
      <trkpt lat="44.18472" lon="5.27515">
        <ele>1420.00464</ele>
        <time>2011-04-17T08:01:25+02:00</time>
      </trkpt>
      <trkpt lat="44.18471" lon="5.27516">
        <ele>1422.88867</ele>
        <time>2011-04-17T08:01:39+02:00</time>
      </trkpt>
      <trkpt lat="44.18471" lon="5.27515">
        <ele>1420.48535</ele>
        <time>2011-04-17T08:01:51+02:00</time>
      </trkpt>
      <trkpt lat="44.18469" lon="5.27511">
        <ele>1421.44653</ele>
        <time>2011-04-17T08:01:59+02:00</time>
      </trkpt>
      <trkpt lat="44.18467" lon="5.2751">
        <ele>1421.44653</ele>
        <time>2011-04-17T08:02:06+02:00</time>
      </trkpt>
      <trkpt lat="44.18466" lon="5.2751">
        <ele>1419.04321</ele>
        <time>2011-04-17T08:02:15+02:00</time>
      </trkpt>
      <trkpt lat="44.18465" lon="5.2751">
        <ele>1420.00464</ele>
        <time>2011-04-17T08:02:21+02:00</time>
      </trkpt>
      <trkpt lat="44.18463" lon="5.27511">
        <ele>1420.00464</ele>
        <time>2011-04-17T08:02:30+02:00</time>
      </trkpt>
      <trkpt lat="44.18461" lon="5.27517">
        <ele>1420.00464</ele>
        <time>2011-04-17T08:02:36+02:00</time>
      </trkpt>
      <trkpt lat="44.18461" lon="5.27516">
        <ele>1420.48535</ele>
        <time>2011-04-17T08:02:44+02:00</time>
      </trkpt>
      <trkpt lat="44.18461" lon="5.27517">
        <ele>1420.96606</ele>
        <time>2011-04-17T08:02:46+02:00</time>
      </trkpt>
      <trkpt lat="44.18453" lon="5.27528">
        <ele>1419.04321</ele>
        <time>2011-04-17T08:02:51+02:00</time>
      </trkpt>
      <trkpt lat="44.18441" lon="5.27551">
        <ele>1417.60107</ele>
        <time>2011-04-17T08:02:56+02:00</time>
      </trkpt>
      <trkpt lat="44.18433" lon="5.27594">
        <ele>1416.15918</ele>
        <time>2011-04-17T08:03:02+02:00</time>
      </trkpt>
      <trkpt lat="44.18432" lon="5.27602">
        <ele>1416.15918</ele>
        <time>2011-04-17T08:03:03+02:00</time>
      </trkpt>
      <trkpt lat="44.18429" lon="5.27657">
        <ele>1415.67871</ele>
        <time>2011-04-17T08:03:09+02:00</time>
      </trkpt>
      <trkpt lat="44.18422" lon="5.27711">
        <ele>1415.67871</ele>
        <time>2011-04-17T08:03:15+02:00</time>
      </trkpt>
      <trkpt lat="44.18424" lon="5.27752">
        <ele>1416.15918</ele>
        <time>2011-04-17T08:03:20+02:00</time>
      </trkpt>
      <trkpt lat="44.18427" lon="5.27806">
        <ele>1414.71729</ele>
        <time>2011-04-17T08:03:26+02:00</time>
      </trkpt>
      <trkpt lat="44.18427" lon="5.27815">
        <ele>1414.71729</ele>
        <time>2011-04-17T08:03:27+02:00</time>
      </trkpt>
      <trkpt lat="44.18439" lon="5.27872">
        <ele>1413.27539</ele>
        <time>2011-04-17T08:03:33+02:00</time>
      </trkpt>
      <trkpt lat="44.18444" lon="5.27888">
        <ele>1412.79468</ele>
        <time>2011-04-17T08:03:35+02:00</time>
      </trkpt>
      <trkpt lat="44.18448" lon="5.2792">
        <ele>1412.79468</ele>
        <time>2011-04-17T08:03:39+02:00</time>
      </trkpt>
      <trkpt lat="44.18447" lon="5.27939">
        <ele>1412.31396</ele>
        <time>2011-04-17T08:03:42+02:00</time>
      </trkpt>
      <trkpt lat="44.18449" lon="5.27961">
        <ele>1411.8335</ele>
        <time>2011-04-17T08:03:47+02:00</time>
      </trkpt>
      <trkpt lat="44.18448" lon="5.27963">
        <ele>1411.8335</ele>
        <time>2011-04-17T08:03:48+02:00</time>
      </trkpt>
      <trkpt lat="44.18446" lon="5.27962">
        <ele>1412.31396</ele>
        <time>2011-04-17T08:03:54+02:00</time>
      </trkpt>
      <trkpt lat="44.18448" lon="5.27959">
        <ele>1412.31396</ele>
        <time>2011-04-17T08:03:58+02:00</time>
      </trkpt>
      <trkpt lat="44.18449" lon="5.27936">
        <ele>1412.79468</ele>
        <time>2011-04-17T08:04:04+02:00</time>
      </trkpt>
      <trkpt lat="44.18449" lon="5.27904">
        <ele>1410.87207</ele>
        <time>2011-04-17T08:04:11+02:00</time>
      </trkpt>
      <trkpt lat="44.18448" lon="5.27895">
        <ele>1411.35278</ele>
        <time>2011-04-17T08:04:13+02:00</time>
      </trkpt>
      <trkpt lat="44.18453" lon="5.27894">
        <ele>1411.35278</ele>
        <time>2011-04-17T08:04:17+02:00</time>
      </trkpt>
      <trkpt lat="44.18453" lon="5.27908">
        <ele>1410.39136</ele>
        <time>2011-04-17T08:04:21+02:00</time>
      </trkpt>
      <trkpt lat="44.18448" lon="5.2794">
        <ele>1412.31396</ele>
        <time>2011-04-17T08:04:27+02:00</time>
      </trkpt>
      <trkpt lat="44.1845" lon="5.27978">
        <ele>1410.87207</ele>
        <time>2011-04-17T08:04:32+02:00</time>
      </trkpt>
      <trkpt lat="44.18463" lon="5.28026">
        <ele>1407.50757</ele>
        <time>2011-04-17T08:04:37+02:00</time>
      </trkpt>
      <trkpt lat="44.18477" lon="5.28067">
        <ele>1405.10425</ele>
        <time>2011-04-17T08:04:41+02:00</time>
      </trkpt>
      <trkpt lat="44.18486" lon="5.28093">
        <ele>1403.1814</ele>
        <time>2011-04-17T08:04:44+02:00</time>
      </trkpt>
      <trkpt lat="44.18489" lon="5.28099">
        <ele>1403.1814</ele>
        <time>2011-04-17T08:04:48+02:00</time>
      </trkpt>
      <trkpt lat="44.18489" lon="5.28092">
        <ele>1407.50757</ele>
        <time>2011-04-17T08:05:03+02:00</time>
      </trkpt>
      <trkpt lat="44.18491" lon="5.28088">
        <ele>1407.98828</ele>
        <time>2011-04-17T08:05:13+02:00</time>
      </trkpt>
      <trkpt lat="44.18491" lon="5.28097">
        <ele>1405.58496</ele>
        <time>2011-04-17T08:05:22+02:00</time>
      </trkpt>
      <trkpt lat="44.18497" lon="5.28118">
        <ele>1404.14307</ele>
        <time>2011-04-17T08:05:26+02:00</time>
      </trkpt>
      <trkpt lat="44.18505" lon="5.28151">
        <ele>1403.1814</ele>
        <time>2011-04-17T08:05:30+02:00</time>
      </trkpt>
      <trkpt lat="44.18511" lon="5.2818">
        <ele>1399.33618</ele>
        <time>2011-04-17T08:05:34+02:00</time>
      </trkpt>
      <trkpt lat="44.18512" lon="5.28179">
        <ele>1404.14307</ele>
        <time>2011-04-17T08:05:44+02:00</time>
      </trkpt>
      <trkpt lat="44.18514" lon="5.28179">
        <ele>1404.62354</ele>
        <time>2011-04-17T08:05:49+02:00</time>
      </trkpt>
      <trkpt lat="44.18518" lon="5.28182">
        <ele>1404.14307</ele>
        <time>2011-04-17T08:05:55+02:00</time>
      </trkpt>
      <trkpt lat="44.18521" lon="5.28185">
        <ele>1404.14307</ele>
        <time>2011-04-17T08:05:58+02:00</time>
      </trkpt>
      <trkpt lat="44.18526" lon="5.28194">
        <ele>1403.66211</ele>
        <time>2011-04-17T08:06:02+02:00</time>
      </trkpt>
      <trkpt lat="44.18539" lon="5.28206">
        <ele>1404.62354</ele>
        <time>2011-04-17T08:06:08+02:00</time>
      </trkpt>
      <trkpt lat="44.18554" lon="5.28212">
        <ele>1407.02686</ele>
        <time>2011-04-17T08:06:14+02:00</time>
      </trkpt>
      <trkpt lat="44.18565" lon="5.28219">
        <ele>1409.43018</ele>
        <time>2011-04-17T08:06:20+02:00</time>
      </trkpt>
      <trkpt lat="44.18576" lon="5.2822">
        <ele>1411.35278</ele>
        <time>2011-04-17T08:06:26+02:00</time>
      </trkpt>
      <trkpt lat="44.18584" lon="5.28214">
        <ele>1412.79468</ele>
        <time>2011-04-17T08:06:31+02:00</time>
      </trkpt>
      <trkpt lat="44.18587" lon="5.2821">
        <ele>1413.75586</ele>
        <time>2011-04-17T08:06:34+02:00</time>
      </trkpt>
      <trkpt lat="44.18588" lon="5.282">
        <ele>1413.75586</ele>
        <time>2011-04-17T08:06:38+02:00</time>
      </trkpt>
      <trkpt lat="44.18587" lon="5.28183">
        <ele>1413.27539</ele>
        <time>2011-04-17T08:06:45+02:00</time>
      </trkpt>
      <trkpt lat="44.18585" lon="5.28163">
        <ele>1411.8335</ele>
        <time>2011-04-17T08:06:51+02:00</time>
      </trkpt>
      <trkpt lat="44.18583" lon="5.28143">
        <ele>1412.79468</ele>
        <time>2011-04-17T08:06:57+02:00</time>
      </trkpt>
      <trkpt lat="44.18582" lon="5.28124">
        <ele>1415.198</ele>
        <time>2011-04-17T08:07:02+02:00</time>
      </trkpt>
      <trkpt lat="44.18576" lon="5.281">
        <ele>1413.75586</ele>
        <time>2011-04-17T08:07:08+02:00</time>
      </trkpt>
      <trkpt lat="44.18561" lon="5.28081">
        <ele>1413.27539</ele>
        <time>2011-04-17T08:07:14+02:00</time>
      </trkpt>
      <trkpt lat="44.18544" lon="5.28061">
        <ele>1411.8335</ele>
        <time>2011-04-17T08:07:19+02:00</time>
      </trkpt>
      <trkpt lat="44.1854" lon="5.28057">
        <ele>1411.35278</ele>
        <time>2011-04-17T08:07:20+02:00</time>
      </trkpt>
      <trkpt lat="44.18521" lon="5.28032">
        <ele>1409.91064</ele>
        <time>2011-04-17T08:07:25+02:00</time>
      </trkpt>
      <trkpt lat="44.18516" lon="5.28011">
        <ele>1408.94946</ele>
        <time>2011-04-17T08:07:28+02:00</time>
      </trkpt>
      <trkpt lat="44.18516" lon="5.27996">
        <ele>1407.98828</ele>
        <time>2011-04-17T08:07:30+02:00</time>
      </trkpt>
      <trkpt lat="44.18504" lon="5.27947">
        <ele>1406.06543</ele>
        <time>2011-04-17T08:07:36+02:00</time>
      </trkpt>
      <trkpt lat="44.1851" lon="5.27932">
        <ele>1402.70068</ele>
        <time>2011-04-17T08:07:40+02:00</time>
      </trkpt>
      <trkpt lat="44.18515" lon="5.27933">
        <ele>1401.7395</ele>
        <time>2011-04-17T08:07:41+02:00</time>
      </trkpt>
      <trkpt lat="44.18539" lon="5.27946">
        <ele>1400.29761</ele>
        <time>2011-04-17T08:07:46+02:00</time>
      </trkpt>
      <trkpt lat="44.18566" lon="5.27957">
        <ele>1397.89429</ele>
        <time>2011-04-17T08:07:51+02:00</time>
      </trkpt>
      <trkpt lat="44.18589" lon="5.27956">
        <ele>1397.41357</ele>
        <time>2011-04-17T08:07:55+02:00</time>
      </trkpt>
      <trkpt lat="44.18615" lon="5.27962">
        <ele>1396.45239</ele>
        <time>2011-04-17T08:08:00+02:00</time>
      </trkpt>
      <trkpt lat="44.18623" lon="5.27971">
        <ele>1395.97168</ele>
        <time>2011-04-17T08:08:02+02:00</time>
      </trkpt>
      <trkpt lat="44.18632" lon="5.27993">
        <ele>1393.56836</ele>
        <time>2011-04-17T08:08:05+02:00</time>
      </trkpt>
      <trkpt lat="44.1864" lon="5.28019">
        <ele>1390.20386</ele>
        <time>2011-04-17T08:08:10+02:00</time>
      </trkpt>
      <trkpt lat="44.18652" lon="5.28057">
        <ele>1386.3584</ele>
        <time>2011-04-17T08:08:16+02:00</time>
      </trkpt>
      <trkpt lat="44.1867" lon="5.28091">
        <ele>1383.47437</ele>
        <time>2011-04-17T08:08:20+02:00</time>
      </trkpt>
      <trkpt lat="44.18691" lon="5.28133">
        <ele>1381.55176</ele>
        <time>2011-04-17T08:08:25+02:00</time>
      </trkpt>
      <trkpt lat="44.18699" lon="5.28139">
        <ele>1378.66797</ele>
        <time>2011-04-17T08:08:29+02:00</time>
      </trkpt>
      <trkpt lat="44.18698" lon="5.28121">
        <ele>1374.34204</ele>
        <time>2011-04-17T08:08:32+02:00</time>
      </trkpt>
      <trkpt lat="44.18696" lon="5.28098">
        <ele>1367.61255</ele>
        <time>2011-04-17T08:08:35+02:00</time>
      </trkpt>
      <trkpt lat="44.18695" lon="5.28079">
        <ele>1364.72876</ele>
        <time>2011-04-17T08:08:37+02:00</time>
      </trkpt>
      <trkpt lat="44.187" lon="5.28024">
        <ele>1360.40283</ele>
        <time>2011-04-17T08:08:42+02:00</time>
      </trkpt>
      <trkpt lat="44.18706" lon="5.27981">
        <ele>1354.63477</ele>
        <time>2011-04-17T08:08:46+02:00</time>
      </trkpt>
      <trkpt lat="44.18709" lon="5.27949">
        <ele>1351.27026</ele>
        <time>2011-04-17T08:08:49+02:00</time>
      </trkpt>
      <trkpt lat="44.18707" lon="5.27915">
        <ele>1348.38623</ele>
        <time>2011-04-17T08:08:52+02:00</time>
      </trkpt>
      <trkpt lat="44.18703" lon="5.27897">
        <ele>1346.46387</ele>
        <time>2011-04-17T08:08:54+02:00</time>
      </trkpt>
      <trkpt lat="44.18714" lon="5.27856">
        <ele>1354.1543</ele>
        <time>2011-04-17T08:08:58+02:00</time>
      </trkpt>
      <trkpt lat="44.18727" lon="5.27846">
        <ele>1353.67358</ele>
        <time>2011-04-17T08:09:00+02:00</time>
      </trkpt>
      <trkpt lat="44.18741" lon="5.27835">
        <ele>1351.75098</ele>
        <time>2011-04-17T08:09:02+02:00</time>
      </trkpt>
      <trkpt lat="44.1877" lon="5.27797">
        <ele>1351.75098</ele>
        <time>2011-04-17T08:09:06+02:00</time>
      </trkpt>
      <trkpt lat="44.18806" lon="5.27737">
        <ele>1349.34766</ele>
        <time>2011-04-17T08:09:12+02:00</time>
      </trkpt>
      <trkpt lat="44.18827" lon="5.277">
        <ele>1345.02173</ele>
        <time>2011-04-17T08:09:16+02:00</time>
      </trkpt>
      <trkpt lat="44.18831" lon="5.27686">
        <ele>1343.57983</ele>
        <time>2011-04-17T08:09:18+02:00</time>
      </trkpt>
      <trkpt lat="44.18832" lon="5.27681">
        <ele>1344.54102</ele>
        <time>2011-04-17T08:09:23+02:00</time>
      </trkpt>
      <trkpt lat="44.18833" lon="5.27683">
        <ele>1345.98315</ele>
        <time>2011-04-17T08:09:29+02:00</time>
      </trkpt>
      <trkpt lat="44.18834" lon="5.27684">
        <ele>1346.46387</ele>
        <time>2011-04-17T08:09:34+02:00</time>
      </trkpt>
      <trkpt lat="44.18846" lon="5.27692">
        <ele>1345.02173</ele>
        <time>2011-04-17T08:09:39+02:00</time>
      </trkpt>
      <trkpt lat="44.18855" lon="5.27714">
        <ele>1341.65723</ele>
        <time>2011-04-17T08:09:43+02:00</time>
      </trkpt>
      <trkpt lat="44.18866" lon="5.2775">
        <ele>1337.33105</ele>
        <time>2011-04-17T08:09:49+02:00</time>
      </trkpt>
      <trkpt lat="44.18866" lon="5.27754">
        <ele>1337.33105</ele>
        <time>2011-04-17T08:09:55+02:00</time>
      </trkpt>
      <trkpt lat="44.18865" lon="5.27759">
        <ele>1336.36987</ele>
        <time>2011-04-17T08:10:01+02:00</time>
      </trkpt>
      <trkpt lat="44.18866" lon="5.27762">
        <ele>1336.36987</ele>
        <time>2011-04-17T08:10:07+02:00</time>
      </trkpt>
      <trkpt lat="44.18867" lon="5.27764">
        <ele>1337.81177</ele>
        <time>2011-04-17T08:10:13+02:00</time>
      </trkpt>
      <trkpt lat="44.18867" lon="5.27769">
        <ele>1338.77319</ele>
        <time>2011-04-17T08:10:18+02:00</time>
      </trkpt>
      <trkpt lat="44.18869" lon="5.27784">
        <ele>1337.33105</ele>
        <time>2011-04-17T08:10:22+02:00</time>
      </trkpt>
      <trkpt lat="44.18872" lon="5.27828">
        <ele>1334.92798</ele>
        <time>2011-04-17T08:10:27+02:00</time>
      </trkpt>
      <trkpt lat="44.18873" lon="5.27888">
        <ele>1331.08276</ele>
        <time>2011-04-17T08:10:33+02:00</time>
      </trkpt>
      <trkpt lat="44.18871" lon="5.27958">
        <ele>1323.39209</ele>
        <time>2011-04-17T08:10:39+02:00</time>
      </trkpt>
      <trkpt lat="44.18865" lon="5.28029">
        <ele>1314.25952</ele>
        <time>2011-04-17T08:10:45+02:00</time>
      </trkpt>
      <trkpt lat="44.18864" lon="5.28046">
        <ele>1311.85645</ele>
        <time>2011-04-17T08:10:47+02:00</time>
      </trkpt>
      <trkpt lat="44.18866" lon="5.28054">
        <ele>1310.41431</ele>
        <time>2011-04-17T08:10:51+02:00</time>
      </trkpt>
      <trkpt lat="44.18869" lon="5.28045">
        <ele>1308.97241</ele>
        <time>2011-04-17T08:10:53+02:00</time>
      </trkpt>
      <trkpt lat="44.18888" lon="5.28015">
        <ele>1302.72363</ele>
        <time>2011-04-17T08:10:58+02:00</time>
      </trkpt>
      <trkpt lat="44.18913" lon="5.27987">
        <ele>1297.43652</ele>
        <time>2011-04-17T08:11:03+02:00</time>
      </trkpt>
      <trkpt lat="44.18942" lon="5.27947">
        <ele>1291.18774</ele>
        <time>2011-04-17T08:11:09+02:00</time>
      </trkpt>
      <trkpt lat="44.18951" lon="5.27931">
        <ele>1288.78467</ele>
        <time>2011-04-17T08:11:13+02:00</time>
      </trkpt>
      <trkpt lat="44.18956" lon="5.27931">
        <ele>1294.55249</ele>
        <time>2011-04-17T08:11:21+02:00</time>
      </trkpt>
      <trkpt lat="44.1896" lon="5.27933">
        <ele>1298.87842</ele>
        <time>2011-04-17T08:11:33+02:00</time>
      </trkpt>
      <trkpt lat="44.18962" lon="5.2793">
        <ele>1297.91724</ele>
        <time>2011-04-17T08:11:37+02:00</time>
      </trkpt>
      <trkpt lat="44.18958" lon="5.2793">
        <ele>1295.0332</ele>
        <time>2011-04-17T08:11:44+02:00</time>
      </trkpt>
      <trkpt lat="44.18957" lon="5.27928">
        <ele>1293.59131</ele>
        <time>2011-04-17T08:11:50+02:00</time>
      </trkpt>
      <trkpt lat="44.18959" lon="5.27937">
        <ele>1291.18774</ele>
        <time>2011-04-17T08:11:54+02:00</time>
      </trkpt>
      <trkpt lat="44.18958" lon="5.27942">
        <ele>1290.70703</ele>
        <time>2011-04-17T08:11:55+02:00</time>
      </trkpt>
      <trkpt lat="44.18943" lon="5.2799">
        <ele>1285.41992</ele>
        <time>2011-04-17T08:12:01+02:00</time>
      </trkpt>
      <trkpt lat="44.18937" lon="5.28007">
        <ele>1283.97803</ele>
        <time>2011-04-17T08:12:03+02:00</time>
      </trkpt>
      <trkpt lat="44.1893" lon="5.28036">
        <ele>1282.05542</ele>
        <time>2011-04-17T08:12:06+02:00</time>
      </trkpt>
      <trkpt lat="44.18926" lon="5.28068">
        <ele>1277.72949</ele>
        <time>2011-04-17T08:12:09+02:00</time>
      </trkpt>
      <trkpt lat="44.18931" lon="5.28107">
        <ele>1271.00024</ele>
        <time>2011-04-17T08:12:13+02:00</time>
      </trkpt>
      <trkpt lat="44.18934" lon="5.28126">
        <ele>1267.15503</ele>
        <time>2011-04-17T08:12:16+02:00</time>
      </trkpt>
      <trkpt lat="44.18936" lon="5.28143">
        <ele>1262.8291</ele>
        <time>2011-04-17T08:12:19+02:00</time>
      </trkpt>
      <trkpt lat="44.18933" lon="5.28177">
        <ele>1257.06104</ele>
        <time>2011-04-17T08:12:25+02:00</time>
      </trkpt>
      <trkpt lat="44.18925" lon="5.28205">
        <ele>1257.06104</ele>
        <time>2011-04-17T08:12:29+02:00</time>
      </trkpt>
      <trkpt lat="44.18925" lon="5.28213">
        <ele>1255.61914</ele>
        <time>2011-04-17T08:12:32+02:00</time>
      </trkpt>
      <trkpt lat="44.18934" lon="5.282">
        <ele>1250.8125</ele>
        <time>2011-04-17T08:12:37+02:00</time>
      </trkpt>
      <trkpt lat="44.18938" lon="5.28198">
        <ele>1250.33203</ele>
        <time>2011-04-17T08:12:38+02:00</time>
      </trkpt>
      <trkpt lat="44.18955" lon="5.28189">
        <ele>1246.0061</ele>
        <time>2011-04-17T08:12:43+02:00</time>
      </trkpt>
      <trkpt lat="44.18965" lon="5.28178">
        <ele>1239.75732</ele>
        <time>2011-04-17T08:12:47+02:00</time>
      </trkpt>
      <trkpt lat="44.18971" lon="5.28175">
        <ele>1238.31543</ele>
        <time>2011-04-17T08:12:49+02:00</time>
      </trkpt>
      <trkpt lat="44.18979" lon="5.28152">
        <ele>1229.66357</ele>
        <time>2011-04-17T08:12:54+02:00</time>
      </trkpt>
      <trkpt lat="44.18979" lon="5.28124">
        <ele>1220.05029</ele>
        <time>2011-04-17T08:12:59+02:00</time>
      </trkpt>
      <trkpt lat="44.1898" lon="5.28112">
        <ele>1216.20508</ele>
        <time>2011-04-17T08:13:01+02:00</time>
      </trkpt>
      <trkpt lat="44.18983" lon="5.2809">
        <ele>1214.28247</ele>
        <time>2011-04-17T08:13:05+02:00</time>
      </trkpt>
      <trkpt lat="44.18997" lon="5.28067">
        <ele>1212.35986</ele>
        <time>2011-04-17T08:13:10+02:00</time>
      </trkpt>
      <trkpt lat="44.19019" lon="5.28041">
        <ele>1208.99512</ele>
        <time>2011-04-17T08:13:15+02:00</time>
      </trkpt>
      <trkpt lat="44.19037" lon="5.2802">
        <ele>1208.03394</ele>
        <time>2011-04-17T08:13:20+02:00</time>
      </trkpt>
      <trkpt lat="44.19044" lon="5.28007">
        <ele>1206.11108</ele>
        <time>2011-04-17T08:13:24+02:00</time>
      </trkpt>
      <trkpt lat="44.19053" lon="5.27981">
        <ele>1203.70801</ele>
        <time>2011-04-17T08:13:30+02:00</time>
      </trkpt>
      <trkpt lat="44.19059" lon="5.27949">
        <ele>1202.74658</ele>
        <time>2011-04-17T08:13:36+02:00</time>
      </trkpt>
      <trkpt lat="44.19067" lon="5.27929">
        <ele>1201.7854</ele>
        <time>2011-04-17T08:13:41+02:00</time>
      </trkpt>
      <trkpt lat="44.19079" lon="5.27905">
        <ele>1201.30469</ele>
        <time>2011-04-17T08:13:46+02:00</time>
      </trkpt>
      <trkpt lat="44.1909" lon="5.27882">
        <ele>1197.45947</ele>
        <time>2011-04-17T08:13:51+02:00</time>
      </trkpt>
      <trkpt lat="44.19091" lon="5.27879">
        <ele>1196.49829</ele>
        <time>2011-04-17T08:13:52+02:00</time>
      </trkpt>
      <trkpt lat="44.19093" lon="5.27887">
        <ele>1192.65283</ele>
        <time>2011-04-17T08:13:56+02:00</time>
      </trkpt>
      <trkpt lat="44.19092" lon="5.2789">
        <ele>1193.1333</ele>
        <time>2011-04-17T08:13:57+02:00</time>
      </trkpt>
      <trkpt lat="44.19085" lon="5.27919">
        <ele>1189.28809</ele>
        <time>2011-04-17T08:14:03+02:00</time>
      </trkpt>
      <trkpt lat="44.19086" lon="5.27953">
        <ele>1182.07837</ele>
        <time>2011-04-17T08:14:08+02:00</time>
      </trkpt>
      <trkpt lat="44.19087" lon="5.27976">
        <ele>1178.71362</ele>
        <time>2011-04-17T08:14:11+02:00</time>
      </trkpt>
      <trkpt lat="44.19088" lon="5.28003">
        <ele>1175.82959</ele>
        <time>2011-04-17T08:14:15+02:00</time>
      </trkpt>
      <trkpt lat="44.19087" lon="5.2802">
        <ele>1173.90698</ele>
        <time>2011-04-17T08:14:20+02:00</time>
      </trkpt>
      <trkpt lat="44.19084" lon="5.28051">
        <ele>1171.02319</ele>
        <time>2011-04-17T08:14:25+02:00</time>
      </trkpt>
      <trkpt lat="44.1908" lon="5.28071">
        <ele>1171.02319</ele>
        <time>2011-04-17T08:14:28+02:00</time>
      </trkpt>
      <trkpt lat="44.19078" lon="5.28102">
        <ele>1168.13916</ele>
        <time>2011-04-17T08:14:32+02:00</time>
      </trkpt>
      <trkpt lat="44.19078" lon="5.28128">
        <ele>1162.85181</ele>
        <time>2011-04-17T08:14:35+02:00</time>
      </trkpt>
      <trkpt lat="44.19081" lon="5.28146">
        <ele>1159.96777</ele>
        <time>2011-04-17T08:14:37+02:00</time>
      </trkpt>
      <trkpt lat="44.19083" lon="5.28157">
        <ele>1157.08398</ele>
        <time>2011-04-17T08:14:39+02:00</time>
      </trkpt>
      <trkpt lat="44.19086" lon="5.28176">
        <ele>1153.71948</ele>
        <time>2011-04-17T08:14:42+02:00</time>
      </trkpt>
      <trkpt lat="44.19089" lon="5.282">
        <ele>1147.95142</ele>
        <time>2011-04-17T08:14:46+02:00</time>
      </trkpt>
      <trkpt lat="44.19088" lon="5.28211">
        <ele>1144.58667</ele>
        <time>2011-04-17T08:14:51+02:00</time>
      </trkpt>
      <trkpt lat="44.19088" lon="5.28219">
        <ele>1142.18359</ele>
        <time>2011-04-17T08:14:54+02:00</time>
      </trkpt>
      <trkpt lat="44.19088" lon="5.28233">
        <ele>1138.81909</ele>
        <time>2011-04-17T08:14:58+02:00</time>
      </trkpt>
      <trkpt lat="44.19088" lon="5.28237">
        <ele>1138.81909</ele>
        <time>2011-04-17T08:14:59+02:00</time>
      </trkpt>
      <trkpt lat="44.19083" lon="5.28261">
        <ele>1136.41577</ele>
        <time>2011-04-17T08:15:04+02:00</time>
      </trkpt>
      <trkpt lat="44.19072" lon="5.28278">
        <ele>1135.45435</ele>
        <time>2011-04-17T08:15:08+02:00</time>
      </trkpt>
      <trkpt lat="44.19063" lon="5.28286">
        <ele>1134.01245</ele>
        <time>2011-04-17T08:15:13+02:00</time>
      </trkpt>
      <trkpt lat="44.19053" lon="5.28299">
        <ele>1133.53174</ele>
        <time>2011-04-17T08:15:18+02:00</time>
      </trkpt>
      <trkpt lat="44.19052" lon="5.28302">
        <ele>1133.53174</ele>
        <time>2011-04-17T08:15:19+02:00</time>
      </trkpt>
      <trkpt lat="44.19054" lon="5.28308">
        <ele>1136.89624</ele>
        <time>2011-04-17T08:15:26+02:00</time>
      </trkpt>
      <trkpt lat="44.19052" lon="5.28309">
        <ele>1138.33838</ele>
        <time>2011-04-17T08:15:30+02:00</time>
      </trkpt>
      <trkpt lat="44.19054" lon="5.28312">
        <ele>1140.26099</ele>
        <time>2011-04-17T08:15:38+02:00</time>
      </trkpt>
      <trkpt lat="44.19055" lon="5.28304">
        <ele>1143.14478</ele>
        <time>2011-04-17T08:15:49+02:00</time>
      </trkpt>
      <trkpt lat="44.1906" lon="5.283">
        <ele>1152.27734</ele>
        <time>2011-04-17T08:16:00+02:00</time>
      </trkpt>
      <trkpt lat="44.19061" lon="5.28305">
        <ele>1152.27734</ele>
        <time>2011-04-17T08:16:07+02:00</time>
      </trkpt>
      <trkpt lat="44.19064" lon="5.28307">
        <ele>1151.31616</ele>
        <time>2011-04-17T08:16:12+02:00</time>
      </trkpt>
      <trkpt lat="44.19067" lon="5.28309">
        <ele>1152.75806</ele>
        <time>2011-04-17T08:16:17+02:00</time>
      </trkpt>
      <trkpt lat="44.19076" lon="5.28307">
        <ele>1154.2002</ele>
        <time>2011-04-17T08:16:24+02:00</time>
      </trkpt>
      <trkpt lat="44.19087" lon="5.28305">
        <ele>1148.43213</ele>
        <time>2011-04-17T08:16:29+02:00</time>
      </trkpt>
      <trkpt lat="44.19102" lon="5.28298">
        <ele>1139.78027</ele>
        <time>2011-04-17T08:16:34+02:00</time>
      </trkpt>
      <trkpt lat="44.19103" lon="5.28297">
        <ele>1135.93506</ele>
        <time>2011-04-17T08:16:36+02:00</time>
      </trkpt>
      <trkpt lat="44.19101" lon="5.28295">
        <ele>1131.60889</ele>
        <time>2011-04-17T08:16:39+02:00</time>
      </trkpt>
      <trkpt lat="44.19109" lon="5.2829">
        <ele>1127.2832</ele>
        <time>2011-04-17T08:16:43+02:00</time>
      </trkpt>
      <trkpt lat="44.19121" lon="5.28275">
        <ele>1123.43799</ele>
        <time>2011-04-17T08:16:47+02:00</time>
      </trkpt>
      <trkpt lat="44.1913" lon="5.28245">
        <ele>1118.63135</ele>
        <time>2011-04-17T08:16:53+02:00</time>
      </trkpt>
      <trkpt lat="44.19133" lon="5.28232">
        <ele>1115.74731</ele>
        <time>2011-04-17T08:16:55+02:00</time>
      </trkpt>
      <trkpt lat="44.19139" lon="5.28215">
        <ele>1112.38257</ele>
        <time>2011-04-17T08:16:58+02:00</time>
      </trkpt>
      <trkpt lat="44.19143" lon="5.28206">
        <ele>1111.42139</ele>
        <time>2011-04-17T08:17:00+02:00</time>
      </trkpt>
      <trkpt lat="44.19154" lon="5.28174">
        <ele>1105.65356</ele>
        <time>2011-04-17T08:17:05+02:00</time>
      </trkpt>
      <trkpt lat="44.19167" lon="5.28146">
        <ele>1101.80835</ele>
        <time>2011-04-17T08:17:09+02:00</time>
      </trkpt>
      <trkpt lat="44.19193" lon="5.28121">
        <ele>1096.04028</ele>
        <time>2011-04-17T08:17:14+02:00</time>
      </trkpt>
      <trkpt lat="44.19208" lon="5.28107">
        <ele>1092.19507</ele>
        <time>2011-04-17T08:17:17+02:00</time>
      </trkpt>
      <trkpt lat="44.19225" lon="5.28092">
        <ele>1088.34985</ele>
        <time>2011-04-17T08:17:21+02:00</time>
      </trkpt>
      <trkpt lat="44.19234" lon="5.28078">
        <ele>1085.94653</ele>
        <time>2011-04-17T08:17:24+02:00</time>
      </trkpt>
      <trkpt lat="44.19244" lon="5.28076">
        <ele>1082.10107</ele>
        <time>2011-04-17T08:17:28+02:00</time>
      </trkpt>
      <trkpt lat="44.1924" lon="5.28088">
        <ele>1078.25586</ele>
        <time>2011-04-17T08:17:31+02:00</time>
      </trkpt>
      <trkpt lat="44.19222" lon="5.28124">
        <ele>1074.41064</ele>
        <time>2011-04-17T08:17:38+02:00</time>
      </trkpt>
      <trkpt lat="44.19217" lon="5.28132">
        <ele>1073.44946</ele>
        <time>2011-04-17T08:17:40+02:00</time>
      </trkpt>
      <trkpt lat="44.19208" lon="5.28156">
        <ele>1076.33325</ele>
        <time>2011-04-17T08:17:44+02:00</time>
      </trkpt>
      <trkpt lat="44.19204" lon="5.28194">
        <ele>1075.85254</ele>
        <time>2011-04-17T08:17:49+02:00</time>
      </trkpt>
      <trkpt lat="44.19205" lon="5.28201">
        <ele>1074.41064</ele>
        <time>2011-04-17T08:17:50+02:00</time>
      </trkpt>
      <trkpt lat="44.19208" lon="5.2822">
        <ele>1070.08472</ele>
        <time>2011-04-17T08:17:53+02:00</time>
      </trkpt>
      <trkpt lat="44.19208" lon="5.28243">
        <ele>1064.79736</ele>
        <time>2011-04-17T08:17:58+02:00</time>
      </trkpt>
      <trkpt lat="44.19207" lon="5.28261">
        <ele>1060.47144</ele>
        <time>2011-04-17T08:18:04+02:00</time>
      </trkpt>
      <trkpt lat="44.19205" lon="5.28281">
        <ele>1058.06836</ele>
        <time>2011-04-17T08:18:10+02:00</time>
      </trkpt>
      <trkpt lat="44.19205" lon="5.28283">
        <ele>1057.58765</ele>
        <time>2011-04-17T08:18:11+02:00</time>
      </trkpt>
      <trkpt lat="44.192" lon="5.28299">
        <ele>1053.26172</ele>
        <time>2011-04-17T08:18:16+02:00</time>
      </trkpt>
      <trkpt lat="44.19186" lon="5.2833">
        <ele>1048.45483</ele>
        <time>2011-04-17T08:18:21+02:00</time>
      </trkpt>
      <trkpt lat="44.19183" lon="5.28335">
        <ele>1047.49365</ele>
        <time>2011-04-17T08:18:22+02:00</time>
      </trkpt>
      <trkpt lat="44.19177" lon="5.28343">
        <ele>1045.57104</ele>
        <time>2011-04-17T08:18:24+02:00</time>
      </trkpt>
      <trkpt lat="44.19167" lon="5.28354">
        <ele>1043.64844</ele>
        <time>2011-04-17T08:18:29+02:00</time>
      </trkpt>
      <trkpt lat="44.19166" lon="5.28356">
        <ele>1043.16772</ele>
        <time>2011-04-17T08:18:31+02:00</time>
      </trkpt>
      <trkpt lat="44.19164" lon="5.28363">
        <ele>1042.68726</ele>
        <time>2011-04-17T08:18:36+02:00</time>
      </trkpt>
      <trkpt lat="44.19166" lon="5.28367">
        <ele>1042.68726</ele>
        <time>2011-04-17T08:18:40+02:00</time>
      </trkpt>
      <trkpt lat="44.19169" lon="5.28364">
        <ele>1045.09033</ele>
        <time>2011-04-17T08:18:45+02:00</time>
      </trkpt>
      <trkpt lat="44.19175" lon="5.28363">
        <ele>1044.60962</ele>
        <time>2011-04-17T08:18:49+02:00</time>
      </trkpt>
      <trkpt lat="44.19179" lon="5.28362">
        <ele>1044.60962</ele>
        <time>2011-04-17T08:18:51+02:00</time>
      </trkpt>
      <trkpt lat="44.19191" lon="5.28358">
        <ele>1043.16772</ele>
        <time>2011-04-17T08:18:57+02:00</time>
      </trkpt>
      <trkpt lat="44.19195" lon="5.28356">
        <ele>1041.24512</ele>
        <time>2011-04-17T08:19:03+02:00</time>
      </trkpt>
      <trkpt lat="44.19203" lon="5.28354">
        <ele>1039.32251</ele>
        <time>2011-04-17T08:19:07+02:00</time>
      </trkpt>
      <trkpt lat="44.1922" lon="5.28346">
        <ele>1037.3999</ele>
        <time>2011-04-17T08:19:11+02:00</time>
      </trkpt>
      <trkpt lat="44.19244" lon="5.28333">
        <ele>1033.55444</ele>
        <time>2011-04-17T08:19:16+02:00</time>
      </trkpt>
      <trkpt lat="44.19259" lon="5.28315">
        <ele>1029.22852</ele>
        <time>2011-04-17T08:19:20+02:00</time>
      </trkpt>
      <trkpt lat="44.19267" lon="5.28296">
        <ele>1025.3833</ele>
        <time>2011-04-17T08:19:23+02:00</time>
      </trkpt>
      <trkpt lat="44.19278" lon="5.28258">
        <ele>1019.61548</ele>
        <time>2011-04-17T08:19:28+02:00</time>
      </trkpt>
      <trkpt lat="44.19292" lon="5.28232">
        <ele>1014.32812</ele>
        <time>2011-04-17T08:19:32+02:00</time>
      </trkpt>
      <trkpt lat="44.1931" lon="5.28211">
        <ele>1009.52173</ele>
        <time>2011-04-17T08:19:37+02:00</time>
      </trkpt>
      <trkpt lat="44.19316" lon="5.28209">
        <ele>1008.5603</ele>
        <time>2011-04-17T08:19:38+02:00</time>
      </trkpt>
      <trkpt lat="44.1934" lon="5.28204">
        <ele>1005.67651</ele>
        <time>2011-04-17T08:19:42+02:00</time>
      </trkpt>
      <trkpt lat="44.19361" lon="5.28194">
        <ele>1006.15698</ele>
        <time>2011-04-17T08:19:46+02:00</time>
      </trkpt>
      <trkpt lat="44.19391" lon="5.2816">
        <ele>996.543945</ele>
        <time>2011-04-17T08:19:53+02:00</time>
      </trkpt>
      <trkpt lat="44.19395" lon="5.28155">
        <ele>995.58252</ele>
        <time>2011-04-17T08:19:54+02:00</time>
      </trkpt>
      <trkpt lat="44.19405" lon="5.28137">
        <ele>992.218018</ele>
        <time>2011-04-17T08:19:57+02:00</time>
      </trkpt>
      <trkpt lat="44.1941" lon="5.28124">
        <ele>990.29541</ele>
        <time>2011-04-17T08:19:59+02:00</time>
      </trkpt>
      <trkpt lat="44.19414" lon="5.28103">
        <ele>986.449951</ele>
        <time>2011-04-17T08:20:02+02:00</time>
      </trkpt>
      <trkpt lat="44.19417" lon="5.28084">
        <ele>981.162842</ele>
        <time>2011-04-17T08:20:06+02:00</time>
      </trkpt>
      <trkpt lat="44.19421" lon="5.28065">
        <ele>979.23999</ele>
        <time>2011-04-17T08:20:10+02:00</time>
      </trkpt>
      <trkpt lat="44.19424" lon="5.28061">
        <ele>979.23999</ele>
        <time>2011-04-17T08:20:15+02:00</time>
      </trkpt>
      <trkpt lat="44.19424" lon="5.28064">
        <ele>978.759521</ele>
        <time>2011-04-17T08:20:20+02:00</time>
      </trkpt>
      <trkpt lat="44.19426" lon="5.28078">
        <ele>978.759521</ele>
        <time>2011-04-17T08:20:26+02:00</time>
      </trkpt>
      <trkpt lat="44.19428" lon="5.28099">
        <ele>977.317627</ele>
        <time>2011-04-17T08:20:29+02:00</time>
      </trkpt>
      <trkpt lat="44.1943" lon="5.28146">
        <ele>973.952881</ele>
        <time>2011-04-17T08:20:34+02:00</time>
      </trkpt>
      <trkpt lat="44.19423" lon="5.28184">
        <ele>970.107422</ele>
        <time>2011-04-17T08:20:38+02:00</time>
      </trkpt>
      <trkpt lat="44.19398" lon="5.28238">
        <ele>962.897705</ele>
        <time>2011-04-17T08:20:44+02:00</time>
      </trkpt>
      <trkpt lat="44.19391" lon="5.28287">
        <ele>959.533203</ele>
        <time>2011-04-17T08:20:49+02:00</time>
      </trkpt>
      <trkpt lat="44.19405" lon="5.28325">
        <ele>954.726318</ele>
        <time>2011-04-17T08:20:53+02:00</time>
      </trkpt>
      <trkpt lat="44.19413" lon="5.28343">
        <ele>952.803711</ele>
        <time>2011-04-17T08:20:56+02:00</time>
      </trkpt>
      <trkpt lat="44.19417" lon="5.28359">
        <ele>950.881104</ele>
        <time>2011-04-17T08:20:59+02:00</time>
      </trkpt>
      <trkpt lat="44.19418" lon="5.28367">
        <ele>949.919922</ele>
        <time>2011-04-17T08:21:03+02:00</time>
      </trkpt>
      <trkpt lat="44.19422" lon="5.28385">
        <ele>948.958496</ele>
        <time>2011-04-17T08:21:08+02:00</time>
      </trkpt>
      <trkpt lat="44.19429" lon="5.28421">
        <ele>947.035889</ele>
        <time>2011-04-17T08:21:13+02:00</time>
      </trkpt>
      <trkpt lat="44.1943" lon="5.28437">
        <ele>945.593994</ele>
        <time>2011-04-17T08:21:15+02:00</time>
      </trkpt>
      <trkpt lat="44.1942" lon="5.28475">
        <ele>941.748779</ele>
        <time>2011-04-17T08:21:20+02:00</time>
      </trkpt>
      <trkpt lat="44.19414" lon="5.2848">
        <ele>940.787354</ele>
        <time>2011-04-17T08:21:21+02:00</time>
      </trkpt>
      <trkpt lat="44.19402" lon="5.28489">
        <ele>938.864746</ele>
        <time>2011-04-17T08:21:23+02:00</time>
      </trkpt>
      <trkpt lat="44.19387" lon="5.285">
        <ele>936.941895</ele>
        <time>2011-04-17T08:21:25+02:00</time>
      </trkpt>
      <trkpt lat="44.19352" lon="5.28528">
        <ele>931.654785</ele>
        <time>2011-04-17T08:21:30+02:00</time>
      </trkpt>
      <trkpt lat="44.19313" lon="5.28551">
        <ele>925.40625</ele>
        <time>2011-04-17T08:21:35+02:00</time>
      </trkpt>
      <trkpt lat="44.19287" lon="5.28562">
        <ele>921.560791</ele>
        <time>2011-04-17T08:21:39+02:00</time>
      </trkpt>
      <trkpt lat="44.19285" lon="5.28569">
        <ele>918.677002</ele>
        <time>2011-04-17T08:21:43+02:00</time>
      </trkpt>
      <trkpt lat="44.19302" lon="5.28567">
        <ele>918.677002</ele>
        <time>2011-04-17T08:21:47+02:00</time>
      </trkpt>
      <trkpt lat="44.19308" lon="5.28566">
        <ele>918.677002</ele>
        <time>2011-04-17T08:21:48+02:00</time>
      </trkpt>
      <trkpt lat="44.19356" lon="5.28566">
        <ele>916.273682</ele>
        <time>2011-04-17T08:21:55+02:00</time>
      </trkpt>
      <trkpt lat="44.19399" lon="5.28569">
        <ele>913.389893</ele>
        <time>2011-04-17T08:22:01+02:00</time>
      </trkpt>
      <trkpt lat="44.19413" lon="5.28565">
        <ele>910.986572</ele>
        <time>2011-04-17T08:22:03+02:00</time>
      </trkpt>
      <trkpt lat="44.1945" lon="5.28568">
        <ele>903.776611</ele>
        <time>2011-04-17T08:22:08+02:00</time>
      </trkpt>
      <trkpt lat="44.19458" lon="5.28569">
        <ele>902.815186</ele>
        <time>2011-04-17T08:22:09+02:00</time>
      </trkpt>
      <trkpt lat="44.19498" lon="5.28572">
        <ele>896.086182</ele>
        <time>2011-04-17T08:22:14+02:00</time>
      </trkpt>
      <trkpt lat="44.1953" lon="5.28568">
        <ele>889.837402</ele>
        <time>2011-04-17T08:22:18+02:00</time>
      </trkpt>
      <trkpt lat="44.1955" lon="5.28553">
        <ele>884.550293</ele>
        <time>2011-04-17T08:22:21+02:00</time>
      </trkpt>
      <trkpt lat="44.19561" lon="5.28533">
        <ele>881.185791</ele>
        <time>2011-04-17T08:22:24+02:00</time>
      </trkpt>
      <trkpt lat="44.19566" lon="5.28518">
        <ele>878.301758</ele>
        <time>2011-04-17T08:22:26+02:00</time>
      </trkpt>
      <trkpt lat="44.19576" lon="5.28477">
        <ele>873.495117</ele>
        <time>2011-04-17T08:22:31+02:00</time>
      </trkpt>
      <trkpt lat="44.19586" lon="5.28436">
        <ele>869.169189</ele>
        <time>2011-04-17T08:22:35+02:00</time>
      </trkpt>
      <trkpt lat="44.19593" lon="5.28392">
        <ele>862.920654</ele>
        <time>2011-04-17T08:22:40+02:00</time>
      </trkpt>
      <trkpt lat="44.19581" lon="5.28347">
        <ele>856.671875</ele>
        <time>2011-04-17T08:22:45+02:00</time>
      </trkpt>
      <trkpt lat="44.19586" lon="5.28304">
        <ele>856.671875</ele>
        <time>2011-04-17T08:22:49+02:00</time>
      </trkpt>
      <trkpt lat="44.19602" lon="5.28277">
        <ele>853.307373</ele>
        <time>2011-04-17T08:22:52+02:00</time>
      </trkpt>
      <trkpt lat="44.19615" lon="5.28265">
        <ele>850.423584</ele>
        <time>2011-04-17T08:22:54+02:00</time>
      </trkpt>
      <trkpt lat="44.19635" lon="5.28242">
        <ele>847.539551</ele>
        <time>2011-04-17T08:22:58+02:00</time>
      </trkpt>
      <trkpt lat="44.19647" lon="5.28204">
        <ele>842.73291</ele>
        <time>2011-04-17T08:23:03+02:00</time>
      </trkpt>
      <trkpt lat="44.19647" lon="5.28195">
        <ele>841.290771</ele>
        <time>2011-04-17T08:23:04+02:00</time>
      </trkpt>
      <trkpt lat="44.19649" lon="5.28135">
        <ele>833.600342</ele>
        <time>2011-04-17T08:23:10+02:00</time>
      </trkpt>
      <trkpt lat="44.19654" lon="5.28074">
        <ele>828.313232</ele>
        <time>2011-04-17T08:23:15+02:00</time>
      </trkpt>
      <trkpt lat="44.19655" lon="5.28062">
        <ele>827.351807</ele>
        <time>2011-04-17T08:23:16+02:00</time>
      </trkpt>
      <trkpt lat="44.19672" lon="5.28009">
        <ele>823.025879</ele>
        <time>2011-04-17T08:23:21+02:00</time>
      </trkpt>
      <trkpt lat="44.19685" lon="5.27993">
        <ele>821.103271</ele>
        <time>2011-04-17T08:23:23+02:00</time>
      </trkpt>
      <trkpt lat="44.19703" lon="5.27978">
        <ele>818.699951</ele>
        <time>2011-04-17T08:23:26+02:00</time>
      </trkpt>
      <trkpt lat="44.19713" lon="5.27966">
        <ele>817.258057</ele>
        <time>2011-04-17T08:23:30+02:00</time>
      </trkpt>
      <trkpt lat="44.19714" lon="5.27956">
        <ele>814.374023</ele>
        <time>2011-04-17T08:23:34+02:00</time>
      </trkpt>
      <trkpt lat="44.19722" lon="5.27918">
        <ele>808.605957</ele>
        <time>2011-04-17T08:23:39+02:00</time>
      </trkpt>
      <trkpt lat="44.19724" lon="5.2791">
        <ele>808.125488</ele>
        <time>2011-04-17T08:23:40+02:00</time>
      </trkpt>
      <trkpt lat="44.19742" lon="5.27901">
        <ele>803.318848</ele>
        <time>2011-04-17T08:23:44+02:00</time>
      </trkpt>
      <trkpt lat="44.19757" lon="5.27901">
        <ele>800.435059</ele>
        <time>2011-04-17T08:23:46+02:00</time>
      </trkpt>
      <trkpt lat="44.19786" lon="5.27887">
        <ele>793.705566</ele>
        <time>2011-04-17T08:23:51+02:00</time>
      </trkpt>
      <trkpt lat="44.19811" lon="5.2788">
        <ele>788.418457</ele>
        <time>2011-04-17T08:23:55+02:00</time>
      </trkpt>
      <trkpt lat="44.19825" lon="5.27892">
        <ele>781.689209</ele>
        <time>2011-04-17T08:23:59+02:00</time>
      </trkpt>
      <trkpt lat="44.19825" lon="5.27914">
        <ele>780.247314</ele>
        <time>2011-04-17T08:24:02+02:00</time>
      </trkpt>
      <trkpt lat="44.19824" lon="5.27923">
        <ele>779.766357</ele>
        <time>2011-04-17T08:24:03+02:00</time>
      </trkpt>
      <trkpt lat="44.19808" lon="5.2798">
        <ele>775.921143</ele>
        <time>2011-04-17T08:24:09+02:00</time>
      </trkpt>
      <trkpt lat="44.19792" lon="5.28034">
        <ele>772.075928</ele>
        <time>2011-04-17T08:24:14+02:00</time>
      </trkpt>
      <trkpt lat="44.19789" lon="5.28044">
        <ele>771.114746</ele>
        <time>2011-04-17T08:24:15+02:00</time>
      </trkpt>
      <trkpt lat="44.19771" lon="5.28076">
        <ele>768.230713</ele>
        <time>2011-04-17T08:24:19+02:00</time>
      </trkpt>
      <trkpt lat="44.1976" lon="5.28106">
        <ele>765.827637</ele>
        <time>2011-04-17T08:24:22+02:00</time>
      </trkpt>
      <trkpt lat="44.19761" lon="5.28137">
        <ele>763.424072</ele>
        <time>2011-04-17T08:24:25+02:00</time>
      </trkpt>
      <trkpt lat="44.19762" lon="5.28149">
        <ele>762.462646</ele>
        <time>2011-04-17T08:24:26+02:00</time>
      </trkpt>
      <trkpt lat="44.19784" lon="5.28222">
        <ele>755.733643</ele>
        <time>2011-04-17T08:24:32+02:00</time>
      </trkpt>
      <trkpt lat="44.198" lon="5.28266">
        <ele>751.407715</ele>
        <time>2011-04-17T08:24:36+02:00</time>
      </trkpt>
      <trkpt lat="44.19802" lon="5.28296">
        <ele>749.96582</ele>
        <time>2011-04-17T08:24:40+02:00</time>
      </trkpt>
      <trkpt lat="44.19809" lon="5.28301">
        <ele>749.004395</ele>
        <time>2011-04-17T08:24:44+02:00</time>
      </trkpt>
      <trkpt lat="44.19815" lon="5.2829">
        <ele>748.523682</ele>
        <time>2011-04-17T08:24:47+02:00</time>
      </trkpt>
      <trkpt lat="44.19818" lon="5.28284">
        <ele>747.562256</ele>
        <time>2011-04-17T08:24:48+02:00</time>
      </trkpt>
      <trkpt lat="44.19822" lon="5.28259">
        <ele>745.158936</ele>
        <time>2011-04-17T08:24:52+02:00</time>
      </trkpt>
      <trkpt lat="44.19816" lon="5.28226">
        <ele>741.794434</ele>
        <time>2011-04-17T08:24:56+02:00</time>
      </trkpt>
      <trkpt lat="44.19815" lon="5.28215">
        <ele>740.833008</ele>
        <time>2011-04-17T08:24:57+02:00</time>
      </trkpt>
      <trkpt lat="44.19821" lon="5.28172">
        <ele>737.949219</ele>
        <time>2011-04-17T08:25:01+02:00</time>
      </trkpt>
      <trkpt lat="44.19829" lon="5.2815">
        <ele>736.987793</ele>
        <time>2011-04-17T08:25:03+02:00</time>
      </trkpt>
      <trkpt lat="44.19852" lon="5.28121">
        <ele>734.584717</ele>
        <time>2011-04-17T08:25:07+02:00</time>
      </trkpt>
      <trkpt lat="44.19868" lon="5.28105">
        <ele>733.142578</ele>
        <time>2011-04-17T08:25:10+02:00</time>
      </trkpt>
      <trkpt lat="44.19894" lon="5.2807">
        <ele>726.894043</ele>
        <time>2011-04-17T08:25:16+02:00</time>
      </trkpt>
      <trkpt lat="44.19924" lon="5.28033">
        <ele>721.126221</ele>
        <time>2011-04-17T08:25:21+02:00</time>
      </trkpt>
      <trkpt lat="44.19962" lon="5.27992">
        <ele>715.358154</ele>
        <time>2011-04-17T08:25:27+02:00</time>
      </trkpt>
      <trkpt lat="44.19997" lon="5.2795">
        <ele>709.109619</ele>
        <time>2011-04-17T08:25:33+02:00</time>
      </trkpt>
      <trkpt lat="44.2001" lon="5.27931">
        <ele>705.264404</ele>
        <time>2011-04-17T08:25:36+02:00</time>
      </trkpt>
      <trkpt lat="44.20017" lon="5.27916">
        <ele>702.861084</ele>
        <time>2011-04-17T08:25:38+02:00</time>
      </trkpt>
      <trkpt lat="44.20033" lon="5.27905">
        <ele>699.015625</ele>
        <time>2011-04-17T08:25:42+02:00</time>
      </trkpt>
      <trkpt lat="44.20039" lon="5.27908">
        <ele>698.054443</ele>
        <time>2011-04-17T08:25:43+02:00</time>
      </trkpt>
      <trkpt lat="44.20052" lon="5.2791">
        <ele>699.977051</ele>
        <time>2011-04-17T08:25:45+02:00</time>
      </trkpt>
      <trkpt lat="44.20066" lon="5.27916">
        <ele>699.496338</ele>
        <time>2011-04-17T08:25:49+02:00</time>
      </trkpt>
      <trkpt lat="44.20072" lon="5.27922">
        <ele>697.57373</ele>
        <time>2011-04-17T08:25:51+02:00</time>
      </trkpt>
      <trkpt lat="44.20079" lon="5.27928">
        <ele>696.612549</ele>
        <time>2011-04-17T08:25:53+02:00</time>
      </trkpt>
      <trkpt lat="44.20092" lon="5.27955">
        <ele>691.805908</ele>
        <time>2011-04-17T08:25:59+02:00</time>
      </trkpt>
      <trkpt lat="44.20101" lon="5.27967">
        <ele>688.922119</ele>
        <time>2011-04-17T08:26:02+02:00</time>
      </trkpt>
      <trkpt lat="44.20118" lon="5.27973">
        <ele>686.518799</ele>
        <time>2011-04-17T08:26:06+02:00</time>
      </trkpt>
      <trkpt lat="44.20127" lon="5.2797">
        <ele>686.038086</ele>
        <time>2011-04-17T08:26:08+02:00</time>
      </trkpt>
      <trkpt lat="44.20136" lon="5.27962">
        <ele>684.596191</ele>
        <time>2011-04-17T08:26:10+02:00</time>
      </trkpt>
      <trkpt lat="44.20145" lon="5.27944">
        <ele>680.750732</ele>
        <time>2011-04-17T08:26:14+02:00</time>
      </trkpt>
      <trkpt lat="44.20147" lon="5.27915">
        <ele>676.424805</ele>
        <time>2011-04-17T08:26:19+02:00</time>
      </trkpt>
      <trkpt lat="44.20148" lon="5.2788">
        <ele>673.541016</ele>
        <time>2011-04-17T08:26:25+02:00</time>
      </trkpt>
      <trkpt lat="44.20152" lon="5.2784">
        <ele>672.57959</ele>
        <time>2011-04-17T08:26:31+02:00</time>
      </trkpt>
      <trkpt lat="44.20158" lon="5.27821">
        <ele>671.618164</ele>
        <time>2011-04-17T08:26:35+02:00</time>
      </trkpt>
      <trkpt lat="44.20173" lon="5.27806">
        <ele>668.253662</ele>
        <time>2011-04-17T08:26:40+02:00</time>
      </trkpt>
      <trkpt lat="44.20189" lon="5.27786">
        <ele>664.888916</ele>
        <time>2011-04-17T08:26:46+02:00</time>
      </trkpt>
      <trkpt lat="44.20198" lon="5.27769">
        <ele>662.485596</ele>
        <time>2011-04-17T08:26:52+02:00</time>
      </trkpt>
      <trkpt lat="44.20206" lon="5.27756">
        <ele>662.485596</ele>
        <time>2011-04-17T08:26:56+02:00</time>
      </trkpt>
      <trkpt lat="44.20218" lon="5.27734">
        <ele>662.485596</ele>
        <time>2011-04-17T08:27:01+02:00</time>
      </trkpt>
      <trkpt lat="44.20223" lon="5.27721">
        <ele>660.562988</ele>
        <time>2011-04-17T08:27:04+02:00</time>
      </trkpt>
      <trkpt lat="44.20222" lon="5.27703">
        <ele>657.679199</ele>
        <time>2011-04-17T08:27:09+02:00</time>
      </trkpt>
      <trkpt lat="44.20218" lon="5.2769">
        <ele>655.756592</ele>
        <time>2011-04-17T08:27:12+02:00</time>
      </trkpt>
      <trkpt lat="44.20209" lon="5.27663">
        <ele>651.43042</ele>
        <time>2011-04-17T08:27:18+02:00</time>
      </trkpt>
      <trkpt lat="44.202" lon="5.2764">
        <ele>647.585205</ele>
        <time>2011-04-17T08:27:23+02:00</time>
      </trkpt>
      <trkpt lat="44.20193" lon="5.2762">
        <ele>645.181885</ele>
        <time>2011-04-17T08:27:27+02:00</time>
      </trkpt>
      <trkpt lat="44.20189" lon="5.27593">
        <ele>642.778809</ele>
        <time>2011-04-17T08:27:32+02:00</time>
      </trkpt>
      <trkpt lat="44.20189" lon="5.27588">
        <ele>642.778809</ele>
        <time>2011-04-17T08:27:33+02:00</time>
      </trkpt>
      <trkpt lat="44.20175" lon="5.2756">
        <ele>640.855957</ele>
        <time>2011-04-17T08:27:39+02:00</time>
      </trkpt>
      <trkpt lat="44.2017" lon="5.27538">
        <ele>639.414062</ele>
        <time>2011-04-17T08:27:43+02:00</time>
      </trkpt>
      <trkpt lat="44.20158" lon="5.27524">
        <ele>637.972168</ele>
        <time>2011-04-17T08:27:47+02:00</time>
      </trkpt>
      <trkpt lat="44.20141" lon="5.27511">
        <ele>636.530273</ele>
        <time>2011-04-17T08:27:53+02:00</time>
      </trkpt>
      <trkpt lat="44.20148" lon="5.27508">
        <ele>636.049561</ele>
        <time>2011-04-17T08:27:56+02:00</time>
      </trkpt>
      <trkpt lat="44.20162" lon="5.27508">
        <ele>635.088135</ele>
        <time>2011-04-17T08:27:59+02:00</time>
      </trkpt>
      <trkpt lat="44.20174" lon="5.27507">
        <ele>634.607422</ele>
        <time>2011-04-17T08:28:02+02:00</time>
      </trkpt>
      <trkpt lat="44.20184" lon="5.27506">
        <ele>630.762207</ele>
        <time>2011-04-17T08:28:06+02:00</time>
      </trkpt>
      <trkpt lat="44.20186" lon="5.27506">
        <ele>630.281494</ele>
        <time>2011-04-17T08:28:07+02:00</time>
      </trkpt>
      <trkpt lat="44.20187" lon="5.27506">
        <ele>629.800781</ele>
        <time>2011-04-17T08:28:09+02:00</time>
      </trkpt>
      <trkpt lat="44.20188" lon="5.27508">
        <ele>628.8396</ele>
        <time>2011-04-17T08:28:16+02:00</time>
      </trkpt>
      <trkpt lat="44.20191" lon="5.27508">
        <ele>628.8396</ele>
        <time>2011-04-17T08:28:19+02:00</time>
      </trkpt>
      <trkpt lat="44.20207" lon="5.27522">
        <ele>624.994385</ele>
        <time>2011-04-17T08:28:24+02:00</time>
      </trkpt>
      <trkpt lat="44.20225" lon="5.2754">
        <ele>622.110352</ele>
        <time>2011-04-17T08:28:28+02:00</time>
      </trkpt>
      <trkpt lat="44.20234" lon="5.27549">
        <ele>620.187744</ele>
        <time>2011-04-17T08:28:30+02:00</time>
      </trkpt>
      <trkpt lat="44.20246" lon="5.27565">
        <ele>616.342285</ele>
        <time>2011-04-17T08:28:33+02:00</time>
      </trkpt>
      <trkpt lat="44.20267" lon="5.27596">
        <ele>611.535889</ele>
        <time>2011-04-17T08:28:38+02:00</time>
      </trkpt>
      <trkpt lat="44.20292" lon="5.27618">
        <ele>607.690674</ele>
        <time>2011-04-17T08:28:43+02:00</time>
      </trkpt>
      <trkpt lat="44.20305" lon="5.27642">
        <ele>603.845215</ele>
        <time>2011-04-17T08:28:48+02:00</time>
      </trkpt>
      <trkpt lat="44.20304" lon="5.27644">
        <ele>604.326172</ele>
        <time>2011-04-17T08:28:51+02:00</time>
      </trkpt>
      <trkpt lat="44.20304" lon="5.27646">
        <ele>603.364502</ele>
        <time>2011-04-17T08:28:52+02:00</time>
      </trkpt>
      <trkpt lat="44.20304" lon="5.2765">
        <ele>604.806641</ele>
        <time>2011-04-17T08:29:00+02:00</time>
      </trkpt>
      <trkpt lat="44.20303" lon="5.27657">
        <ele>604.326172</ele>
        <time>2011-04-17T08:29:04+02:00</time>
      </trkpt>
      <trkpt lat="44.20302" lon="5.27683">
        <ele>601.922607</ele>
        <time>2011-04-17T08:29:10+02:00</time>
      </trkpt>
      <trkpt lat="44.20302" lon="5.27702">
        <ele>599.519287</ele>
        <time>2011-04-17T08:29:14+02:00</time>
      </trkpt>
      <trkpt lat="44.20306" lon="5.27735">
        <ele>597.115967</ele>
        <time>2011-04-17T08:29:20+02:00</time>
      </trkpt>
      <trkpt lat="44.20307" lon="5.27759">
        <ele>594.232178</ele>
        <time>2011-04-17T08:29:24+02:00</time>
      </trkpt>
      <trkpt lat="44.20302" lon="5.27787">
        <ele>590.867432</ele>
        <time>2011-04-17T08:29:28+02:00</time>
      </trkpt>
      <trkpt lat="44.20297" lon="5.2781">
        <ele>589.90625</ele>
        <time>2011-04-17T08:29:33+02:00</time>
      </trkpt>
      <trkpt lat="44.20297" lon="5.27813">
        <ele>589.425537</ele>
        <time>2011-04-17T08:29:36+02:00</time>
      </trkpt>
      <trkpt lat="44.20297" lon="5.27826">
        <ele>587.021973</ele>
        <time>2011-04-17T08:29:41+02:00</time>
      </trkpt>
      <trkpt lat="44.20295" lon="5.27829">
        <ele>586.060791</ele>
        <time>2011-04-17T08:29:45+02:00</time>
      </trkpt>
      <trkpt lat="44.20297" lon="5.2783">
        <ele>587.021973</ele>
        <time>2011-04-17T08:29:48+02:00</time>
      </trkpt>
      <trkpt lat="44.20295" lon="5.27852">
        <ele>586.541504</ele>
        <time>2011-04-17T08:29:54+02:00</time>
      </trkpt>
      <trkpt lat="44.20284" lon="5.27871">
        <ele>583.176758</ele>
        <time>2011-04-17T08:29:59+02:00</time>
      </trkpt>
      <trkpt lat="44.2028" lon="5.27878">
        <ele>583.176758</ele>
        <time>2011-04-17T08:30:01+02:00</time>
      </trkpt>
      <trkpt lat="44.20289" lon="5.27903">
        <ele>581.734863</ele>
        <time>2011-04-17T08:30:06+02:00</time>
      </trkpt>
      <trkpt lat="44.2029" lon="5.27921">
        <ele>581.734863</ele>
        <time>2011-04-17T08:30:10+02:00</time>
      </trkpt>
      <trkpt lat="44.20295" lon="5.27948">
        <ele>578.851074</ele>
        <time>2011-04-17T08:30:16+02:00</time>
      </trkpt>
      <trkpt lat="44.20298" lon="5.27971">
        <ele>576.447754</ele>
        <time>2011-04-17T08:30:21+02:00</time>
      </trkpt>
      <trkpt lat="44.20299" lon="5.27994">
        <ele>573.563965</ele>
        <time>2011-04-17T08:30:25+02:00</time>
      </trkpt>
      <trkpt lat="44.20302" lon="5.28031">
        <ele>570.198975</ele>
        <time>2011-04-17T08:30:31+02:00</time>
      </trkpt>
      <trkpt lat="44.20304" lon="5.28058">
        <ele>566.35376</ele>
        <time>2011-04-17T08:30:36+02:00</time>
      </trkpt>
      <trkpt lat="44.20305" lon="5.28066">
        <ele>565.873291</ele>
        <time>2011-04-17T08:30:37+02:00</time>
      </trkpt>
      <trkpt lat="44.20305" lon="5.28116">
        <ele>561.06665</ele>
        <time>2011-04-17T08:30:43+02:00</time>
      </trkpt>
      <trkpt lat="44.20306" lon="5.28141">
        <ele>558.66333</ele>
        <time>2011-04-17T08:30:46+02:00</time>
      </trkpt>
      <trkpt lat="44.20308" lon="5.28171">
        <ele>556.26001</ele>
        <time>2011-04-17T08:30:51+02:00</time>
      </trkpt>
      <trkpt lat="44.20315" lon="5.28188">
        <ele>553.856689</ele>
        <time>2011-04-17T08:30:54+02:00</time>
      </trkpt>
      <trkpt lat="44.20322" lon="5.28217">
        <ele>550.492188</ele>
        <time>2011-04-17T08:31:00+02:00</time>
      </trkpt>
      <trkpt lat="44.20317" lon="5.28238">
        <ele>548.088867</ele>
        <time>2011-04-17T08:31:04+02:00</time>
      </trkpt>
      <trkpt lat="44.2031" lon="5.28259">
        <ele>546.16626</ele>
        <time>2011-04-17T08:31:08+02:00</time>
      </trkpt>
      <trkpt lat="44.20303" lon="5.28284">
        <ele>543.762817</ele>
        <time>2011-04-17T08:31:14+02:00</time>
      </trkpt>
      <trkpt lat="44.20303" lon="5.28301">
        <ele>543.762817</ele>
        <time>2011-04-17T08:31:18+02:00</time>
      </trkpt>
      <trkpt lat="44.20293" lon="5.2833">
        <ele>542.320923</ele>
        <time>2011-04-17T08:31:23+02:00</time>
      </trkpt>
      <trkpt lat="44.20288" lon="5.28347">
        <ele>541.359497</ele>
        <time>2011-04-17T08:31:26+02:00</time>
      </trkpt>
      <trkpt lat="44.20289" lon="5.2836">
        <ele>538.475708</ele>
        <time>2011-04-17T08:31:30+02:00</time>
      </trkpt>
      <trkpt lat="44.20296" lon="5.28356">
        <ele>536.553101</ele>
        <time>2011-04-17T08:31:34+02:00</time>
      </trkpt>
      <trkpt lat="44.20298" lon="5.28355">
        <ele>537.033691</ele>
        <time>2011-04-17T08:31:40+02:00</time>
      </trkpt>
      <trkpt lat="44.20303" lon="5.28352">
        <ele>534.630371</ele>
        <time>2011-04-17T08:31:45+02:00</time>
      </trkpt>
      <trkpt lat="44.20311" lon="5.28344">
        <ele>532.707764</ele>
        <time>2011-04-17T08:31:48+02:00</time>
      </trkpt>
      <trkpt lat="44.20321" lon="5.28328">
        <ele>529.82373</ele>
        <time>2011-04-17T08:31:52+02:00</time>
      </trkpt>
      <trkpt lat="44.20333" lon="5.28293">
        <ele>525.978394</ele>
        <time>2011-04-17T08:31:58+02:00</time>
      </trkpt>
      <trkpt lat="44.20341" lon="5.28276">
        <ele>524.055786</ele>
        <time>2011-04-17T08:32:02+02:00</time>
      </trkpt>
      <trkpt lat="44.2035" lon="5.28259">
        <ele>522.133179</ele>
        <time>2011-04-17T08:32:06+02:00</time>
      </trkpt>
      <trkpt lat="44.20361" lon="5.28245">
        <ele>520.691284</ele>
        <time>2011-04-17T08:32:09+02:00</time>
      </trkpt>
      <trkpt lat="44.20372" lon="5.28232">
        <ele>519.249268</ele>
        <time>2011-04-17T08:32:12+02:00</time>
      </trkpt>
      <trkpt lat="44.20385" lon="5.28226">
        <ele>518.287842</ele>
        <time>2011-04-17T08:32:15+02:00</time>
      </trkpt>
      <trkpt lat="44.20395" lon="5.28211">
        <ele>515.884644</ele>
        <time>2011-04-17T08:32:19+02:00</time>
      </trkpt>
      <trkpt lat="44.20403" lon="5.28176">
        <ele>512.039429</ele>
        <time>2011-04-17T08:32:25+02:00</time>
      </trkpt>
      <trkpt lat="44.20422" lon="5.28125">
        <ele>508.674683</ele>
        <time>2011-04-17T08:32:32+02:00</time>
      </trkpt>
      <trkpt lat="44.20432" lon="5.28087">
        <ele>506.271484</ele>
        <time>2011-04-17T08:32:37+02:00</time>
      </trkpt>
      <trkpt lat="44.20442" lon="5.2806">
        <ele>504.348877</ele>
        <time>2011-04-17T08:32:41+02:00</time>
      </trkpt>
      <trkpt lat="44.20454" lon="5.28023">
        <ele>501.945557</ele>
        <time>2011-04-17T08:32:46+02:00</time>
      </trkpt>
      <trkpt lat="44.20459" lon="5.27998">
        <ele>500.022949</ele>
        <time>2011-04-17T08:32:51+02:00</time>
      </trkpt>
      <trkpt lat="44.20459" lon="5.27978">
        <ele>498.580933</ele>
        <time>2011-04-17T08:32:54+02:00</time>
      </trkpt>
      <trkpt lat="44.20467" lon="5.27944">
        <ele>496.658325</ele>
        <time>2011-04-17T08:32:59+02:00</time>
      </trkpt>
      <trkpt lat="44.20467" lon="5.27916">
        <ele>493.293579</ele>
        <time>2011-04-17T08:33:03+02:00</time>
      </trkpt>
      <trkpt lat="44.20471" lon="5.27895">
        <ele>490.890381</ele>
        <time>2011-04-17T08:33:07+02:00</time>
      </trkpt>
      <trkpt lat="44.20476" lon="5.27906">
        <ele>488.967773</ele>
        <time>2011-04-17T08:33:10+02:00</time>
      </trkpt>
      <trkpt lat="44.20481" lon="5.27918">
        <ele>488.00647</ele>
        <time>2011-04-17T08:33:12+02:00</time>
      </trkpt>
      <trkpt lat="44.20489" lon="5.27939">
        <ele>484.161133</ele>
        <time>2011-04-17T08:33:15+02:00</time>
      </trkpt>
      <trkpt lat="44.20501" lon="5.27968">
        <ele>480.315918</ele>
        <time>2011-04-17T08:33:19+02:00</time>
      </trkpt>
      <trkpt lat="44.20507" lon="5.2799">
        <ele>477.912476</ele>
        <time>2011-04-17T08:33:23+02:00</time>
      </trkpt>
      <trkpt lat="44.20506" lon="5.27992">
        <ele>477.912476</ele>
        <time>2011-04-17T08:33:27+02:00</time>
      </trkpt>
      <trkpt lat="44.20506" lon="5.27993">
        <ele>476.951294</ele>
        <time>2011-04-17T08:33:29+02:00</time>
      </trkpt>
      <trkpt lat="44.20514" lon="5.28011">
        <ele>474.547974</ele>
        <time>2011-04-17T08:33:34+02:00</time>
      </trkpt>
      <trkpt lat="44.20523" lon="5.28039">
        <ele>473.106079</ele>
        <time>2011-04-17T08:33:39+02:00</time>
      </trkpt>
      <trkpt lat="44.20525" lon="5.28077">
        <ele>470.702637</ele>
        <time>2011-04-17T08:33:44+02:00</time>
      </trkpt>
      <trkpt lat="44.20525" lon="5.28085">
        <ele>469.741333</ele>
        <time>2011-04-17T08:33:45+02:00</time>
      </trkpt>
      <trkpt lat="44.20531" lon="5.28126">
        <ele>464.454102</ele>
        <time>2011-04-17T08:33:50+02:00</time>
      </trkpt>
      <trkpt lat="44.20532" lon="5.28154">
        <ele>462.050781</ele>
        <time>2011-04-17T08:33:54+02:00</time>
      </trkpt>
      <trkpt lat="44.20529" lon="5.28158">
        <ele>462.050781</ele>
        <time>2011-04-17T08:33:55+02:00</time>
      </trkpt>
      <trkpt lat="44.20512" lon="5.28183">
        <ele>458.686157</ele>
        <time>2011-04-17T08:34:01+02:00</time>
      </trkpt>
      <trkpt lat="44.20505" lon="5.28209">
        <ele>456.282959</ele>
        <time>2011-04-17T08:34:05+02:00</time>
      </trkpt>
      <trkpt lat="44.20503" lon="5.28222">
        <ele>455.321533</ele>
        <time>2011-04-17T08:34:07+02:00</time>
      </trkpt>
      <trkpt lat="44.20506" lon="5.28233">
        <ele>452.918213</ele>
        <time>2011-04-17T08:34:11+02:00</time>
      </trkpt>
      <trkpt lat="44.20507" lon="5.28237">
        <ele>451.957031</ele>
        <time>2011-04-17T08:34:17+02:00</time>
      </trkpt>
      <trkpt lat="44.20517" lon="5.28232">
        <ele>449.553711</ele>
        <time>2011-04-17T08:34:21+02:00</time>
      </trkpt>
      <trkpt lat="44.20519" lon="5.28227">
        <ele>449.072998</ele>
        <time>2011-04-17T08:34:22+02:00</time>
      </trkpt>
      <trkpt lat="44.20533" lon="5.28193">
        <ele>445.708374</ele>
        <time>2011-04-17T08:34:27+02:00</time>
      </trkpt>
      <trkpt lat="44.20548" lon="5.28174">
        <ele>442.824463</ele>
        <time>2011-04-17T08:34:32+02:00</time>
      </trkpt>
      <trkpt lat="44.20561" lon="5.28161">
        <ele>440.421265</ele>
        <time>2011-04-17T08:34:36+02:00</time>
      </trkpt>
      <trkpt lat="44.20573" lon="5.28141">
        <ele>438.498535</ele>
        <time>2011-04-17T08:34:40+02:00</time>
      </trkpt>
      <trkpt lat="44.20582" lon="5.28118">
        <ele>435.133911</ele>
        <time>2011-04-17T08:34:44+02:00</time>
      </trkpt>
      <trkpt lat="44.20592" lon="5.28094">
        <ele>432.25</ele>
        <time>2011-04-17T08:34:48+02:00</time>
      </trkpt>
      <trkpt lat="44.206" lon="5.28076">
        <ele>429.846558</ele>
        <time>2011-04-17T08:34:52+02:00</time>
      </trkpt>
      <trkpt lat="44.20605" lon="5.28059">
        <ele>428.885376</ele>
        <time>2011-04-17T08:34:57+02:00</time>
      </trkpt>
      <trkpt lat="44.20615" lon="5.2802">
        <ele>424.559448</ele>
        <time>2011-04-17T08:35:04+02:00</time>
      </trkpt>
      <trkpt lat="44.20621" lon="5.28009">
        <ele>423.598022</ele>
        <time>2011-04-17T08:35:06+02:00</time>
      </trkpt>
      <trkpt lat="44.20634" lon="5.2799">
        <ele>425.040161</ele>
        <time>2011-04-17T08:35:10+02:00</time>
      </trkpt>
      <trkpt lat="44.20649" lon="5.27969">
        <ele>422.636719</ele>
        <time>2011-04-17T08:35:15+02:00</time>
      </trkpt>
      <trkpt lat="44.20662" lon="5.27944">
        <ele>423.598022</ele>
        <time>2011-04-17T08:35:20+02:00</time>
      </trkpt>
      <trkpt lat="44.20664" lon="5.27939">
        <ele>423.598022</ele>
        <time>2011-04-17T08:35:21+02:00</time>
      </trkpt>
      <trkpt lat="44.2067" lon="5.2792">
        <ele>423.598022</ele>
        <time>2011-04-17T08:35:24+02:00</time>
      </trkpt>
      <trkpt lat="44.20675" lon="5.27908">
        <ele>422.636719</ele>
        <time>2011-04-17T08:35:26+02:00</time>
      </trkpt>
      <trkpt lat="44.20685" lon="5.27894">
        <ele>422.636719</ele>
        <time>2011-04-17T08:35:30+02:00</time>
      </trkpt>
      <trkpt lat="44.20697" lon="5.2788">
        <ele>424.078735</ele>
        <time>2011-04-17T08:35:35+02:00</time>
      </trkpt>
      <trkpt lat="44.20715" lon="5.27866">
        <ele>422.636719</ele>
        <time>2011-04-17T08:35:39+02:00</time>
      </trkpt>
      <trkpt lat="44.20742" lon="5.27844">
        <ele>416.388184</ele>
        <time>2011-04-17T08:35:44+02:00</time>
      </trkpt>
      <trkpt lat="44.20775" lon="5.27812">
        <ele>412.062256</ele>
        <time>2011-04-17T08:35:49+02:00</time>
      </trkpt>
      <trkpt lat="44.20797" lon="5.27793">
        <ele>410.139648</ele>
        <time>2011-04-17T08:35:53+02:00</time>
      </trkpt>
      <trkpt lat="44.20815" lon="5.27803">
        <ele>407.736328</ele>
        <time>2011-04-17T08:35:57+02:00</time>
      </trkpt>
      <trkpt lat="44.20823" lon="5.27817">
        <ele>407.255615</ele>
        <time>2011-04-17T08:35:59+02:00</time>
      </trkpt>
      <trkpt lat="44.20848" lon="5.2784">
        <ele>407.255615</ele>
        <time>2011-04-17T08:36:04+02:00</time>
      </trkpt>
      <trkpt lat="44.20852" lon="5.27858">
        <ele>406.774902</ele>
        <time>2011-04-17T08:36:09+02:00</time>
      </trkpt>
      <trkpt lat="44.20853" lon="5.27856">
        <ele>407.255615</ele>
        <time>2011-04-17T08:36:14+02:00</time>
      </trkpt>
      <trkpt lat="44.20854" lon="5.27856">
        <ele>404.852295</ele>
        <time>2011-04-17T08:36:24+02:00</time>
      </trkpt>
      <trkpt lat="44.20859" lon="5.27852">
        <ele>403.891113</ele>
        <time>2011-04-17T08:36:29+02:00</time>
      </trkpt>
      <trkpt lat="44.20858" lon="5.27854">
        <ele>403.4104</ele>
        <time>2011-04-17T08:36:33+02:00</time>
      </trkpt>
      <trkpt lat="44.20856" lon="5.27856">
        <ele>405.813721</ele>
        <time>2011-04-17T08:36:42+02:00</time>
      </trkpt>
      <trkpt lat="44.20855" lon="5.27854">
        <ele>407.255615</ele>
        <time>2011-04-17T08:36:56+02:00</time>
      </trkpt>
      <trkpt lat="44.20855" lon="5.27852">
        <ele>408.217041</ele>
        <time>2011-04-17T08:37:09+02:00</time>
      </trkpt>
      <trkpt lat="44.20855" lon="5.27854">
        <ele>411.100952</ele>
        <time>2011-04-17T08:39:33+02:00</time>
      </trkpt>
      <trkpt lat="44.20857" lon="5.27851">
        <ele>411.581665</ele>
        <time>2011-04-17T08:39:56+02:00</time>
      </trkpt>
      <trkpt lat="44.20859" lon="5.27851">
        <ele>411.581665</ele>
        <time>2011-04-17T08:40:00+02:00</time>
      </trkpt>
      <trkpt lat="44.20859" lon="5.2785">
        <ele>410.620239</ele>
        <time>2011-04-17T08:40:12+02:00</time>
      </trkpt>
      <trkpt lat="44.2086" lon="5.27851">
        <ele>408.217041</ele>
        <time>2011-04-17T08:40:29+02:00</time>
      </trkpt>
      <trkpt lat="44.20862" lon="5.27854">
        <ele>406.294312</ele>
        <time>2011-04-17T08:40:37+02:00</time>
      </trkpt>
      <trkpt lat="44.20866" lon="5.27858">
        <ele>407.736328</ele>
        <time>2011-04-17T08:40:42+02:00</time>
      </trkpt>
      <trkpt lat="44.2087" lon="5.27869">
        <ele>406.774902</ele>
        <time>2011-04-17T08:40:46+02:00</time>
      </trkpt>
      <trkpt lat="44.2087" lon="5.27887">
        <ele>405.333008</ele>
        <time>2011-04-17T08:40:52+02:00</time>
      </trkpt>
      <trkpt lat="44.2087" lon="5.27888">
        <ele>405.333008</ele>
        <time>2011-04-17T08:40:53+02:00</time>
      </trkpt>
      <trkpt lat="44.20875" lon="5.27903">
        <ele>403.891113</ele>
        <time>2011-04-17T08:40:59+02:00</time>
      </trkpt>
      <trkpt lat="44.20884" lon="5.27905">
        <ele>403.4104</ele>
        <time>2011-04-17T08:41:02+02:00</time>
      </trkpt>
      <trkpt lat="44.20912" lon="5.27897">
        <ele>404.371704</ele>
        <time>2011-04-17T08:41:10+02:00</time>
      </trkpt>
      <trkpt lat="44.20933" lon="5.27892">
        <ele>406.294312</ele>
        <time>2011-04-17T08:41:17+02:00</time>
      </trkpt>
      <trkpt lat="44.20952" lon="5.2789">
        <ele>407.736328</ele>
        <time>2011-04-17T08:41:24+02:00</time>
      </trkpt>
      <trkpt lat="44.20967" lon="5.27887">
        <ele>407.736328</ele>
        <time>2011-04-17T08:41:30+02:00</time>
      </trkpt>
      <trkpt lat="44.20983" lon="5.27884">
        <ele>409.659058</ele>
        <time>2011-04-17T08:41:37+02:00</time>
      </trkpt>
      <trkpt lat="44.20999" lon="5.27881">
        <ele>411.581665</ele>
        <time>2011-04-17T08:41:44+02:00</time>
      </trkpt>
      <trkpt lat="44.21018" lon="5.27874">
        <ele>411.581665</ele>
        <time>2011-04-17T08:41:52+02:00</time>
      </trkpt>
      <trkpt lat="44.21034" lon="5.27863">
        <ele>412.062256</ele>
        <time>2011-04-17T08:42:00+02:00</time>
      </trkpt>
      <trkpt lat="44.21049" lon="5.2785">
        <ele>412.542847</ele>
        <time>2011-04-17T08:42:08+02:00</time>
      </trkpt>
      <trkpt lat="44.21056" lon="5.2784">
        <ele>413.504272</ele>
        <time>2011-04-17T08:42:13+02:00</time>
      </trkpt>
      <trkpt lat="44.21063" lon="5.27834">
        <ele>413.984863</ele>
        <time>2011-04-17T08:42:17+02:00</time>
      </trkpt>
      <trkpt lat="44.21065" lon="5.27841">
        <ele>413.504272</ele>
        <time>2011-04-17T08:42:21+02:00</time>
      </trkpt>
      <trkpt lat="44.21063" lon="5.27843">
        <ele>413.504272</ele>
        <time>2011-04-17T08:42:23+02:00</time>
      </trkpt>
      <trkpt lat="44.21059" lon="5.27849">
        <ele>413.984863</ele>
        <time>2011-04-17T08:42:27+02:00</time>
      </trkpt>
      <trkpt lat="44.21058" lon="5.27852">
        <ele>413.984863</ele>
        <time>2011-04-17T08:42:29+02:00</time>
      </trkpt>
      <trkpt lat="44.21054" lon="5.27858">
        <ele>414.465454</ele>
        <time>2011-04-17T08:42:33+02:00</time>
      </trkpt>
      <trkpt lat="44.21048" lon="5.2787">
        <ele>415.907471</ele>
        <time>2011-04-17T08:42:40+02:00</time>
      </trkpt>
      <trkpt lat="44.21041" lon="5.27878">
        <ele>417.8302</ele>
        <time>2011-04-17T08:42:46+02:00</time>
      </trkpt>
      <trkpt lat="44.21034" lon="5.27886">
        <ele>418.791504</ele>
        <time>2011-04-17T08:42:52+02:00</time>
      </trkpt>
      <trkpt lat="44.21024" lon="5.27894">
        <ele>419.752808</ele>
        <time>2011-04-17T08:42:59+02:00</time>
      </trkpt>
      <trkpt lat="44.21012" lon="5.27903">
        <ele>421.675415</ele>
        <time>2011-04-17T08:43:08+02:00</time>
      </trkpt>
      <trkpt lat="44.21005" lon="5.27908">
        <ele>423.117432</ele>
        <time>2011-04-17T08:43:14+02:00</time>
      </trkpt>
      <trkpt lat="44.20994" lon="5.27912">
        <ele>425.520752</ele>
        <time>2011-04-17T08:43:22+02:00</time>
      </trkpt>
      <trkpt lat="44.2099" lon="5.27911">
        <ele>426.962769</ele>
        <time>2011-04-17T08:43:25+02:00</time>
      </trkpt>
      <trkpt lat="44.20985" lon="5.27911">
        <ele>426.962769</ele>
        <time>2011-04-17T08:43:29+02:00</time>
      </trkpt>
      <trkpt lat="44.20975" lon="5.27916">
        <ele>426.962769</ele>
        <time>2011-04-17T08:43:36+02:00</time>
      </trkpt>
      <trkpt lat="44.20971" lon="5.2793">
        <ele>426.482056</ele>
        <time>2011-04-17T08:43:40+02:00</time>
      </trkpt>
      <trkpt lat="44.20966" lon="5.27946">
        <ele>425.040161</ele>
        <time>2011-04-17T08:43:46+02:00</time>
      </trkpt>
      <trkpt lat="44.20959" lon="5.27965">
        <ele>427.92395</ele>
        <time>2011-04-17T08:43:54+02:00</time>
      </trkpt>
      <trkpt lat="44.20953" lon="5.27978">
        <ele>429.365967</ele>
        <time>2011-04-17T08:44:00+02:00</time>
      </trkpt>
      <trkpt lat="44.20946" lon="5.27987">
        <ele>430.807983</ele>
        <time>2011-04-17T08:44:05+02:00</time>
      </trkpt>
      <trkpt lat="44.20935" lon="5.28">
        <ele>432.730713</ele>
        <time>2011-04-17T08:44:13+02:00</time>
      </trkpt>
      <trkpt lat="44.2093" lon="5.28013">
        <ele>432.25</ele>
        <time>2011-04-17T08:44:18+02:00</time>
      </trkpt>
      <trkpt lat="44.20922" lon="5.28025">
        <ele>431.769165</ele>
        <time>2011-04-17T08:44:23+02:00</time>
      </trkpt>
      <trkpt lat="44.20916" lon="5.28044">
        <ele>430.807983</ele>
        <time>2011-04-17T08:44:30+02:00</time>
      </trkpt>
      <trkpt lat="44.20913" lon="5.28067">
        <ele>430.807983</ele>
        <time>2011-04-17T08:44:35+02:00</time>
      </trkpt>
      <trkpt lat="44.2091" lon="5.2808">
        <ele>431.288574</ele>
        <time>2011-04-17T08:44:40+02:00</time>
      </trkpt>
      <trkpt lat="44.20906" lon="5.2809">
        <ele>432.730713</ele>
        <time>2011-04-17T08:44:45+02:00</time>
      </trkpt>
      <trkpt lat="44.20904" lon="5.28092">
        <ele>432.25</ele>
        <time>2011-04-17T08:44:52+02:00</time>
      </trkpt>
      <trkpt lat="44.20903" lon="5.28093">
        <ele>434.65332</ele>
        <time>2011-04-17T08:45:23+02:00</time>
      </trkpt>
      <trkpt lat="44.20904" lon="5.28095">
        <ele>432.730713</ele>
        <time>2011-04-17T08:45:30+02:00</time>
      </trkpt>
      <trkpt lat="44.20904" lon="5.28095">
        <ele>432.730713</ele>
        <time>2011-04-17T08:45:33+02:00</time>
      </trkpt>
      <trkpt lat="44.20897" lon="5.28099">
        <ele>434.65332</ele>
        <time>2011-04-17T08:45:39+02:00</time>
      </trkpt>
      <trkpt lat="44.20891" lon="5.2811">
        <ele>437.056519</ele>
        <time>2011-04-17T08:45:47+02:00</time>
      </trkpt>
      <trkpt lat="44.20885" lon="5.28122">
        <ele>438.498535</ele>
        <time>2011-04-17T08:45:54+02:00</time>
      </trkpt>
      <trkpt lat="44.20881" lon="5.28133">
        <ele>439.94043</ele>
        <time>2011-04-17T08:46:01+02:00</time>
      </trkpt>
      <trkpt lat="44.2088" lon="5.28134">
        <ele>439.94043</ele>
        <time>2011-04-17T08:46:02+02:00</time>
      </trkpt>
      <trkpt lat="44.20879" lon="5.28137">
        <ele>440.421265</ele>
        <time>2011-04-17T08:46:06+02:00</time>
      </trkpt>
      <trkpt lat="44.20874" lon="5.28152">
        <ele>439.94043</ele>
        <time>2011-04-17T08:46:13+02:00</time>
      </trkpt>
      <trkpt lat="44.20871" lon="5.28163">
        <ele>440.421265</ele>
        <time>2011-04-17T08:46:19+02:00</time>
      </trkpt>
      <trkpt lat="44.20866" lon="5.2818">
        <ele>439.94043</ele>
        <time>2011-04-17T08:46:26+02:00</time>
      </trkpt>
      <trkpt lat="44.20858" lon="5.28202">
        <ele>440.901855</ele>
        <time>2011-04-17T08:46:36+02:00</time>
      </trkpt>
      <trkpt lat="44.20852" lon="5.28218">
        <ele>441.382446</ele>
        <time>2011-04-17T08:46:43+02:00</time>
      </trkpt>
      <trkpt lat="44.20849" lon="5.28227">
        <ele>443.305054</ele>
        <time>2011-04-17T08:46:48+02:00</time>
      </trkpt>
      <trkpt lat="44.20847" lon="5.28232">
        <ele>445.708374</ele>
        <time>2011-04-17T08:46:55+02:00</time>
      </trkpt>
      <trkpt lat="44.20846" lon="5.28236">
        <ele>446.669678</ele>
        <time>2011-04-17T08:46:58+02:00</time>
      </trkpt>
      <trkpt lat="44.20842" lon="5.28248">
        <ele>449.072998</ele>
        <time>2011-04-17T08:47:07+02:00</time>
      </trkpt>
      <trkpt lat="44.2084" lon="5.28257">
        <ele>450.034424</ele>
        <time>2011-04-17T08:47:13+02:00</time>
      </trkpt>
      <trkpt lat="44.20835" lon="5.28267">
        <ele>450.995605</ele>
        <time>2011-04-17T08:47:20+02:00</time>
      </trkpt>
      <trkpt lat="44.20835" lon="5.28268">
        <ele>450.995605</ele>
        <time>2011-04-17T08:47:21+02:00</time>
      </trkpt>
      <trkpt lat="44.20834" lon="5.28271">
        <ele>450.034424</ele>
        <time>2011-04-17T08:47:27+02:00</time>
      </trkpt>
      <trkpt lat="44.20832" lon="5.28281">
        <ele>450.034424</ele>
        <time>2011-04-17T08:47:31+02:00</time>
      </trkpt>
      <trkpt lat="44.20827" lon="5.28298">
        <ele>451.476318</ele>
        <time>2011-04-17T08:47:38+02:00</time>
      </trkpt>
      <trkpt lat="44.20822" lon="5.28314">
        <ele>452.437622</ele>
        <time>2011-04-17T08:47:44+02:00</time>
      </trkpt>
      <trkpt lat="44.20817" lon="5.28334">
        <ele>452.918213</ele>
        <time>2011-04-17T08:47:51+02:00</time>
      </trkpt>
      <trkpt lat="44.2081" lon="5.28351">
        <ele>453.398926</ele>
        <time>2011-04-17T08:47:57+02:00</time>
      </trkpt>
      <trkpt lat="44.20803" lon="5.28367">
        <ele>452.918213</ele>
        <time>2011-04-17T08:48:02+02:00</time>
      </trkpt>
      <trkpt lat="44.20798" lon="5.28384">
        <ele>453.398926</ele>
        <time>2011-04-17T08:48:08+02:00</time>
      </trkpt>
      <trkpt lat="44.20789" lon="5.28405">
        <ele>454.360229</ele>
        <time>2011-04-17T08:48:15+02:00</time>
      </trkpt>
      <trkpt lat="44.20781" lon="5.28424">
        <ele>456.282959</ele>
        <time>2011-04-17T08:48:21+02:00</time>
      </trkpt>
      <trkpt lat="44.20775" lon="5.28447">
        <ele>456.76355</ele>
        <time>2011-04-17T08:48:27+02:00</time>
      </trkpt>
      <trkpt lat="44.20771" lon="5.28466">
        <ele>456.282959</ele>
        <time>2011-04-17T08:48:32+02:00</time>
      </trkpt>
      <trkpt lat="44.2077" lon="5.2848">
        <ele>458.686157</ele>
        <time>2011-04-17T08:48:37+02:00</time>
      </trkpt>
      <trkpt lat="44.20768" lon="5.28493">
        <ele>461.089478</ele>
        <time>2011-04-17T08:48:43+02:00</time>
      </trkpt>
      <trkpt lat="44.20768" lon="5.28506">
        <ele>461.089478</ele>
        <time>2011-04-17T08:48:49+02:00</time>
      </trkpt>
      <trkpt lat="44.20768" lon="5.28513">
        <ele>460.128174</ele>
        <time>2011-04-17T08:48:54+02:00</time>
      </trkpt>
      <trkpt lat="44.20768" lon="5.28523">
        <ele>459.647583</ele>
        <time>2011-04-17T08:49:01+02:00</time>
      </trkpt>
      <trkpt lat="44.20769" lon="5.28534">
        <ele>459.647583</ele>
        <time>2011-04-17T08:49:09+02:00</time>
      </trkpt>
      <trkpt lat="44.2077" lon="5.28542">
        <ele>460.608765</ele>
        <time>2011-04-17T08:49:20+02:00</time>
      </trkpt>
      <trkpt lat="44.20767" lon="5.28557">
        <ele>463.492798</ele>
        <time>2011-04-17T08:49:28+02:00</time>
      </trkpt>
      <trkpt lat="44.2076" lon="5.28572">
        <ele>463.492798</ele>
        <time>2011-04-17T08:49:37+02:00</time>
      </trkpt>
      <trkpt lat="44.20757" lon="5.28583">
        <ele>463.973389</ele>
        <time>2011-04-17T08:49:44+02:00</time>
      </trkpt>
      <trkpt lat="44.20757" lon="5.28593">
        <ele>463.973389</ele>
        <time>2011-04-17T08:49:49+02:00</time>
      </trkpt>
      <trkpt lat="44.20761" lon="5.28601">
        <ele>464.934814</ele>
        <time>2011-04-17T08:49:52+02:00</time>
      </trkpt>
      <trkpt lat="44.20758" lon="5.28616">
        <ele>464.934814</ele>
        <time>2011-04-17T08:49:57+02:00</time>
      </trkpt>
      <trkpt lat="44.20755" lon="5.2862">
        <ele>464.454102</ele>
        <time>2011-04-17T08:49:59+02:00</time>
      </trkpt>
      <trkpt lat="44.20742" lon="5.28622">
        <ele>463.012085</ele>
        <time>2011-04-17T08:50:04+02:00</time>
      </trkpt>
      <trkpt lat="44.20735" lon="5.28632">
        <ele>462.531372</ele>
        <time>2011-04-17T08:50:08+02:00</time>
      </trkpt>
      <trkpt lat="44.20727" lon="5.28639">
        <ele>463.012085</ele>
        <time>2011-04-17T08:50:12+02:00</time>
      </trkpt>
      <trkpt lat="44.20713" lon="5.28652">
        <ele>463.012085</ele>
        <time>2011-04-17T08:50:19+02:00</time>
      </trkpt>
      <trkpt lat="44.20707" lon="5.28666">
        <ele>465.415527</ele>
        <time>2011-04-17T08:50:24+02:00</time>
      </trkpt>
      <trkpt lat="44.20706" lon="5.28672">
        <ele>466.376709</ele>
        <time>2011-04-17T08:50:27+02:00</time>
      </trkpt>
      <trkpt lat="44.20704" lon="5.28676">
        <ele>467.338135</ele>
        <time>2011-04-17T08:50:32+02:00</time>
      </trkpt>
      <trkpt lat="44.20702" lon="5.28688">
        <ele>469.741333</ele>
        <time>2011-04-17T08:50:40+02:00</time>
      </trkpt>
      <trkpt lat="44.20698" lon="5.28699">
        <ele>470.221924</ele>
        <time>2011-04-17T08:50:47+02:00</time>
      </trkpt>
      <trkpt lat="44.20694" lon="5.28711">
        <ele>470.221924</ele>
        <time>2011-04-17T08:50:55+02:00</time>
      </trkpt>
      <trkpt lat="44.20689" lon="5.28719">
        <ele>469.741333</ele>
        <time>2011-04-17T08:51:01+02:00</time>
      </trkpt>
      <trkpt lat="44.20681" lon="5.28733">
        <ele>468.780029</ele>
        <time>2011-04-17T08:51:07+02:00</time>
      </trkpt>
      <trkpt lat="44.20673" lon="5.28748">
        <ele>469.260742</ele>
        <time>2011-04-17T08:51:12+02:00</time>
      </trkpt>
      <trkpt lat="44.20664" lon="5.28767">
        <ele>471.18335</ele>
        <time>2011-04-17T08:51:18+02:00</time>
      </trkpt>
      <trkpt lat="44.20658" lon="5.28784">
        <ele>472.625366</ele>
        <time>2011-04-17T08:51:24+02:00</time>
      </trkpt>
      <trkpt lat="44.20654" lon="5.28795">
        <ele>474.067261</ele>
        <time>2011-04-17T08:51:30+02:00</time>
      </trkpt>
      <trkpt lat="44.20653" lon="5.28801">
        <ele>474.547974</ele>
        <time>2011-04-17T08:51:38+02:00</time>
      </trkpt>
      <trkpt lat="44.20651" lon="5.28808">
        <ele>475.028687</ele>
        <time>2011-04-17T08:51:43+02:00</time>
      </trkpt>
      <trkpt lat="44.2065" lon="5.28816">
        <ele>476.470581</ele>
        <time>2011-04-17T08:51:50+02:00</time>
      </trkpt>
      <trkpt lat="44.20649" lon="5.28821">
        <ele>479.354492</ele>
        <time>2011-04-17T08:51:56+02:00</time>
      </trkpt>
      <trkpt lat="44.20648" lon="5.28828">
        <ele>480.315918</ele>
        <time>2011-04-17T08:52:03+02:00</time>
      </trkpt>
      <trkpt lat="44.20647" lon="5.28835">
        <ele>481.757812</ele>
        <time>2011-04-17T08:52:09+02:00</time>
      </trkpt>
      <trkpt lat="44.20646" lon="5.28847">
        <ele>484.161133</ele>
        <time>2011-04-17T08:52:19+02:00</time>
      </trkpt>
      <trkpt lat="44.20643" lon="5.28855">
        <ele>484.161133</ele>
        <time>2011-04-17T08:52:25+02:00</time>
      </trkpt>
      <trkpt lat="44.20639" lon="5.28866">
        <ele>485.603027</ele>
        <time>2011-04-17T08:52:33+02:00</time>
      </trkpt>
      <trkpt lat="44.20635" lon="5.28876">
        <ele>485.603027</ele>
        <time>2011-04-17T08:52:40+02:00</time>
      </trkpt>
      <trkpt lat="44.20632" lon="5.28886">
        <ele>487.525635</ele>
        <time>2011-04-17T08:52:47+02:00</time>
      </trkpt>
      <trkpt lat="44.2063" lon="5.28892">
        <ele>488.967773</ele>
        <time>2011-04-17T08:52:52+02:00</time>
      </trkpt>
      <trkpt lat="44.20628" lon="5.28896">
        <ele>492.812988</ele>
        <time>2011-04-17T08:52:56+02:00</time>
      </trkpt>
      <trkpt lat="44.20626" lon="5.28906">
        <ele>493.293579</ele>
        <time>2011-04-17T08:53:03+02:00</time>
      </trkpt>
      <trkpt lat="44.20625" lon="5.28918">
        <ele>492.812988</ele>
        <time>2011-04-17T08:53:11+02:00</time>
      </trkpt>
      <trkpt lat="44.20624" lon="5.28921">
        <ele>493.774292</ele>
        <time>2011-04-17T08:53:19+02:00</time>
      </trkpt>
      <trkpt lat="44.20624" lon="5.28919">
        <ele>496.177734</ele>
        <time>2011-04-17T08:53:34+02:00</time>
      </trkpt>
      <trkpt lat="44.20623" lon="5.28921">
        <ele>495.696899</ele>
        <time>2011-04-17T08:53:54+02:00</time>
      </trkpt>
      <trkpt lat="44.20624" lon="5.28927">
        <ele>492.812988</ele>
        <time>2011-04-17T08:53:58+02:00</time>
      </trkpt>
      <trkpt lat="44.20622" lon="5.28939">
        <ele>494.255005</ele>
        <time>2011-04-17T08:54:08+02:00</time>
      </trkpt>
      <trkpt lat="44.2062" lon="5.28944">
        <ele>496.658325</ele>
        <time>2011-04-17T08:54:13+02:00</time>
      </trkpt>
      <trkpt lat="44.20619" lon="5.28954">
        <ele>498.580933</ele>
        <time>2011-04-17T08:54:21+02:00</time>
      </trkpt>
      <trkpt lat="44.20619" lon="5.2896">
        <ele>499.542236</ele>
        <time>2011-04-17T08:54:27+02:00</time>
      </trkpt>
      <trkpt lat="44.20619" lon="5.2897">
        <ele>500.022949</ele>
        <time>2011-04-17T08:54:35+02:00</time>
      </trkpt>
      <trkpt lat="44.20617" lon="5.28978">
        <ele>503.387451</ele>
        <time>2011-04-17T08:54:42+02:00</time>
      </trkpt>
      <trkpt lat="44.20615" lon="5.28984">
        <ele>504.829468</ele>
        <time>2011-04-17T08:54:47+02:00</time>
      </trkpt>
      <trkpt lat="44.20613" lon="5.28992">
        <ele>504.348877</ele>
        <time>2011-04-17T08:54:52+02:00</time>
      </trkpt>
      <trkpt lat="44.20611" lon="5.29003">
        <ele>502.426147</ele>
        <time>2011-04-17T08:54:58+02:00</time>
      </trkpt>
      <trkpt lat="44.20611" lon="5.29014">
        <ele>501.464844</ele>
        <time>2011-04-17T08:55:06+02:00</time>
      </trkpt>
      <trkpt lat="44.20609" lon="5.29025">
        <ele>504.829468</ele>
        <time>2011-04-17T08:55:16+02:00</time>
      </trkpt>
      <trkpt lat="44.20608" lon="5.29028">
        <ele>507.713501</ele>
        <time>2011-04-17T08:55:20+02:00</time>
      </trkpt>
      <trkpt lat="44.20606" lon="5.29037">
        <ele>512.039429</ele>
        <time>2011-04-17T08:55:27+02:00</time>
      </trkpt>
      <trkpt lat="44.20607" lon="5.29045">
        <ele>513.481445</ele>
        <time>2011-04-17T08:55:33+02:00</time>
      </trkpt>
      <trkpt lat="44.20608" lon="5.29057">
        <ele>511.078003</ele>
        <time>2011-04-17T08:55:41+02:00</time>
      </trkpt>
      <trkpt lat="44.20609" lon="5.29068">
        <ele>510.59729</ele>
        <time>2011-04-17T08:55:49+02:00</time>
      </trkpt>
      <trkpt lat="44.2061" lon="5.29075">
        <ele>511.558716</ele>
        <time>2011-04-17T08:55:55+02:00</time>
      </trkpt>
      <trkpt lat="44.2061" lon="5.29082">
        <ele>512.039429</ele>
        <time>2011-04-17T08:56:02+02:00</time>
      </trkpt>
      <trkpt lat="44.2061" lon="5.29083">
        <ele>516.365234</ele>
        <time>2011-04-17T08:56:07+02:00</time>
      </trkpt>
      <trkpt lat="44.20611" lon="5.29089">
        <ele>519.729858</ele>
        <time>2011-04-17T08:56:14+02:00</time>
      </trkpt>
      <trkpt lat="44.20611" lon="5.29098">
        <ele>522.133179</ele>
        <time>2011-04-17T08:56:22+02:00</time>
      </trkpt>
      <trkpt lat="44.20613" lon="5.29105">
        <ele>522.613892</ele>
        <time>2011-04-17T08:56:29+02:00</time>
      </trkpt>
      <trkpt lat="44.20613" lon="5.29111">
        <ele>523.575195</ele>
        <time>2011-04-17T08:56:34+02:00</time>
      </trkpt>
      <trkpt lat="44.20615" lon="5.29119">
        <ele>525.017212</ele>
        <time>2011-04-17T08:56:41+02:00</time>
      </trkpt>
      <trkpt lat="44.20615" lon="5.29126">
        <ele>525.017212</ele>
        <time>2011-04-17T08:56:46+02:00</time>
      </trkpt>
      <trkpt lat="44.20614" lon="5.29131">
        <ele>526.939819</ele>
        <time>2011-04-17T08:56:51+02:00</time>
      </trkpt>
      <trkpt lat="44.20615" lon="5.29139">
        <ele>528.381836</ele>
        <time>2011-04-17T08:56:58+02:00</time>
      </trkpt>
      <trkpt lat="44.20617" lon="5.29147">
        <ele>529.82373</ele>
        <time>2011-04-17T08:57:06+02:00</time>
      </trkpt>
      <trkpt lat="44.20619" lon="5.29158">
        <ele>532.227051</ele>
        <time>2011-04-17T08:57:16+02:00</time>
      </trkpt>
      <trkpt lat="44.20621" lon="5.29168">
        <ele>534.149658</ele>
        <time>2011-04-17T08:57:24+02:00</time>
      </trkpt>
      <trkpt lat="44.20623" lon="5.29175">
        <ele>533.668945</ele>
        <time>2011-04-17T08:57:29+02:00</time>
      </trkpt>
      <trkpt lat="44.20625" lon="5.29184">
        <ele>533.668945</ele>
        <time>2011-04-17T08:57:37+02:00</time>
      </trkpt>
      <trkpt lat="44.20627" lon="5.29192">
        <ele>533.668945</ele>
        <time>2011-04-17T08:57:42+02:00</time>
      </trkpt>
      <trkpt lat="44.2063" lon="5.29203">
        <ele>536.553101</ele>
        <time>2011-04-17T08:57:48+02:00</time>
      </trkpt>
      <trkpt lat="44.2063" lon="5.29205">
        <ele>538.956299</ele>
        <time>2011-04-17T08:57:53+02:00</time>
      </trkpt>
      <trkpt lat="44.20633" lon="5.29209">
        <ele>544.724243</ele>
        <time>2011-04-17T08:58:00+02:00</time>
      </trkpt>
      <trkpt lat="44.20635" lon="5.29212">
        <ele>544.243652</ele>
        <time>2011-04-17T08:58:05+02:00</time>
      </trkpt>
      <trkpt lat="44.20639" lon="5.29215">
        <ele>542.801514</ele>
        <time>2011-04-17T08:58:09+02:00</time>
      </trkpt>
      <trkpt lat="44.20642" lon="5.29219">
        <ele>541.84021</ele>
        <time>2011-04-17T08:58:14+02:00</time>
      </trkpt>
      <trkpt lat="44.20645" lon="5.29222">
        <ele>541.84021</ele>
        <time>2011-04-17T08:58:18+02:00</time>
      </trkpt>
      <trkpt lat="44.20648" lon="5.29226">
        <ele>545.685547</ele>
        <time>2011-04-17T08:58:24+02:00</time>
      </trkpt>
      <trkpt lat="44.2065" lon="5.29229">
        <ele>547.608154</ele>
        <time>2011-04-17T08:58:28+02:00</time>
      </trkpt>
      <trkpt lat="44.20652" lon="5.29231">
        <ele>550.972656</ele>
        <time>2011-04-17T08:58:33+02:00</time>
      </trkpt>
      <trkpt lat="44.20654" lon="5.29233">
        <ele>556.26001</ele>
        <time>2011-04-17T08:58:39+02:00</time>
      </trkpt>
      <trkpt lat="44.20657" lon="5.29235">
        <ele>557.221436</ele>
        <time>2011-04-17T08:58:44+02:00</time>
      </trkpt>
      <trkpt lat="44.2066" lon="5.2924">
        <ele>556.26001</ele>
        <time>2011-04-17T08:58:50+02:00</time>
      </trkpt>
      <trkpt lat="44.20666" lon="5.29245">
        <ele>555.779297</ele>
        <time>2011-04-17T08:59:00+02:00</time>
      </trkpt>
      <trkpt lat="44.20668" lon="5.29249">
        <ele>555.779297</ele>
        <time>2011-04-17T08:59:04+02:00</time>
      </trkpt>
      <trkpt lat="44.20672" lon="5.29255">
        <ele>556.740723</ele>
        <time>2011-04-17T08:59:13+02:00</time>
      </trkpt>
      <trkpt lat="44.20674" lon="5.29258">
        <ele>558.66333</ele>
        <time>2011-04-17T08:59:19+02:00</time>
      </trkpt>
      <trkpt lat="44.20676" lon="5.29264">
        <ele>563.469971</ele>
        <time>2011-04-17T08:59:25+02:00</time>
      </trkpt>
      <trkpt lat="44.20677" lon="5.29269">
        <ele>565.392578</ele>
        <time>2011-04-17T08:59:30+02:00</time>
      </trkpt>
      <trkpt lat="44.20681" lon="5.29277">
        <ele>565.392578</ele>
        <time>2011-04-17T08:59:39+02:00</time>
      </trkpt>
      <trkpt lat="44.20684" lon="5.29283">
        <ele>566.834473</ele>
        <time>2011-04-17T08:59:45+02:00</time>
      </trkpt>
      <trkpt lat="44.20687" lon="5.29287">
        <ele>568.75708</ele>
        <time>2011-04-17T08:59:50+02:00</time>
      </trkpt>
      <trkpt lat="44.20696" lon="5.29295">
        <ele>558.66333</ele>
        <time>2011-04-17T09:00:00+02:00</time>
      </trkpt>
      <trkpt lat="44.20698" lon="5.29295">
        <ele>556.26001</ele>
        <time>2011-04-17T09:00:06+02:00</time>
      </trkpt>
      <trkpt lat="44.20702" lon="5.29297">
        <ele>573.563965</ele>
        <time>2011-04-17T09:00:29+02:00</time>
      </trkpt>
      <trkpt lat="44.20705" lon="5.29304">
        <ele>578.851074</ele>
        <time>2011-04-17T09:00:39+02:00</time>
      </trkpt>
      <trkpt lat="44.20708" lon="5.29309">
        <ele>579.331543</ele>
        <time>2011-04-17T09:00:44+02:00</time>
      </trkpt>
      <trkpt lat="44.2071" lon="5.29313">
        <ele>578.851074</ele>
        <time>2011-04-17T09:00:48+02:00</time>
      </trkpt>
      <trkpt lat="44.20712" lon="5.2932">
        <ele>578.370361</ele>
        <time>2011-04-17T09:00:55+02:00</time>
      </trkpt>
      <trkpt lat="44.2071" lon="5.29322">
        <ele>577.40918</ele>
        <time>2011-04-17T09:00:59+02:00</time>
      </trkpt>
      <trkpt lat="44.20702" lon="5.29328">
        <ele>573.563965</ele>
        <time>2011-04-17T09:01:06+02:00</time>
      </trkpt>
      <trkpt lat="44.207" lon="5.29332">
        <ele>572.602539</ele>
        <time>2011-04-17T09:01:09+02:00</time>
      </trkpt>
      <trkpt lat="44.20699" lon="5.29342">
        <ele>569.237793</ele>
        <time>2011-04-17T09:01:17+02:00</time>
      </trkpt>
      <trkpt lat="44.20695" lon="5.29352">
        <ele>566.35376</ele>
        <time>2011-04-17T09:01:25+02:00</time>
      </trkpt>
      <trkpt lat="44.2069" lon="5.29357">
        <ele>565.873291</ele>
        <time>2011-04-17T09:01:31+02:00</time>
      </trkpt>
      <trkpt lat="44.20686" lon="5.29362">
        <ele>565.392578</ele>
        <time>2011-04-17T09:01:36+02:00</time>
      </trkpt>
      <trkpt lat="44.20677" lon="5.29365">
        <ele>569.237793</ele>
        <time>2011-04-17T09:01:44+02:00</time>
      </trkpt>
      <trkpt lat="44.20673" lon="5.29368">
        <ele>569.718506</ele>
        <time>2011-04-17T09:01:48+02:00</time>
      </trkpt>
      <trkpt lat="44.20667" lon="5.29381">
        <ele>567.315186</ele>
        <time>2011-04-17T09:01:57+02:00</time>
      </trkpt>
      <trkpt lat="44.20663" lon="5.29382">
        <ele>567.795654</ele>
        <time>2011-04-17T09:02:01+02:00</time>
      </trkpt>
      <trkpt lat="44.20655" lon="5.29385">
        <ele>567.315186</ele>
        <time>2011-04-17T09:02:09+02:00</time>
      </trkpt>
      <trkpt lat="44.20646" lon="5.29385">
        <ele>567.795654</ele>
        <time>2011-04-17T09:02:17+02:00</time>
      </trkpt>
      <trkpt lat="44.20641" lon="5.29385">
        <ele>568.276367</ele>
        <time>2011-04-17T09:02:21+02:00</time>
      </trkpt>
      <trkpt lat="44.20636" lon="5.29388">
        <ele>570.198975</ele>
        <time>2011-04-17T09:02:28+02:00</time>
      </trkpt>
      <trkpt lat="44.2063" lon="5.29391">
        <ele>571.1604</ele>
        <time>2011-04-17T09:02:34+02:00</time>
      </trkpt>
      <trkpt lat="44.20618" lon="5.29395">
        <ele>573.563965</ele>
        <time>2011-04-17T09:02:43+02:00</time>
      </trkpt>
      <trkpt lat="44.2061" lon="5.29396">
        <ele>576.447754</ele>
        <time>2011-04-17T09:02:50+02:00</time>
      </trkpt>
      <trkpt lat="44.20604" lon="5.29397">
        <ele>578.370361</ele>
        <time>2011-04-17T09:02:56+02:00</time>
      </trkpt>
      <trkpt lat="44.20602" lon="5.29398">
        <ele>578.370361</ele>
        <time>2011-04-17T09:02:58+02:00</time>
      </trkpt>
      <trkpt lat="44.20598" lon="5.29401">
        <ele>576.928467</ele>
        <time>2011-04-17T09:03:04+02:00</time>
      </trkpt>
      <trkpt lat="44.20591" lon="5.29406">
        <ele>575.967041</ele>
        <time>2011-04-17T09:03:14+02:00</time>
      </trkpt>
      <trkpt lat="44.20586" lon="5.29409">
        <ele>578.370361</ele>
        <time>2011-04-17T09:03:21+02:00</time>
      </trkpt>
      <trkpt lat="44.20582" lon="5.29411">
        <ele>582.215576</ele>
        <time>2011-04-17T09:03:26+02:00</time>
      </trkpt>
      <trkpt lat="44.20579" lon="5.29413">
        <ele>585.099609</ele>
        <time>2011-04-17T09:03:33+02:00</time>
      </trkpt>
      <trkpt lat="44.20575" lon="5.29417">
        <ele>587.983398</ele>
        <time>2011-04-17T09:03:41+02:00</time>
      </trkpt>
      <trkpt lat="44.20575" lon="5.29418">
        <ele>587.983398</ele>
        <time>2011-04-17T09:03:51+02:00</time>
      </trkpt>
      <trkpt lat="44.20575" lon="5.29425">
        <ele>582.215576</ele>
        <time>2011-04-17T09:04:02+02:00</time>
      </trkpt>
      <trkpt lat="44.20569" lon="5.29428">
        <ele>586.541504</ele>
        <time>2011-04-17T09:04:11+02:00</time>
      </trkpt>
      <trkpt lat="44.20567" lon="5.29431">
        <ele>588.464355</ele>
        <time>2011-04-17T09:04:15+02:00</time>
      </trkpt>
      <trkpt lat="44.20564" lon="5.29436">
        <ele>590.386963</ele>
        <time>2011-04-17T09:04:21+02:00</time>
      </trkpt>
      <trkpt lat="44.20561" lon="5.29443">
        <ele>594.232178</ele>
        <time>2011-04-17T09:04:30+02:00</time>
      </trkpt>
      <trkpt lat="44.2056" lon="5.29446">
        <ele>594.232178</ele>
        <time>2011-04-17T09:04:35+02:00</time>
      </trkpt>
      <trkpt lat="44.20559" lon="5.29452">
        <ele>596.154785</ele>
        <time>2011-04-17T09:04:42+02:00</time>
      </trkpt>
      <trkpt lat="44.20557" lon="5.29457">
        <ele>596.635498</ele>
        <time>2011-04-17T09:04:49+02:00</time>
      </trkpt>
      <trkpt lat="44.20558" lon="5.29462">
        <ele>596.154785</ele>
        <time>2011-04-17T09:04:56+02:00</time>
      </trkpt>
      <trkpt lat="44.20557" lon="5.29467">
        <ele>596.635498</ele>
        <time>2011-04-17T09:05:01+02:00</time>
      </trkpt>
      <trkpt lat="44.20555" lon="5.29471">
        <ele>597.115967</ele>
        <time>2011-04-17T09:05:06+02:00</time>
      </trkpt>
      <trkpt lat="44.20557" lon="5.29478">
        <ele>598.557861</ele>
        <time>2011-04-17T09:05:15+02:00</time>
      </trkpt>
      <trkpt lat="44.20555" lon="5.29486">
        <ele>600.961182</ele>
        <time>2011-04-17T09:05:25+02:00</time>
      </trkpt>
      <trkpt lat="44.20555" lon="5.29494">
        <ele>600</ele>
        <time>2011-04-17T09:05:33+02:00</time>
      </trkpt>
      <trkpt lat="44.20553" lon="5.29502">
        <ele>600.961182</ele>
        <time>2011-04-17T09:05:42+02:00</time>
      </trkpt>
      <trkpt lat="44.20553" lon="5.29505">
        <ele>601.441895</ele>
        <time>2011-04-17T09:05:47+02:00</time>
      </trkpt>
      <trkpt lat="44.20552" lon="5.29511">
        <ele>602.883789</ele>
        <time>2011-04-17T09:05:53+02:00</time>
      </trkpt>
      <trkpt lat="44.20552" lon="5.29515">
        <ele>603.845215</ele>
        <time>2011-04-17T09:05:58+02:00</time>
      </trkpt>
      <trkpt lat="44.20552" lon="5.29517">
        <ele>605.287354</ele>
        <time>2011-04-17T09:06:03+02:00</time>
      </trkpt>
      <trkpt lat="44.20552" lon="5.29519">
        <ele>606.729248</ele>
        <time>2011-04-17T09:06:07+02:00</time>
      </trkpt>
      <trkpt lat="44.2055" lon="5.29526">
        <ele>608.171387</ele>
        <time>2011-04-17T09:06:14+02:00</time>
      </trkpt>
      <trkpt lat="44.2055" lon="5.29532">
        <ele>610.09375</ele>
        <time>2011-04-17T09:06:21+02:00</time>
      </trkpt>
      <trkpt lat="44.20549" lon="5.29535">
        <ele>612.016602</ele>
        <time>2011-04-17T09:06:27+02:00</time>
      </trkpt>
      <trkpt lat="44.20549" lon="5.29541">
        <ele>614.419678</ele>
        <time>2011-04-17T09:06:50+02:00</time>
      </trkpt>
      <trkpt lat="44.20549" lon="5.29546">
        <ele>614.419678</ele>
        <time>2011-04-17T09:06:55+02:00</time>
      </trkpt>
      <trkpt lat="44.20549" lon="5.29551">
        <ele>615.861816</ele>
        <time>2011-04-17T09:07:02+02:00</time>
      </trkpt>
      <trkpt lat="44.20549" lon="5.29557">
        <ele>615.861816</ele>
        <time>2011-04-17T09:07:09+02:00</time>
      </trkpt>
      <trkpt lat="44.20549" lon="5.29563">
        <ele>616.342285</ele>
        <time>2011-04-17T09:07:16+02:00</time>
      </trkpt>
      <trkpt lat="44.20549" lon="5.2957">
        <ele>617.78418</ele>
        <time>2011-04-17T09:07:23+02:00</time>
      </trkpt>
      <trkpt lat="44.20549" lon="5.2958">
        <ele>619.707031</ele>
        <time>2011-04-17T09:07:33+02:00</time>
      </trkpt>
      <trkpt lat="44.20548" lon="5.2959">
        <ele>622.591064</ele>
        <time>2011-04-17T09:07:43+02:00</time>
      </trkpt>
      <trkpt lat="44.20548" lon="5.29598">
        <ele>622.110352</ele>
        <time>2011-04-17T09:07:51+02:00</time>
      </trkpt>
      <trkpt lat="44.20547" lon="5.29604">
        <ele>623.55249</ele>
        <time>2011-04-17T09:07:56+02:00</time>
      </trkpt>
      <trkpt lat="44.20547" lon="5.29611">
        <ele>625.474854</ele>
        <time>2011-04-17T09:08:04+02:00</time>
      </trkpt>
      <trkpt lat="44.20547" lon="5.29618">
        <ele>627.878174</ele>
        <time>2011-04-17T09:08:11+02:00</time>
      </trkpt>
      <trkpt lat="44.20546" lon="5.29628">
        <ele>627.878174</ele>
        <time>2011-04-17T09:08:20+02:00</time>
      </trkpt>
      <trkpt lat="44.20545" lon="5.29633">
        <ele>628.8396</ele>
        <time>2011-04-17T09:08:25+02:00</time>
      </trkpt>
      <trkpt lat="44.20544" lon="5.29639">
        <ele>627.878174</ele>
        <time>2011-04-17T09:08:30+02:00</time>
      </trkpt>
      <trkpt lat="44.20544" lon="5.29641">
        <ele>627.397705</ele>
        <time>2011-04-17T09:08:36+02:00</time>
      </trkpt>
      <trkpt lat="44.20544" lon="5.29647">
        <ele>626.436279</ele>
        <time>2011-04-17T09:08:47+02:00</time>
      </trkpt>
      <trkpt lat="44.20543" lon="5.29655">
        <ele>628.8396</ele>
        <time>2011-04-17T09:08:55+02:00</time>
      </trkpt>
      <trkpt lat="44.20541" lon="5.29663">
        <ele>631.24292</ele>
        <time>2011-04-17T09:09:04+02:00</time>
      </trkpt>
      <trkpt lat="44.2054" lon="5.29668">
        <ele>633.165283</ele>
        <time>2011-04-17T09:09:10+02:00</time>
      </trkpt>
      <trkpt lat="44.2054" lon="5.29675">
        <ele>633.645996</ele>
        <time>2011-04-17T09:09:17+02:00</time>
      </trkpt>
      <trkpt lat="44.20539" lon="5.2968">
        <ele>634.607422</ele>
        <time>2011-04-17T09:09:23+02:00</time>
      </trkpt>
      <trkpt lat="44.20539" lon="5.29686">
        <ele>635.088135</ele>
        <time>2011-04-17T09:09:29+02:00</time>
      </trkpt>
      <trkpt lat="44.20539" lon="5.29687">
        <ele>636.049561</ele>
        <time>2011-04-17T09:09:35+02:00</time>
      </trkpt>
      <trkpt lat="44.2054" lon="5.29687">
        <ele>638.452881</ele>
        <time>2011-04-17T09:09:42+02:00</time>
      </trkpt>
      <trkpt lat="44.2054" lon="5.29686">
        <ele>640.375488</ele>
        <time>2011-04-17T09:09:48+02:00</time>
      </trkpt>
      <trkpt lat="44.20541" lon="5.29686">
        <ele>642.298096</ele>
        <time>2011-04-17T09:09:54+02:00</time>
      </trkpt>
      <trkpt lat="44.20545" lon="5.29681">
        <ele>645.181885</ele>
        <time>2011-04-17T09:10:07+02:00</time>
      </trkpt>
      <trkpt lat="44.20549" lon="5.29677">
        <ele>647.104492</ele>
        <time>2011-04-17T09:10:14+02:00</time>
      </trkpt>
      <trkpt lat="44.20552" lon="5.29673">
        <ele>648.065918</ele>
        <time>2011-04-17T09:10:21+02:00</time>
      </trkpt>
      <trkpt lat="44.20555" lon="5.29669">
        <ele>649.507812</ele>
        <time>2011-04-17T09:10:28+02:00</time>
      </trkpt>
      <trkpt lat="44.20561" lon="5.29664">
        <ele>650.469238</ele>
        <time>2011-04-17T09:10:37+02:00</time>
      </trkpt>
      <trkpt lat="44.20564" lon="5.29657">
        <ele>652.391846</ele>
        <time>2011-04-17T09:10:45+02:00</time>
      </trkpt>
      <trkpt lat="44.2057" lon="5.29651">
        <ele>654.795166</ele>
        <time>2011-04-17T09:10:55+02:00</time>
      </trkpt>
      <trkpt lat="44.20574" lon="5.29646">
        <ele>655.756592</ele>
        <time>2011-04-17T09:11:03+02:00</time>
      </trkpt>
      <trkpt lat="44.20578" lon="5.29642">
        <ele>656.717773</ele>
        <time>2011-04-17T09:11:10+02:00</time>
      </trkpt>
      <trkpt lat="44.20583" lon="5.29636">
        <ele>657.679199</ele>
        <time>2011-04-17T09:11:19+02:00</time>
      </trkpt>
      <trkpt lat="44.20586" lon="5.29638">
        <ele>657.679199</ele>
        <time>2011-04-17T09:11:24+02:00</time>
      </trkpt>
      <trkpt lat="44.20585" lon="5.29644">
        <ele>658.640381</ele>
        <time>2011-04-17T09:11:31+02:00</time>
      </trkpt>
      <trkpt lat="44.20585" lon="5.29648">
        <ele>659.121094</ele>
        <time>2011-04-17T09:11:37+02:00</time>
      </trkpt>
      <trkpt lat="44.20584" lon="5.29653">
        <ele>657.679199</ele>
        <time>2011-04-17T09:11:46+02:00</time>
      </trkpt>
      <trkpt lat="44.20582" lon="5.29662">
        <ele>657.679199</ele>
        <time>2011-04-17T09:11:54+02:00</time>
      </trkpt>
      <trkpt lat="44.20582" lon="5.29668">
        <ele>658.159912</ele>
        <time>2011-04-17T09:11:59+02:00</time>
      </trkpt>
      <trkpt lat="44.2058" lon="5.29674">
        <ele>661.043701</ele>
        <time>2011-04-17T09:12:05+02:00</time>
      </trkpt>
      <trkpt lat="44.20578" lon="5.29683">
        <ele>662.485596</ele>
        <time>2011-04-17T09:12:13+02:00</time>
      </trkpt>
      <trkpt lat="44.20576" lon="5.29694">
        <ele>665.369629</ele>
        <time>2011-04-17T09:12:22+02:00</time>
      </trkpt>
      <trkpt lat="44.20574" lon="5.29704">
        <ele>667.772705</ele>
        <time>2011-04-17T09:12:32+02:00</time>
      </trkpt>
      <trkpt lat="44.20571" lon="5.29715">
        <ele>668.253662</ele>
        <time>2011-04-17T09:12:40+02:00</time>
      </trkpt>
      <trkpt lat="44.20567" lon="5.29724">
        <ele>667.772705</ele>
        <time>2011-04-17T09:12:47+02:00</time>
      </trkpt>
      <trkpt lat="44.20561" lon="5.29738">
        <ele>669.695801</ele>
        <time>2011-04-17T09:12:55+02:00</time>
      </trkpt>
      <trkpt lat="44.20557" lon="5.29745">
        <ele>668.253662</ele>
        <time>2011-04-17T09:13:01+02:00</time>
      </trkpt>
      <trkpt lat="44.20554" lon="5.29751">
        <ele>669.695801</ele>
        <time>2011-04-17T09:13:06+02:00</time>
      </trkpt>
      <trkpt lat="44.20552" lon="5.29755">
        <ele>668.734375</ele>
        <time>2011-04-17T09:13:09+02:00</time>
      </trkpt>
      <trkpt lat="44.20551" lon="5.29761">
        <ele>667.292236</ele>
        <time>2011-04-17T09:13:14+02:00</time>
      </trkpt>
      <trkpt lat="44.20548" lon="5.29769">
        <ele>664.888916</ele>
        <time>2011-04-17T09:13:21+02:00</time>
      </trkpt>
      <trkpt lat="44.20546" lon="5.29777">
        <ele>664.888916</ele>
        <time>2011-04-17T09:13:27+02:00</time>
      </trkpt>
      <trkpt lat="44.20541" lon="5.29783">
        <ele>668.734375</ele>
        <time>2011-04-17T09:13:35+02:00</time>
      </trkpt>
      <trkpt lat="44.20538" lon="5.29789">
        <ele>669.215088</ele>
        <time>2011-04-17T09:13:41+02:00</time>
      </trkpt>
      <trkpt lat="44.20533" lon="5.29796">
        <ele>669.215088</ele>
        <time>2011-04-17T09:13:51+02:00</time>
      </trkpt>
      <trkpt lat="44.20531" lon="5.29801">
        <ele>667.772705</ele>
        <time>2011-04-17T09:13:57+02:00</time>
      </trkpt>
      <trkpt lat="44.20528" lon="5.29807">
        <ele>668.253662</ele>
        <time>2011-04-17T09:14:04+02:00</time>
      </trkpt>
      <trkpt lat="44.20525" lon="5.29812">
        <ele>669.695801</ele>
        <time>2011-04-17T09:14:10+02:00</time>
      </trkpt>
      <trkpt lat="44.20522" lon="5.29819">
        <ele>672.57959</ele>
        <time>2011-04-17T09:14:17+02:00</time>
      </trkpt>
      <trkpt lat="44.20517" lon="5.29827">
        <ele>677.38623</ele>
        <time>2011-04-17T09:14:25+02:00</time>
      </trkpt>
      <trkpt lat="44.20516" lon="5.29829">
        <ele>677.38623</ele>
        <time>2011-04-17T09:14:31+02:00</time>
      </trkpt>
      <trkpt lat="44.20514" lon="5.29829">
        <ele>679.789307</ele>
        <time>2011-04-17T09:14:42+02:00</time>
      </trkpt>
      <trkpt lat="44.20514" lon="5.29828">
        <ele>685.076904</ele>
        <time>2011-04-17T09:16:11+02:00</time>
      </trkpt>
      <trkpt lat="44.20519" lon="5.29847">
        <ele>683.634521</ele>
        <time>2011-04-17T09:16:16+02:00</time>
      </trkpt>
      <trkpt lat="44.20525" lon="5.29871">
        <ele>680.750732</ele>
        <time>2011-04-17T09:16:21+02:00</time>
      </trkpt>
      <trkpt lat="44.20534" lon="5.29897">
        <ele>677.38623</ele>
        <time>2011-04-17T09:16:26+02:00</time>
      </trkpt>
      <trkpt lat="44.20538" lon="5.29916">
        <ele>675.944092</ele>
        <time>2011-04-17T09:16:30+02:00</time>
      </trkpt>
      <trkpt lat="44.20544" lon="5.29946">
        <ele>674.98291</ele>
        <time>2011-04-17T09:16:36+02:00</time>
      </trkpt>
      <trkpt lat="44.20546" lon="5.29962">
        <ele>674.502197</ele>
        <time>2011-04-17T09:16:40+02:00</time>
      </trkpt>
      <trkpt lat="44.20548" lon="5.29968">
        <ele>674.021484</ele>
        <time>2011-04-17T09:16:44+02:00</time>
      </trkpt>
      <trkpt lat="44.20548" lon="5.29976">
        <ele>673.541016</ele>
        <time>2011-04-17T09:16:49+02:00</time>
      </trkpt>
      <trkpt lat="44.20552" lon="5.29986">
        <ele>671.618164</ele>
        <time>2011-04-17T09:16:56+02:00</time>
      </trkpt>
      <trkpt lat="44.20555" lon="5.30003">
        <ele>671.137695</ele>
        <time>2011-04-17T09:17:05+02:00</time>
      </trkpt>
      <trkpt lat="44.20559" lon="5.30011">
        <ele>673.060303</ele>
        <time>2011-04-17T09:17:12+02:00</time>
      </trkpt>
      <trkpt lat="44.2056" lon="5.30016">
        <ele>681.711914</ele>
        <time>2011-04-17T09:17:17+02:00</time>
      </trkpt>
      <trkpt lat="44.20562" lon="5.30023">
        <ele>689.883301</ele>
        <time>2011-04-17T09:17:25+02:00</time>
      </trkpt>
      <trkpt lat="44.20564" lon="5.30026">
        <ele>690.844482</ele>
        <time>2011-04-17T09:17:31+02:00</time>
      </trkpt>
      <trkpt lat="44.20569" lon="5.30031">
        <ele>688.922119</ele>
        <time>2011-04-17T09:17:37+02:00</time>
      </trkpt>
      <trkpt lat="44.20573" lon="5.30037">
        <ele>688.441406</ele>
        <time>2011-04-17T09:17:43+02:00</time>
      </trkpt>
      <trkpt lat="44.20576" lon="5.30045">
        <ele>687.47998</ele>
        <time>2011-04-17T09:17:49+02:00</time>
      </trkpt>
      <trkpt lat="44.20578" lon="5.30047">
        <ele>688.922119</ele>
        <time>2011-04-17T09:17:52+02:00</time>
      </trkpt>
      <trkpt lat="44.20576" lon="5.30056">
        <ele>693.247803</ele>
        <time>2011-04-17T09:18:00+02:00</time>
      </trkpt>
      <trkpt lat="44.20575" lon="5.30063">
        <ele>691.325195</ele>
        <time>2011-04-17T09:18:06+02:00</time>
      </trkpt>
      <trkpt lat="44.20576" lon="5.30072">
        <ele>692.767334</ele>
        <time>2011-04-17T09:18:14+02:00</time>
      </trkpt>
      <trkpt lat="44.20579" lon="5.30082">
        <ele>691.805908</ele>
        <time>2011-04-17T09:18:23+02:00</time>
      </trkpt>
      <trkpt lat="44.20583" lon="5.30091">
        <ele>691.325195</ele>
        <time>2011-04-17T09:18:31+02:00</time>
      </trkpt>
      <trkpt lat="44.20582" lon="5.30103">
        <ele>693.728516</ele>
        <time>2011-04-17T09:18:39+02:00</time>
      </trkpt>
      <trkpt lat="44.20581" lon="5.30111">
        <ele>693.728516</ele>
        <time>2011-04-17T09:18:44+02:00</time>
      </trkpt>
      <trkpt lat="44.20582" lon="5.30115">
        <ele>692.767334</ele>
        <time>2011-04-17T09:18:50+02:00</time>
      </trkpt>
      <trkpt lat="44.20584" lon="5.30121">
        <ele>691.805908</ele>
        <time>2011-04-17T09:18:57+02:00</time>
      </trkpt>
      <trkpt lat="44.20585" lon="5.30129">
        <ele>691.805908</ele>
        <time>2011-04-17T09:19:03+02:00</time>
      </trkpt>
      <trkpt lat="44.20585" lon="5.30147">
        <ele>689.883301</ele>
        <time>2011-04-17T09:19:07+02:00</time>
      </trkpt>
      <trkpt lat="44.20585" lon="5.30162">
        <ele>688.922119</ele>
        <time>2011-04-17T09:19:11+02:00</time>
      </trkpt>
      <trkpt lat="44.20586" lon="5.30165">
        <ele>688.441406</ele>
        <time>2011-04-17T09:19:12+02:00</time>
      </trkpt>
      <trkpt lat="44.20587" lon="5.30176">
        <ele>688.922119</ele>
        <time>2011-04-17T09:19:16+02:00</time>
      </trkpt>
      <trkpt lat="44.2059" lon="5.30184">
        <ele>689.402588</ele>
        <time>2011-04-17T09:19:21+02:00</time>
      </trkpt>
      <trkpt lat="44.20595" lon="5.3019">
        <ele>688.922119</ele>
        <time>2011-04-17T09:19:26+02:00</time>
      </trkpt>
      <trkpt lat="44.20602" lon="5.30198">
        <ele>687.960693</ele>
        <time>2011-04-17T09:19:31+02:00</time>
      </trkpt>
      <trkpt lat="44.20605" lon="5.30199">
        <ele>688.441406</ele>
        <time>2011-04-17T09:19:33+02:00</time>
      </trkpt>
      <trkpt lat="44.20607" lon="5.302">
        <ele>688.441406</ele>
        <time>2011-04-17T09:19:35+02:00</time>
      </trkpt>
      <trkpt lat="44.20613" lon="5.30199">
        <ele>688.441406</ele>
        <time>2011-04-17T09:19:39+02:00</time>
      </trkpt>
      <trkpt lat="44.20621" lon="5.302">
        <ele>689.883301</ele>
        <time>2011-04-17T09:19:43+02:00</time>
      </trkpt>
      <trkpt lat="44.20628" lon="5.30201">
        <ele>690.364014</ele>
        <time>2011-04-17T09:19:48+02:00</time>
      </trkpt>
      <trkpt lat="44.20632" lon="5.30202">
        <ele>690.364014</ele>
        <time>2011-04-17T09:19:53+02:00</time>
      </trkpt>
      <trkpt lat="44.20635" lon="5.30204">
        <ele>689.883301</ele>
        <time>2011-04-17T09:19:58+02:00</time>
      </trkpt>
      <trkpt lat="44.20646" lon="5.30204">
        <ele>688.922119</ele>
        <time>2011-04-17T09:20:03+02:00</time>
      </trkpt>
      <trkpt lat="44.20669" lon="5.30206">
        <ele>686.999268</ele>
        <time>2011-04-17T09:20:09+02:00</time>
      </trkpt>
      <trkpt lat="44.20693" lon="5.302">
        <ele>685.076904</ele>
        <time>2011-04-17T09:20:14+02:00</time>
      </trkpt>
      <trkpt lat="44.20708" lon="5.30195">
        <ele>684.115479</ele>
        <time>2011-04-17T09:20:17+02:00</time>
      </trkpt>
      <trkpt lat="44.20726" lon="5.30188">
        <ele>683.153809</ele>
        <time>2011-04-17T09:20:21+02:00</time>
      </trkpt>
      <trkpt lat="44.20738" lon="5.30188">
        <ele>682.192627</ele>
        <time>2011-04-17T09:20:24+02:00</time>
      </trkpt>
      <trkpt lat="44.20761" lon="5.30188">
        <ele>680.27002</ele>
        <time>2011-04-17T09:20:29+02:00</time>
      </trkpt>
      <trkpt lat="44.20769" lon="5.30187">
        <ele>680.27002</ele>
        <time>2011-04-17T09:20:31+02:00</time>
      </trkpt>
      <trkpt lat="44.20776" lon="5.30189">
        <ele>680.27002</ele>
        <time>2011-04-17T09:20:33+02:00</time>
      </trkpt>
      <trkpt lat="44.20788" lon="5.30184">
        <ele>681.711914</ele>
        <time>2011-04-17T09:20:38+02:00</time>
      </trkpt>
      <trkpt lat="44.20798" lon="5.30186">
        <ele>682.192627</ele>
        <time>2011-04-17T09:20:42+02:00</time>
      </trkpt>
      <trkpt lat="44.20802" lon="5.30186">
        <ele>682.192627</ele>
        <time>2011-04-17T09:20:43+02:00</time>
      </trkpt>
      <trkpt lat="44.20834" lon="5.30182">
        <ele>683.153809</ele>
        <time>2011-04-17T09:20:51+02:00</time>
      </trkpt>
      <trkpt lat="44.20846" lon="5.30177">
        <ele>683.634521</ele>
        <time>2011-04-17T09:20:54+02:00</time>
      </trkpt>
      <trkpt lat="44.20861" lon="5.30162">
        <ele>683.153809</ele>
        <time>2011-04-17T09:20:58+02:00</time>
      </trkpt>
      <trkpt lat="44.20881" lon="5.30151">
        <ele>682.67334</ele>
        <time>2011-04-17T09:21:03+02:00</time>
      </trkpt>
      <trkpt lat="44.20884" lon="5.30151">
        <ele>682.67334</ele>
        <time>2011-04-17T09:21:06+02:00</time>
      </trkpt>
      <trkpt lat="44.20887" lon="5.30151">
        <ele>682.67334</ele>
        <time>2011-04-17T09:21:09+02:00</time>
      </trkpt>
      <trkpt lat="44.20891" lon="5.30154">
        <ele>682.67334</ele>
        <time>2011-04-17T09:21:14+02:00</time>
      </trkpt>
      <trkpt lat="44.20901" lon="5.30158">
        <ele>682.67334</ele>
        <time>2011-04-17T09:21:20+02:00</time>
      </trkpt>
      <trkpt lat="44.20916" lon="5.30158">
        <ele>683.634521</ele>
        <time>2011-04-17T09:21:26+02:00</time>
      </trkpt>
      <trkpt lat="44.20924" lon="5.30153">
        <ele>682.67334</ele>
        <time>2011-04-17T09:21:29+02:00</time>
      </trkpt>
      <trkpt lat="44.20933" lon="5.30159">
        <ele>682.192627</ele>
        <time>2011-04-17T09:21:33+02:00</time>
      </trkpt>
      <trkpt lat="44.20948" lon="5.30176">
        <ele>682.67334</ele>
        <time>2011-04-17T09:21:39+02:00</time>
      </trkpt>
      <trkpt lat="44.20955" lon="5.30194">
        <ele>683.634521</ele>
        <time>2011-04-17T09:21:45+02:00</time>
      </trkpt>
      <trkpt lat="44.20956" lon="5.3021">
        <ele>685.076904</ele>
        <time>2011-04-17T09:21:51+02:00</time>
      </trkpt>
      <trkpt lat="44.20955" lon="5.30228">
        <ele>686.518799</ele>
        <time>2011-04-17T09:21:58+02:00</time>
      </trkpt>
      <trkpt lat="44.20953" lon="5.30242">
        <ele>686.518799</ele>
        <time>2011-04-17T09:22:04+02:00</time>
      </trkpt>
      <trkpt lat="44.20954" lon="5.30259">
        <ele>686.518799</ele>
        <time>2011-04-17T09:22:11+02:00</time>
      </trkpt>
      <trkpt lat="44.20955" lon="5.30274">
        <ele>686.999268</ele>
        <time>2011-04-17T09:22:18+02:00</time>
      </trkpt>
      <trkpt lat="44.20956" lon="5.30282">
        <ele>687.47998</ele>
        <time>2011-04-17T09:22:24+02:00</time>
      </trkpt>
      <trkpt lat="44.20955" lon="5.30284">
        <ele>687.47998</ele>
        <time>2011-04-17T09:22:25+02:00</time>
      </trkpt>
      <trkpt lat="44.20955" lon="5.30303">
        <ele>688.441406</ele>
        <time>2011-04-17T09:22:33+02:00</time>
      </trkpt>
      <trkpt lat="44.20957" lon="5.30309">
        <ele>688.922119</ele>
        <time>2011-04-17T09:22:36+02:00</time>
      </trkpt>
      <trkpt lat="44.20968" lon="5.30318">
        <ele>689.883301</ele>
        <time>2011-04-17T09:22:43+02:00</time>
      </trkpt>
      <trkpt lat="44.20981" lon="5.30313">
        <ele>690.844482</ele>
        <time>2011-04-17T09:22:50+02:00</time>
      </trkpt>
      <trkpt lat="44.20992" lon="5.30305">
        <ele>691.805908</ele>
        <time>2011-04-17T09:22:56+02:00</time>
      </trkpt>
      <trkpt lat="44.20999" lon="5.303">
        <ele>692.286621</ele>
        <time>2011-04-17T09:23:00+02:00</time>
      </trkpt>
      <trkpt lat="44.21005" lon="5.30308">
        <ele>693.247803</ele>
        <time>2011-04-17T09:23:05+02:00</time>
      </trkpt>
      <trkpt lat="44.21011" lon="5.30325">
        <ele>694.689697</ele>
        <time>2011-04-17T09:23:12+02:00</time>
      </trkpt>
      <trkpt lat="44.21013" lon="5.30344">
        <ele>695.651123</ele>
        <time>2011-04-17T09:23:19+02:00</time>
      </trkpt>
      <trkpt lat="44.21013" lon="5.30362">
        <ele>696.612549</ele>
        <time>2011-04-17T09:23:25+02:00</time>
      </trkpt>
      <trkpt lat="44.2101" lon="5.30382">
        <ele>697.57373</ele>
        <time>2011-04-17T09:23:32+02:00</time>
      </trkpt>
      <trkpt lat="44.21004" lon="5.30403">
        <ele>699.015625</ele>
        <time>2011-04-17T09:23:39+02:00</time>
      </trkpt>
      <trkpt lat="44.20996" lon="5.3043">
        <ele>700.938477</ele>
        <time>2011-04-17T09:23:48+02:00</time>
      </trkpt>
      <trkpt lat="44.2099" lon="5.30448">
        <ele>702.380371</ele>
        <time>2011-04-17T09:23:54+02:00</time>
      </trkpt>
      <trkpt lat="44.20983" lon="5.30463">
        <ele>702.861084</ele>
        <time>2011-04-17T09:23:59+02:00</time>
      </trkpt>
      <trkpt lat="44.20975" lon="5.30482">
        <ele>703.82251</ele>
        <time>2011-04-17T09:24:05+02:00</time>
      </trkpt>
      <trkpt lat="44.20966" lon="5.30498">
        <ele>704.783691</ele>
        <time>2011-04-17T09:24:11+02:00</time>
      </trkpt>
      <trkpt lat="44.20957" lon="5.30516">
        <ele>704.783691</ele>
        <time>2011-04-17T09:24:16+02:00</time>
      </trkpt>
      <trkpt lat="44.20944" lon="5.30548">
        <ele>702.861084</ele>
        <time>2011-04-17T09:24:21+02:00</time>
      </trkpt>
      <trkpt lat="44.20928" lon="5.30566">
        <ele>701.419189</ele>
        <time>2011-04-17T09:24:25+02:00</time>
      </trkpt>
      <trkpt lat="44.20918" lon="5.30585">
        <ele>700.458008</ele>
        <time>2011-04-17T09:24:28+02:00</time>
      </trkpt>
      <trkpt lat="44.20897" lon="5.30635">
        <ele>696.131836</ele>
        <time>2011-04-17T09:24:35+02:00</time>
      </trkpt>
      <trkpt lat="44.20873" lon="5.30679">
        <ele>694.209229</ele>
        <time>2011-04-17T09:24:42+02:00</time>
      </trkpt>
      <trkpt lat="44.20857" lon="5.30702">
        <ele>694.209229</ele>
        <time>2011-04-17T09:24:47+02:00</time>
      </trkpt>
      <trkpt lat="44.20843" lon="5.30721">
        <ele>693.728516</ele>
        <time>2011-04-17T09:24:51+02:00</time>
      </trkpt>
      <trkpt lat="44.20835" lon="5.3073">
        <ele>692.767334</ele>
        <time>2011-04-17T09:24:53+02:00</time>
      </trkpt>
      <trkpt lat="44.20819" lon="5.30744">
        <ele>691.805908</ele>
        <time>2011-04-17T09:24:56+02:00</time>
      </trkpt>
      <trkpt lat="44.20797" lon="5.30759">
        <ele>690.364014</ele>
        <time>2011-04-17T09:25:01+02:00</time>
      </trkpt>
      <trkpt lat="44.20795" lon="5.30761">
        <ele>689.883301</ele>
        <time>2011-04-17T09:25:05+02:00</time>
      </trkpt>
      <trkpt lat="44.20795" lon="5.30761">
        <ele>689.883301</ele>
        <time>2011-04-17T09:25:11+02:00</time>
      </trkpt>
      <trkpt lat="44.20796" lon="5.30762">
        <ele>689.883301</ele>
        <time>2011-04-17T09:25:13+02:00</time>
      </trkpt>
      <trkpt lat="44.20794" lon="5.30777">
        <ele>687.960693</ele>
        <time>2011-04-17T09:25:20+02:00</time>
      </trkpt>
      <trkpt lat="44.20787" lon="5.30792">
        <ele>686.518799</ele>
        <time>2011-04-17T09:25:24+02:00</time>
      </trkpt>
      <trkpt lat="44.2078" lon="5.30801">
        <ele>686.518799</ele>
        <time>2011-04-17T09:25:27+02:00</time>
      </trkpt>
      <trkpt lat="44.20782" lon="5.30806">
        <ele>685.557373</ele>
        <time>2011-04-17T09:25:31+02:00</time>
      </trkpt>
      <trkpt lat="44.20804" lon="5.30801">
        <ele>682.67334</ele>
        <time>2011-04-17T09:25:36+02:00</time>
      </trkpt>
      <trkpt lat="44.20821" lon="5.30803">
        <ele>680.27002</ele>
        <time>2011-04-17T09:25:39+02:00</time>
      </trkpt>
      <trkpt lat="44.20846" lon="5.30795">
        <ele>677.38623</ele>
        <time>2011-04-17T09:25:44+02:00</time>
      </trkpt>
      <trkpt lat="44.20858" lon="5.30802">
        <ele>675.944092</ele>
        <time>2011-04-17T09:25:47+02:00</time>
      </trkpt>
      <trkpt lat="44.20867" lon="5.30806">
        <ele>674.502197</ele>
        <time>2011-04-17T09:25:50+02:00</time>
      </trkpt>
      <trkpt lat="44.20867" lon="5.30819">
        <ele>673.060303</ele>
        <time>2011-04-17T09:25:53+02:00</time>
      </trkpt>
      <trkpt lat="44.20866" lon="5.30849">
        <ele>670.656982</ele>
        <time>2011-04-17T09:25:57+02:00</time>
      </trkpt>
      <trkpt lat="44.20864" lon="5.3088">
        <ele>667.292236</ele>
        <time>2011-04-17T09:26:01+02:00</time>
      </trkpt>
      <trkpt lat="44.20863" lon="5.30915">
        <ele>663.447021</ele>
        <time>2011-04-17T09:26:07+02:00</time>
      </trkpt>
      <trkpt lat="44.20863" lon="5.30925">
        <ele>662.005127</ele>
        <time>2011-04-17T09:26:09+02:00</time>
      </trkpt>
      <trkpt lat="44.20866" lon="5.30946">
        <ele>658.640381</ele>
        <time>2011-04-17T09:26:14+02:00</time>
      </trkpt>
      <trkpt lat="44.20868" lon="5.30959">
        <ele>656.237061</ele>
        <time>2011-04-17T09:26:17+02:00</time>
      </trkpt>
      <trkpt lat="44.20867" lon="5.3097">
        <ele>654.314697</ele>
        <time>2011-04-17T09:26:21+02:00</time>
      </trkpt>
      <trkpt lat="44.20863" lon="5.30996">
        <ele>651.911133</ele>
        <time>2011-04-17T09:26:27+02:00</time>
      </trkpt>
      <trkpt lat="44.20861" lon="5.31014">
        <ele>650.469238</ele>
        <time>2011-04-17T09:26:31+02:00</time>
      </trkpt>
      <trkpt lat="44.20859" lon="5.31033">
        <ele>648.546387</ele>
        <time>2011-04-17T09:26:36+02:00</time>
      </trkpt>
      <trkpt lat="44.20857" lon="5.31077">
        <ele>646.143311</ele>
        <time>2011-04-17T09:26:43+02:00</time>
      </trkpt>
      <trkpt lat="44.20856" lon="5.31102">
        <ele>644.701172</ele>
        <time>2011-04-17T09:26:47+02:00</time>
      </trkpt>
      <trkpt lat="44.20854" lon="5.31123">
        <ele>643.73999</ele>
        <time>2011-04-17T09:26:50+02:00</time>
      </trkpt>
      <trkpt lat="44.20852" lon="5.31163">
        <ele>641.33667</ele>
        <time>2011-04-17T09:26:56+02:00</time>
      </trkpt>
      <trkpt lat="44.2085" lon="5.31179">
        <ele>639.894775</ele>
        <time>2011-04-17T09:26:59+02:00</time>
      </trkpt>
      <trkpt lat="44.20844" lon="5.31198">
        <ele>637.972168</ele>
        <time>2011-04-17T09:27:02+02:00</time>
      </trkpt>
      <trkpt lat="44.20837" lon="5.31236">
        <ele>634.126709</ele>
        <time>2011-04-17T09:27:08+02:00</time>
      </trkpt>
      <trkpt lat="44.20835" lon="5.31261">
        <ele>633.645996</ele>
        <time>2011-04-17T09:27:11+02:00</time>
      </trkpt>
      <trkpt lat="44.20832" lon="5.31277">
        <ele>633.165283</ele>
        <time>2011-04-17T09:27:13+02:00</time>
      </trkpt>
      <trkpt lat="44.20821" lon="5.31307">
        <ele>633.165283</ele>
        <time>2011-04-17T09:27:17+02:00</time>
      </trkpt>
      <trkpt lat="44.20794" lon="5.31363">
        <ele>633.165283</ele>
        <time>2011-04-17T09:27:25+02:00</time>
      </trkpt>
      <trkpt lat="44.20781" lon="5.31416">
        <ele>634.126709</ele>
        <time>2011-04-17T09:27:32+02:00</time>
      </trkpt>
      <trkpt lat="44.20768" lon="5.3148">
        <ele>634.607422</ele>
        <time>2011-04-17T09:27:40+02:00</time>
      </trkpt>
      <trkpt lat="44.20759" lon="5.31511">
        <ele>634.607422</ele>
        <time>2011-04-17T09:27:44+02:00</time>
      </trkpt>
      <trkpt lat="44.20733" lon="5.31564">
        <ele>635.088135</ele>
        <time>2011-04-17T09:27:52+02:00</time>
      </trkpt>
      <trkpt lat="44.2071" lon="5.31617">
        <ele>635.088135</ele>
        <time>2011-04-17T09:28:00+02:00</time>
      </trkpt>
      <trkpt lat="44.20697" lon="5.31693">
        <ele>634.607422</ele>
        <time>2011-04-17T09:28:10+02:00</time>
      </trkpt>
      <trkpt lat="44.20687" lon="5.31767">
        <ele>634.126709</ele>
        <time>2011-04-17T09:28:19+02:00</time>
      </trkpt>
      <trkpt lat="44.20679" lon="5.31823">
        <ele>633.645996</ele>
        <time>2011-04-17T09:28:26+02:00</time>
      </trkpt>
      <trkpt lat="44.20679" lon="5.31879">
        <ele>633.645996</ele>
        <time>2011-04-17T09:28:33+02:00</time>
      </trkpt>
      <trkpt lat="44.20685" lon="5.31911">
        <ele>633.165283</ele>
        <time>2011-04-17T09:28:37+02:00</time>
      </trkpt>
      <trkpt lat="44.20684" lon="5.31968">
        <ele>632.684814</ele>
        <time>2011-04-17T09:28:44+02:00</time>
      </trkpt>
      <trkpt lat="44.20682" lon="5.31992">
        <ele>632.684814</ele>
        <time>2011-04-17T09:28:50+02:00</time>
      </trkpt>
      <trkpt lat="44.20674" lon="5.32006">
        <ele>631.723389</ele>
        <time>2011-04-17T09:28:55+02:00</time>
      </trkpt>
      <trkpt lat="44.20669" lon="5.32018">
        <ele>630.762207</ele>
        <time>2011-04-17T09:28:57+02:00</time>
      </trkpt>
      <trkpt lat="44.2065" lon="5.32068">
        <ele>628.8396</ele>
        <time>2011-04-17T09:29:04+02:00</time>
      </trkpt>
      <trkpt lat="44.20646" lon="5.32076">
        <ele>628.358887</ele>
        <time>2011-04-17T09:29:06+02:00</time>
      </trkpt>
      <trkpt lat="44.20645" lon="5.3208">
        <ele>628.8396</ele>
        <time>2011-04-17T09:29:11+02:00</time>
      </trkpt>
      <trkpt lat="44.20638" lon="5.32091">
        <ele>629.320068</ele>
        <time>2011-04-17T09:29:18+02:00</time>
      </trkpt>
      <trkpt lat="44.20628" lon="5.32107">
        <ele>630.281494</ele>
        <time>2011-04-17T09:29:24+02:00</time>
      </trkpt>
      <trkpt lat="44.20614" lon="5.32121">
        <ele>631.24292</ele>
        <time>2011-04-17T09:29:29+02:00</time>
      </trkpt>
      <trkpt lat="44.20592" lon="5.32132">
        <ele>629.800781</ele>
        <time>2011-04-17T09:29:34+02:00</time>
      </trkpt>
      <trkpt lat="44.20583" lon="5.32133">
        <ele>628.358887</ele>
        <time>2011-04-17T09:29:36+02:00</time>
      </trkpt>
      <trkpt lat="44.20568" lon="5.32131">
        <ele>626.436279</ele>
        <time>2011-04-17T09:29:39+02:00</time>
      </trkpt>
      <trkpt lat="44.20558" lon="5.3213">
        <ele>624.994385</ele>
        <time>2011-04-17T09:29:41+02:00</time>
      </trkpt>
      <trkpt lat="44.20526" lon="5.32141">
        <ele>621.629639</ele>
        <time>2011-04-17T09:29:47+02:00</time>
      </trkpt>
      <trkpt lat="44.20522" lon="5.32144">
        <ele>620.668457</ele>
        <time>2011-04-17T09:29:48+02:00</time>
      </trkpt>
      <trkpt lat="44.20508" lon="5.32165">
        <ele>618.745605</ele>
        <time>2011-04-17T09:29:52+02:00</time>
      </trkpt>
      <trkpt lat="44.20494" lon="5.32198">
        <ele>615.861816</ele>
        <time>2011-04-17T09:29:58+02:00</time>
      </trkpt>
      <trkpt lat="44.20477" lon="5.32242">
        <ele>612.49707</ele>
        <time>2011-04-17T09:30:05+02:00</time>
      </trkpt>
      <trkpt lat="44.20472" lon="5.3226">
        <ele>611.055176</ele>
        <time>2011-04-17T09:30:08+02:00</time>
      </trkpt>
      <trkpt lat="44.20458" lon="5.32287">
        <ele>610.09375</ele>
        <time>2011-04-17T09:30:13+02:00</time>
      </trkpt>
      <trkpt lat="44.20445" lon="5.323">
        <ele>610.574463</ele>
        <time>2011-04-17T09:30:16+02:00</time>
      </trkpt>
      <trkpt lat="44.20428" lon="5.32317">
        <ele>610.09375</ele>
        <time>2011-04-17T09:30:20+02:00</time>
      </trkpt>
      <trkpt lat="44.20403" lon="5.32352">
        <ele>607.690674</ele>
        <time>2011-04-17T09:30:26+02:00</time>
      </trkpt>
      <trkpt lat="44.20399" lon="5.32358">
        <ele>607.209961</ele>
        <time>2011-04-17T09:30:27+02:00</time>
      </trkpt>
      <trkpt lat="44.2039" lon="5.32388">
        <ele>607.690674</ele>
        <time>2011-04-17T09:30:32+02:00</time>
      </trkpt>
      <trkpt lat="44.20385" lon="5.32399">
        <ele>607.690674</ele>
        <time>2011-04-17T09:30:34+02:00</time>
      </trkpt>
      <trkpt lat="44.20364" lon="5.3244">
        <ele>606.729248</ele>
        <time>2011-04-17T09:30:41+02:00</time>
      </trkpt>
      <trkpt lat="44.2036" lon="5.32445">
        <ele>606.729248</ele>
        <time>2011-04-17T09:30:42+02:00</time>
      </trkpt>
      <trkpt lat="44.20332" lon="5.32474">
        <ele>605.287354</ele>
        <time>2011-04-17T09:30:49+02:00</time>
      </trkpt>
      <trkpt lat="44.20327" lon="5.32479">
        <ele>605.287354</ele>
        <time>2011-04-17T09:30:50+02:00</time>
      </trkpt>
      <trkpt lat="44.20318" lon="5.32498">
        <ele>605.287354</ele>
        <time>2011-04-17T09:30:54+02:00</time>
      </trkpt>
      <trkpt lat="44.20317" lon="5.32505">
        <ele>605.768066</ele>
        <time>2011-04-17T09:30:58+02:00</time>
      </trkpt>
      <trkpt lat="44.20314" lon="5.32516">
        <ele>605.768066</ele>
        <time>2011-04-17T09:31:06+02:00</time>
      </trkpt>
      <trkpt lat="44.20304" lon="5.32528">
        <ele>604.326172</ele>
        <time>2011-04-17T09:31:10+02:00</time>
      </trkpt>
      <trkpt lat="44.20284" lon="5.32553">
        <ele>602.403076</ele>
        <time>2011-04-17T09:31:15+02:00</time>
      </trkpt>
      <trkpt lat="44.20271" lon="5.32569">
        <ele>601.441895</ele>
        <time>2011-04-17T09:31:18+02:00</time>
      </trkpt>
      <trkpt lat="44.20243" lon="5.32613">
        <ele>599.519287</ele>
        <time>2011-04-17T09:31:25+02:00</time>
      </trkpt>
      <trkpt lat="44.20234" lon="5.32625">
        <ele>599.519287</ele>
        <time>2011-04-17T09:31:27+02:00</time>
      </trkpt>
      <trkpt lat="44.20227" lon="5.32638">
        <ele>599.519287</ele>
        <time>2011-04-17T09:31:29+02:00</time>
      </trkpt>
      <trkpt lat="44.20219" lon="5.32657">
        <ele>598.557861</ele>
        <time>2011-04-17T09:31:32+02:00</time>
      </trkpt>
      <trkpt lat="44.20214" lon="5.32668">
        <ele>597.59668</ele>
        <time>2011-04-17T09:31:34+02:00</time>
      </trkpt>
      <trkpt lat="44.20206" lon="5.32687">
        <ele>596.154785</ele>
        <time>2011-04-17T09:31:37+02:00</time>
      </trkpt>
      <trkpt lat="44.20196" lon="5.32721">
        <ele>594.232178</ele>
        <time>2011-04-17T09:31:42+02:00</time>
      </trkpt>
      <trkpt lat="44.20177" lon="5.32771">
        <ele>590.386963</ele>
        <time>2011-04-17T09:31:49+02:00</time>
      </trkpt>
      <trkpt lat="44.20161" lon="5.32818">
        <ele>587.021973</ele>
        <time>2011-04-17T09:31:55+02:00</time>
      </trkpt>
      <trkpt lat="44.20148" lon="5.32866">
        <ele>585.099609</ele>
        <time>2011-04-17T09:32:01+02:00</time>
      </trkpt>
      <trkpt lat="44.20133" lon="5.32918">
        <ele>581.734863</ele>
        <time>2011-04-17T09:32:08+02:00</time>
      </trkpt>
      <trkpt lat="44.20122" lon="5.32952">
        <ele>577.889648</ele>
        <time>2011-04-17T09:32:13+02:00</time>
      </trkpt>
      <trkpt lat="44.20112" lon="5.32979">
        <ele>574.525146</ele>
        <time>2011-04-17T09:32:17+02:00</time>
      </trkpt>
      <trkpt lat="44.20083" lon="5.33038">
        <ele>570.679688</ele>
        <time>2011-04-17T09:32:25+02:00</time>
      </trkpt>
      <trkpt lat="44.20057" lon="5.33081">
        <ele>569.237793</ele>
        <time>2011-04-17T09:32:32+02:00</time>
      </trkpt>
      <trkpt lat="44.20033" lon="5.33119">
        <ele>567.795654</ele>
        <time>2011-04-17T09:32:38+02:00</time>
      </trkpt>
      <trkpt lat="44.20025" lon="5.33133">
        <ele>567.315186</ele>
        <time>2011-04-17T09:32:40+02:00</time>
      </trkpt>
      <trkpt lat="44.20014" lon="5.33171">
        <ele>564.911865</ele>
        <time>2011-04-17T09:32:45+02:00</time>
      </trkpt>
      <trkpt lat="44.2001" lon="5.33212">
        <ele>563.469971</ele>
        <time>2011-04-17T09:32:50+02:00</time>
      </trkpt>
      <trkpt lat="44.20004" lon="5.33236">
        <ele>563.469971</ele>
        <time>2011-04-17T09:32:54+02:00</time>
      </trkpt>
      <trkpt lat="44.20004" lon="5.33237">
        <ele>562.508545</ele>
        <time>2011-04-17T09:32:58+02:00</time>
      </trkpt>
      <trkpt lat="44.20003" lon="5.33237">
        <ele>562.508545</ele>
        <time>2011-04-17T09:33:02+02:00</time>
      </trkpt>
      <trkpt lat="44.20002" lon="5.33237">
        <ele>561.547363</ele>
        <time>2011-04-17T09:33:05+02:00</time>
      </trkpt>
      <trkpt lat="44.1999" lon="5.33235">
        <ele>559.144043</ele>
        <time>2011-04-17T09:33:11+02:00</time>
      </trkpt>
      <trkpt lat="44.19976" lon="5.33239">
        <ele>557.702148</ele>
        <time>2011-04-17T09:33:16+02:00</time>
      </trkpt>
      <trkpt lat="44.19954" lon="5.33255">
        <ele>555.779297</ele>
        <time>2011-04-17T09:33:22+02:00</time>
      </trkpt>
      <trkpt lat="44.19945" lon="5.33263">
        <ele>554.337402</ele>
        <time>2011-04-17T09:33:25+02:00</time>
      </trkpt>
      <trkpt lat="44.19934" lon="5.3327">
        <ele>553.375977</ele>
        <time>2011-04-17T09:33:29+02:00</time>
      </trkpt>
      <trkpt lat="44.19931" lon="5.33272">
        <ele>552.895264</ele>
        <time>2011-04-17T09:33:30+02:00</time>
      </trkpt>
      <trkpt lat="44.19927" lon="5.33276">
        <ele>552.895264</ele>
        <time>2011-04-17T09:33:35+02:00</time>
      </trkpt>
      <trkpt lat="44.19924" lon="5.33282">
        <ele>551.934082</ele>
        <time>2011-04-17T09:33:42+02:00</time>
      </trkpt>
      <trkpt lat="44.19912" lon="5.33295">
        <ele>551.453369</ele>
        <time>2011-04-17T09:33:46+02:00</time>
      </trkpt>
      <trkpt lat="44.19894" lon="5.33291">
        <ele>551.453369</ele>
        <time>2011-04-17T09:33:50+02:00</time>
      </trkpt>
      <trkpt lat="44.19882" lon="5.3328">
        <ele>551.453369</ele>
        <time>2011-04-17T09:33:53+02:00</time>
      </trkpt>
      <trkpt lat="44.19871" lon="5.33275">
        <ele>552.414551</ele>
        <time>2011-04-17T09:33:56+02:00</time>
      </trkpt>
      <trkpt lat="44.19846" lon="5.33279">
        <ele>554.337402</ele>
        <time>2011-04-17T09:34:03+02:00</time>
      </trkpt>
      <trkpt lat="44.19824" lon="5.33287">
        <ele>555.298584</ele>
        <time>2011-04-17T09:34:10+02:00</time>
      </trkpt>
      <trkpt lat="44.1981" lon="5.33303">
        <ele>554.337402</ele>
        <time>2011-04-17T09:34:15+02:00</time>
      </trkpt>
      <trkpt lat="44.19798" lon="5.33316">
        <ele>554.337402</ele>
        <time>2011-04-17T09:34:18+02:00</time>
      </trkpt>
      <trkpt lat="44.19758" lon="5.33338">
        <ele>553.856689</ele>
        <time>2011-04-17T09:34:26+02:00</time>
      </trkpt>
      <trkpt lat="44.19726" lon="5.33354">
        <ele>553.375977</ele>
        <time>2011-04-17T09:34:33+02:00</time>
      </trkpt>
      <trkpt lat="44.19715" lon="5.33358">
        <ele>553.375977</ele>
        <time>2011-04-17T09:34:36+02:00</time>
      </trkpt>
      <trkpt lat="44.19702" lon="5.33372">
        <ele>554.817871</ele>
        <time>2011-04-17T09:34:42+02:00</time>
      </trkpt>
      <trkpt lat="44.19697" lon="5.33384">
        <ele>555.779297</ele>
        <time>2011-04-17T09:34:47+02:00</time>
      </trkpt>
      <trkpt lat="44.19693" lon="5.33402">
        <ele>556.740723</ele>
        <time>2011-04-17T09:34:53+02:00</time>
      </trkpt>
      <trkpt lat="44.19689" lon="5.33426">
        <ele>558.182861</ele>
        <time>2011-04-17T09:35:01+02:00</time>
      </trkpt>
      <trkpt lat="44.1969" lon="5.33447">
        <ele>558.66333</ele>
        <time>2011-04-17T09:35:08+02:00</time>
      </trkpt>
      <trkpt lat="44.19691" lon="5.33471">
        <ele>560.105225</ele>
        <time>2011-04-17T09:35:16+02:00</time>
      </trkpt>
      <trkpt lat="44.19692" lon="5.33493">
        <ele>561.547363</ele>
        <time>2011-04-17T09:35:23+02:00</time>
      </trkpt>
      <trkpt lat="44.19689" lon="5.33499">
        <ele>562.028076</ele>
        <time>2011-04-17T09:35:26+02:00</time>
      </trkpt>
      <trkpt lat="44.19681" lon="5.33499">
        <ele>563.469971</ele>
        <time>2011-04-17T09:35:31+02:00</time>
      </trkpt>
      <trkpt lat="44.19671" lon="5.33491">
        <ele>563.950439</ele>
        <time>2011-04-17T09:35:37+02:00</time>
      </trkpt>
      <trkpt lat="44.19661" lon="5.33477">
        <ele>564.911865</ele>
        <time>2011-04-17T09:35:44+02:00</time>
      </trkpt>
      <trkpt lat="44.19652" lon="5.33463">
        <ele>565.392578</ele>
        <time>2011-04-17T09:35:51+02:00</time>
      </trkpt>
      <trkpt lat="44.19642" lon="5.33446">
        <ele>565.873291</ele>
        <time>2011-04-17T09:35:59+02:00</time>
      </trkpt>
      <trkpt lat="44.19636" lon="5.33441">
        <ele>566.35376</ele>
        <time>2011-04-17T09:36:03+02:00</time>
      </trkpt>
      <trkpt lat="44.19626" lon="5.33447">
        <ele>569.718506</ele>
        <time>2011-04-17T09:36:09+02:00</time>
      </trkpt>
      <trkpt lat="44.19619" lon="5.33461">
        <ele>571.640869</ele>
        <time>2011-04-17T09:36:15+02:00</time>
      </trkpt>
      <trkpt lat="44.19611" lon="5.33476">
        <ele>573.083252</ele>
        <time>2011-04-17T09:36:22+02:00</time>
      </trkpt>
      <trkpt lat="44.1961" lon="5.33478">
        <ele>573.563965</ele>
        <time>2011-04-17T09:36:23+02:00</time>
      </trkpt>
      <trkpt lat="44.19603" lon="5.33491">
        <ele>574.525146</ele>
        <time>2011-04-17T09:36:30+02:00</time>
      </trkpt>
      <trkpt lat="44.19591" lon="5.33499">
        <ele>575.486328</ele>
        <time>2011-04-17T09:36:36+02:00</time>
      </trkpt>
      <trkpt lat="44.1957" lon="5.33512">
        <ele>574.525146</ele>
        <time>2011-04-17T09:36:42+02:00</time>
      </trkpt>
      <trkpt lat="44.1955" lon="5.33517">
        <ele>572.602539</ele>
        <time>2011-04-17T09:36:46+02:00</time>
      </trkpt>
      <trkpt lat="44.19545" lon="5.33517">
        <ele>572.121826</ele>
        <time>2011-04-17T09:36:47+02:00</time>
      </trkpt>
      <trkpt lat="44.19521" lon="5.33499">
        <ele>569.718506</ele>
        <time>2011-04-17T09:36:51+02:00</time>
      </trkpt>
      <trkpt lat="44.19508" lon="5.33486">
        <ele>568.276367</ele>
        <time>2011-04-17T09:36:53+02:00</time>
      </trkpt>
      <trkpt lat="44.19497" lon="5.33452">
        <ele>565.392578</ele>
        <time>2011-04-17T09:36:57+02:00</time>
      </trkpt>
      <trkpt lat="44.19494" lon="5.33419">
        <ele>563.950439</ele>
        <time>2011-04-17T09:37:00+02:00</time>
      </trkpt>
      <trkpt lat="44.19485" lon="5.33385">
        <ele>562.989258</ele>
        <time>2011-04-17T09:37:04+02:00</time>
      </trkpt>
      <trkpt lat="44.19483" lon="5.33386">
        <ele>562.989258</ele>
        <time>2011-04-17T09:37:07+02:00</time>
      </trkpt>
      <trkpt lat="44.19479" lon="5.33394">
        <ele>562.508545</ele>
        <time>2011-04-17T09:37:10+02:00</time>
      </trkpt>
      <trkpt lat="44.19475" lon="5.33393">
        <ele>562.028076</ele>
        <time>2011-04-17T09:37:11+02:00</time>
      </trkpt>
      <trkpt lat="44.19444" lon="5.33396">
        <ele>560.105225</ele>
        <time>2011-04-17T09:37:17+02:00</time>
      </trkpt>
      <trkpt lat="44.19405" lon="5.334">
        <ele>557.702148</ele>
        <time>2011-04-17T09:37:23+02:00</time>
      </trkpt>
      <trkpt lat="44.19384" lon="5.334">
        <ele>555.298584</ele>
        <time>2011-04-17T09:37:26+02:00</time>
      </trkpt>
      <trkpt lat="44.19375" lon="5.33408">
        <ele>553.856689</ele>
        <time>2011-04-17T09:37:29+02:00</time>
      </trkpt>
      <trkpt lat="44.19382" lon="5.33414">
        <ele>553.375977</ele>
        <time>2011-04-17T09:37:31+02:00</time>
      </trkpt>
      <trkpt lat="44.19387" lon="5.33415">
        <ele>552.895264</ele>
        <time>2011-04-17T09:37:32+02:00</time>
      </trkpt>
      <trkpt lat="44.19412" lon="5.3342">
        <ele>550.972656</ele>
        <time>2011-04-17T09:37:36+02:00</time>
      </trkpt>
      <trkpt lat="44.1943" lon="5.33437">
        <ele>549.050049</ele>
        <time>2011-04-17T09:37:39+02:00</time>
      </trkpt>
      <trkpt lat="44.1943" lon="5.33459">
        <ele>547.608154</ele>
        <time>2011-04-17T09:37:41+02:00</time>
      </trkpt>
      <trkpt lat="44.19418" lon="5.33477">
        <ele>545.685547</ele>
        <time>2011-04-17T09:37:43+02:00</time>
      </trkpt>
      <trkpt lat="44.1941" lon="5.33484">
        <ele>544.724243</ele>
        <time>2011-04-17T09:37:44+02:00</time>
      </trkpt>
      <trkpt lat="44.19393" lon="5.33496">
        <ele>543.282104</ele>
        <time>2011-04-17T09:37:46+02:00</time>
      </trkpt>
      <trkpt lat="44.19375" lon="5.33525">
        <ele>541.359497</ele>
        <time>2011-04-17T09:37:49+02:00</time>
      </trkpt>
      <trkpt lat="44.19371" lon="5.3355">
        <ele>540.878906</ele>
        <time>2011-04-17T09:37:51+02:00</time>
      </trkpt>
      <trkpt lat="44.1937" lon="5.33573">
        <ele>539.917603</ele>
        <time>2011-04-17T09:37:53+02:00</time>
      </trkpt>
      <trkpt lat="44.19358" lon="5.33585">
        <ele>537.994995</ele>
        <time>2011-04-17T09:37:56+02:00</time>
      </trkpt>
      <trkpt lat="44.19353" lon="5.33569">
        <ele>536.553101</ele>
        <time>2011-04-17T09:37:58+02:00</time>
      </trkpt>
      <trkpt lat="44.19355" lon="5.33549">
        <ele>535.110962</ele>
        <time>2011-04-17T09:38:00+02:00</time>
      </trkpt>
      <trkpt lat="44.19365" lon="5.33479">
        <ele>530.785156</ele>
        <time>2011-04-17T09:38:06+02:00</time>
      </trkpt>
      <trkpt lat="44.19355" lon="5.33443">
        <ele>527.901001</ele>
        <time>2011-04-17T09:38:10+02:00</time>
      </trkpt>
      <trkpt lat="44.19344" lon="5.33443">
        <ele>525.978394</ele>
        <time>2011-04-17T09:38:12+02:00</time>
      </trkpt>
      <trkpt lat="44.1934" lon="5.33454">
        <ele>525.497803</ele>
        <time>2011-04-17T09:38:14+02:00</time>
      </trkpt>
      <trkpt lat="44.19336" lon="5.3346">
        <ele>525.497803</ele>
        <time>2011-04-17T09:38:17+02:00</time>
      </trkpt>
      <trkpt lat="44.1933" lon="5.33454">
        <ele>524.055786</ele>
        <time>2011-04-17T09:38:20+02:00</time>
      </trkpt>
      <trkpt lat="44.19322" lon="5.3344">
        <ele>522.133179</ele>
        <time>2011-04-17T09:38:23+02:00</time>
      </trkpt>
      <trkpt lat="44.19314" lon="5.33433">
        <ele>520.210571</ele>
        <time>2011-04-17T09:38:25+02:00</time>
      </trkpt>
      <trkpt lat="44.19296" lon="5.33426">
        <ele>516.845947</ele>
        <time>2011-04-17T09:38:29+02:00</time>
      </trkpt>
      <trkpt lat="44.19272" lon="5.33425">
        <ele>511.558716</ele>
        <time>2011-04-17T09:38:34+02:00</time>
      </trkpt>
      <trkpt lat="44.19258" lon="5.33417">
        <ele>508.194092</ele>
        <time>2011-04-17T09:38:37+02:00</time>
      </trkpt>
      <trkpt lat="44.19249" lon="5.33411">
        <ele>505.310181</ele>
        <time>2011-04-17T09:38:40+02:00</time>
      </trkpt>
      <trkpt lat="44.19248" lon="5.3341">
        <ele>503.387451</ele>
        <time>2011-04-17T09:38:44+02:00</time>
      </trkpt>
      <trkpt lat="44.19231" lon="5.33408">
        <ele>499.061523</ele>
        <time>2011-04-17T09:38:49+02:00</time>
      </trkpt>
      <trkpt lat="44.1922" lon="5.33406">
        <ele>496.658325</ele>
        <time>2011-04-17T09:38:51+02:00</time>
      </trkpt>
      <trkpt lat="44.19208" lon="5.33401">
        <ele>493.774292</ele>
        <time>2011-04-17T09:38:54+02:00</time>
      </trkpt>
      <trkpt lat="44.19195" lon="5.33397">
        <ele>491.851685</ele>
        <time>2011-04-17T09:38:57+02:00</time>
      </trkpt>
      <trkpt lat="44.19187" lon="5.33395">
        <ele>489.929077</ele>
        <time>2011-04-17T09:38:59+02:00</time>
      </trkpt>
      <trkpt lat="44.19173" lon="5.33392">
        <ele>486.564453</ele>
        <time>2011-04-17T09:39:03+02:00</time>
      </trkpt>
      <trkpt lat="44.19166" lon="5.33388">
        <ele>485.122437</ele>
        <time>2011-04-17T09:39:05+02:00</time>
      </trkpt>
      <trkpt lat="44.19152" lon="5.33381">
        <ele>482.719238</ele>
        <time>2011-04-17T09:39:10+02:00</time>
      </trkpt>
      <trkpt lat="44.19142" lon="5.33377">
        <ele>480.315918</ele>
        <time>2011-04-17T09:39:14+02:00</time>
      </trkpt>
      <trkpt lat="44.19131" lon="5.33368">
        <ele>478.393188</ele>
        <time>2011-04-17T09:39:19+02:00</time>
      </trkpt>
      <trkpt lat="44.19131" lon="5.33368">
        <ele>477.912476</ele>
        <time>2011-04-17T09:39:24+02:00</time>
      </trkpt>
      <trkpt lat="44.19131" lon="5.33367">
        <ele>478.393188</ele>
        <time>2011-04-17T09:39:29+02:00</time>
      </trkpt>
      <trkpt lat="44.19119" lon="5.33361">
        <ele>475.989868</ele>
        <time>2011-04-17T09:39:35+02:00</time>
      </trkpt>
      <trkpt lat="44.19113" lon="5.3336">
        <ele>475.028687</ele>
        <time>2011-04-17T09:39:37+02:00</time>
      </trkpt>
      <trkpt lat="44.19097" lon="5.33349">
        <ele>473.106079</ele>
        <time>2011-04-17T09:39:42+02:00</time>
      </trkpt>
      <trkpt lat="44.19094" lon="5.33345">
        <ele>472.144653</ele>
        <time>2011-04-17T09:39:44+02:00</time>
      </trkpt>
      <trkpt lat="44.19092" lon="5.33345">
        <ele>471.66394</ele>
        <time>2011-04-17T09:39:46+02:00</time>
      </trkpt>
      <trkpt lat="44.19089" lon="5.33357">
        <ele>470.702637</ele>
        <time>2011-04-17T09:39:50+02:00</time>
      </trkpt>
      <trkpt lat="44.19086" lon="5.33369">
        <ele>470.702637</ele>
        <time>2011-04-17T09:39:53+02:00</time>
      </trkpt>
      <trkpt lat="44.19077" lon="5.33368">
        <ele>470.702637</ele>
        <time>2011-04-17T09:39:57+02:00</time>
      </trkpt>
      <trkpt lat="44.19076" lon="5.33363">
        <ele>470.221924</ele>
        <time>2011-04-17T09:39:58+02:00</time>
      </trkpt>
      <trkpt lat="44.19075" lon="5.3335">
        <ele>469.260742</ele>
        <time>2011-04-17T09:40:00+02:00</time>
      </trkpt>
      <trkpt lat="44.1906" lon="5.33336">
        <ele>466.857422</ele>
        <time>2011-04-17T09:40:04+02:00</time>
      </trkpt>
      <trkpt lat="44.19053" lon="5.33328">
        <ele>465.415527</ele>
        <time>2011-04-17T09:40:07+02:00</time>
      </trkpt>
      <trkpt lat="44.19052" lon="5.33325">
        <ele>464.454102</ele>
        <time>2011-04-17T09:40:11+02:00</time>
      </trkpt>
      <trkpt lat="44.19051" lon="5.33323">
        <ele>463.973389</ele>
        <time>2011-04-17T09:40:13+02:00</time>
      </trkpt>
      <trkpt lat="44.19042" lon="5.33305">
        <ele>461.57019</ele>
        <time>2011-04-17T09:40:19+02:00</time>
      </trkpt>
      <trkpt lat="44.19034" lon="5.33292">
        <ele>460.608765</ele>
        <time>2011-04-17T09:40:23+02:00</time>
      </trkpt>
      <trkpt lat="44.19025" lon="5.3327">
        <ele>462.050781</ele>
        <time>2011-04-17T09:40:29+02:00</time>
      </trkpt>
      <trkpt lat="44.19019" lon="5.33241">
        <ele>462.531372</ele>
        <time>2011-04-17T09:40:35+02:00</time>
      </trkpt>
      <trkpt lat="44.19016" lon="5.33213">
        <ele>462.531372</ele>
        <time>2011-04-17T09:40:39+02:00</time>
      </trkpt>
      <trkpt lat="44.19021" lon="5.33179">
        <ele>462.531372</ele>
        <time>2011-04-17T09:40:44+02:00</time>
      </trkpt>
      <trkpt lat="44.1902" lon="5.33165">
        <ele>463.492798</ele>
        <time>2011-04-17T09:40:47+02:00</time>
      </trkpt>
      <trkpt lat="44.19019" lon="5.33158">
        <ele>463.492798</ele>
        <time>2011-04-17T09:40:49+02:00</time>
      </trkpt>
      <trkpt lat="44.19019" lon="5.3314">
        <ele>464.454102</ele>
        <time>2011-04-17T09:40:53+02:00</time>
      </trkpt>
      <trkpt lat="44.19021" lon="5.3312">
        <ele>464.934814</ele>
        <time>2011-04-17T09:40:59+02:00</time>
      </trkpt>
      <trkpt lat="44.19024" lon="5.33093">
        <ele>465.896118</ele>
        <time>2011-04-17T09:41:05+02:00</time>
      </trkpt>
      <trkpt lat="44.19029" lon="5.33073">
        <ele>467.338135</ele>
        <time>2011-04-17T09:41:10+02:00</time>
      </trkpt>
      <trkpt lat="44.19034" lon="5.33059">
        <ele>467.818726</ele>
        <time>2011-04-17T09:41:16+02:00</time>
      </trkpt>
      <trkpt lat="44.19038" lon="5.33045">
        <ele>468.299316</ele>
        <time>2011-04-17T09:41:22+02:00</time>
      </trkpt>
      <trkpt lat="44.19042" lon="5.33035">
        <ele>468.780029</ele>
        <time>2011-04-17T09:41:29+02:00</time>
      </trkpt>
      <trkpt lat="44.19047" lon="5.33025">
        <ele>468.299316</ele>
        <time>2011-04-17T09:41:36+02:00</time>
      </trkpt>
      <trkpt lat="44.19053" lon="5.3302">
        <ele>468.299316</ele>
        <time>2011-04-17T09:41:41+02:00</time>
      </trkpt>
      <trkpt lat="44.19062" lon="5.33011">
        <ele>467.338135</ele>
        <time>2011-04-17T09:41:48+02:00</time>
      </trkpt>
      <trkpt lat="44.19068" lon="5.33001">
        <ele>466.857422</ele>
        <time>2011-04-17T09:41:53+02:00</time>
      </trkpt>
      <trkpt lat="44.19079" lon="5.32982">
        <ele>464.934814</ele>
        <time>2011-04-17T09:41:57+02:00</time>
      </trkpt>
      <trkpt lat="44.19089" lon="5.32945">
        <ele>463.973389</ele>
        <time>2011-04-17T09:42:02+02:00</time>
      </trkpt>
      <trkpt lat="44.19097" lon="5.32921">
        <ele>465.415527</ele>
        <time>2011-04-17T09:42:07+02:00</time>
      </trkpt>
      <trkpt lat="44.19109" lon="5.32898">
        <ele>464.454102</ele>
        <time>2011-04-17T09:42:14+02:00</time>
      </trkpt>
      <trkpt lat="44.19125" lon="5.32886">
        <ele>464.934814</ele>
        <time>2011-04-17T09:42:20+02:00</time>
      </trkpt>
      <trkpt lat="44.19135" lon="5.32888">
        <ele>466.376709</ele>
        <time>2011-04-17T09:42:25+02:00</time>
      </trkpt>
      <trkpt lat="44.19141" lon="5.32879">
        <ele>467.338135</ele>
        <time>2011-04-17T09:42:31+02:00</time>
      </trkpt>
      <trkpt lat="44.1914" lon="5.32857">
        <ele>467.818726</ele>
        <time>2011-04-17T09:42:39+02:00</time>
      </trkpt>
      <trkpt lat="44.19138" lon="5.3284">
        <ele>469.260742</ele>
        <time>2011-04-17T09:42:45+02:00</time>
      </trkpt>
      <trkpt lat="44.19133" lon="5.32814">
        <ele>470.702637</ele>
        <time>2011-04-17T09:42:53+02:00</time>
      </trkpt>
      <trkpt lat="44.19123" lon="5.32794">
        <ele>472.625366</ele>
        <time>2011-04-17T09:43:00+02:00</time>
      </trkpt>
      <trkpt lat="44.19109" lon="5.32781">
        <ele>473.106079</ele>
        <time>2011-04-17T09:43:07+02:00</time>
      </trkpt>
      <trkpt lat="44.19094" lon="5.32769">
        <ele>474.547974</ele>
        <time>2011-04-17T09:43:14+02:00</time>
      </trkpt>
      <trkpt lat="44.19079" lon="5.32757">
        <ele>475.028687</ele>
        <time>2011-04-17T09:43:21+02:00</time>
      </trkpt>
      <trkpt lat="44.19066" lon="5.32746">
        <ele>475.989868</ele>
        <time>2011-04-17T09:43:28+02:00</time>
      </trkpt>
      <trkpt lat="44.19055" lon="5.32737">
        <ele>476.470581</ele>
        <time>2011-04-17T09:43:34+02:00</time>
      </trkpt>
      <trkpt lat="44.19045" lon="5.32729">
        <ele>477.431885</ele>
        <time>2011-04-17T09:43:40+02:00</time>
      </trkpt>
      <trkpt lat="44.19032" lon="5.32719">
        <ele>477.912476</ele>
        <time>2011-04-17T09:43:47+02:00</time>
      </trkpt>
      <trkpt lat="44.19018" lon="5.32711">
        <ele>478.873901</ele>
        <time>2011-04-17T09:43:54+02:00</time>
      </trkpt>
      <trkpt lat="44.19012" lon="5.32708">
        <ele>479.835083</ele>
        <time>2011-04-17T09:43:57+02:00</time>
      </trkpt>
      <trkpt lat="44.1901" lon="5.32694">
        <ele>480.796631</ele>
        <time>2011-04-17T09:44:03+02:00</time>
      </trkpt>
      <trkpt lat="44.19011" lon="5.32671">
        <ele>481.757812</ele>
        <time>2011-04-17T09:44:11+02:00</time>
      </trkpt>
      <trkpt lat="44.19014" lon="5.32656">
        <ele>483.199829</ele>
        <time>2011-04-17T09:44:17+02:00</time>
      </trkpt>
      <trkpt lat="44.19018" lon="5.32643">
        <ele>485.122437</ele>
        <time>2011-04-17T09:44:24+02:00</time>
      </trkpt>
      <trkpt lat="44.19022" lon="5.32624">
        <ele>487.045044</ele>
        <time>2011-04-17T09:44:33+02:00</time>
      </trkpt>
      <trkpt lat="44.19025" lon="5.32608">
        <ele>488.487183</ele>
        <time>2011-04-17T09:44:41+02:00</time>
      </trkpt>
      <trkpt lat="44.19031" lon="5.32591">
        <ele>489.929077</ele>
        <time>2011-04-17T09:44:50+02:00</time>
      </trkpt>
      <trkpt lat="44.19031" lon="5.32579">
        <ele>491.851685</ele>
        <time>2011-04-17T09:44:56+02:00</time>
      </trkpt>
      <trkpt lat="44.19026" lon="5.32564">
        <ele>492.812988</ele>
        <time>2011-04-17T09:45:03+02:00</time>
      </trkpt>
      <trkpt lat="44.19021" lon="5.32542">
        <ele>492.332397</ele>
        <time>2011-04-17T09:45:09+02:00</time>
      </trkpt>
      <trkpt lat="44.19022" lon="5.32525">
        <ele>491.370972</ele>
        <time>2011-04-17T09:45:12+02:00</time>
      </trkpt>
      <trkpt lat="44.19011" lon="5.32501">
        <ele>491.370972</ele>
        <time>2011-04-17T09:45:17+02:00</time>
      </trkpt>
      <trkpt lat="44.19009" lon="5.32497">
        <ele>491.370972</ele>
        <time>2011-04-17T09:45:18+02:00</time>
      </trkpt>
      <trkpt lat="44.19005" lon="5.32483">
        <ele>491.851685</ele>
        <time>2011-04-17T09:45:23+02:00</time>
      </trkpt>
      <trkpt lat="44.18997" lon="5.32469">
        <ele>492.332397</ele>
        <time>2011-04-17T09:45:27+02:00</time>
      </trkpt>
      <trkpt lat="44.18985" lon="5.32455">
        <ele>490.890381</ele>
        <time>2011-04-17T09:45:31+02:00</time>
      </trkpt>
      <trkpt lat="44.18966" lon="5.3243">
        <ele>488.00647</ele>
        <time>2011-04-17T09:45:35+02:00</time>
      </trkpt>
      <trkpt lat="44.18941" lon="5.32387">
        <ele>484.641846</ele>
        <time>2011-04-17T09:45:40+02:00</time>
      </trkpt>
      <trkpt lat="44.18931" lon="5.32369">
        <ele>483.68042</ele>
        <time>2011-04-17T09:45:42+02:00</time>
      </trkpt>
      <trkpt lat="44.18912" lon="5.32348">
        <ele>483.199829</ele>
        <time>2011-04-17T09:45:46+02:00</time>
      </trkpt>
      <trkpt lat="44.18909" lon="5.32345">
        <ele>483.199829</ele>
        <time>2011-04-17T09:45:49+02:00</time>
      </trkpt>
      <trkpt lat="44.1891" lon="5.32342">
        <ele>481.757812</ele>
        <time>2011-04-17T09:45:54+02:00</time>
      </trkpt>
      <trkpt lat="44.18904" lon="5.32331">
        <ele>482.238525</ele>
        <time>2011-04-17T09:46:01+02:00</time>
      </trkpt>
      <trkpt lat="44.189" lon="5.3232">
        <ele>483.199829</ele>
        <time>2011-04-17T09:46:08+02:00</time>
      </trkpt>
      <trkpt lat="44.18898" lon="5.32315">
        <ele>484.161133</ele>
        <time>2011-04-17T09:46:11+02:00</time>
      </trkpt>
      <trkpt lat="44.18898" lon="5.32313">
        <ele>484.641846</ele>
        <time>2011-04-17T09:46:13+02:00</time>
      </trkpt>
      <trkpt lat="44.18898" lon="5.3231">
        <ele>485.122437</ele>
        <time>2011-04-17T09:46:15+02:00</time>
      </trkpt>
      <trkpt lat="44.18901" lon="5.32306">
        <ele>485.122437</ele>
        <time>2011-04-17T09:46:23+02:00</time>
      </trkpt>
      <trkpt lat="44.18907" lon="5.32301">
        <ele>486.08374</ele>
        <time>2011-04-17T09:46:28+02:00</time>
      </trkpt>
      <trkpt lat="44.18913" lon="5.32289">
        <ele>487.045044</ele>
        <time>2011-04-17T09:46:34+02:00</time>
      </trkpt>
      <trkpt lat="44.18919" lon="5.32274">
        <ele>487.525635</ele>
        <time>2011-04-17T09:46:41+02:00</time>
      </trkpt>
      <trkpt lat="44.18926" lon="5.3226">
        <ele>488.487183</ele>
        <time>2011-04-17T09:46:48+02:00</time>
      </trkpt>
      <trkpt lat="44.18936" lon="5.32238">
        <ele>488.967773</ele>
        <time>2011-04-17T09:46:57+02:00</time>
      </trkpt>
      <trkpt lat="44.18943" lon="5.32219">
        <ele>489.448364</ele>
        <time>2011-04-17T09:47:04+02:00</time>
      </trkpt>
      <trkpt lat="44.18952" lon="5.32192">
        <ele>490.890381</ele>
        <time>2011-04-17T09:47:13+02:00</time>
      </trkpt>
      <trkpt lat="44.18958" lon="5.32171">
        <ele>491.370972</ele>
        <time>2011-04-17T09:47:20+02:00</time>
      </trkpt>
      <trkpt lat="44.18969" lon="5.32148">
        <ele>492.332397</ele>
        <time>2011-04-17T09:47:28+02:00</time>
      </trkpt>
      <trkpt lat="44.18983" lon="5.32124">
        <ele>493.774292</ele>
        <time>2011-04-17T09:47:37+02:00</time>
      </trkpt>
      <trkpt lat="44.18993" lon="5.32104">
        <ele>494.735596</ele>
        <time>2011-04-17T09:47:45+02:00</time>
      </trkpt>
      <trkpt lat="44.19001" lon="5.32086">
        <ele>495.696899</ele>
        <time>2011-04-17T09:47:53+02:00</time>
      </trkpt>
      <trkpt lat="44.19003" lon="5.32075">
        <ele>496.177734</ele>
        <time>2011-04-17T09:47:58+02:00</time>
      </trkpt>
      <trkpt lat="44.19006" lon="5.32062">
        <ele>497.138916</ele>
        <time>2011-04-17T09:48:05+02:00</time>
      </trkpt>
      <trkpt lat="44.19009" lon="5.32046">
        <ele>498.580933</ele>
        <time>2011-04-17T09:48:13+02:00</time>
      </trkpt>
      <trkpt lat="44.19013" lon="5.32033">
        <ele>498.100342</ele>
        <time>2011-04-17T09:48:21+02:00</time>
      </trkpt>
      <trkpt lat="44.19014" lon="5.3203">
        <ele>498.100342</ele>
        <time>2011-04-17T09:48:27+02:00</time>
      </trkpt>
      <trkpt lat="44.19016" lon="5.32024">
        <ele>499.542236</ele>
        <time>2011-04-17T09:48:34+02:00</time>
      </trkpt>
      <trkpt lat="44.19018" lon="5.32015">
        <ele>501.464844</ele>
        <time>2011-04-17T09:48:41+02:00</time>
      </trkpt>
      <trkpt lat="44.19019" lon="5.32005">
        <ele>503.387451</ele>
        <time>2011-04-17T09:48:49+02:00</time>
      </trkpt>
      <trkpt lat="44.1902" lon="5.31998">
        <ele>505.310181</ele>
        <time>2011-04-17T09:48:56+02:00</time>
      </trkpt>
      <trkpt lat="44.19023" lon="5.31988">
        <ele>510.116699</ele>
        <time>2011-04-17T09:49:06+02:00</time>
      </trkpt>
      <trkpt lat="44.19024" lon="5.31982">
        <ele>512.52002</ele>
        <time>2011-04-17T09:49:12+02:00</time>
      </trkpt>
      <trkpt lat="44.19027" lon="5.31975">
        <ele>515.404053</ele>
        <time>2011-04-17T09:49:19+02:00</time>
      </trkpt>
      <trkpt lat="44.19029" lon="5.31965">
        <ele>516.845947</ele>
        <time>2011-04-17T09:49:27+02:00</time>
      </trkpt>
      <trkpt lat="44.1903" lon="5.31962">
        <ele>517.32666</ele>
        <time>2011-04-17T09:49:31+02:00</time>
      </trkpt>
      <trkpt lat="44.19027" lon="5.31959">
        <ele>516.365234</ele>
        <time>2011-04-17T09:49:38+02:00</time>
      </trkpt>
      <trkpt lat="44.19027" lon="5.31958">
        <ele>516.365234</ele>
        <time>2011-04-17T09:49:53+02:00</time>
      </trkpt>
      <trkpt lat="44.1903" lon="5.31959">
        <ele>516.845947</ele>
        <time>2011-04-17T09:50:03+02:00</time>
      </trkpt>
      <trkpt lat="44.1903" lon="5.31957">
        <ele>516.845947</ele>
        <time>2011-04-17T09:50:08+02:00</time>
      </trkpt>
      <trkpt lat="44.19033" lon="5.31951">
        <ele>517.32666</ele>
        <time>2011-04-17T09:50:14+02:00</time>
      </trkpt>
      <trkpt lat="44.19034" lon="5.31939">
        <ele>517.32666</ele>
        <time>2011-04-17T09:50:22+02:00</time>
      </trkpt>
      <trkpt lat="44.1903" lon="5.31927">
        <ele>518.768555</ele>
        <time>2011-04-17T09:50:31+02:00</time>
      </trkpt>
      <trkpt lat="44.19027" lon="5.31917">
        <ele>520.210571</ele>
        <time>2011-04-17T09:50:38+02:00</time>
      </trkpt>
      <trkpt lat="44.19022" lon="5.31904">
        <ele>522.133179</ele>
        <time>2011-04-17T09:50:47+02:00</time>
      </trkpt>
      <trkpt lat="44.19021" lon="5.31896">
        <ele>522.613892</ele>
        <time>2011-04-17T09:50:53+02:00</time>
      </trkpt>
      <trkpt lat="44.1902" lon="5.31885">
        <ele>522.133179</ele>
        <time>2011-04-17T09:51:00+02:00</time>
      </trkpt>
      <trkpt lat="44.19021" lon="5.31884">
        <ele>521.171997</ele>
        <time>2011-04-17T09:51:13+02:00</time>
      </trkpt>
      <trkpt lat="44.19022" lon="5.3188">
        <ele>519.249268</ele>
        <time>2011-04-17T09:51:19+02:00</time>
      </trkpt>
      <trkpt lat="44.19023" lon="5.31878">
        <ele>518.768555</ele>
        <time>2011-04-17T09:51:20+02:00</time>
      </trkpt>
      <trkpt lat="44.19032" lon="5.3187">
        <ele>519.249268</ele>
        <time>2011-04-17T09:51:26+02:00</time>
      </trkpt>
      <trkpt lat="44.19033" lon="5.31869">
        <ele>519.249268</ele>
        <time>2011-04-17T09:51:27+02:00</time>
      </trkpt>
      <trkpt lat="44.19046" lon="5.31858">
        <ele>521.171997</ele>
        <time>2011-04-17T09:51:33+02:00</time>
      </trkpt>
      <trkpt lat="44.19059" lon="5.31851">
        <ele>523.094604</ele>
        <time>2011-04-17T09:51:39+02:00</time>
      </trkpt>
      <trkpt lat="44.19069" lon="5.31843">
        <ele>525.017212</ele>
        <time>2011-04-17T09:51:45+02:00</time>
      </trkpt>
      <trkpt lat="44.19078" lon="5.31834">
        <ele>525.497803</ele>
        <time>2011-04-17T09:51:51+02:00</time>
      </trkpt>
      <trkpt lat="44.19093" lon="5.31824">
        <ele>526.939819</ele>
        <time>2011-04-17T09:51:58+02:00</time>
      </trkpt>
      <trkpt lat="44.19108" lon="5.31816">
        <ele>527.42041</ele>
        <time>2011-04-17T09:52:03+02:00</time>
      </trkpt>
      <trkpt lat="44.19135" lon="5.318">
        <ele>526.939819</ele>
        <time>2011-04-17T09:52:10+02:00</time>
      </trkpt>
      <trkpt lat="44.19147" lon="5.31789">
        <ele>526.939819</ele>
        <time>2011-04-17T09:52:14+02:00</time>
      </trkpt>
      <trkpt lat="44.19157" lon="5.3177">
        <ele>524.536499</ele>
        <time>2011-04-17T09:52:19+02:00</time>
      </trkpt>
      <trkpt lat="44.19166" lon="5.31752">
        <ele>524.055786</ele>
        <time>2011-04-17T09:52:23+02:00</time>
      </trkpt>
      <trkpt lat="44.19177" lon="5.31739">
        <ele>526.459106</ele>
        <time>2011-04-17T09:52:28+02:00</time>
      </trkpt>
      <trkpt lat="44.19187" lon="5.31725">
        <ele>529.82373</ele>
        <time>2011-04-17T09:52:34+02:00</time>
      </trkpt>
      <trkpt lat="44.19195" lon="5.31713">
        <ele>531.265747</ele>
        <time>2011-04-17T09:52:38+02:00</time>
      </trkpt>
      <trkpt lat="44.19208" lon="5.31705">
        <ele>534.149658</ele>
        <time>2011-04-17T09:52:43+02:00</time>
      </trkpt>
      <trkpt lat="44.19219" lon="5.31697">
        <ele>537.033691</ele>
        <time>2011-04-17T09:52:48+02:00</time>
      </trkpt>
      <trkpt lat="44.19232" lon="5.31686">
        <ele>537.994995</ele>
        <time>2011-04-17T09:52:53+02:00</time>
      </trkpt>
      <trkpt lat="44.1924" lon="5.31672">
        <ele>537.033691</ele>
        <time>2011-04-17T09:52:58+02:00</time>
      </trkpt>
      <trkpt lat="44.19251" lon="5.31652">
        <ele>534.630371</ele>
        <time>2011-04-17T09:53:03+02:00</time>
      </trkpt>
      <trkpt lat="44.19265" lon="5.31638">
        <ele>536.072388</ele>
        <time>2011-04-17T09:53:08+02:00</time>
      </trkpt>
      <trkpt lat="44.19278" lon="5.31626">
        <ele>538.475708</ele>
        <time>2011-04-17T09:53:14+02:00</time>
      </trkpt>
      <trkpt lat="44.19288" lon="5.31606">
        <ele>537.994995</ele>
        <time>2011-04-17T09:53:20+02:00</time>
      </trkpt>
      <trkpt lat="44.1929" lon="5.31592">
        <ele>540.398315</ele>
        <time>2011-04-17T09:53:23+02:00</time>
      </trkpt>
      <trkpt lat="44.19297" lon="5.31567">
        <ele>541.359497</ele>
        <time>2011-04-17T09:53:29+02:00</time>
      </trkpt>
      <trkpt lat="44.19305" lon="5.31546">
        <ele>540.878906</ele>
        <time>2011-04-17T09:53:34+02:00</time>
      </trkpt>
      <trkpt lat="44.19319" lon="5.31518">
        <ele>540.878906</ele>
        <time>2011-04-17T09:53:41+02:00</time>
      </trkpt>
      <trkpt lat="44.19323" lon="5.31498">
        <ele>540.878906</ele>
        <time>2011-04-17T09:53:45+02:00</time>
      </trkpt>
      <trkpt lat="44.19327" lon="5.31475">
        <ele>536.072388</ele>
        <time>2011-04-17T09:53:50+02:00</time>
      </trkpt>
      <trkpt lat="44.19331" lon="5.3145">
        <ele>533.668945</ele>
        <time>2011-04-17T09:53:55+02:00</time>
      </trkpt>
      <trkpt lat="44.19339" lon="5.31428">
        <ele>535.591553</ele>
        <time>2011-04-17T09:54:00+02:00</time>
      </trkpt>
      <trkpt lat="44.19348" lon="5.31408">
        <ele>537.033691</ele>
        <time>2011-04-17T09:54:05+02:00</time>
      </trkpt>
      <trkpt lat="44.19365" lon="5.31383">
        <ele>537.994995</ele>
        <time>2011-04-17T09:54:11+02:00</time>
      </trkpt>
      <trkpt lat="44.19383" lon="5.31353">
        <ele>535.591553</ele>
        <time>2011-04-17T09:54:15+02:00</time>
      </trkpt>
      <trkpt lat="44.19404" lon="5.3132">
        <ele>536.553101</ele>
        <time>2011-04-17T09:54:19+02:00</time>
      </trkpt>
      <trkpt lat="44.19408" lon="5.31312">
        <ele>536.072388</ele>
        <time>2011-04-17T09:54:20+02:00</time>
      </trkpt>
      <trkpt lat="44.19432" lon="5.3128">
        <ele>536.553101</ele>
        <time>2011-04-17T09:54:25+02:00</time>
      </trkpt>
      <trkpt lat="44.19445" lon="5.31252">
        <ele>535.110962</ele>
        <time>2011-04-17T09:54:29+02:00</time>
      </trkpt>
      <trkpt lat="44.19455" lon="5.31234">
        <ele>534.149658</ele>
        <time>2011-04-17T09:54:32+02:00</time>
      </trkpt>
      <trkpt lat="44.19464" lon="5.31218">
        <ele>533.668945</ele>
        <time>2011-04-17T09:54:35+02:00</time>
      </trkpt>
      <trkpt lat="44.19476" lon="5.31189">
        <ele>532.227051</ele>
        <time>2011-04-17T09:54:39+02:00</time>
      </trkpt>
      <trkpt lat="44.1949" lon="5.31163">
        <ele>531.746338</ele>
        <time>2011-04-17T09:54:43+02:00</time>
      </trkpt>
      <trkpt lat="44.19507" lon="5.3112">
        <ele>530.304443</ele>
        <time>2011-04-17T09:54:48+02:00</time>
      </trkpt>
      <trkpt lat="44.19513" lon="5.31085">
        <ele>526.939819</ele>
        <time>2011-04-17T09:54:52+02:00</time>
      </trkpt>
      <trkpt lat="44.19515" lon="5.31042">
        <ele>523.094604</ele>
        <time>2011-04-17T09:54:56+02:00</time>
      </trkpt>
      <trkpt lat="44.19516" lon="5.31031">
        <ele>522.133179</ele>
        <time>2011-04-17T09:54:57+02:00</time>
      </trkpt>
      <trkpt lat="44.19512" lon="5.30978">
        <ele>516.845947</ele>
        <time>2011-04-17T09:55:02+02:00</time>
      </trkpt>
      <trkpt lat="44.19511" lon="5.30959">
        <ele>515.884644</ele>
        <time>2011-04-17T09:55:04+02:00</time>
      </trkpt>
      <trkpt lat="44.19517" lon="5.30922">
        <ele>512.039429</ele>
        <time>2011-04-17T09:55:09+02:00</time>
      </trkpt>
      <trkpt lat="44.19525" lon="5.30913">
        <ele>513.000732</ele>
        <time>2011-04-17T09:55:12+02:00</time>
      </trkpt>
      <trkpt lat="44.19528" lon="5.30911">
        <ele>512.039429</ele>
        <time>2011-04-17T09:55:13+02:00</time>
      </trkpt>
      <trkpt lat="44.19544" lon="5.30907">
        <ele>513.481445</ele>
        <time>2011-04-17T09:55:19+02:00</time>
      </trkpt>
      <trkpt lat="44.19562" lon="5.30903">
        <ele>515.884644</ele>
        <time>2011-04-17T09:55:26+02:00</time>
      </trkpt>
      <trkpt lat="44.19569" lon="5.30891">
        <ele>517.807251</ele>
        <time>2011-04-17T09:55:31+02:00</time>
      </trkpt>
      <trkpt lat="44.19576" lon="5.30873">
        <ele>519.249268</ele>
        <time>2011-04-17T09:55:37+02:00</time>
      </trkpt>
      <trkpt lat="44.1958" lon="5.30853">
        <ele>519.729858</ele>
        <time>2011-04-17T09:55:43+02:00</time>
      </trkpt>
      <trkpt lat="44.19578" lon="5.30824">
        <ele>520.691284</ele>
        <time>2011-04-17T09:55:49+02:00</time>
      </trkpt>
      <trkpt lat="44.19572" lon="5.30801">
        <ele>522.613892</ele>
        <time>2011-04-17T09:55:55+02:00</time>
      </trkpt>
      <trkpt lat="44.19568" lon="5.30805">
        <ele>522.613892</ele>
        <time>2011-04-17T09:56:00+02:00</time>
      </trkpt>
      <trkpt lat="44.19563" lon="5.30818">
        <ele>523.094604</ele>
        <time>2011-04-17T09:56:07+02:00</time>
      </trkpt>
      <trkpt lat="44.19561" lon="5.30822">
        <ele>523.575195</ele>
        <time>2011-04-17T09:56:10+02:00</time>
      </trkpt>
      <trkpt lat="44.1956" lon="5.30823">
        <ele>524.536499</ele>
        <time>2011-04-17T09:56:17+02:00</time>
      </trkpt>
      <trkpt lat="44.19558" lon="5.30822">
        <ele>522.613892</ele>
        <time>2011-04-17T09:56:58+02:00</time>
      </trkpt>
      <trkpt lat="44.19555" lon="5.30824">
        <ele>529.34314</ele>
        <time>2011-04-17T09:57:27+02:00</time>
      </trkpt>
      <trkpt lat="44.19552" lon="5.30826">
        <ele>527.901001</ele>
        <time>2011-04-17T09:57:33+02:00</time>
      </trkpt>
      <trkpt lat="44.1955" lon="5.30829">
        <ele>525.978394</ele>
        <time>2011-04-17T09:57:40+02:00</time>
      </trkpt>
      <trkpt lat="44.1955" lon="5.3083">
        <ele>525.978394</ele>
        <time>2011-04-17T09:57:45+02:00</time>
      </trkpt>
      <trkpt lat="44.19545" lon="5.30836">
        <ele>526.939819</ele>
        <time>2011-04-17T09:57:53+02:00</time>
      </trkpt>
      <trkpt lat="44.19537" lon="5.3084">
        <ele>528.862549</ele>
        <time>2011-04-17T09:58:04+02:00</time>
      </trkpt>
      <trkpt lat="44.19531" lon="5.3084">
        <ele>530.785156</ele>
        <time>2011-04-17T09:58:12+02:00</time>
      </trkpt>
      <trkpt lat="44.19525" lon="5.30839">
        <ele>534.630371</ele>
        <time>2011-04-17T09:58:20+02:00</time>
      </trkpt>
      <trkpt lat="44.19518" lon="5.30837">
        <ele>537.994995</ele>
        <time>2011-04-17T09:58:29+02:00</time>
      </trkpt>
      <trkpt lat="44.1951" lon="5.30836">
        <ele>539.43689</ele>
        <time>2011-04-17T09:58:39+02:00</time>
      </trkpt>
      <trkpt lat="44.19506" lon="5.30836">
        <ele>538.956299</ele>
        <time>2011-04-17T09:58:46+02:00</time>
      </trkpt>
      <trkpt lat="44.19501" lon="5.30837">
        <ele>539.917603</ele>
        <time>2011-04-17T09:58:55+02:00</time>
      </trkpt>
      <trkpt lat="44.19496" lon="5.30837">
        <ele>541.84021</ele>
        <time>2011-04-17T09:59:04+02:00</time>
      </trkpt>
      <trkpt lat="44.19491" lon="5.30835">
        <ele>543.282104</ele>
        <time>2011-04-17T09:59:13+02:00</time>
      </trkpt>
      <trkpt lat="44.19486" lon="5.30834">
        <ele>546.646851</ele>
        <time>2011-04-17T09:59:21+02:00</time>
      </trkpt>
      <trkpt lat="44.19483" lon="5.30832">
        <ele>548.569336</ele>
        <time>2011-04-17T09:59:28+02:00</time>
      </trkpt>
      <trkpt lat="44.19479" lon="5.30831">
        <ele>550.972656</ele>
        <time>2011-04-17T09:59:36+02:00</time>
      </trkpt>
      <trkpt lat="44.19475" lon="5.30831">
        <ele>551.934082</ele>
        <time>2011-04-17T09:59:44+02:00</time>
      </trkpt>
      <trkpt lat="44.19469" lon="5.3083">
        <ele>552.895264</ele>
        <time>2011-04-17T09:59:54+02:00</time>
      </trkpt>
      <trkpt lat="44.19466" lon="5.3083">
        <ele>553.856689</ele>
        <time>2011-04-17T10:00:01+02:00</time>
      </trkpt>
      <trkpt lat="44.19462" lon="5.30831">
        <ele>554.337402</ele>
        <time>2011-04-17T10:00:08+02:00</time>
      </trkpt>
      <trkpt lat="44.19456" lon="5.30833">
        <ele>556.26001</ele>
        <time>2011-04-17T10:00:17+02:00</time>
      </trkpt>
      <trkpt lat="44.19449" lon="5.30835">
        <ele>556.740723</ele>
        <time>2011-04-17T10:00:26+02:00</time>
      </trkpt>
      <trkpt lat="44.19445" lon="5.30838">
        <ele>558.66333</ele>
        <time>2011-04-17T10:00:34+02:00</time>
      </trkpt>
      <trkpt lat="44.1944" lon="5.3084">
        <ele>560.105225</ele>
        <time>2011-04-17T10:00:42+02:00</time>
      </trkpt>
      <trkpt lat="44.19436" lon="5.30841">
        <ele>561.06665</ele>
        <time>2011-04-17T10:00:51+02:00</time>
      </trkpt>
      <trkpt lat="44.19431" lon="5.30845">
        <ele>561.547363</ele>
        <time>2011-04-17T10:01:00+02:00</time>
      </trkpt>
      <trkpt lat="44.19427" lon="5.30848">
        <ele>562.508545</ele>
        <time>2011-04-17T10:01:08+02:00</time>
      </trkpt>
      <trkpt lat="44.19424" lon="5.3085">
        <ele>562.989258</ele>
        <time>2011-04-17T10:01:14+02:00</time>
      </trkpt>
      <trkpt lat="44.19419" lon="5.30855">
        <ele>562.989258</ele>
        <time>2011-04-17T10:01:23+02:00</time>
      </trkpt>
      <trkpt lat="44.19415" lon="5.3086">
        <ele>564.431152</ele>
        <time>2011-04-17T10:01:33+02:00</time>
      </trkpt>
      <trkpt lat="44.19409" lon="5.30867">
        <ele>563.469971</ele>
        <time>2011-04-17T10:01:45+02:00</time>
      </trkpt>
      <trkpt lat="44.19404" lon="5.3087">
        <ele>564.911865</ele>
        <time>2011-04-17T10:01:54+02:00</time>
      </trkpt>
      <trkpt lat="44.19399" lon="5.30875">
        <ele>567.315186</ele>
        <time>2011-04-17T10:02:03+02:00</time>
      </trkpt>
      <trkpt lat="44.19396" lon="5.30879">
        <ele>569.237793</ele>
        <time>2011-04-17T10:02:11+02:00</time>
      </trkpt>
      <trkpt lat="44.19391" lon="5.30883">
        <ele>571.640869</ele>
        <time>2011-04-17T10:02:21+02:00</time>
      </trkpt>
      <trkpt lat="44.19388" lon="5.30887">
        <ele>573.083252</ele>
        <time>2011-04-17T10:02:28+02:00</time>
      </trkpt>
      <trkpt lat="44.19383" lon="5.30891">
        <ele>574.044434</ele>
        <time>2011-04-17T10:02:38+02:00</time>
      </trkpt>
      <trkpt lat="44.19378" lon="5.30895">
        <ele>575.486328</ele>
        <time>2011-04-17T10:02:48+02:00</time>
      </trkpt>
      <trkpt lat="44.19371" lon="5.30897">
        <ele>577.889648</ele>
        <time>2011-04-17T10:03:00+02:00</time>
      </trkpt>
      <trkpt lat="44.19366" lon="5.30898">
        <ele>579.331543</ele>
        <time>2011-04-17T10:03:08+02:00</time>
      </trkpt>
      <trkpt lat="44.19361" lon="5.30899">
        <ele>584.138184</ele>
        <time>2011-04-17T10:03:17+02:00</time>
      </trkpt>
      <trkpt lat="44.19356" lon="5.30901">
        <ele>587.502686</ele>
        <time>2011-04-17T10:03:24+02:00</time>
      </trkpt>
      <trkpt lat="44.1935" lon="5.30904">
        <ele>590.386963</ele>
        <time>2011-04-17T10:03:33+02:00</time>
      </trkpt>
      <trkpt lat="44.19346" lon="5.30905">
        <ele>592.30957</ele>
        <time>2011-04-17T10:03:43+02:00</time>
      </trkpt>
      <trkpt lat="44.1934" lon="5.30907">
        <ele>592.30957</ele>
        <time>2011-04-17T10:03:51+02:00</time>
      </trkpt>
      <trkpt lat="44.19334" lon="5.30909">
        <ele>591.348145</ele>
        <time>2011-04-17T10:03:58+02:00</time>
      </trkpt>
      <trkpt lat="44.19326" lon="5.30913">
        <ele>592.30957</ele>
        <time>2011-04-17T10:04:09+02:00</time>
      </trkpt>
      <trkpt lat="44.1932" lon="5.3092">
        <ele>594.232178</ele>
        <time>2011-04-17T10:04:19+02:00</time>
      </trkpt>
      <trkpt lat="44.19315" lon="5.30925">
        <ele>595.674072</ele>
        <time>2011-04-17T10:04:29+02:00</time>
      </trkpt>
      <trkpt lat="44.19311" lon="5.30929">
        <ele>597.59668</ele>
        <time>2011-04-17T10:04:36+02:00</time>
      </trkpt>
      <trkpt lat="44.19307" lon="5.30933">
        <ele>600.480713</ele>
        <time>2011-04-17T10:04:47+02:00</time>
      </trkpt>
      <trkpt lat="44.19302" lon="5.30938">
        <ele>604.326172</ele>
        <time>2011-04-17T10:04:57+02:00</time>
      </trkpt>
      <trkpt lat="44.193" lon="5.30941">
        <ele>606.248535</ele>
        <time>2011-04-17T10:05:06+02:00</time>
      </trkpt>
      <trkpt lat="44.19298" lon="5.30942">
        <ele>608.651855</ele>
        <time>2011-04-17T10:05:14+02:00</time>
      </trkpt>
      <trkpt lat="44.19298" lon="5.3094">
        <ele>608.651855</ele>
        <time>2011-04-17T10:05:19+02:00</time>
      </trkpt>
      <trkpt lat="44.19299" lon="5.30941">
        <ele>608.171387</ele>
        <time>2011-04-17T10:05:24+02:00</time>
      </trkpt>
      <trkpt lat="44.19297" lon="5.30942">
        <ele>607.690674</ele>
        <time>2011-04-17T10:05:34+02:00</time>
      </trkpt>
      <trkpt lat="44.19296" lon="5.30943">
        <ele>611.535889</ele>
        <time>2011-04-17T10:05:41+02:00</time>
      </trkpt>
      <trkpt lat="44.19295" lon="5.30944">
        <ele>611.055176</ele>
        <time>2011-04-17T10:05:47+02:00</time>
      </trkpt>
      <trkpt lat="44.19293" lon="5.30948">
        <ele>612.016602</ele>
        <time>2011-04-17T10:05:54+02:00</time>
      </trkpt>
      <trkpt lat="44.19291" lon="5.3095">
        <ele>612.977783</ele>
        <time>2011-04-17T10:06:00+02:00</time>
      </trkpt>
      <trkpt lat="44.19286" lon="5.30952">
        <ele>612.977783</ele>
        <time>2011-04-17T10:06:09+02:00</time>
      </trkpt>
      <trkpt lat="44.19282" lon="5.30953">
        <ele>613.938965</ele>
        <time>2011-04-17T10:06:18+02:00</time>
      </trkpt>
      <trkpt lat="44.19278" lon="5.30953">
        <ele>614.419678</ele>
        <time>2011-04-17T10:06:26+02:00</time>
      </trkpt>
      <trkpt lat="44.19273" lon="5.30952">
        <ele>616.822998</ele>
        <time>2011-04-17T10:06:36+02:00</time>
      </trkpt>
      <trkpt lat="44.19266" lon="5.3095">
        <ele>618.745605</ele>
        <time>2011-04-17T10:06:46+02:00</time>
      </trkpt>
      <trkpt lat="44.19263" lon="5.30946">
        <ele>619.226318</ele>
        <time>2011-04-17T10:06:52+02:00</time>
      </trkpt>
      <trkpt lat="44.1926" lon="5.30939">
        <ele>619.226318</ele>
        <time>2011-04-17T10:07:00+02:00</time>
      </trkpt>
      <trkpt lat="44.19258" lon="5.30931">
        <ele>620.187744</ele>
        <time>2011-04-17T10:07:08+02:00</time>
      </trkpt>
      <trkpt lat="44.1926" lon="5.30922">
        <ele>621.14917</ele>
        <time>2011-04-17T10:07:15+02:00</time>
      </trkpt>
      <trkpt lat="44.19262" lon="5.30913">
        <ele>622.110352</ele>
        <time>2011-04-17T10:07:23+02:00</time>
      </trkpt>
      <trkpt lat="44.19266" lon="5.30904">
        <ele>623.071777</ele>
        <time>2011-04-17T10:07:33+02:00</time>
      </trkpt>
      <trkpt lat="44.19268" lon="5.30898">
        <ele>624.032959</ele>
        <time>2011-04-17T10:07:40+02:00</time>
      </trkpt>
      <trkpt lat="44.19271" lon="5.30889">
        <ele>625.955566</ele>
        <time>2011-04-17T10:07:49+02:00</time>
      </trkpt>
      <trkpt lat="44.19275" lon="5.30883">
        <ele>627.397705</ele>
        <time>2011-04-17T10:07:58+02:00</time>
      </trkpt>
      <trkpt lat="44.19273" lon="5.30878">
        <ele>626.916992</ele>
        <time>2011-04-17T10:08:05+02:00</time>
      </trkpt>
      <trkpt lat="44.19269" lon="5.30879">
        <ele>627.878174</ele>
        <time>2011-04-17T10:08:12+02:00</time>
      </trkpt>
      <trkpt lat="44.19264" lon="5.30883">
        <ele>628.358887</ele>
        <time>2011-04-17T10:08:20+02:00</time>
      </trkpt>
      <trkpt lat="44.19257" lon="5.30886">
        <ele>629.800781</ele>
        <time>2011-04-17T10:08:28+02:00</time>
      </trkpt>
      <trkpt lat="44.19252" lon="5.30888">
        <ele>631.24292</ele>
        <time>2011-04-17T10:08:36+02:00</time>
      </trkpt>
      <trkpt lat="44.19247" lon="5.3089">
        <ele>634.126709</ele>
        <time>2011-04-17T10:08:44+02:00</time>
      </trkpt>
      <trkpt lat="44.19241" lon="5.30892">
        <ele>637.010742</ele>
        <time>2011-04-17T10:08:53+02:00</time>
      </trkpt>
      <trkpt lat="44.19237" lon="5.30893">
        <ele>637.972168</ele>
        <time>2011-04-17T10:09:00+02:00</time>
      </trkpt>
      <trkpt lat="44.19233" lon="5.3089">
        <ele>639.894775</ele>
        <time>2011-04-17T10:09:07+02:00</time>
      </trkpt>
      <trkpt lat="44.19236" lon="5.30885">
        <ele>642.298096</ele>
        <time>2011-04-17T10:09:14+02:00</time>
      </trkpt>
      <trkpt lat="44.19239" lon="5.30879">
        <ele>644.220703</ele>
        <time>2011-04-17T10:09:21+02:00</time>
      </trkpt>
      <trkpt lat="44.19244" lon="5.3087">
        <ele>644.701172</ele>
        <time>2011-04-17T10:09:30+02:00</time>
      </trkpt>
      <trkpt lat="44.19249" lon="5.30864">
        <ele>646.624023</ele>
        <time>2011-04-17T10:09:39+02:00</time>
      </trkpt>
      <trkpt lat="44.19253" lon="5.30857">
        <ele>648.065918</ele>
        <time>2011-04-17T10:09:47+02:00</time>
      </trkpt>
      <trkpt lat="44.19257" lon="5.30849">
        <ele>647.104492</ele>
        <time>2011-04-17T10:09:54+02:00</time>
      </trkpt>
      <trkpt lat="44.19263" lon="5.3084">
        <ele>648.065918</ele>
        <time>2011-04-17T10:10:03+02:00</time>
      </trkpt>
      <trkpt lat="44.19264" lon="5.30839">
        <ele>648.065918</ele>
        <time>2011-04-17T10:10:04+02:00</time>
      </trkpt>
      <trkpt lat="44.1927" lon="5.3083">
        <ele>649.0271</ele>
        <time>2011-04-17T10:10:13+02:00</time>
      </trkpt>
      <trkpt lat="44.19276" lon="5.30819">
        <ele>650.469238</ele>
        <time>2011-04-17T10:10:22+02:00</time>
      </trkpt>
      <trkpt lat="44.19278" lon="5.30816">
        <ele>650.949707</ele>
        <time>2011-04-17T10:10:28+02:00</time>
      </trkpt>
      <trkpt lat="44.19277" lon="5.30815">
        <ele>650.949707</ele>
        <time>2011-04-17T10:10:34+02:00</time>
      </trkpt>
      <trkpt lat="44.19277" lon="5.30813">
        <ele>651.43042</ele>
        <time>2011-04-17T10:10:41+02:00</time>
      </trkpt>
      <trkpt lat="44.19278" lon="5.30811">
        <ele>651.43042</ele>
        <time>2011-04-17T10:10:47+02:00</time>
      </trkpt>
      <trkpt lat="44.19282" lon="5.30805">
        <ele>651.43042</ele>
        <time>2011-04-17T10:10:52+02:00</time>
      </trkpt>
      <trkpt lat="44.19291" lon="5.30791">
        <ele>651.911133</ele>
        <time>2011-04-17T10:11:01+02:00</time>
      </trkpt>
      <trkpt lat="44.19298" lon="5.30779">
        <ele>652.391846</ele>
        <time>2011-04-17T10:11:09+02:00</time>
      </trkpt>
      <trkpt lat="44.19302" lon="5.30772">
        <ele>651.911133</ele>
        <time>2011-04-17T10:11:14+02:00</time>
      </trkpt>
      <trkpt lat="44.1931" lon="5.30756">
        <ele>654.314697</ele>
        <time>2011-04-17T10:11:24+02:00</time>
      </trkpt>
      <trkpt lat="44.19314" lon="5.30749">
        <ele>655.275879</ele>
        <time>2011-04-17T10:11:30+02:00</time>
      </trkpt>
      <trkpt lat="44.1931" lon="5.30741">
        <ele>657.198486</ele>
        <time>2011-04-17T10:11:37+02:00</time>
      </trkpt>
      <trkpt lat="44.19308" lon="5.3074">
        <ele>657.679199</ele>
        <time>2011-04-17T10:11:39+02:00</time>
      </trkpt>
      <trkpt lat="44.19299" lon="5.30749">
        <ele>659.121094</ele>
        <time>2011-04-17T10:11:49+02:00</time>
      </trkpt>
      <trkpt lat="44.19291" lon="5.30754">
        <ele>659.601807</ele>
        <time>2011-04-17T10:11:57+02:00</time>
      </trkpt>
      <trkpt lat="44.19282" lon="5.30758">
        <ele>661.043701</ele>
        <time>2011-04-17T10:12:05+02:00</time>
      </trkpt>
      <trkpt lat="44.19281" lon="5.30758">
        <ele>661.043701</ele>
        <time>2011-04-17T10:12:06+02:00</time>
      </trkpt>
      <trkpt lat="44.19273" lon="5.30765">
        <ele>662.485596</ele>
        <time>2011-04-17T10:12:15+02:00</time>
      </trkpt>
      <trkpt lat="44.19267" lon="5.30768">
        <ele>664.408203</ele>
        <time>2011-04-17T10:12:21+02:00</time>
      </trkpt>
      <trkpt lat="44.19261" lon="5.30765">
        <ele>666.330811</ele>
        <time>2011-04-17T10:12:28+02:00</time>
      </trkpt>
      <trkpt lat="44.1926" lon="5.30762">
        <ele>667.292236</ele>
        <time>2011-04-17T10:12:36+02:00</time>
      </trkpt>
      <trkpt lat="44.19262" lon="5.30753">
        <ele>669.215088</ele>
        <time>2011-04-17T10:12:45+02:00</time>
      </trkpt>
      <trkpt lat="44.19265" lon="5.30746">
        <ele>668.734375</ele>
        <time>2011-04-17T10:12:52+02:00</time>
      </trkpt>
      <trkpt lat="44.19269" lon="5.30739">
        <ele>667.292236</ele>
        <time>2011-04-17T10:13:00+02:00</time>
      </trkpt>
      <trkpt lat="44.19273" lon="5.30728">
        <ele>669.215088</ele>
        <time>2011-04-17T10:13:09+02:00</time>
      </trkpt>
      <trkpt lat="44.19273" lon="5.30719">
        <ele>672.57959</ele>
        <time>2011-04-17T10:13:17+02:00</time>
      </trkpt>
      <trkpt lat="44.19268" lon="5.30719">
        <ele>675.463379</ele>
        <time>2011-04-17T10:13:24+02:00</time>
      </trkpt>
      <trkpt lat="44.19261" lon="5.30725">
        <ele>677.38623</ele>
        <time>2011-04-17T10:13:34+02:00</time>
      </trkpt>
      <trkpt lat="44.1926" lon="5.30727">
        <ele>678.828125</ele>
        <time>2011-04-17T10:13:41+02:00</time>
      </trkpt>
      <trkpt lat="44.19257" lon="5.30728">
        <ele>678.828125</ele>
        <time>2011-04-17T10:14:01+02:00</time>
      </trkpt>
      <trkpt lat="44.19253" lon="5.30732">
        <ele>679.789307</ele>
        <time>2011-04-17T10:14:08+02:00</time>
      </trkpt>
      <trkpt lat="44.19251" lon="5.30734">
        <ele>680.750732</ele>
        <time>2011-04-17T10:14:14+02:00</time>
      </trkpt>
      <trkpt lat="44.19246" lon="5.30737">
        <ele>681.231445</ele>
        <time>2011-04-17T10:14:18+02:00</time>
      </trkpt>
      <trkpt lat="44.19238" lon="5.30744">
        <ele>681.231445</ele>
        <time>2011-04-17T10:14:25+02:00</time>
      </trkpt>
      <trkpt lat="44.19231" lon="5.3075">
        <ele>682.67334</ele>
        <time>2011-04-17T10:14:31+02:00</time>
      </trkpt>
      <trkpt lat="44.19224" lon="5.30756">
        <ele>683.634521</ele>
        <time>2011-04-17T10:14:38+02:00</time>
      </trkpt>
      <trkpt lat="44.19215" lon="5.30764">
        <ele>685.557373</ele>
        <time>2011-04-17T10:14:47+02:00</time>
      </trkpt>
      <trkpt lat="44.19208" lon="5.30769">
        <ele>686.038086</ele>
        <time>2011-04-17T10:14:55+02:00</time>
      </trkpt>
      <trkpt lat="44.19207" lon="5.3077">
        <ele>686.518799</ele>
        <time>2011-04-17T10:14:56+02:00</time>
      </trkpt>
      <trkpt lat="44.19199" lon="5.30777">
        <ele>689.402588</ele>
        <time>2011-04-17T10:15:04+02:00</time>
      </trkpt>
      <trkpt lat="44.19197" lon="5.30779">
        <ele>689.402588</ele>
        <time>2011-04-17T10:15:06+02:00</time>
      </trkpt>
      <trkpt lat="44.19189" lon="5.30787">
        <ele>691.325195</ele>
        <time>2011-04-17T10:15:15+02:00</time>
      </trkpt>
      <trkpt lat="44.19181" lon="5.30793">
        <ele>692.767334</ele>
        <time>2011-04-17T10:15:23+02:00</time>
      </trkpt>
      <trkpt lat="44.19173" lon="5.30799">
        <ele>694.689697</ele>
        <time>2011-04-17T10:15:31+02:00</time>
      </trkpt>
      <trkpt lat="44.19165" lon="5.30804">
        <ele>695.17041</ele>
        <time>2011-04-17T10:15:38+02:00</time>
      </trkpt>
      <trkpt lat="44.19164" lon="5.30806">
        <ele>695.17041</ele>
        <time>2011-04-17T10:15:40+02:00</time>
      </trkpt>
      <trkpt lat="44.19163" lon="5.30807">
        <ele>695.17041</ele>
        <time>2011-04-17T10:15:47+02:00</time>
      </trkpt>
      <trkpt lat="44.19164" lon="5.30806">
        <ele>694.209229</ele>
        <time>2011-04-17T10:15:57+02:00</time>
      </trkpt>
      <trkpt lat="44.19164" lon="5.30808">
        <ele>695.651123</ele>
        <time>2011-04-17T10:16:08+02:00</time>
      </trkpt>
      <trkpt lat="44.19163" lon="5.30808">
        <ele>696.612549</ele>
        <time>2011-04-17T10:16:20+02:00</time>
      </trkpt>
      <trkpt lat="44.19162" lon="5.30806">
        <ele>694.209229</ele>
        <time>2011-04-17T10:17:09+02:00</time>
      </trkpt>
      <trkpt lat="44.19159" lon="5.30807">
        <ele>694.209229</ele>
        <time>2011-04-17T10:17:16+02:00</time>
      </trkpt>
      <trkpt lat="44.19158" lon="5.30807">
        <ele>694.209229</ele>
        <time>2011-04-17T10:17:17+02:00</time>
      </trkpt>
      <trkpt lat="44.19147" lon="5.30816">
        <ele>695.651123</ele>
        <time>2011-04-17T10:17:26+02:00</time>
      </trkpt>
      <trkpt lat="44.19135" lon="5.30826">
        <ele>696.612549</ele>
        <time>2011-04-17T10:17:33+02:00</time>
      </trkpt>
      <trkpt lat="44.19125" lon="5.30833">
        <ele>697.57373</ele>
        <time>2011-04-17T10:17:39+02:00</time>
      </trkpt>
      <trkpt lat="44.19118" lon="5.30832">
        <ele>698.534912</ele>
        <time>2011-04-17T10:17:44+02:00</time>
      </trkpt>
      <trkpt lat="44.19118" lon="5.30823">
        <ele>700.458008</ele>
        <time>2011-04-17T10:17:50+02:00</time>
      </trkpt>
      <trkpt lat="44.19118" lon="5.30821">
        <ele>700.458008</ele>
        <time>2011-04-17T10:17:51+02:00</time>
      </trkpt>
      <trkpt lat="44.19125" lon="5.3081">
        <ele>701.899902</ele>
        <time>2011-04-17T10:18:00+02:00</time>
      </trkpt>
      <trkpt lat="44.19131" lon="5.30803">
        <ele>702.861084</ele>
        <time>2011-04-17T10:18:06+02:00</time>
      </trkpt>
      <trkpt lat="44.19133" lon="5.30799">
        <ele>703.341797</ele>
        <time>2011-04-17T10:18:09+02:00</time>
      </trkpt>
      <trkpt lat="44.19138" lon="5.30793">
        <ele>704.783691</ele>
        <time>2011-04-17T10:18:15+02:00</time>
      </trkpt>
      <trkpt lat="44.19141" lon="5.30781">
        <ele>705.745117</ele>
        <time>2011-04-17T10:18:23+02:00</time>
      </trkpt>
      <trkpt lat="44.19143" lon="5.3077">
        <ele>706.706299</ele>
        <time>2011-04-17T10:18:31+02:00</time>
      </trkpt>
      <trkpt lat="44.19146" lon="5.30759">
        <ele>708.148438</ele>
        <time>2011-04-17T10:18:38+02:00</time>
      </trkpt>
      <trkpt lat="44.19149" lon="5.30747">
        <ele>708.628906</ele>
        <time>2011-04-17T10:18:46+02:00</time>
      </trkpt>
      <trkpt lat="44.19152" lon="5.30736">
        <ele>709.590332</ele>
        <time>2011-04-17T10:18:53+02:00</time>
      </trkpt>
      <trkpt lat="44.19156" lon="5.30724">
        <ele>711.032227</ele>
        <time>2011-04-17T10:19:01+02:00</time>
      </trkpt>
      <trkpt lat="44.19159" lon="5.30715">
        <ele>711.993652</ele>
        <time>2011-04-17T10:19:08+02:00</time>
      </trkpt>
      <trkpt lat="44.19162" lon="5.30706">
        <ele>713.435547</ele>
        <time>2011-04-17T10:19:15+02:00</time>
      </trkpt>
      <trkpt lat="44.19165" lon="5.30697">
        <ele>715.838867</ele>
        <time>2011-04-17T10:19:22+02:00</time>
      </trkpt>
      <trkpt lat="44.19168" lon="5.30689">
        <ele>717.281006</ele>
        <time>2011-04-17T10:19:29+02:00</time>
      </trkpt>
      <trkpt lat="44.1917" lon="5.30681">
        <ele>718.242188</ele>
        <time>2011-04-17T10:19:35+02:00</time>
      </trkpt>
      <trkpt lat="44.19172" lon="5.30671">
        <ele>720.164795</ele>
        <time>2011-04-17T10:19:43+02:00</time>
      </trkpt>
      <trkpt lat="44.19173" lon="5.30667">
        <ele>720.645508</ele>
        <time>2011-04-17T10:19:49+02:00</time>
      </trkpt>
      <trkpt lat="44.19173" lon="5.30661">
        <ele>721.126221</ele>
        <time>2011-04-17T10:19:55+02:00</time>
      </trkpt>
      <trkpt lat="44.19174" lon="5.30661">
        <ele>723.529541</ele>
        <time>2011-04-17T10:20:00+02:00</time>
      </trkpt>
      <trkpt lat="44.19173" lon="5.30655">
        <ele>724.490723</ele>
        <time>2011-04-17T10:20:05+02:00</time>
      </trkpt>
      <trkpt lat="44.19172" lon="5.30644">
        <ele>724.971436</ele>
        <time>2011-04-17T10:20:14+02:00</time>
      </trkpt>
      <trkpt lat="44.19173" lon="5.30632">
        <ele>726.41333</ele>
        <time>2011-04-17T10:20:23+02:00</time>
      </trkpt>
      <trkpt lat="44.19173" lon="5.30623">
        <ele>727.855225</ele>
        <time>2011-04-17T10:20:31+02:00</time>
      </trkpt>
      <trkpt lat="44.19172" lon="5.3061">
        <ele>730.258545</ele>
        <time>2011-04-17T10:20:42+02:00</time>
      </trkpt>
      <trkpt lat="44.1917" lon="5.30601">
        <ele>730.739258</ele>
        <time>2011-04-17T10:20:51+02:00</time>
      </trkpt>
      <trkpt lat="44.19169" lon="5.30591">
        <ele>733.623291</ele>
        <time>2011-04-17T10:21:00+02:00</time>
      </trkpt>
      <trkpt lat="44.19167" lon="5.30584">
        <ele>734.584717</ele>
        <time>2011-04-17T10:21:06+02:00</time>
      </trkpt>
      <trkpt lat="44.19165" lon="5.30577">
        <ele>736.026611</ele>
        <time>2011-04-17T10:21:13+02:00</time>
      </trkpt>
      <trkpt lat="44.19163" lon="5.30568">
        <ele>737.949219</ele>
        <time>2011-04-17T10:21:21+02:00</time>
      </trkpt>
      <trkpt lat="44.1916" lon="5.30559">
        <ele>738.910645</ele>
        <time>2011-04-17T10:21:29+02:00</time>
      </trkpt>
      <trkpt lat="44.19158" lon="5.30549">
        <ele>740.352539</ele>
        <time>2011-04-17T10:21:38+02:00</time>
      </trkpt>
      <trkpt lat="44.19155" lon="5.30541">
        <ele>741.794434</ele>
        <time>2011-04-17T10:21:45+02:00</time>
      </trkpt>
      <trkpt lat="44.19151" lon="5.30532">
        <ele>743.236328</ele>
        <time>2011-04-17T10:21:54+02:00</time>
      </trkpt>
      <trkpt lat="44.19148" lon="5.30524">
        <ele>745.158936</ele>
        <time>2011-04-17T10:22:02+02:00</time>
      </trkpt>
      <trkpt lat="44.19144" lon="5.30519">
        <ele>748.043213</ele>
        <time>2011-04-17T10:22:12+02:00</time>
      </trkpt>
      <trkpt lat="44.19142" lon="5.30515">
        <ele>750.446533</ele>
        <time>2011-04-17T10:22:21+02:00</time>
      </trkpt>
      <trkpt lat="44.19139" lon="5.30506">
        <ele>752.849609</ele>
        <time>2011-04-17T10:22:29+02:00</time>
      </trkpt>
      <trkpt lat="44.19134" lon="5.30495">
        <ele>754.291748</ele>
        <time>2011-04-17T10:22:39+02:00</time>
      </trkpt>
      <trkpt lat="44.1913" lon="5.30486">
        <ele>754.772217</ele>
        <time>2011-04-17T10:22:47+02:00</time>
      </trkpt>
      <trkpt lat="44.19129" lon="5.30484">
        <ele>754.772217</ele>
        <time>2011-04-17T10:22:48+02:00</time>
      </trkpt>
      <trkpt lat="44.19123" lon="5.30473">
        <ele>756.694824</ele>
        <time>2011-04-17T10:22:58+02:00</time>
      </trkpt>
      <trkpt lat="44.19118" lon="5.30461">
        <ele>758.617432</ele>
        <time>2011-04-17T10:23:08+02:00</time>
      </trkpt>
      <trkpt lat="44.19113" lon="5.30453">
        <ele>759.098145</ele>
        <time>2011-04-17T10:23:17+02:00</time>
      </trkpt>
      <trkpt lat="44.19109" lon="5.30448">
        <ele>760.059326</ele>
        <time>2011-04-17T10:23:24+02:00</time>
      </trkpt>
      <trkpt lat="44.19106" lon="5.30443">
        <ele>761.501465</ele>
        <time>2011-04-17T10:23:31+02:00</time>
      </trkpt>
      <trkpt lat="44.19102" lon="5.30437">
        <ele>762.943359</ele>
        <time>2011-04-17T10:23:39+02:00</time>
      </trkpt>
      <trkpt lat="44.19098" lon="5.30431">
        <ele>764.866211</ele>
        <time>2011-04-17T10:23:47+02:00</time>
      </trkpt>
      <trkpt lat="44.19093" lon="5.30425">
        <ele>765.827637</ele>
        <time>2011-04-17T10:23:55+02:00</time>
      </trkpt>
      <trkpt lat="44.19088" lon="5.30418">
        <ele>767.269531</ele>
        <time>2011-04-17T10:24:04+02:00</time>
      </trkpt>
      <trkpt lat="44.19084" lon="5.30414">
        <ele>768.230713</ele>
        <time>2011-04-17T10:24:12+02:00</time>
      </trkpt>
      <trkpt lat="44.19079" lon="5.30408">
        <ele>769.192139</ele>
        <time>2011-04-17T10:24:20+02:00</time>
      </trkpt>
      <trkpt lat="44.19074" lon="5.30399">
        <ele>770.15332</ele>
        <time>2011-04-17T10:24:30+02:00</time>
      </trkpt>
      <trkpt lat="44.1907" lon="5.30392">
        <ele>772.556641</ele>
        <time>2011-04-17T10:24:38+02:00</time>
      </trkpt>
      <trkpt lat="44.19065" lon="5.30386">
        <ele>773.998535</ele>
        <time>2011-04-17T10:24:47+02:00</time>
      </trkpt>
      <trkpt lat="44.1906" lon="5.30381">
        <ele>774.479248</ele>
        <time>2011-04-17T10:24:54+02:00</time>
      </trkpt>
      <trkpt lat="44.19053" lon="5.30367">
        <ele>775.921143</ele>
        <time>2011-04-17T10:25:05+02:00</time>
      </trkpt>
      <trkpt lat="44.19049" lon="5.30358">
        <ele>781.20874</ele>
        <time>2011-04-17T10:25:14+02:00</time>
      </trkpt>
      <trkpt lat="44.19043" lon="5.30351">
        <ele>782.169922</ele>
        <time>2011-04-17T10:25:22+02:00</time>
      </trkpt>
      <trkpt lat="44.19037" lon="5.30343">
        <ele>783.131104</ele>
        <time>2011-04-17T10:25:30+02:00</time>
      </trkpt>
      <trkpt lat="44.19032" lon="5.30337">
        <ele>782.650635</ele>
        <time>2011-04-17T10:25:36+02:00</time>
      </trkpt>
      <trkpt lat="44.19026" lon="5.3033">
        <ele>786.015137</ele>
        <time>2011-04-17T10:25:45+02:00</time>
      </trkpt>
      <trkpt lat="44.19022" lon="5.30325">
        <ele>786.015137</ele>
        <time>2011-04-17T10:25:52+02:00</time>
      </trkpt>
      <trkpt lat="44.19018" lon="5.30319">
        <ele>786.49585</ele>
        <time>2011-04-17T10:25:58+02:00</time>
      </trkpt>
      <trkpt lat="44.19012" lon="5.30311">
        <ele>785.053955</ele>
        <time>2011-04-17T10:26:06+02:00</time>
      </trkpt>
      <trkpt lat="44.19007" lon="5.30303">
        <ele>786.49585</ele>
        <time>2011-04-17T10:26:14+02:00</time>
      </trkpt>
      <trkpt lat="44.19003" lon="5.30295">
        <ele>788.418457</ele>
        <time>2011-04-17T10:26:23+02:00</time>
      </trkpt>
      <trkpt lat="44.18998" lon="5.30289">
        <ele>790.341064</ele>
        <time>2011-04-17T10:26:31+02:00</time>
      </trkpt>
      <trkpt lat="44.18993" lon="5.30282">
        <ele>791.782959</ele>
        <time>2011-04-17T10:26:38+02:00</time>
      </trkpt>
      <trkpt lat="44.18987" lon="5.30273">
        <ele>792.744385</ele>
        <time>2011-04-17T10:26:46+02:00</time>
      </trkpt>
      <trkpt lat="44.18978" lon="5.30262">
        <ele>792.744385</ele>
        <time>2011-04-17T10:26:56+02:00</time>
      </trkpt>
      <trkpt lat="44.18971" lon="5.30251">
        <ele>791.782959</ele>
        <time>2011-04-17T10:27:05+02:00</time>
      </trkpt>
      <trkpt lat="44.18968" lon="5.3024">
        <ele>792.744385</ele>
        <time>2011-04-17T10:27:14+02:00</time>
      </trkpt>
      <trkpt lat="44.18967" lon="5.30235">
        <ele>793.705566</ele>
        <time>2011-04-17T10:27:33+02:00</time>
      </trkpt>
      <trkpt lat="44.18967" lon="5.30222">
        <ele>795.147461</ele>
        <time>2011-04-17T10:27:41+02:00</time>
      </trkpt>
      <trkpt lat="44.18967" lon="5.3021">
        <ele>795.147461</ele>
        <time>2011-04-17T10:27:49+02:00</time>
      </trkpt>
      <trkpt lat="44.18968" lon="5.30203">
        <ele>797.070312</ele>
        <time>2011-04-17T10:27:56+02:00</time>
      </trkpt>
      <trkpt lat="44.18967" lon="5.30201">
        <ele>799.473633</ele>
        <time>2011-04-17T10:28:03+02:00</time>
      </trkpt>
      <trkpt lat="44.18968" lon="5.30201">
        <ele>802.357422</ele>
        <time>2011-04-17T10:28:10+02:00</time>
      </trkpt>
      <trkpt lat="44.18969" lon="5.30196">
        <ele>803.318848</ele>
        <time>2011-04-17T10:28:16+02:00</time>
      </trkpt>
      <trkpt lat="44.18971" lon="5.30191">
        <ele>804.760742</ele>
        <time>2011-04-17T10:28:22+02:00</time>
      </trkpt>
      <trkpt lat="44.18973" lon="5.30182">
        <ele>805.722168</ele>
        <time>2011-04-17T10:28:30+02:00</time>
      </trkpt>
      <trkpt lat="44.18974" lon="5.30179">
        <ele>807.164062</ele>
        <time>2011-04-17T10:28:36+02:00</time>
      </trkpt>
      <trkpt lat="44.18978" lon="5.30172">
        <ele>809.567383</ele>
        <time>2011-04-17T10:28:45+02:00</time>
      </trkpt>
      <trkpt lat="44.1898" lon="5.30166">
        <ele>812.451416</ele>
        <time>2011-04-17T10:28:52+02:00</time>
      </trkpt>
      <trkpt lat="44.18981" lon="5.30163">
        <ele>813.412842</ele>
        <time>2011-04-17T10:29:00+02:00</time>
      </trkpt>
      <trkpt lat="44.18983" lon="5.30155">
        <ele>811.970703</ele>
        <time>2011-04-17T10:29:08+02:00</time>
      </trkpt>
      <trkpt lat="44.18984" lon="5.30149">
        <ele>813.412842</ele>
        <time>2011-04-17T10:29:14+02:00</time>
      </trkpt>
      <trkpt lat="44.18984" lon="5.30144">
        <ele>818.219238</ele>
        <time>2011-04-17T10:29:23+02:00</time>
      </trkpt>
      <trkpt lat="44.18984" lon="5.30142">
        <ele>819.661377</ele>
        <time>2011-04-17T10:29:29+02:00</time>
      </trkpt>
      <trkpt lat="44.18985" lon="5.30137">
        <ele>819.661377</ele>
        <time>2011-04-17T10:29:35+02:00</time>
      </trkpt>
      <trkpt lat="44.18988" lon="5.30133">
        <ele>820.622559</ele>
        <time>2011-04-17T10:29:43+02:00</time>
      </trkpt>
      <trkpt lat="44.18989" lon="5.30126">
        <ele>822.545166</ele>
        <time>2011-04-17T10:29:52+02:00</time>
      </trkpt>
      <trkpt lat="44.18988" lon="5.30123">
        <ele>823.025879</ele>
        <time>2011-04-17T10:29:59+02:00</time>
      </trkpt>
      <trkpt lat="44.18987" lon="5.30116">
        <ele>823.025879</ele>
        <time>2011-04-17T10:30:07+02:00</time>
      </trkpt>
      <trkpt lat="44.18987" lon="5.3011">
        <ele>825.428955</ele>
        <time>2011-04-17T10:30:14+02:00</time>
      </trkpt>
      <trkpt lat="44.18985" lon="5.30101">
        <ele>827.351807</ele>
        <time>2011-04-17T10:30:23+02:00</time>
      </trkpt>
      <trkpt lat="44.18984" lon="5.3009">
        <ele>825.909668</ele>
        <time>2011-04-17T10:30:31+02:00</time>
      </trkpt>
      <trkpt lat="44.18984" lon="5.30081">
        <ele>825.428955</ele>
        <time>2011-04-17T10:30:38+02:00</time>
      </trkpt>
      <trkpt lat="44.18983" lon="5.30074">
        <ele>824.948486</ele>
        <time>2011-04-17T10:30:45+02:00</time>
      </trkpt>
      <trkpt lat="44.18982" lon="5.30068">
        <ele>826.390381</ele>
        <time>2011-04-17T10:30:53+02:00</time>
      </trkpt>
      <trkpt lat="44.1898" lon="5.30063">
        <ele>824.948486</ele>
        <time>2011-04-17T10:31:00+02:00</time>
      </trkpt>
      <trkpt lat="44.18978" lon="5.30055">
        <ele>823.987061</ele>
        <time>2011-04-17T10:31:06+02:00</time>
      </trkpt>
      <trkpt lat="44.18977" lon="5.30048">
        <ele>823.987061</ele>
        <time>2011-04-17T10:31:12+02:00</time>
      </trkpt>
      <trkpt lat="44.18976" lon="5.3004">
        <ele>825.909668</ele>
        <time>2011-04-17T10:31:19+02:00</time>
      </trkpt>
      <trkpt lat="44.18975" lon="5.30035">
        <ele>824.467773</ele>
        <time>2011-04-17T10:31:26+02:00</time>
      </trkpt>
      <trkpt lat="44.18975" lon="5.3003">
        <ele>826.390381</ele>
        <time>2011-04-17T10:31:33+02:00</time>
      </trkpt>
      <trkpt lat="44.18975" lon="5.30029">
        <ele>826.390381</ele>
        <time>2011-04-17T10:31:40+02:00</time>
      </trkpt>
      <trkpt lat="44.18974" lon="5.30024">
        <ele>826.871094</ele>
        <time>2011-04-17T10:31:46+02:00</time>
      </trkpt>
      <trkpt lat="44.1897" lon="5.3002">
        <ele>828.313232</ele>
        <time>2011-04-17T10:31:54+02:00</time>
      </trkpt>
      <trkpt lat="44.18968" lon="5.30015">
        <ele>829.274414</ele>
        <time>2011-04-17T10:32:01+02:00</time>
      </trkpt>
      <trkpt lat="44.18966" lon="5.3001">
        <ele>830.23584</ele>
        <time>2011-04-17T10:32:07+02:00</time>
      </trkpt>
      <trkpt lat="44.18967" lon="5.30002">
        <ele>827.832275</ele>
        <time>2011-04-17T10:32:14+02:00</time>
      </trkpt>
      <trkpt lat="44.18967" lon="5.29999">
        <ele>831.197266</ele>
        <time>2011-04-17T10:32:20+02:00</time>
      </trkpt>
      <trkpt lat="44.18966" lon="5.29997">
        <ele>831.677734</ele>
        <time>2011-04-17T10:32:27+02:00</time>
      </trkpt>
      <trkpt lat="44.18966" lon="5.29997">
        <ele>832.158447</ele>
        <time>2011-04-17T10:32:32+02:00</time>
      </trkpt>
      <trkpt lat="44.18966" lon="5.29995">
        <ele>832.158447</ele>
        <time>2011-04-17T10:32:40+02:00</time>
      </trkpt>
      <trkpt lat="44.18964" lon="5.29998">
        <ele>836.003662</ele>
        <time>2011-04-17T10:32:49+02:00</time>
      </trkpt>
      <trkpt lat="44.18963" lon="5.29996">
        <ele>836.964844</ele>
        <time>2011-04-17T10:32:54+02:00</time>
      </trkpt>
      <trkpt lat="44.18966" lon="5.29994">
        <ele>838.887695</ele>
        <time>2011-04-17T10:33:05+02:00</time>
      </trkpt>
      <trkpt lat="44.18966" lon="5.2999">
        <ele>839.368164</ele>
        <time>2011-04-17T10:33:12+02:00</time>
      </trkpt>
      <trkpt lat="44.18966" lon="5.29988">
        <ele>839.848877</ele>
        <time>2011-04-17T10:33:16+02:00</time>
      </trkpt>
      <trkpt lat="44.18965" lon="5.29986">
        <ele>839.848877</ele>
        <time>2011-04-17T10:33:22+02:00</time>
      </trkpt>
      <trkpt lat="44.18961" lon="5.29985">
        <ele>840.810059</ele>
        <time>2011-04-17T10:33:28+02:00</time>
      </trkpt>
      <trkpt lat="44.18961" lon="5.2998">
        <ele>847.539551</ele>
        <time>2011-04-17T10:33:36+02:00</time>
      </trkpt>
      <trkpt lat="44.18961" lon="5.29977">
        <ele>849.942871</ele>
        <time>2011-04-17T10:33:41+02:00</time>
      </trkpt>
      <trkpt lat="44.1896" lon="5.29973">
        <ele>851.865479</ele>
        <time>2011-04-17T10:33:47+02:00</time>
      </trkpt>
      <trkpt lat="44.18961" lon="5.29969">
        <ele>854.268799</ele>
        <time>2011-04-17T10:33:57+02:00</time>
      </trkpt>
      <trkpt lat="44.18961" lon="5.29976">
        <ele>856.191162</ele>
        <time>2011-04-17T10:34:14+02:00</time>
      </trkpt>
      <trkpt lat="44.18958" lon="5.29977">
        <ele>852.82666</ele>
        <time>2011-04-17T10:34:21+02:00</time>
      </trkpt>
      <trkpt lat="44.18956" lon="5.29974">
        <ele>854.268799</ele>
        <time>2011-04-17T10:34:26+02:00</time>
      </trkpt>
      <trkpt lat="44.18955" lon="5.29974">
        <ele>858.114014</ele>
        <time>2011-04-17T10:34:34+02:00</time>
      </trkpt>
      <trkpt lat="44.18952" lon="5.29975">
        <ele>857.152588</ele>
        <time>2011-04-17T10:34:42+02:00</time>
      </trkpt>
      <trkpt lat="44.18951" lon="5.29978">
        <ele>858.114014</ele>
        <time>2011-04-17T10:34:48+02:00</time>
      </trkpt>
      <trkpt lat="44.1895" lon="5.29978">
        <ele>858.594482</ele>
        <time>2011-04-17T10:34:53+02:00</time>
      </trkpt>
      <trkpt lat="44.18948" lon="5.29977">
        <ele>860.036621</ele>
        <time>2011-04-17T10:35:01+02:00</time>
      </trkpt>
      <trkpt lat="44.18945" lon="5.29974">
        <ele>859.075195</ele>
        <time>2011-04-17T10:35:06+02:00</time>
      </trkpt>
      <trkpt lat="44.18945" lon="5.29967">
        <ele>857.152588</ele>
        <time>2011-04-17T10:35:11+02:00</time>
      </trkpt>
      <trkpt lat="44.18946" lon="5.29964">
        <ele>860.998047</ele>
        <time>2011-04-17T10:35:17+02:00</time>
      </trkpt>
      <trkpt lat="44.18945" lon="5.29965">
        <ele>862.920654</ele>
        <time>2011-04-17T10:35:27+02:00</time>
      </trkpt>
      <trkpt lat="44.18942" lon="5.29965">
        <ele>863.881836</ele>
        <time>2011-04-17T10:35:33+02:00</time>
      </trkpt>
      <trkpt lat="44.18942" lon="5.29964">
        <ele>863.881836</ele>
        <time>2011-04-17T10:35:41+02:00</time>
      </trkpt>
      <trkpt lat="44.18942" lon="5.29961">
        <ele>865.323975</ele>
        <time>2011-04-17T10:35:49+02:00</time>
      </trkpt>
      <trkpt lat="44.18941" lon="5.2996">
        <ele>867.727051</ele>
        <time>2011-04-17T10:35:55+02:00</time>
      </trkpt>
      <trkpt lat="44.1894" lon="5.29963">
        <ele>871.091797</ele>
        <time>2011-04-17T10:36:00+02:00</time>
      </trkpt>
      <trkpt lat="44.18942" lon="5.29963">
        <ele>871.572266</ele>
        <time>2011-04-17T10:36:06+02:00</time>
      </trkpt>
      <trkpt lat="44.18943" lon="5.29962">
        <ele>871.572266</ele>
        <time>2011-04-17T10:36:09+02:00</time>
      </trkpt>
      <trkpt lat="44.18945" lon="5.29961">
        <ele>872.052979</ele>
        <time>2011-04-17T10:36:13+02:00</time>
      </trkpt>
      <trkpt lat="44.18942" lon="5.29962">
        <ele>871.091797</ele>
        <time>2011-04-17T10:36:19+02:00</time>
      </trkpt>
      <trkpt lat="44.18941" lon="5.29961">
        <ele>871.091797</ele>
        <time>2011-04-17T10:36:27+02:00</time>
      </trkpt>
      <trkpt lat="44.1894" lon="5.29963">
        <ele>872.052979</ele>
        <time>2011-04-17T10:36:34+02:00</time>
      </trkpt>
      <trkpt lat="44.18939" lon="5.29965">
        <ele>872.533691</ele>
        <time>2011-04-17T10:36:41+02:00</time>
      </trkpt>
      <trkpt lat="44.18941" lon="5.29968">
        <ele>875.898193</ele>
        <time>2011-04-17T10:36:47+02:00</time>
      </trkpt>
      <trkpt lat="44.1894" lon="5.29968">
        <ele>874.937012</ele>
        <time>2011-04-17T10:36:52+02:00</time>
      </trkpt>
      <trkpt lat="44.18939" lon="5.29969">
        <ele>876.37915</ele>
        <time>2011-04-17T10:37:02+02:00</time>
      </trkpt>
      <trkpt lat="44.18936" lon="5.29965">
        <ele>873.975586</ele>
        <time>2011-04-17T10:37:10+02:00</time>
      </trkpt>
      <trkpt lat="44.1893" lon="5.29961">
        <ele>870.130371</ele>
        <time>2011-04-17T10:37:23+02:00</time>
      </trkpt>
      <trkpt lat="44.18927" lon="5.29962">
        <ele>869.169189</ele>
        <time>2011-04-17T10:37:34+02:00</time>
      </trkpt>
      <trkpt lat="44.18931" lon="5.29958">
        <ele>881.66626</ele>
        <time>2011-04-17T10:38:01+02:00</time>
      </trkpt>
      <trkpt lat="44.18937" lon="5.29959">
        <ele>889.356689</ele>
        <time>2011-04-17T10:38:08+02:00</time>
      </trkpt>
      <trkpt lat="44.18941" lon="5.29953">
        <ele>891.279297</ele>
        <time>2011-04-17T10:38:25+02:00</time>
      </trkpt>
      <trkpt lat="44.18935" lon="5.29957">
        <ele>887.434082</ele>
        <time>2011-04-17T10:38:39+02:00</time>
      </trkpt>
      <trkpt lat="44.1893" lon="5.29961">
        <ele>885.992188</ele>
        <time>2011-04-17T10:38:45+02:00</time>
      </trkpt>
      <trkpt lat="44.1893" lon="5.29964">
        <ele>887.434082</ele>
        <time>2011-04-17T10:38:56+02:00</time>
      </trkpt>
      <trkpt lat="44.18926" lon="5.29964">
        <ele>893.682861</ele>
        <time>2011-04-17T10:39:16+02:00</time>
      </trkpt>
      <trkpt lat="44.18923" lon="5.29961">
        <ele>896.566895</ele>
        <time>2011-04-17T10:39:25+02:00</time>
      </trkpt>
      <trkpt lat="44.18926" lon="5.29958">
        <ele>897.528076</ele>
        <time>2011-04-17T10:39:34+02:00</time>
      </trkpt>
      <trkpt lat="44.18927" lon="5.29962">
        <ele>899.450684</ele>
        <time>2011-04-17T10:39:48+02:00</time>
      </trkpt>
      <trkpt lat="44.18933" lon="5.29956">
        <ele>897.047363</ele>
        <time>2011-04-17T10:40:26+02:00</time>
      </trkpt>
      <trkpt lat="44.1893" lon="5.29954">
        <ele>893.202148</ele>
        <time>2011-04-17T10:40:34+02:00</time>
      </trkpt>
      <trkpt lat="44.18931" lon="5.29957">
        <ele>896.086182</ele>
        <time>2011-04-17T10:40:54+02:00</time>
      </trkpt>
      <trkpt lat="44.18932" lon="5.29956">
        <ele>897.528076</ele>
        <time>2011-04-17T10:41:13+02:00</time>
      </trkpt>
      <trkpt lat="44.18929" lon="5.29958">
        <ele>895.124756</ele>
        <time>2011-04-17T10:42:02+02:00</time>
      </trkpt>
      <trkpt lat="44.18923" lon="5.29952">
        <ele>883.108154</ele>
        <time>2011-04-17T10:42:32+02:00</time>
      </trkpt>
      <trkpt lat="44.18931" lon="5.29953">
        <ele>889.837402</ele>
        <time>2011-04-17T10:42:46+02:00</time>
      </trkpt>
      <trkpt lat="44.18937" lon="5.29952">
        <ele>909.544678</ele>
        <time>2011-04-17T10:43:34+02:00</time>
      </trkpt>
      <trkpt lat="44.18935" lon="5.29953">
        <ele>908.583252</ele>
        <time>2011-04-17T10:43:36+02:00</time>
      </trkpt>
      <trkpt lat="44.1894" lon="5.29957">
        <ele>910.025146</ele>
        <time>2011-04-17T10:43:48+02:00</time>
      </trkpt>
      <trkpt lat="44.18939" lon="5.29959">
        <ele>906.6604</ele>
        <time>2011-04-17T10:44:16+02:00</time>
      </trkpt>
      <trkpt lat="44.18937" lon="5.2996">
        <ele>907.141113</ele>
        <time>2011-04-17T10:44:22+02:00</time>
      </trkpt>
      <trkpt lat="44.18934" lon="5.29958">
        <ele>902.815186</ele>
        <time>2011-04-17T10:44:25+02:00</time>
      </trkpt>
      <trkpt lat="44.18932" lon="5.29957">
        <ele>900.892578</ele>
        <time>2011-04-17T10:44:27+02:00</time>
      </trkpt>
      <trkpt lat="44.18928" lon="5.29953">
        <ele>898.489258</ele>
        <time>2011-04-17T10:44:35+02:00</time>
      </trkpt>
      <trkpt lat="44.18929" lon="5.2995">
        <ele>897.528076</ele>
        <time>2011-04-17T10:44:43+02:00</time>
      </trkpt>
      <trkpt lat="44.18927" lon="5.29934">
        <ele>892.72168</ele>
        <time>2011-04-17T10:44:51+02:00</time>
      </trkpt>
      <trkpt lat="44.18926" lon="5.29929">
        <ele>890.318115</ele>
        <time>2011-04-17T10:44:56+02:00</time>
      </trkpt>
      <trkpt lat="44.18926" lon="5.29923">
        <ele>887.434082</ele>
        <time>2011-04-17T10:45:05+02:00</time>
      </trkpt>
      <trkpt lat="44.18928" lon="5.29912">
        <ele>889.837402</ele>
        <time>2011-04-17T10:45:11+02:00</time>
      </trkpt>
      <trkpt lat="44.1893" lon="5.2991">
        <ele>890.318115</ele>
        <time>2011-04-17T10:45:12+02:00</time>
      </trkpt>
      <trkpt lat="44.18934" lon="5.29903">
        <ele>891.76001</ele>
        <time>2011-04-17T10:45:17+02:00</time>
      </trkpt>
      <trkpt lat="44.18935" lon="5.29896">
        <ele>891.279297</ele>
        <time>2011-04-17T10:45:23+02:00</time>
      </trkpt>
      <trkpt lat="44.18938" lon="5.29894">
        <ele>892.240967</ele>
        <time>2011-04-17T10:45:27+02:00</time>
      </trkpt>
      <trkpt lat="44.18947" lon="5.2989">
        <ele>894.644043</ele>
        <time>2011-04-17T10:45:35+02:00</time>
      </trkpt>
      <trkpt lat="44.1895" lon="5.2989">
        <ele>894.163574</ele>
        <time>2011-04-17T10:45:38+02:00</time>
      </trkpt>
      <trkpt lat="44.18958" lon="5.29882">
        <ele>892.240967</ele>
        <time>2011-04-17T10:45:42+02:00</time>
      </trkpt>
      <trkpt lat="44.18971" lon="5.29868">
        <ele>887.434082</ele>
        <time>2011-04-17T10:45:50+02:00</time>
      </trkpt>
      <trkpt lat="44.18978" lon="5.2986">
        <ele>885.992188</ele>
        <time>2011-04-17T10:45:55+02:00</time>
      </trkpt>
      <trkpt lat="44.18988" lon="5.29847">
        <ele>885.992188</ele>
        <time>2011-04-17T10:46:03+02:00</time>
      </trkpt>
      <trkpt lat="44.19002" lon="5.29835">
        <ele>886.4729</ele>
        <time>2011-04-17T10:46:12+02:00</time>
      </trkpt>
      <trkpt lat="44.19011" lon="5.29827">
        <ele>886.953369</ele>
        <time>2011-04-17T10:46:18+02:00</time>
      </trkpt>
      <trkpt lat="44.19022" lon="5.29811">
        <ele>889.356689</ele>
        <time>2011-04-17T10:46:27+02:00</time>
      </trkpt>
      <trkpt lat="44.19026" lon="5.29793">
        <ele>889.837402</ele>
        <time>2011-04-17T10:46:35+02:00</time>
      </trkpt>
      <trkpt lat="44.19022" lon="5.29779">
        <ele>889.837402</ele>
        <time>2011-04-17T10:46:41+02:00</time>
      </trkpt>
      <trkpt lat="44.19019" lon="5.29766">
        <ele>888.876221</ele>
        <time>2011-04-17T10:46:47+02:00</time>
      </trkpt>
      <trkpt lat="44.19014" lon="5.29747">
        <ele>890.318115</ele>
        <time>2011-04-17T10:46:55+02:00</time>
      </trkpt>
      <trkpt lat="44.1901" lon="5.29726">
        <ele>893.202148</ele>
        <time>2011-04-17T10:47:04+02:00</time>
      </trkpt>
      <trkpt lat="44.19007" lon="5.29712">
        <ele>895.124756</ele>
        <time>2011-04-17T10:47:10+02:00</time>
      </trkpt>
      <trkpt lat="44.19004" lon="5.29698">
        <ele>896.086182</ele>
        <time>2011-04-17T10:47:16+02:00</time>
      </trkpt>
      <trkpt lat="44.19002" lon="5.29682">
        <ele>897.047363</ele>
        <time>2011-04-17T10:47:23+02:00</time>
      </trkpt>
      <trkpt lat="44.18998" lon="5.29662">
        <ele>897.528076</ele>
        <time>2011-04-17T10:47:32+02:00</time>
      </trkpt>
      <trkpt lat="44.18994" lon="5.29648">
        <ele>898.969971</ele>
        <time>2011-04-17T10:47:39+02:00</time>
      </trkpt>
      <trkpt lat="44.18995" lon="5.29634">
        <ele>903.776611</ele>
        <time>2011-04-17T10:47:45+02:00</time>
      </trkpt>
      <trkpt lat="44.18998" lon="5.29624">
        <ele>908.102783</ele>
        <time>2011-04-17T10:47:50+02:00</time>
      </trkpt>
      <trkpt lat="44.18998" lon="5.29608">
        <ele>909.544678</ele>
        <time>2011-04-17T10:47:57+02:00</time>
      </trkpt>
      <trkpt lat="44.18997" lon="5.29595">
        <ele>909.544678</ele>
        <time>2011-04-17T10:48:02+02:00</time>
      </trkpt>
      <trkpt lat="44.18996" lon="5.29587">
        <ele>910.505859</ele>
        <time>2011-04-17T10:48:06+02:00</time>
      </trkpt>
      <trkpt lat="44.18997" lon="5.29575">
        <ele>910.986572</ele>
        <time>2011-04-17T10:48:11+02:00</time>
      </trkpt>
      <trkpt lat="44.18997" lon="5.29568">
        <ele>913.389893</ele>
        <time>2011-04-17T10:48:14+02:00</time>
      </trkpt>
      <trkpt lat="44.18996" lon="5.29557">
        <ele>914.351074</ele>
        <time>2011-04-17T10:48:19+02:00</time>
      </trkpt>
      <trkpt lat="44.18998" lon="5.29546">
        <ele>916.754395</ele>
        <time>2011-04-17T10:48:23+02:00</time>
      </trkpt>
      <trkpt lat="44.18998" lon="5.2953">
        <ele>918.196289</ele>
        <time>2011-04-17T10:48:30+02:00</time>
      </trkpt>
      <trkpt lat="44.18997" lon="5.29517">
        <ele>919.638428</ele>
        <time>2011-04-17T10:48:36+02:00</time>
      </trkpt>
      <trkpt lat="44.18998" lon="5.29514">
        <ele>920.599609</ele>
        <time>2011-04-17T10:48:38+02:00</time>
      </trkpt>
      <trkpt lat="44.18997" lon="5.29504">
        <ele>921.080322</ele>
        <time>2011-04-17T10:48:42+02:00</time>
      </trkpt>
      <trkpt lat="44.18996" lon="5.29485">
        <ele>921.080322</ele>
        <time>2011-04-17T10:48:51+02:00</time>
      </trkpt>
      <trkpt lat="44.18996" lon="5.29476">
        <ele>921.080322</ele>
        <time>2011-04-17T10:48:55+02:00</time>
      </trkpt>
      <trkpt lat="44.18998" lon="5.29467">
        <ele>923.00293</ele>
        <time>2011-04-17T10:48:59+02:00</time>
      </trkpt>
      <trkpt lat="44.19" lon="5.29455">
        <ele>924.925781</ele>
        <time>2011-04-17T10:49:05+02:00</time>
      </trkpt>
      <trkpt lat="44.19001" lon="5.2944">
        <ele>926.367676</ele>
        <time>2011-04-17T10:49:11+02:00</time>
      </trkpt>
      <trkpt lat="44.19001" lon="5.29438">
        <ele>926.367676</ele>
        <time>2011-04-17T10:49:12+02:00</time>
      </trkpt>
      <trkpt lat="44.18997" lon="5.29422">
        <ele>923.00293</ele>
        <time>2011-04-17T10:49:19+02:00</time>
      </trkpt>
      <trkpt lat="44.18994" lon="5.29405">
        <ele>924.445068</ele>
        <time>2011-04-17T10:49:26+02:00</time>
      </trkpt>
      <trkpt lat="44.18995" lon="5.29396">
        <ele>926.848389</ele>
        <time>2011-04-17T10:49:30+02:00</time>
      </trkpt>
      <trkpt lat="44.18995" lon="5.29379">
        <ele>929.251465</ele>
        <time>2011-04-17T10:49:37+02:00</time>
      </trkpt>
      <trkpt lat="44.18995" lon="5.29362">
        <ele>932.616211</ele>
        <time>2011-04-17T10:49:44+02:00</time>
      </trkpt>
      <trkpt lat="44.18995" lon="5.29359">
        <ele>932.616211</ele>
        <time>2011-04-17T10:49:45+02:00</time>
      </trkpt>
      <trkpt lat="44.18995" lon="5.29349">
        <ele>934.058105</ele>
        <time>2011-04-17T10:49:50+02:00</time>
      </trkpt>
      <trkpt lat="44.18996" lon="5.2933">
        <ele>936.941895</ele>
        <time>2011-04-17T10:49:58+02:00</time>
      </trkpt>
      <trkpt lat="44.18991" lon="5.29314">
        <ele>935.019531</ele>
        <time>2011-04-17T10:50:05+02:00</time>
      </trkpt>
      <trkpt lat="44.18989" lon="5.29302">
        <ele>934.058105</ele>
        <time>2011-04-17T10:50:11+02:00</time>
      </trkpt>
      <trkpt lat="44.18991" lon="5.29286">
        <ele>936.461426</ele>
        <time>2011-04-17T10:50:18+02:00</time>
      </trkpt>
      <trkpt lat="44.18991" lon="5.29283">
        <ele>936.941895</ele>
        <time>2011-04-17T10:50:19+02:00</time>
      </trkpt>
      <trkpt lat="44.18989" lon="5.29272">
        <ele>938.384033</ele>
        <time>2011-04-17T10:50:24+02:00</time>
      </trkpt>
      <trkpt lat="44.18987" lon="5.29249">
        <ele>941.748779</ele>
        <time>2011-04-17T10:50:34+02:00</time>
      </trkpt>
      <trkpt lat="44.18987" lon="5.29235">
        <ele>942.710205</ele>
        <time>2011-04-17T10:50:40+02:00</time>
      </trkpt>
      <trkpt lat="44.18988" lon="5.29216">
        <ele>943.190674</ele>
        <time>2011-04-17T10:50:48+02:00</time>
      </trkpt>
      <trkpt lat="44.18982" lon="5.29198">
        <ele>936.461426</ele>
        <time>2011-04-17T10:50:55+02:00</time>
      </trkpt>
      <trkpt lat="44.18976" lon="5.29184">
        <ele>934.538818</ele>
        <time>2011-04-17T10:51:01+02:00</time>
      </trkpt>
      <trkpt lat="44.18972" lon="5.29171">
        <ele>935.5</ele>
        <time>2011-04-17T10:51:07+02:00</time>
      </trkpt>
      <trkpt lat="44.18971" lon="5.29169">
        <ele>935.5</ele>
        <time>2011-04-17T10:51:08+02:00</time>
      </trkpt>
      <trkpt lat="44.18969" lon="5.29155">
        <ele>937.422607</ele>
        <time>2011-04-17T10:51:14+02:00</time>
      </trkpt>
      <trkpt lat="44.18963" lon="5.29139">
        <ele>939.345215</ele>
        <time>2011-04-17T10:51:22+02:00</time>
      </trkpt>
      <trkpt lat="44.18961" lon="5.29133">
        <ele>940.306885</ele>
        <time>2011-04-17T10:51:25+02:00</time>
      </trkpt>
      <trkpt lat="44.18957" lon="5.29122">
        <ele>941.268066</ele>
        <time>2011-04-17T10:51:31+02:00</time>
      </trkpt>
      <trkpt lat="44.18951" lon="5.29107">
        <ele>944.1521</ele>
        <time>2011-04-17T10:51:39+02:00</time>
      </trkpt>
      <trkpt lat="44.18944" lon="5.29093">
        <ele>948.477783</ele>
        <time>2011-04-17T10:51:47+02:00</time>
      </trkpt>
      <trkpt lat="44.18937" lon="5.29077">
        <ele>956.168457</ele>
        <time>2011-04-17T10:51:55+02:00</time>
      </trkpt>
      <trkpt lat="44.1893" lon="5.29064">
        <ele>957.610596</ele>
        <time>2011-04-17T10:52:03+02:00</time>
      </trkpt>
      <trkpt lat="44.18923" lon="5.29049">
        <ele>955.207031</ele>
        <time>2011-04-17T10:52:11+02:00</time>
      </trkpt>
      <trkpt lat="44.1892" lon="5.2904">
        <ele>954.24585</ele>
        <time>2011-04-17T10:52:16+02:00</time>
      </trkpt>
      <trkpt lat="44.1892" lon="5.29038">
        <ele>953.765137</ele>
        <time>2011-04-17T10:52:17+02:00</time>
      </trkpt>
      <trkpt lat="44.18915" lon="5.29022">
        <ele>952.322998</ele>
        <time>2011-04-17T10:52:25+02:00</time>
      </trkpt>
      <trkpt lat="44.18909" lon="5.29004">
        <ele>952.322998</ele>
        <time>2011-04-17T10:52:34+02:00</time>
      </trkpt>
      <trkpt lat="44.18905" lon="5.28991">
        <ele>952.322998</ele>
        <time>2011-04-17T10:52:41+02:00</time>
      </trkpt>
      <trkpt lat="44.18901" lon="5.28981">
        <ele>953.284424</ele>
        <time>2011-04-17T10:52:47+02:00</time>
      </trkpt>
      <trkpt lat="44.189" lon="5.28969">
        <ele>955.687744</ele>
        <time>2011-04-17T10:52:53+02:00</time>
      </trkpt>
      <trkpt lat="44.18895" lon="5.28955">
        <ele>957.610596</ele>
        <time>2011-04-17T10:53:01+02:00</time>
      </trkpt>
      <trkpt lat="44.18889" lon="5.28938">
        <ele>959.05249</ele>
        <time>2011-04-17T10:53:11+02:00</time>
      </trkpt>
      <trkpt lat="44.18888" lon="5.28922">
        <ele>961.936523</ele>
        <time>2011-04-17T10:53:19+02:00</time>
      </trkpt>
      <trkpt lat="44.18893" lon="5.28908">
        <ele>961.455811</ele>
        <time>2011-04-17T10:53:26+02:00</time>
      </trkpt>
      <trkpt lat="44.18903" lon="5.28895">
        <ele>962.416992</ele>
        <time>2011-04-17T10:53:33+02:00</time>
      </trkpt>
      <trkpt lat="44.18911" lon="5.28887">
        <ele>963.858887</ele>
        <time>2011-04-17T10:53:37+02:00</time>
      </trkpt>
      <trkpt lat="44.18918" lon="5.28876">
        <ele>963.858887</ele>
        <time>2011-04-17T10:53:43+02:00</time>
      </trkpt>
      <trkpt lat="44.1893" lon="5.28858">
        <ele>967.223633</ele>
        <time>2011-04-17T10:53:51+02:00</time>
      </trkpt>
      <trkpt lat="44.18937" lon="5.28845">
        <ele>967.223633</ele>
        <time>2011-04-17T10:53:57+02:00</time>
      </trkpt>
      <trkpt lat="44.18947" lon="5.28831">
        <ele>970.107422</ele>
        <time>2011-04-17T10:54:04+02:00</time>
      </trkpt>
      <trkpt lat="44.18956" lon="5.28812">
        <ele>972.030273</ele>
        <time>2011-04-17T10:54:12+02:00</time>
      </trkpt>
      <trkpt lat="44.18965" lon="5.28797">
        <ele>970.107422</ele>
        <time>2011-04-17T10:54:19+02:00</time>
      </trkpt>
      <trkpt lat="44.18974" lon="5.28778">
        <ele>964.3396</ele>
        <time>2011-04-17T10:54:27+02:00</time>
      </trkpt>
      <trkpt lat="44.18988" lon="5.28759">
        <ele>963.378418</ele>
        <time>2011-04-17T10:54:35+02:00</time>
      </trkpt>
      <trkpt lat="44.18998" lon="5.28749">
        <ele>963.858887</ele>
        <time>2011-04-17T10:54:40+02:00</time>
      </trkpt>
      <trkpt lat="44.1901" lon="5.28735">
        <ele>965.301025</ele>
        <time>2011-04-17T10:54:45+02:00</time>
      </trkpt>
      <trkpt lat="44.19033" lon="5.28716">
        <ele>972.030273</ele>
        <time>2011-04-17T10:54:53+02:00</time>
      </trkpt>
      <trkpt lat="44.19049" lon="5.28698">
        <ele>976.356201</ele>
        <time>2011-04-17T10:55:00+02:00</time>
      </trkpt>
      <trkpt lat="44.19065" lon="5.28678">
        <ele>977.317627</ele>
        <time>2011-04-17T10:55:08+02:00</time>
      </trkpt>
      <trkpt lat="44.19075" lon="5.28668">
        <ele>976.836914</ele>
        <time>2011-04-17T10:55:14+02:00</time>
      </trkpt>
      <trkpt lat="44.19089" lon="5.28655">
        <ele>976.836914</ele>
        <time>2011-04-17T10:55:20+02:00</time>
      </trkpt>
      <trkpt lat="44.19105" lon="5.28635">
        <ele>974.433594</ele>
        <time>2011-04-17T10:55:27+02:00</time>
      </trkpt>
      <trkpt lat="44.19119" lon="5.28621">
        <ele>973.952881</ele>
        <time>2011-04-17T10:55:33+02:00</time>
      </trkpt>
      <trkpt lat="44.19134" lon="5.2861">
        <ele>973.952881</ele>
        <time>2011-04-17T10:55:39+02:00</time>
      </trkpt>
      <trkpt lat="44.19151" lon="5.28594">
        <ele>973.952881</ele>
        <time>2011-04-17T10:55:46+02:00</time>
      </trkpt>
      <trkpt lat="44.19165" lon="5.28567">
        <ele>974.914307</ele>
        <time>2011-04-17T10:55:54+02:00</time>
      </trkpt>
      <trkpt lat="44.19174" lon="5.28546">
        <ele>975.394775</ele>
        <time>2011-04-17T10:56:00+02:00</time>
      </trkpt>
      <trkpt lat="44.19191" lon="5.28519">
        <ele>979.23999</ele>
        <time>2011-04-17T10:56:08+02:00</time>
      </trkpt>
      <trkpt lat="44.19207" lon="5.28497">
        <ele>983.085205</ele>
        <time>2011-04-17T10:56:15+02:00</time>
      </trkpt>
      <trkpt lat="44.19217" lon="5.28484">
        <ele>981.162842</ele>
        <time>2011-04-17T10:56:21+02:00</time>
      </trkpt>
      <trkpt lat="44.19228" lon="5.28477">
        <ele>980.201416</ele>
        <time>2011-04-17T10:56:26+02:00</time>
      </trkpt>
      <trkpt lat="44.19242" lon="5.28468">
        <ele>979.720703</ele>
        <time>2011-04-17T10:56:32+02:00</time>
      </trkpt>
      <trkpt lat="44.19261" lon="5.28461">
        <ele>979.720703</ele>
        <time>2011-04-17T10:56:39+02:00</time>
      </trkpt>
      <trkpt lat="44.19277" lon="5.28457">
        <ele>979.720703</ele>
        <time>2011-04-17T10:56:45+02:00</time>
      </trkpt>
      <trkpt lat="44.19298" lon="5.28453">
        <ele>979.23999</ele>
        <time>2011-04-17T10:56:51+02:00</time>
      </trkpt>
      <trkpt lat="44.19323" lon="5.28443">
        <ele>978.759521</ele>
        <time>2011-04-17T10:56:58+02:00</time>
      </trkpt>
      <trkpt lat="44.19345" lon="5.28432">
        <ele>978.278809</ele>
        <time>2011-04-17T10:57:04+02:00</time>
      </trkpt>
      <trkpt lat="44.19366" lon="5.28416">
        <ele>977.798096</ele>
        <time>2011-04-17T10:57:10+02:00</time>
      </trkpt>
      <trkpt lat="44.19372" lon="5.28407">
        <ele>978.278809</ele>
        <time>2011-04-17T10:57:12+02:00</time>
      </trkpt>
      <trkpt lat="44.19376" lon="5.28375">
        <ele>977.317627</ele>
        <time>2011-04-17T10:57:18+02:00</time>
      </trkpt>
      <trkpt lat="44.19374" lon="5.28358">
        <ele>976.836914</ele>
        <time>2011-04-17T10:57:21+02:00</time>
      </trkpt>
      <trkpt lat="44.19363" lon="5.28321">
        <ele>973.952881</ele>
        <time>2011-04-17T10:57:28+02:00</time>
      </trkpt>
      <trkpt lat="44.19358" lon="5.28305">
        <ele>973.472412</ele>
        <time>2011-04-17T10:57:31+02:00</time>
      </trkpt>
      <trkpt lat="44.19354" lon="5.2828">
        <ele>976.356201</ele>
        <time>2011-04-17T10:57:35+02:00</time>
      </trkpt>
      <trkpt lat="44.19359" lon="5.2825">
        <ele>978.759521</ele>
        <time>2011-04-17T10:57:40+02:00</time>
      </trkpt>
      <trkpt lat="44.19372" lon="5.28232">
        <ele>981.162842</ele>
        <time>2011-04-17T10:57:44+02:00</time>
      </trkpt>
      <trkpt lat="44.19393" lon="5.28202">
        <ele>982.124023</ele>
        <time>2011-04-17T10:57:51+02:00</time>
      </trkpt>
      <trkpt lat="44.19404" lon="5.28184">
        <ele>981.643311</ele>
        <time>2011-04-17T10:57:55+02:00</time>
      </trkpt>
      <trkpt lat="44.19419" lon="5.28151">
        <ele>982.604736</ele>
        <time>2011-04-17T10:58:01+02:00</time>
      </trkpt>
      <trkpt lat="44.19423" lon="5.28133">
        <ele>982.604736</ele>
        <time>2011-04-17T10:58:04+02:00</time>
      </trkpt>
      <trkpt lat="44.19426" lon="5.28102">
        <ele>981.643311</ele>
        <time>2011-04-17T10:58:09+02:00</time>
      </trkpt>
      <trkpt lat="44.19424" lon="5.2807">
        <ele>976.356201</ele>
        <time>2011-04-17T10:58:14+02:00</time>
      </trkpt>
      <trkpt lat="44.19422" lon="5.28057">
        <ele>974.914307</ele>
        <time>2011-04-17T10:58:16+02:00</time>
      </trkpt>
      <trkpt lat="44.19417" lon="5.28041">
        <ele>973.472412</ele>
        <time>2011-04-17T10:58:19+02:00</time>
      </trkpt>
      <trkpt lat="44.19412" lon="5.28031">
        <ele>972.991699</ele>
        <time>2011-04-17T10:58:21+02:00</time>
      </trkpt>
      <trkpt lat="44.19386" lon="5.27992">
        <ele>972.030273</ele>
        <time>2011-04-17T10:58:30+02:00</time>
      </trkpt>
      <trkpt lat="44.19351" lon="5.27942">
        <ele>975.875488</ele>
        <time>2011-04-17T10:58:42+02:00</time>
      </trkpt>
      <trkpt lat="44.19345" lon="5.27932">
        <ele>975.875488</ele>
        <time>2011-04-17T10:58:44+02:00</time>
      </trkpt>
      <trkpt lat="44.19341" lon="5.27921">
        <ele>975.394775</ele>
        <time>2011-04-17T10:58:46+02:00</time>
      </trkpt>
      <trkpt lat="44.19337" lon="5.27882">
        <ele>977.317627</ele>
        <time>2011-04-17T10:58:52+02:00</time>
      </trkpt>
      <trkpt lat="44.19344" lon="5.27832">
        <ele>979.23999</ele>
        <time>2011-04-17T10:59:00+02:00</time>
      </trkpt>
      <trkpt lat="44.19351" lon="5.27789">
        <ele>979.720703</ele>
        <time>2011-04-17T10:59:07+02:00</time>
      </trkpt>
      <trkpt lat="44.1936" lon="5.27752">
        <ele>981.643311</ele>
        <time>2011-04-17T10:59:13+02:00</time>
      </trkpt>
      <trkpt lat="44.19356" lon="5.2773">
        <ele>979.23999</ele>
        <time>2011-04-17T10:59:17+02:00</time>
      </trkpt>
      <trkpt lat="44.19344" lon="5.27699">
        <ele>977.317627</ele>
        <time>2011-04-17T10:59:23+02:00</time>
      </trkpt>
      <trkpt lat="44.19331" lon="5.27661">
        <ele>974.914307</ele>
        <time>2011-04-17T10:59:30+02:00</time>
      </trkpt>
      <trkpt lat="44.19319" lon="5.27605">
        <ele>972.991699</ele>
        <time>2011-04-17T10:59:39+02:00</time>
      </trkpt>
      <trkpt lat="44.19314" lon="5.27586">
        <ele>972.991699</ele>
        <time>2011-04-17T10:59:42+02:00</time>
      </trkpt>
      <trkpt lat="44.19312" lon="5.27566">
        <ele>974.433594</ele>
        <time>2011-04-17T10:59:45+02:00</time>
      </trkpt>
      <trkpt lat="44.19313" lon="5.2754">
        <ele>975.394775</ele>
        <time>2011-04-17T10:59:49+02:00</time>
      </trkpt>
      <trkpt lat="44.19313" lon="5.27479">
        <ele>974.914307</ele>
        <time>2011-04-17T10:59:58+02:00</time>
      </trkpt>
      <trkpt lat="44.19308" lon="5.27435">
        <ele>975.394775</ele>
        <time>2011-04-17T11:00:05+02:00</time>
      </trkpt>
      <trkpt lat="44.19309" lon="5.27408">
        <ele>975.875488</ele>
        <time>2011-04-17T11:00:09+02:00</time>
      </trkpt>
      <trkpt lat="44.19323" lon="5.27371">
        <ele>976.356201</ele>
        <time>2011-04-17T11:00:16+02:00</time>
      </trkpt>
      <trkpt lat="44.19344" lon="5.27332">
        <ele>978.759521</ele>
        <time>2011-04-17T11:00:24+02:00</time>
      </trkpt>
      <trkpt lat="44.19348" lon="5.27321">
        <ele>979.23999</ele>
        <time>2011-04-17T11:00:26+02:00</time>
      </trkpt>
      <trkpt lat="44.19351" lon="5.2729">
        <ele>979.720703</ele>
        <time>2011-04-17T11:00:32+02:00</time>
      </trkpt>
      <trkpt lat="44.19342" lon="5.27255">
        <ele>979.23999</ele>
        <time>2011-04-17T11:00:39+02:00</time>
      </trkpt>
      <trkpt lat="44.19332" lon="5.27229">
        <ele>978.759521</ele>
        <time>2011-04-17T11:00:45+02:00</time>
      </trkpt>
      <trkpt lat="44.19329" lon="5.27182">
        <ele>977.317627</ele>
        <time>2011-04-17T11:00:53+02:00</time>
      </trkpt>
      <trkpt lat="44.19332" lon="5.27142">
        <ele>976.356201</ele>
        <time>2011-04-17T11:00:59+02:00</time>
      </trkpt>
      <trkpt lat="44.19336" lon="5.27105">
        <ele>976.836914</ele>
        <time>2011-04-17T11:01:05+02:00</time>
      </trkpt>
      <trkpt lat="44.1934" lon="5.27087">
        <ele>976.836914</ele>
        <time>2011-04-17T11:01:08+02:00</time>
      </trkpt>
      <trkpt lat="44.19351" lon="5.27049">
        <ele>977.798096</ele>
        <time>2011-04-17T11:01:14+02:00</time>
      </trkpt>
      <trkpt lat="44.1937" lon="5.27012">
        <ele>977.317627</ele>
        <time>2011-04-17T11:01:20+02:00</time>
      </trkpt>
      <trkpt lat="44.19374" lon="5.27007">
        <ele>976.836914</ele>
        <time>2011-04-17T11:01:21+02:00</time>
      </trkpt>
      <trkpt lat="44.19382" lon="5.26972">
        <ele>975.875488</ele>
        <time>2011-04-17T11:01:26+02:00</time>
      </trkpt>
      <trkpt lat="44.19373" lon="5.26954">
        <ele>974.433594</ele>
        <time>2011-04-17T11:01:29+02:00</time>
      </trkpt>
      <trkpt lat="44.1937" lon="5.26948">
        <ele>973.952881</ele>
        <time>2011-04-17T11:01:30+02:00</time>
      </trkpt>
      <trkpt lat="44.19355" lon="5.26916">
        <ele>973.472412</ele>
        <time>2011-04-17T11:01:35+02:00</time>
      </trkpt>
      <trkpt lat="44.19349" lon="5.26896">
        <ele>972.991699</ele>
        <time>2011-04-17T11:01:38+02:00</time>
      </trkpt>
      <trkpt lat="44.19346" lon="5.26838">
        <ele>973.472412</ele>
        <time>2011-04-17T11:01:46+02:00</time>
      </trkpt>
      <trkpt lat="44.19338" lon="5.26774">
        <ele>972.030273</ele>
        <time>2011-04-17T11:01:55+02:00</time>
      </trkpt>
      <trkpt lat="44.19332" lon="5.26694">
        <ele>971.068848</ele>
        <time>2011-04-17T11:02:06+02:00</time>
      </trkpt>
      <trkpt lat="44.19326" lon="5.26633">
        <ele>973.472412</ele>
        <time>2011-04-17T11:02:15+02:00</time>
      </trkpt>
      <trkpt lat="44.19319" lon="5.26575">
        <ele>973.472412</ele>
        <time>2011-04-17T11:02:24+02:00</time>
      </trkpt>
      <trkpt lat="44.19317" lon="5.26555">
        <ele>973.952881</ele>
        <time>2011-04-17T11:02:27+02:00</time>
      </trkpt>
      <trkpt lat="44.19324" lon="5.26524">
        <ele>974.433594</ele>
        <time>2011-04-17T11:02:32+02:00</time>
      </trkpt>
      <trkpt lat="44.19341" lon="5.26506">
        <ele>975.394775</ele>
        <time>2011-04-17T11:02:36+02:00</time>
      </trkpt>
      <trkpt lat="44.19385" lon="5.26481">
        <ele>975.875488</ele>
        <time>2011-04-17T11:02:45+02:00</time>
      </trkpt>
      <trkpt lat="44.1942" lon="5.26459">
        <ele>977.317627</ele>
        <time>2011-04-17T11:02:53+02:00</time>
      </trkpt>
      <trkpt lat="44.19449" lon="5.2643">
        <ele>978.278809</ele>
        <time>2011-04-17T11:03:01+02:00</time>
      </trkpt>
      <trkpt lat="44.19463" lon="5.26417">
        <ele>978.278809</ele>
        <time>2011-04-17T11:03:05+02:00</time>
      </trkpt>
      <trkpt lat="44.19469" lon="5.26409">
        <ele>977.798096</ele>
        <time>2011-04-17T11:03:07+02:00</time>
      </trkpt>
      <trkpt lat="44.19501" lon="5.26378">
        <ele>977.798096</ele>
        <time>2011-04-17T11:03:16+02:00</time>
      </trkpt>
      <trkpt lat="44.19531" lon="5.26361">
        <ele>977.317627</ele>
        <time>2011-04-17T11:03:23+02:00</time>
      </trkpt>
      <trkpt lat="44.19551" lon="5.2635">
        <ele>975.394775</ele>
        <time>2011-04-17T11:03:28+02:00</time>
      </trkpt>
      <trkpt lat="44.19566" lon="5.26336">
        <ele>974.433594</ele>
        <time>2011-04-17T11:03:32+02:00</time>
      </trkpt>
      <trkpt lat="44.19585" lon="5.26325">
        <ele>974.914307</ele>
        <time>2011-04-17T11:03:37+02:00</time>
      </trkpt>
      <trkpt lat="44.19609" lon="5.26323">
        <ele>975.394775</ele>
        <time>2011-04-17T11:03:44+02:00</time>
      </trkpt>
      <trkpt lat="44.19628" lon="5.26317">
        <ele>975.875488</ele>
        <time>2011-04-17T11:03:50+02:00</time>
      </trkpt>
      <trkpt lat="44.19634" lon="5.2631">
        <ele>975.875488</ele>
        <time>2011-04-17T11:03:53+02:00</time>
      </trkpt>
      <trkpt lat="44.19636" lon="5.26284">
        <ele>976.356201</ele>
        <time>2011-04-17T11:03:59+02:00</time>
      </trkpt>
      <trkpt lat="44.19636" lon="5.26251">
        <ele>976.356201</ele>
        <time>2011-04-17T11:04:06+02:00</time>
      </trkpt>
      <trkpt lat="44.19636" lon="5.26209">
        <ele>976.836914</ele>
        <time>2011-04-17T11:04:15+02:00</time>
      </trkpt>
      <trkpt lat="44.19632" lon="5.26179">
        <ele>974.914307</ele>
        <time>2011-04-17T11:04:21+02:00</time>
      </trkpt>
      <trkpt lat="44.19629" lon="5.2614">
        <ele>975.394775</ele>
        <time>2011-04-17T11:04:28+02:00</time>
      </trkpt>
      <trkpt lat="44.19633" lon="5.26087">
        <ele>976.356201</ele>
        <time>2011-04-17T11:04:37+02:00</time>
      </trkpt>
      <trkpt lat="44.19635" lon="5.26074">
        <ele>976.836914</ele>
        <time>2011-04-17T11:04:39+02:00</time>
      </trkpt>
      <trkpt lat="44.19646" lon="5.26039">
        <ele>977.798096</ele>
        <time>2011-04-17T11:04:45+02:00</time>
      </trkpt>
      <trkpt lat="44.19651" lon="5.25999">
        <ele>978.278809</ele>
        <time>2011-04-17T11:04:51+02:00</time>
      </trkpt>
      <trkpt lat="44.19649" lon="5.25921">
        <ele>977.798096</ele>
        <time>2011-04-17T11:05:02+02:00</time>
      </trkpt>
      <trkpt lat="44.19649" lon="5.25873">
        <ele>977.798096</ele>
        <time>2011-04-17T11:05:09+02:00</time>
      </trkpt>
      <trkpt lat="44.19659" lon="5.25806">
        <ele>978.278809</ele>
        <time>2011-04-17T11:05:19+02:00</time>
      </trkpt>
      <trkpt lat="44.19664" lon="5.25774">
        <ele>978.278809</ele>
        <time>2011-04-17T11:05:24+02:00</time>
      </trkpt>
      <trkpt lat="44.19662" lon="5.25739">
        <ele>977.317627</ele>
        <time>2011-04-17T11:05:29+02:00</time>
      </trkpt>
      <trkpt lat="44.19653" lon="5.25705">
        <ele>977.317627</ele>
        <time>2011-04-17T11:05:34+02:00</time>
      </trkpt>
      <trkpt lat="44.19651" lon="5.25691">
        <ele>977.317627</ele>
        <time>2011-04-17T11:05:36+02:00</time>
      </trkpt>
      <trkpt lat="44.19655" lon="5.25639">
        <ele>977.798096</ele>
        <time>2011-04-17T11:05:43+02:00</time>
      </trkpt>
      <trkpt lat="44.1966" lon="5.25594">
        <ele>976.836914</ele>
        <time>2011-04-17T11:05:49+02:00</time>
      </trkpt>
      <trkpt lat="44.19669" lon="5.25536">
        <ele>977.317627</ele>
        <time>2011-04-17T11:05:57+02:00</time>
      </trkpt>
      <trkpt lat="44.19673" lon="5.25493">
        <ele>978.759521</ele>
        <time>2011-04-17T11:06:03+02:00</time>
      </trkpt>
      <trkpt lat="44.19673" lon="5.25437">
        <ele>975.875488</ele>
        <time>2011-04-17T11:06:11+02:00</time>
      </trkpt>
      <trkpt lat="44.19672" lon="5.25401">
        <ele>976.836914</ele>
        <time>2011-04-17T11:06:16+02:00</time>
      </trkpt>
      <trkpt lat="44.19666" lon="5.25376">
        <ele>975.875488</ele>
        <time>2011-04-17T11:06:20+02:00</time>
      </trkpt>
      <trkpt lat="44.19664" lon="5.25348">
        <ele>975.875488</ele>
        <time>2011-04-17T11:06:24+02:00</time>
      </trkpt>
      <trkpt lat="44.19672" lon="5.25297">
        <ele>975.394775</ele>
        <time>2011-04-17T11:06:31+02:00</time>
      </trkpt>
      <trkpt lat="44.19682" lon="5.25263">
        <ele>975.394775</ele>
        <time>2011-04-17T11:06:36+02:00</time>
      </trkpt>
      <trkpt lat="44.19682" lon="5.25229">
        <ele>974.914307</ele>
        <time>2011-04-17T11:06:41+02:00</time>
      </trkpt>
      <trkpt lat="44.1968" lon="5.25223">
        <ele>974.914307</ele>
        <time>2011-04-17T11:06:42+02:00</time>
      </trkpt>
      <trkpt lat="44.19675" lon="5.25208">
        <ele>974.433594</ele>
        <time>2011-04-17T11:06:45+02:00</time>
      </trkpt>
      <trkpt lat="44.19665" lon="5.25182">
        <ele>974.433594</ele>
        <time>2011-04-17T11:06:50+02:00</time>
      </trkpt>
      <trkpt lat="44.1966" lon="5.25167">
        <ele>974.433594</ele>
        <time>2011-04-17T11:06:53+02:00</time>
      </trkpt>
      <trkpt lat="44.19654" lon="5.2512">
        <ele>975.394775</ele>
        <time>2011-04-17T11:07:01+02:00</time>
      </trkpt>
      <trkpt lat="44.19647" lon="5.25085">
        <ele>975.394775</ele>
        <time>2011-04-17T11:07:07+02:00</time>
      </trkpt>
      <trkpt lat="44.1964" lon="5.25043">
        <ele>976.356201</ele>
        <time>2011-04-17T11:07:14+02:00</time>
      </trkpt>
      <trkpt lat="44.19638" lon="5.25032">
        <ele>977.317627</ele>
        <time>2011-04-17T11:07:16+02:00</time>
      </trkpt>
      <trkpt lat="44.19635" lon="5.25015">
        <ele>977.317627</ele>
        <time>2011-04-17T11:07:19+02:00</time>
      </trkpt>
      <trkpt lat="44.19634" lon="5.24998">
        <ele>977.317627</ele>
        <time>2011-04-17T11:07:22+02:00</time>
      </trkpt>
      <trkpt lat="44.19632" lon="5.24965">
        <ele>976.836914</ele>
        <time>2011-04-17T11:07:28+02:00</time>
      </trkpt>
      <trkpt lat="44.19633" lon="5.24954">
        <ele>976.836914</ele>
        <time>2011-04-17T11:07:30+02:00</time>
      </trkpt>
      <trkpt lat="44.19636" lon="5.24937">
        <ele>977.317627</ele>
        <time>2011-04-17T11:07:33+02:00</time>
      </trkpt>
      <trkpt lat="44.19644" lon="5.24893">
        <ele>979.720703</ele>
        <time>2011-04-17T11:07:42+02:00</time>
      </trkpt>
      <trkpt lat="44.19645" lon="5.2487">
        <ele>981.162842</ele>
        <time>2011-04-17T11:07:47+02:00</time>
      </trkpt>
      <trkpt lat="44.19656" lon="5.24839">
        <ele>983.565918</ele>
        <time>2011-04-17T11:07:54+02:00</time>
      </trkpt>
      <trkpt lat="44.1967" lon="5.24814">
        <ele>985.008057</ele>
        <time>2011-04-17T11:08:00+02:00</time>
      </trkpt>
      <trkpt lat="44.19687" lon="5.24789">
        <ele>987.411133</ele>
        <time>2011-04-17T11:08:07+02:00</time>
      </trkpt>
      <trkpt lat="44.19705" lon="5.24763">
        <ele>988.853516</ele>
        <time>2011-04-17T11:08:14+02:00</time>
      </trkpt>
      <trkpt lat="44.19716" lon="5.24734">
        <ele>988.372803</ele>
        <time>2011-04-17T11:08:21+02:00</time>
      </trkpt>
      <trkpt lat="44.19718" lon="5.24711">
        <ele>987.411133</ele>
        <time>2011-04-17T11:08:27+02:00</time>
      </trkpt>
      <trkpt lat="44.19714" lon="5.24689">
        <ele>982.124023</ele>
        <time>2011-04-17T11:08:33+02:00</time>
      </trkpt>
      <trkpt lat="44.1971" lon="5.2466">
        <ele>979.720703</ele>
        <time>2011-04-17T11:08:41+02:00</time>
      </trkpt>
      <trkpt lat="44.19709" lon="5.24639">
        <ele>980.682129</ele>
        <time>2011-04-17T11:08:47+02:00</time>
      </trkpt>
      <trkpt lat="44.19702" lon="5.24617">
        <ele>980.682129</ele>
        <time>2011-04-17T11:08:54+02:00</time>
      </trkpt>
      <trkpt lat="44.19691" lon="5.24593">
        <ele>981.643311</ele>
        <time>2011-04-17T11:09:02+02:00</time>
      </trkpt>
      <trkpt lat="44.1968" lon="5.24567">
        <ele>981.643311</ele>
        <time>2011-04-17T11:09:11+02:00</time>
      </trkpt>
      <trkpt lat="44.1967" lon="5.24539">
        <ele>982.124023</ele>
        <time>2011-04-17T11:09:19+02:00</time>
      </trkpt>
      <trkpt lat="44.19661" lon="5.24507">
        <ele>983.085205</ele>
        <time>2011-04-17T11:09:28+02:00</time>
      </trkpt>
      <trkpt lat="44.19651" lon="5.24482">
        <ele>983.085205</ele>
        <time>2011-04-17T11:09:36+02:00</time>
      </trkpt>
      <trkpt lat="44.1964" lon="5.24458">
        <ele>983.565918</ele>
        <time>2011-04-17T11:09:44+02:00</time>
      </trkpt>
      <trkpt lat="44.19628" lon="5.24423">
        <ele>984.046631</ele>
        <time>2011-04-17T11:09:54+02:00</time>
      </trkpt>
      <trkpt lat="44.19621" lon="5.24392">
        <ele>984.527344</ele>
        <time>2011-04-17T11:10:02+02:00</time>
      </trkpt>
      <trkpt lat="44.19613" lon="5.24362">
        <ele>986.449951</ele>
        <time>2011-04-17T11:10:10+02:00</time>
      </trkpt>
      <trkpt lat="44.19605" lon="5.24327">
        <ele>988.853516</ele>
        <time>2011-04-17T11:10:19+02:00</time>
      </trkpt>
      <trkpt lat="44.19599" lon="5.24278">
        <ele>991.737305</ele>
        <time>2011-04-17T11:10:31+02:00</time>
      </trkpt>
      <trkpt lat="44.19595" lon="5.24255">
        <ele>992.69873</ele>
        <time>2011-04-17T11:10:37+02:00</time>
      </trkpt>
      <trkpt lat="44.19593" lon="5.24246">
        <ele>992.69873</ele>
        <time>2011-04-17T11:10:41+02:00</time>
      </trkpt>
      <trkpt lat="44.19593" lon="5.24241">
        <ele>993.659912</ele>
        <time>2011-04-17T11:10:47+02:00</time>
      </trkpt>
      <trkpt lat="44.19595" lon="5.24232">
        <ele>993.179199</ele>
        <time>2011-04-17T11:10:54+02:00</time>
      </trkpt>
      <trkpt lat="44.19594" lon="5.24212">
        <ele>992.69873</ele>
        <time>2011-04-17T11:11:02+02:00</time>
      </trkpt>
      <trkpt lat="44.1959" lon="5.24195">
        <ele>990.29541</ele>
        <time>2011-04-17T11:11:09+02:00</time>
      </trkpt>
      <trkpt lat="44.19584" lon="5.24186">
        <ele>991.737305</ele>
        <time>2011-04-17T11:11:14+02:00</time>
      </trkpt>
      <trkpt lat="44.19582" lon="5.24178">
        <ele>991.737305</ele>
        <time>2011-04-17T11:11:21+02:00</time>
      </trkpt>
      <trkpt lat="44.19583" lon="5.24176">
        <ele>992.218018</ele>
        <time>2011-04-17T11:11:26+02:00</time>
      </trkpt>
      <trkpt lat="44.19583" lon="5.24172">
        <ele>991.737305</ele>
        <time>2011-04-17T11:11:32+02:00</time>
      </trkpt>
      <trkpt lat="44.19583" lon="5.24172">
        <ele>993.179199</ele>
        <time>2011-04-17T11:11:38+02:00</time>
      </trkpt>
      <trkpt lat="44.19582" lon="5.24174">
        <ele>994.140625</ele>
        <time>2011-04-17T11:11:44+02:00</time>
      </trkpt>
      <trkpt lat="44.19582" lon="5.24172">
        <ele>994.140625</ele>
        <time>2011-04-17T11:11:49+02:00</time>
      </trkpt>
      <trkpt lat="44.19581" lon="5.24169">
        <ele>993.659912</ele>
        <time>2011-04-17T11:11:54+02:00</time>
      </trkpt>
      <trkpt lat="44.1958" lon="5.24168">
        <ele>994.621094</ele>
        <time>2011-04-17T11:12:01+02:00</time>
      </trkpt>
      <trkpt lat="44.19583" lon="5.2417">
        <ele>995.58252</ele>
        <time>2011-04-17T11:12:10+02:00</time>
      </trkpt>
      <trkpt lat="44.19582" lon="5.24174">
        <ele>994.621094</ele>
        <time>2011-04-17T11:12:15+02:00</time>
      </trkpt>
      <trkpt lat="44.19582" lon="5.24174">
        <ele>995.101807</ele>
        <time>2011-04-17T11:12:23+02:00</time>
      </trkpt>
      <trkpt lat="44.19581" lon="5.24174">
        <ele>995.101807</ele>
        <time>2011-04-17T11:12:46+02:00</time>
      </trkpt>
      <trkpt lat="44.19581" lon="5.24173">
        <ele>995.101807</ele>
        <time>2011-04-17T11:12:53+02:00</time>
      </trkpt>
      <trkpt lat="44.19582" lon="5.24172">
        <ele>996.063232</ele>
        <time>2011-04-17T11:13:16+02:00</time>
      </trkpt>
      <trkpt lat="44.19582" lon="5.24172">
        <ele>995.58252</ele>
        <time>2011-04-17T11:13:24+02:00</time>
      </trkpt>
      <trkpt lat="44.19582" lon="5.24171">
        <ele>993.659912</ele>
        <time>2011-04-17T11:13:33+02:00</time>
      </trkpt>
      <trkpt lat="44.19583" lon="5.24171">
        <ele>991.737305</ele>
        <time>2011-04-17T11:13:45+02:00</time>
      </trkpt>
      <trkpt lat="44.19584" lon="5.24171">
        <ele>989.814697</ele>
        <time>2011-04-17T11:13:55+02:00</time>
      </trkpt>
      <trkpt lat="44.19585" lon="5.24169">
        <ele>987.411133</ele>
        <time>2011-04-17T11:14:24+02:00</time>
      </trkpt>
      <trkpt lat="44.19583" lon="5.24169">
        <ele>990.775879</ele>
        <time>2011-04-17T11:14:37+02:00</time>
      </trkpt>
      <trkpt lat="44.19583" lon="5.24168">
        <ele>991.256592</ele>
        <time>2011-04-17T11:14:47+02:00</time>
      </trkpt>
      <trkpt lat="44.19582" lon="5.24169">
        <ele>993.179199</ele>
        <time>2011-04-17T11:15:12+02:00</time>
      </trkpt>
      <trkpt lat="44.19582" lon="5.24169">
        <ele>992.218018</ele>
        <time>2011-04-17T11:15:26+02:00</time>
      </trkpt>
      <trkpt lat="44.19581" lon="5.2417">
        <ele>991.256592</ele>
        <time>2011-04-17T11:15:42+02:00</time>
      </trkpt>
      <trkpt lat="44.19581" lon="5.2417">
        <ele>990.775879</ele>
        <time>2011-04-17T11:16:03+02:00</time>
      </trkpt>
      <trkpt lat="44.19581" lon="5.2417">
        <ele>990.29541</ele>
        <time>2011-04-17T11:16:21+02:00</time>
      </trkpt>
      <trkpt lat="44.19581" lon="5.2417">
        <ele>989.814697</ele>
        <time>2011-04-17T11:16:41+02:00</time>
      </trkpt>
      <trkpt lat="44.19582" lon="5.2417">
        <ele>990.775879</ele>
        <time>2011-04-17T11:16:54+02:00</time>
      </trkpt>
      <trkpt lat="44.19583" lon="5.24171">
        <ele>990.775879</ele>
        <time>2011-04-17T11:17:52+02:00</time>
      </trkpt>
      <trkpt lat="44.19583" lon="5.2417">
        <ele>994.621094</ele>
        <time>2011-04-17T11:18:02+02:00</time>
      </trkpt>
      <trkpt lat="44.19583" lon="5.24168">
        <ele>996.543945</ele>
        <time>2011-04-17T11:18:13+02:00</time>
      </trkpt>
      <trkpt lat="44.19582" lon="5.24168">
        <ele>996.543945</ele>
        <time>2011-04-17T11:18:19+02:00</time>
      </trkpt>
      <trkpt lat="44.19582" lon="5.2417">
        <ele>997.505127</ele>
        <time>2011-04-17T11:18:25+02:00</time>
      </trkpt>
      <trkpt lat="44.19581" lon="5.2417">
        <ele>997.505127</ele>
        <time>2011-04-17T11:18:35+02:00</time>
      </trkpt>
      <trkpt lat="44.19581" lon="5.24172">
        <ele>997.505127</ele>
        <time>2011-04-17T11:18:41+02:00</time>
      </trkpt>
      <trkpt lat="44.19582" lon="5.24171">
        <ele>998.947021</ele>
        <time>2011-04-17T11:18:48+02:00</time>
      </trkpt>
      <trkpt lat="44.19585" lon="5.24173">
        <ele>999.427734</ele>
        <time>2011-04-17T11:18:53+02:00</time>
      </trkpt>
      <trkpt lat="44.19587" lon="5.24172">
        <ele>999.427734</ele>
        <time>2011-04-17T11:18:57+02:00</time>
      </trkpt>
      <trkpt lat="44.19587" lon="5.24173">
        <ele>999.427734</ele>
        <time>2011-04-17T11:19:01+02:00</time>
      </trkpt>
      <trkpt lat="44.19588" lon="5.24172">
        <ele>999.427734</ele>
        <time>2011-04-17T11:19:06+02:00</time>
      </trkpt>
      <trkpt lat="44.1959" lon="5.24171">
        <ele>1000.38916</ele>
        <time>2011-04-17T11:19:11+02:00</time>
      </trkpt>
      <trkpt lat="44.19591" lon="5.24175">
        <ele>1000.38916</ele>
        <time>2011-04-17T11:19:14+02:00</time>
      </trkpt>
      <trkpt lat="44.19592" lon="5.2418">
        <ele>1000.86963</ele>
        <time>2011-04-17T11:19:17+02:00</time>
      </trkpt>
      <trkpt lat="44.19596" lon="5.24186">
        <ele>1000.38916</ele>
        <time>2011-04-17T11:19:22+02:00</time>
      </trkpt>
      <trkpt lat="44.196" lon="5.24189">
        <ele>998.947021</ele>
        <time>2011-04-17T11:19:26+02:00</time>
      </trkpt>
      <trkpt lat="44.19606" lon="5.24194">
        <ele>997.98584</ele>
        <time>2011-04-17T11:19:30+02:00</time>
      </trkpt>
      <trkpt lat="44.19609" lon="5.24193">
        <ele>997.98584</ele>
        <time>2011-04-17T11:19:37+02:00</time>
      </trkpt>
      <trkpt lat="44.19613" lon="5.24193">
        <ele>998.947021</ele>
        <time>2011-04-17T11:19:42+02:00</time>
      </trkpt>
      <trkpt lat="44.19617" lon="5.24197">
        <ele>999.908447</ele>
        <time>2011-04-17T11:19:49+02:00</time>
      </trkpt>
      <trkpt lat="44.19626" lon="5.24199">
        <ele>999.427734</ele>
        <time>2011-04-17T11:19:54+02:00</time>
      </trkpt>
      <trkpt lat="44.19629" lon="5.24203">
        <ele>998.466309</ele>
        <time>2011-04-17T11:19:58+02:00</time>
      </trkpt>
      <trkpt lat="44.19632" lon="5.24204">
        <ele>997.98584</ele>
        <time>2011-04-17T11:19:59+02:00</time>
      </trkpt>
      <trkpt lat="44.19646" lon="5.24208">
        <ele>995.58252</ele>
        <time>2011-04-17T11:20:04+02:00</time>
      </trkpt>
      <trkpt lat="44.19653" lon="5.24213">
        <ele>993.179199</ele>
        <time>2011-04-17T11:20:07+02:00</time>
      </trkpt>
      <trkpt lat="44.19656" lon="5.24216">
        <ele>992.69873</ele>
        <time>2011-04-17T11:20:09+02:00</time>
      </trkpt>
      <trkpt lat="44.19667" lon="5.24218">
        <ele>991.737305</ele>
        <time>2011-04-17T11:20:14+02:00</time>
      </trkpt>
      <trkpt lat="44.19678" lon="5.24219">
        <ele>991.256592</ele>
        <time>2011-04-17T11:20:19+02:00</time>
      </trkpt>
      <trkpt lat="44.19687" lon="5.24219">
        <ele>991.737305</ele>
        <time>2011-04-17T11:20:23+02:00</time>
      </trkpt>
      <trkpt lat="44.19696" lon="5.24218">
        <ele>992.218018</ele>
        <time>2011-04-17T11:20:30+02:00</time>
      </trkpt>
      <trkpt lat="44.19701" lon="5.24216">
        <ele>990.29541</ele>
        <time>2011-04-17T11:20:34+02:00</time>
      </trkpt>
      <trkpt lat="44.19703" lon="5.24216">
        <ele>988.853516</ele>
        <time>2011-04-17T11:20:36+02:00</time>
      </trkpt>
      <trkpt lat="44.19707" lon="5.24217">
        <ele>987.411133</ele>
        <time>2011-04-17T11:20:40+02:00</time>
      </trkpt>
      <trkpt lat="44.19714" lon="5.24221">
        <ele>986.93042</ele>
        <time>2011-04-17T11:20:45+02:00</time>
      </trkpt>
      <trkpt lat="44.19716" lon="5.24221">
        <ele>986.449951</ele>
        <time>2011-04-17T11:20:46+02:00</time>
      </trkpt>
      <trkpt lat="44.19729" lon="5.2422">
        <ele>986.449951</ele>
        <time>2011-04-17T11:20:51+02:00</time>
      </trkpt>
      <trkpt lat="44.19741" lon="5.2422">
        <ele>988.853516</ele>
        <time>2011-04-17T11:20:55+02:00</time>
      </trkpt>
      <trkpt lat="44.19758" lon="5.24223">
        <ele>990.775879</ele>
        <time>2011-04-17T11:21:01+02:00</time>
      </trkpt>
      <trkpt lat="44.19767" lon="5.24227">
        <ele>992.69873</ele>
        <time>2011-04-17T11:21:05+02:00</time>
      </trkpt>
      <trkpt lat="44.19769" lon="5.24228">
        <ele>994.140625</ele>
        <time>2011-04-17T11:21:10+02:00</time>
      </trkpt>
      <trkpt lat="44.19772" lon="5.24232">
        <ele>994.140625</ele>
        <time>2011-04-17T11:21:13+02:00</time>
      </trkpt>
      <trkpt lat="44.19774" lon="5.24234">
        <ele>995.101807</ele>
        <time>2011-04-17T11:21:15+02:00</time>
      </trkpt>
      <trkpt lat="44.19783" lon="5.24234">
        <ele>992.69873</ele>
        <time>2011-04-17T11:21:21+02:00</time>
      </trkpt>
      <trkpt lat="44.19788" lon="5.24235">
        <ele>992.69873</ele>
        <time>2011-04-17T11:21:23+02:00</time>
      </trkpt>
      <trkpt lat="44.19804" lon="5.2424">
        <ele>990.29541</ele>
        <time>2011-04-17T11:21:29+02:00</time>
      </trkpt>
      <trkpt lat="44.19814" lon="5.24242">
        <ele>988.853516</ele>
        <time>2011-04-17T11:21:33+02:00</time>
      </trkpt>
      <trkpt lat="44.1982" lon="5.24243">
        <ele>988.853516</ele>
        <time>2011-04-17T11:21:36+02:00</time>
      </trkpt>
      <trkpt lat="44.19833" lon="5.24246">
        <ele>989.814697</ele>
        <time>2011-04-17T11:21:43+02:00</time>
      </trkpt>
      <trkpt lat="44.19848" lon="5.24243">
        <ele>985.969238</ele>
        <time>2011-04-17T11:21:49+02:00</time>
      </trkpt>
      <trkpt lat="44.19853" lon="5.24245">
        <ele>986.449951</ele>
        <time>2011-04-17T11:21:51+02:00</time>
      </trkpt>
      <trkpt lat="44.19865" lon="5.24244">
        <ele>985.969238</ele>
        <time>2011-04-17T11:21:56+02:00</time>
      </trkpt>
      <trkpt lat="44.19877" lon="5.24244">
        <ele>985.008057</ele>
        <time>2011-04-17T11:22:01+02:00</time>
      </trkpt>
      <trkpt lat="44.19891" lon="5.24249">
        <ele>985.488525</ele>
        <time>2011-04-17T11:22:07+02:00</time>
      </trkpt>
      <trkpt lat="44.19899" lon="5.24252">
        <ele>984.527344</ele>
        <time>2011-04-17T11:22:11+02:00</time>
      </trkpt>
      <trkpt lat="44.19911" lon="5.24256">
        <ele>983.565918</ele>
        <time>2011-04-17T11:22:16+02:00</time>
      </trkpt>
      <trkpt lat="44.19924" lon="5.24257">
        <ele>984.046631</ele>
        <time>2011-04-17T11:22:20+02:00</time>
      </trkpt>
      <trkpt lat="44.19935" lon="5.24257">
        <ele>983.085205</ele>
        <time>2011-04-17T11:22:25+02:00</time>
      </trkpt>
      <trkpt lat="44.19948" lon="5.24256">
        <ele>983.085205</ele>
        <time>2011-04-17T11:22:30+02:00</time>
      </trkpt>
      <trkpt lat="44.19953" lon="5.24255">
        <ele>984.046631</ele>
        <time>2011-04-17T11:22:32+02:00</time>
      </trkpt>
      <trkpt lat="44.19957" lon="5.24253">
        <ele>985.488525</ele>
        <time>2011-04-17T11:22:36+02:00</time>
      </trkpt>
      <trkpt lat="44.19959" lon="5.24253">
        <ele>985.488525</ele>
        <time>2011-04-17T11:22:38+02:00</time>
      </trkpt>
      <trkpt lat="44.19962" lon="5.24254">
        <ele>986.449951</ele>
        <time>2011-04-17T11:22:41+02:00</time>
      </trkpt>
      <trkpt lat="44.1997" lon="5.24252">
        <ele>987.891846</ele>
        <time>2011-04-17T11:22:48+02:00</time>
      </trkpt>
      <trkpt lat="44.19976" lon="5.2425">
        <ele>988.853516</ele>
        <time>2011-04-17T11:22:52+02:00</time>
      </trkpt>
      <trkpt lat="44.19978" lon="5.2425">
        <ele>988.853516</ele>
        <time>2011-04-17T11:22:53+02:00</time>
      </trkpt>
      <trkpt lat="44.19986" lon="5.24248">
        <ele>988.853516</ele>
        <time>2011-04-17T11:22:59+02:00</time>
      </trkpt>
      <trkpt lat="44.19994" lon="5.24248">
        <ele>991.737305</ele>
        <time>2011-04-17T11:23:05+02:00</time>
      </trkpt>
      <trkpt lat="44.19999" lon="5.2425">
        <ele>993.179199</ele>
        <time>2011-04-17T11:23:08+02:00</time>
      </trkpt>
      <trkpt lat="44.20002" lon="5.2425">
        <ele>993.659912</ele>
        <time>2011-04-17T11:23:10+02:00</time>
      </trkpt>
      <trkpt lat="44.20007" lon="5.24251">
        <ele>994.621094</ele>
        <time>2011-04-17T11:23:14+02:00</time>
      </trkpt>
      <trkpt lat="44.2001" lon="5.24251">
        <ele>995.58252</ele>
        <time>2011-04-17T11:23:16+02:00</time>
      </trkpt>
      <trkpt lat="44.20018" lon="5.24254">
        <ele>999.427734</ele>
        <time>2011-04-17T11:23:22+02:00</time>
      </trkpt>
      <trkpt lat="44.20026" lon="5.24258">
        <ele>1002.31152</ele>
        <time>2011-04-17T11:23:27+02:00</time>
      </trkpt>
      <trkpt lat="44.20034" lon="5.2426">
        <ele>1000.38916</ele>
        <time>2011-04-17T11:23:32+02:00</time>
      </trkpt>
      <trkpt lat="44.20037" lon="5.24261">
        <ele>1000.86963</ele>
        <time>2011-04-17T11:23:33+02:00</time>
      </trkpt>
      <trkpt lat="44.20044" lon="5.24265">
        <ele>1001.35034</ele>
        <time>2011-04-17T11:23:38+02:00</time>
      </trkpt>
      <trkpt lat="44.2005" lon="5.24272">
        <ele>1001.83105</ele>
        <time>2011-04-17T11:23:41+02:00</time>
      </trkpt>
      <trkpt lat="44.20063" lon="5.24277">
        <ele>999.908447</ele>
        <time>2011-04-17T11:23:46+02:00</time>
      </trkpt>
      <trkpt lat="44.20072" lon="5.24275">
        <ele>1001.83105</ele>
        <time>2011-04-17T11:23:51+02:00</time>
      </trkpt>
      <trkpt lat="44.20075" lon="5.24275">
        <ele>1001.83105</ele>
        <time>2011-04-17T11:23:53+02:00</time>
      </trkpt>
      <trkpt lat="44.20083" lon="5.24274">
        <ele>1003.75366</ele>
        <time>2011-04-17T11:23:59+02:00</time>
      </trkpt>
      <trkpt lat="44.20089" lon="5.24276">
        <ele>1004.71509</ele>
        <time>2011-04-17T11:24:05+02:00</time>
      </trkpt>
      <trkpt lat="44.20094" lon="5.24276">
        <ele>1007.59912</ele>
        <time>2011-04-17T11:24:10+02:00</time>
      </trkpt>
      <trkpt lat="44.20097" lon="5.24276">
        <ele>1005.67651</ele>
        <time>2011-04-17T11:24:15+02:00</time>
      </trkpt>
      <trkpt lat="44.20103" lon="5.24277">
        <ele>1005.67651</ele>
        <time>2011-04-17T11:24:20+02:00</time>
      </trkpt>
      <trkpt lat="44.2011" lon="5.24276">
        <ele>1006.6377</ele>
        <time>2011-04-17T11:24:26+02:00</time>
      </trkpt>
      <trkpt lat="44.20114" lon="5.24277">
        <ele>1006.6377</ele>
        <time>2011-04-17T11:24:31+02:00</time>
      </trkpt>
      <trkpt lat="44.20119" lon="5.24278">
        <ele>1010.48291</ele>
        <time>2011-04-17T11:24:38+02:00</time>
      </trkpt>
      <trkpt lat="44.20125" lon="5.2428">
        <ele>1009.52173</ele>
        <time>2011-04-17T11:24:44+02:00</time>
      </trkpt>
      <trkpt lat="44.20129" lon="5.24277">
        <ele>1009.04102</ele>
        <time>2011-04-17T11:24:50+02:00</time>
      </trkpt>
      <trkpt lat="44.20132" lon="5.24278">
        <ele>1010.96362</ele>
        <time>2011-04-17T11:24:56+02:00</time>
      </trkpt>
      <trkpt lat="44.20135" lon="5.24279">
        <ele>1010.96362</ele>
        <time>2011-04-17T11:25:01+02:00</time>
      </trkpt>
      <trkpt lat="44.20139" lon="5.2428">
        <ele>1010.96362</ele>
        <time>2011-04-17T11:25:06+02:00</time>
      </trkpt>
      <trkpt lat="44.20138" lon="5.24277">
        <ele>1010.96362</ele>
        <time>2011-04-17T11:25:13+02:00</time>
      </trkpt>
      <trkpt lat="44.20137" lon="5.24273">
        <ele>1012.40552</ele>
        <time>2011-04-17T11:25:19+02:00</time>
      </trkpt>
      <trkpt lat="44.20137" lon="5.24269">
        <ele>1013.36694</ele>
        <time>2011-04-17T11:25:24+02:00</time>
      </trkpt>
      <trkpt lat="44.20134" lon="5.24267">
        <ele>1015.28955</ele>
        <time>2011-04-17T11:25:29+02:00</time>
      </trkpt>
      <trkpt lat="44.20131" lon="5.24267">
        <ele>1016.25073</ele>
        <time>2011-04-17T11:25:33+02:00</time>
      </trkpt>
      <trkpt lat="44.20127" lon="5.24261">
        <ele>1019.13477</ele>
        <time>2011-04-17T11:25:40+02:00</time>
      </trkpt>
      <trkpt lat="44.20126" lon="5.24257">
        <ele>1019.61548</ele>
        <time>2011-04-17T11:25:45+02:00</time>
      </trkpt>
      <trkpt lat="44.20123" lon="5.24252">
        <ele>1022.49951</ele>
        <time>2011-04-17T11:25:51+02:00</time>
      </trkpt>
      <trkpt lat="44.20119" lon="5.24246">
        <ele>1023.94141</ele>
        <time>2011-04-17T11:25:58+02:00</time>
      </trkpt>
      <trkpt lat="44.20116" lon="5.2424">
        <ele>1024.90283</ele>
        <time>2011-04-17T11:26:04+02:00</time>
      </trkpt>
      <trkpt lat="44.20114" lon="5.24235">
        <ele>1025.3833</ele>
        <time>2011-04-17T11:26:09+02:00</time>
      </trkpt>
      <trkpt lat="44.20111" lon="5.24231">
        <ele>1026.34473</ele>
        <time>2011-04-17T11:26:14+02:00</time>
      </trkpt>
      <trkpt lat="44.20107" lon="5.24227">
        <ele>1027.78662</ele>
        <time>2011-04-17T11:26:22+02:00</time>
      </trkpt>
      <trkpt lat="44.20104" lon="5.24224">
        <ele>1028.74805</ele>
        <time>2011-04-17T11:26:27+02:00</time>
      </trkpt>
      <trkpt lat="44.20102" lon="5.24219">
        <ele>1030.18994</ele>
        <time>2011-04-17T11:26:34+02:00</time>
      </trkpt>
      <trkpt lat="44.20101" lon="5.24217">
        <ele>1032.11255</ele>
        <time>2011-04-17T11:26:38+02:00</time>
      </trkpt>
      <trkpt lat="44.20098" lon="5.24212">
        <ele>1033.07373</ele>
        <time>2011-04-17T11:26:44+02:00</time>
      </trkpt>
      <trkpt lat="44.20096" lon="5.24209">
        <ele>1033.07373</ele>
        <time>2011-04-17T11:26:49+02:00</time>
      </trkpt>
      <trkpt lat="44.20095" lon="5.24207">
        <ele>1033.55444</ele>
        <time>2011-04-17T11:26:54+02:00</time>
      </trkpt>
      <trkpt lat="44.20093" lon="5.24202">
        <ele>1033.55444</ele>
        <time>2011-04-17T11:27:01+02:00</time>
      </trkpt>
      <trkpt lat="44.2009" lon="5.24197">
        <ele>1035.95776</ele>
        <time>2011-04-17T11:27:08+02:00</time>
      </trkpt>
      <trkpt lat="44.20087" lon="5.24196">
        <ele>1038.36133</ele>
        <time>2011-04-17T11:27:14+02:00</time>
      </trkpt>
      <trkpt lat="44.20086" lon="5.24194">
        <ele>1038.36133</ele>
        <time>2011-04-17T11:27:18+02:00</time>
      </trkpt>
      <trkpt lat="44.20083" lon="5.24195">
        <ele>1037.88062</ele>
        <time>2011-04-17T11:27:24+02:00</time>
      </trkpt>
      <trkpt lat="44.2008" lon="5.24193">
        <ele>1038.84204</ele>
        <time>2011-04-17T11:27:29+02:00</time>
      </trkpt>
      <trkpt lat="44.20078" lon="5.2419">
        <ele>1040.28394</ele>
        <time>2011-04-17T11:27:34+02:00</time>
      </trkpt>
      <trkpt lat="44.20075" lon="5.24188">
        <ele>1042.68726</ele>
        <time>2011-04-17T11:27:40+02:00</time>
      </trkpt>
      <trkpt lat="44.20072" lon="5.24187">
        <ele>1044.12915</ele>
        <time>2011-04-17T11:27:45+02:00</time>
      </trkpt>
      <trkpt lat="44.2007" lon="5.24184">
        <ele>1045.57104</ele>
        <time>2011-04-17T11:27:50+02:00</time>
      </trkpt>
      <trkpt lat="44.20068" lon="5.24182">
        <ele>1046.05176</ele>
        <time>2011-04-17T11:27:55+02:00</time>
      </trkpt>
      <trkpt lat="44.20067" lon="5.24179">
        <ele>1046.53247</ele>
        <time>2011-04-17T11:27:59+02:00</time>
      </trkpt>
      <trkpt lat="44.20064" lon="5.24176">
        <ele>1047.49365</ele>
        <time>2011-04-17T11:28:05+02:00</time>
      </trkpt>
      <trkpt lat="44.20063" lon="5.24173">
        <ele>1047.97437</ele>
        <time>2011-04-17T11:28:10+02:00</time>
      </trkpt>
      <trkpt lat="44.20061" lon="5.2417">
        <ele>1048.93555</ele>
        <time>2011-04-17T11:28:16+02:00</time>
      </trkpt>
      <trkpt lat="44.20058" lon="5.24167">
        <ele>1050.85815</ele>
        <time>2011-04-17T11:28:20+02:00</time>
      </trkpt>
      <trkpt lat="44.20055" lon="5.24163">
        <ele>1052.30029</ele>
        <time>2011-04-17T11:28:26+02:00</time>
      </trkpt>
      <trkpt lat="44.20053" lon="5.24161">
        <ele>1054.22314</ele>
        <time>2011-04-17T11:28:31+02:00</time>
      </trkpt>
      <trkpt lat="44.2005" lon="5.24158">
        <ele>1055.66504</ele>
        <time>2011-04-17T11:28:37+02:00</time>
      </trkpt>
      <trkpt lat="44.20049" lon="5.24156">
        <ele>1057.10693</ele>
        <time>2011-04-17T11:28:41+02:00</time>
      </trkpt>
      <trkpt lat="44.20047" lon="5.24154">
        <ele>1059.99072</ele>
        <time>2011-04-17T11:28:46+02:00</time>
      </trkpt>
      <trkpt lat="44.20044" lon="5.2415">
        <ele>1061.91357</ele>
        <time>2011-04-17T11:28:53+02:00</time>
      </trkpt>
      <trkpt lat="44.20042" lon="5.24148">
        <ele>1062.87476</ele>
        <time>2011-04-17T11:28:57+02:00</time>
      </trkpt>
      <trkpt lat="44.20039" lon="5.24145">
        <ele>1065.27808</ele>
        <time>2011-04-17T11:29:03+02:00</time>
      </trkpt>
      <trkpt lat="44.20035" lon="5.24144">
        <ele>1067.20068</ele>
        <time>2011-04-17T11:29:09+02:00</time>
      </trkpt>
      <trkpt lat="44.20032" lon="5.2414">
        <ele>1068.16211</ele>
        <time>2011-04-17T11:29:15+02:00</time>
      </trkpt>
      <trkpt lat="44.20029" lon="5.24137">
        <ele>1068.16211</ele>
        <time>2011-04-17T11:29:19+02:00</time>
      </trkpt>
      <trkpt lat="44.20026" lon="5.24133">
        <ele>1069.60425</ele>
        <time>2011-04-17T11:29:25+02:00</time>
      </trkpt>
      <trkpt lat="44.20021" lon="5.24129">
        <ele>1070.56543</ele>
        <time>2011-04-17T11:29:31+02:00</time>
      </trkpt>
      <trkpt lat="44.20018" lon="5.24126">
        <ele>1072.00732</ele>
        <time>2011-04-17T11:29:37+02:00</time>
      </trkpt>
      <trkpt lat="44.20015" lon="5.24123">
        <ele>1073.92993</ele>
        <time>2011-04-17T11:29:42+02:00</time>
      </trkpt>
      <trkpt lat="44.20011" lon="5.24121">
        <ele>1075.85254</ele>
        <time>2011-04-17T11:29:47+02:00</time>
      </trkpt>
      <trkpt lat="44.20008" lon="5.24119">
        <ele>1076.81396</ele>
        <time>2011-04-17T11:29:52+02:00</time>
      </trkpt>
      <trkpt lat="44.20005" lon="5.24117">
        <ele>1078.25586</ele>
        <time>2011-04-17T11:29:57+02:00</time>
      </trkpt>
      <trkpt lat="44.20002" lon="5.24116">
        <ele>1080.17847</ele>
        <time>2011-04-17T11:30:03+02:00</time>
      </trkpt>
      <trkpt lat="44.19997" lon="5.24116">
        <ele>1080.65918</ele>
        <time>2011-04-17T11:30:10+02:00</time>
      </trkpt>
      <trkpt lat="44.19994" lon="5.24113">
        <ele>1082.10107</ele>
        <time>2011-04-17T11:30:17+02:00</time>
      </trkpt>
      <trkpt lat="44.1999" lon="5.2411">
        <ele>1083.54297</ele>
        <time>2011-04-17T11:30:25+02:00</time>
      </trkpt>
      <trkpt lat="44.19986" lon="5.2411">
        <ele>1084.02393</ele>
        <time>2011-04-17T11:30:29+02:00</time>
      </trkpt>
      <trkpt lat="44.19983" lon="5.24107">
        <ele>1084.50464</ele>
        <time>2011-04-17T11:30:33+02:00</time>
      </trkpt>
      <trkpt lat="44.19982" lon="5.24103">
        <ele>1085.46582</ele>
        <time>2011-04-17T11:30:39+02:00</time>
      </trkpt>
      <trkpt lat="44.19979" lon="5.241">
        <ele>1086.42725</ele>
        <time>2011-04-17T11:30:46+02:00</time>
      </trkpt>
      <trkpt lat="44.19975" lon="5.24098">
        <ele>1085.94653</ele>
        <time>2011-04-17T11:30:52+02:00</time>
      </trkpt>
      <trkpt lat="44.19971" lon="5.24097">
        <ele>1085.94653</ele>
        <time>2011-04-17T11:30:57+02:00</time>
      </trkpt>
      <trkpt lat="44.19969" lon="5.24092">
        <ele>1086.90771</ele>
        <time>2011-04-17T11:31:04+02:00</time>
      </trkpt>
      <trkpt lat="44.19966" lon="5.24089">
        <ele>1087.86914</ele>
        <time>2011-04-17T11:31:09+02:00</time>
      </trkpt>
      <trkpt lat="44.19962" lon="5.24088">
        <ele>1089.31104</ele>
        <time>2011-04-17T11:31:14+02:00</time>
      </trkpt>
      <trkpt lat="44.19958" lon="5.24086">
        <ele>1091.23364</ele>
        <time>2011-04-17T11:31:19+02:00</time>
      </trkpt>
      <trkpt lat="44.19954" lon="5.24084">
        <ele>1093.15625</ele>
        <time>2011-04-17T11:31:26+02:00</time>
      </trkpt>
      <trkpt lat="44.19952" lon="5.24081">
        <ele>1094.59814</ele>
        <time>2011-04-17T11:31:32+02:00</time>
      </trkpt>
      <trkpt lat="44.1995" lon="5.24081">
        <ele>1095.55957</ele>
        <time>2011-04-17T11:31:39+02:00</time>
      </trkpt>
      <trkpt lat="44.19947" lon="5.24079">
        <ele>1097.00146</ele>
        <time>2011-04-17T11:31:44+02:00</time>
      </trkpt>
      <trkpt lat="44.19941" lon="5.24077">
        <ele>1097.48218</ele>
        <time>2011-04-17T11:31:51+02:00</time>
      </trkpt>
      <trkpt lat="44.19938" lon="5.24072">
        <ele>1098.44336</ele>
        <time>2011-04-17T11:31:57+02:00</time>
      </trkpt>
      <trkpt lat="44.19934" lon="5.24066">
        <ele>1099.8855</ele>
        <time>2011-04-17T11:32:03+02:00</time>
      </trkpt>
      <trkpt lat="44.19928" lon="5.24061">
        <ele>1100.36646</ele>
        <time>2011-04-17T11:32:10+02:00</time>
      </trkpt>
      <trkpt lat="44.19925" lon="5.24061">
        <ele>1101.32764</ele>
        <time>2011-04-17T11:32:15+02:00</time>
      </trkpt>
      <trkpt lat="44.19921" lon="5.24063">
        <ele>1104.21167</ele>
        <time>2011-04-17T11:32:21+02:00</time>
      </trkpt>
      <trkpt lat="44.19917" lon="5.24062">
        <ele>1104.21167</ele>
        <time>2011-04-17T11:32:26+02:00</time>
      </trkpt>
      <trkpt lat="44.19913" lon="5.2406">
        <ele>1106.13403</ele>
        <time>2011-04-17T11:32:31+02:00</time>
      </trkpt>
      <trkpt lat="44.1991" lon="5.24058">
        <ele>1108.53735</ele>
        <time>2011-04-17T11:32:35+02:00</time>
      </trkpt>
      <trkpt lat="44.19908" lon="5.24056">
        <ele>1109.49878</ele>
        <time>2011-04-17T11:32:39+02:00</time>
      </trkpt>
      <trkpt lat="44.19903" lon="5.24055">
        <ele>1111.42139</ele>
        <time>2011-04-17T11:32:45+02:00</time>
      </trkpt>
      <trkpt lat="44.199" lon="5.24051">
        <ele>1112.38257</ele>
        <time>2011-04-17T11:32:50+02:00</time>
      </trkpt>
      <trkpt lat="44.19897" lon="5.24049">
        <ele>1114.30518</ele>
        <time>2011-04-17T11:32:55+02:00</time>
      </trkpt>
      <trkpt lat="44.19893" lon="5.24046">
        <ele>1114.78589</ele>
        <time>2011-04-17T11:33:01+02:00</time>
      </trkpt>
      <trkpt lat="44.19888" lon="5.24047">
        <ele>1115.2666</ele>
        <time>2011-04-17T11:33:07+02:00</time>
      </trkpt>
      <trkpt lat="44.19885" lon="5.24045">
        <ele>1116.70874</ele>
        <time>2011-04-17T11:33:12+02:00</time>
      </trkpt>
      <trkpt lat="44.19882" lon="5.24041">
        <ele>1118.15063</ele>
        <time>2011-04-17T11:33:18+02:00</time>
      </trkpt>
      <trkpt lat="44.19877" lon="5.24038">
        <ele>1120.07324</ele>
        <time>2011-04-17T11:33:24+02:00</time>
      </trkpt>
      <trkpt lat="44.19873" lon="5.24036">
        <ele>1122.95728</ele>
        <time>2011-04-17T11:33:30+02:00</time>
      </trkpt>
      <trkpt lat="44.19869" lon="5.24035">
        <ele>1124.39917</ele>
        <time>2011-04-17T11:33:35+02:00</time>
      </trkpt>
      <trkpt lat="44.19865" lon="5.24029">
        <ele>1124.87988</ele>
        <time>2011-04-17T11:33:41+02:00</time>
      </trkpt>
      <trkpt lat="44.19862" lon="5.24026">
        <ele>1125.36035</ele>
        <time>2011-04-17T11:33:45+02:00</time>
      </trkpt>
      <trkpt lat="44.19858" lon="5.24022">
        <ele>1125.84106</ele>
        <time>2011-04-17T11:33:51+02:00</time>
      </trkpt>
      <trkpt lat="44.19856" lon="5.24018">
        <ele>1127.2832</ele>
        <time>2011-04-17T11:33:57+02:00</time>
      </trkpt>
      <trkpt lat="44.19851" lon="5.24019">
        <ele>1127.2832</ele>
        <time>2011-04-17T11:34:02+02:00</time>
      </trkpt>
      <trkpt lat="44.1985" lon="5.24015">
        <ele>1128.24438</ele>
        <time>2011-04-17T11:34:07+02:00</time>
      </trkpt>
      <trkpt lat="44.19848" lon="5.24016">
        <ele>1129.20557</ele>
        <time>2011-04-17T11:34:12+02:00</time>
      </trkpt>
      <trkpt lat="44.19844" lon="5.24017">
        <ele>1130.64771</ele>
        <time>2011-04-17T11:34:18+02:00</time>
      </trkpt>
      <trkpt lat="44.19841" lon="5.24011">
        <ele>1131.60889</ele>
        <time>2011-04-17T11:34:24+02:00</time>
      </trkpt>
      <trkpt lat="44.19839" lon="5.24007">
        <ele>1132.57056</ele>
        <time>2011-04-17T11:34:29+02:00</time>
      </trkpt>
      <trkpt lat="44.19836" lon="5.24007">
        <ele>1132.57056</ele>
        <time>2011-04-17T11:34:33+02:00</time>
      </trkpt>
      <trkpt lat="44.19831" lon="5.24005">
        <ele>1135.93506</ele>
        <time>2011-04-17T11:34:40+02:00</time>
      </trkpt>
      <trkpt lat="44.1983" lon="5.24005">
        <ele>1139.29956</ele>
        <time>2011-04-17T11:34:44+02:00</time>
      </trkpt>
      <trkpt lat="44.19827" lon="5.24002">
        <ele>1141.70288</ele>
        <time>2011-04-17T11:34:49+02:00</time>
      </trkpt>
      <trkpt lat="44.19824" lon="5.23999">
        <ele>1141.70288</ele>
        <time>2011-04-17T11:34:53+02:00</time>
      </trkpt>
      <trkpt lat="44.19822" lon="5.23998">
        <ele>1141.70288</ele>
        <time>2011-04-17T11:34:57+02:00</time>
      </trkpt>
      <trkpt lat="44.1982" lon="5.23997">
        <ele>1142.18359</ele>
        <time>2011-04-17T11:35:02+02:00</time>
      </trkpt>
      <trkpt lat="44.19816" lon="5.23992">
        <ele>1143.14478</ele>
        <time>2011-04-17T11:35:10+02:00</time>
      </trkpt>
      <trkpt lat="44.19814" lon="5.23989">
        <ele>1144.58667</ele>
        <time>2011-04-17T11:35:15+02:00</time>
      </trkpt>
      <trkpt lat="44.1981" lon="5.23987">
        <ele>1144.58667</ele>
        <time>2011-04-17T11:35:23+02:00</time>
      </trkpt>
      <trkpt lat="44.19809" lon="5.23987">
        <ele>1145.06738</ele>
        <time>2011-04-17T11:35:31+02:00</time>
      </trkpt>
      <trkpt lat="44.19806" lon="5.23986">
        <ele>1147.4707</ele>
        <time>2011-04-17T11:35:36+02:00</time>
      </trkpt>
      <trkpt lat="44.19804" lon="5.23985">
        <ele>1148.43213</ele>
        <time>2011-04-17T11:35:41+02:00</time>
      </trkpt>
      <trkpt lat="44.19799" lon="5.23984">
        <ele>1150.35498</ele>
        <time>2011-04-17T11:35:47+02:00</time>
      </trkpt>
      <trkpt lat="44.19795" lon="5.23983">
        <ele>1151.79688</ele>
        <time>2011-04-17T11:35:52+02:00</time>
      </trkpt>
      <trkpt lat="44.19791" lon="5.2398">
        <ele>1152.27734</ele>
        <time>2011-04-17T11:35:58+02:00</time>
      </trkpt>
      <trkpt lat="44.19786" lon="5.23979">
        <ele>1153.23877</ele>
        <time>2011-04-17T11:36:03+02:00</time>
      </trkpt>
      <trkpt lat="44.19782" lon="5.23978">
        <ele>1153.71948</ele>
        <time>2011-04-17T11:36:08+02:00</time>
      </trkpt>
      <trkpt lat="44.1978" lon="5.23974">
        <ele>1155.16138</ele>
        <time>2011-04-17T11:36:14+02:00</time>
      </trkpt>
      <trkpt lat="44.19776" lon="5.23968">
        <ele>1157.08398</ele>
        <time>2011-04-17T11:36:21+02:00</time>
      </trkpt>
      <trkpt lat="44.19772" lon="5.23963">
        <ele>1158.04541</ele>
        <time>2011-04-17T11:36:25+02:00</time>
      </trkpt>
      <trkpt lat="44.19771" lon="5.23962">
        <ele>1158.04541</ele>
        <time>2011-04-17T11:36:26+02:00</time>
      </trkpt>
      <trkpt lat="44.19766" lon="5.23953">
        <ele>1159.00659</ele>
        <time>2011-04-17T11:36:32+02:00</time>
      </trkpt>
      <trkpt lat="44.19764" lon="5.23948">
        <ele>1158.52588</ele>
        <time>2011-04-17T11:36:35+02:00</time>
      </trkpt>
      <trkpt lat="44.19764" lon="5.23944">
        <ele>1158.04541</ele>
        <time>2011-04-17T11:36:38+02:00</time>
      </trkpt>
      <trkpt lat="44.19762" lon="5.23941">
        <ele>1157.5647</ele>
        <time>2011-04-17T11:36:41+02:00</time>
      </trkpt>
      <trkpt lat="44.19762" lon="5.23931">
        <ele>1157.08398</ele>
        <time>2011-04-17T11:36:47+02:00</time>
      </trkpt>
      <trkpt lat="44.19761" lon="5.23924">
        <ele>1156.12256</ele>
        <time>2011-04-17T11:36:51+02:00</time>
      </trkpt>
      <trkpt lat="44.19761" lon="5.23923">
        <ele>1156.12256</ele>
        <time>2011-04-17T11:36:52+02:00</time>
      </trkpt>
      <trkpt lat="44.19761" lon="5.23916">
        <ele>1154.68066</ele>
        <time>2011-04-17T11:36:59+02:00</time>
      </trkpt>
      <trkpt lat="44.19762" lon="5.23909">
        <ele>1154.68066</ele>
        <time>2011-04-17T11:37:04+02:00</time>
      </trkpt>
      <trkpt lat="44.19761" lon="5.23902">
        <ele>1154.68066</ele>
        <time>2011-04-17T11:37:09+02:00</time>
      </trkpt>
      <trkpt lat="44.19761" lon="5.23901">
        <ele>1155.16138</ele>
        <time>2011-04-17T11:37:10+02:00</time>
      </trkpt>
      <trkpt lat="44.19758" lon="5.23885">
        <ele>1158.04541</ele>
        <time>2011-04-17T11:37:19+02:00</time>
      </trkpt>
      <trkpt lat="44.19755" lon="5.23877">
        <ele>1158.04541</ele>
        <time>2011-04-17T11:37:27+02:00</time>
      </trkpt>
      <trkpt lat="44.19751" lon="5.2387">
        <ele>1158.04541</ele>
        <time>2011-04-17T11:37:32+02:00</time>
      </trkpt>
      <trkpt lat="44.19748" lon="5.23865">
        <ele>1159.00659</ele>
        <time>2011-04-17T11:37:35+02:00</time>
      </trkpt>
      <trkpt lat="44.19748" lon="5.23854">
        <ele>1159.4873</ele>
        <time>2011-04-17T11:37:41+02:00</time>
      </trkpt>
      <trkpt lat="44.19746" lon="5.23848">
        <ele>1159.96777</ele>
        <time>2011-04-17T11:37:44+02:00</time>
      </trkpt>
      <trkpt lat="44.19744" lon="5.23835">
        <ele>1159.4873</ele>
        <time>2011-04-17T11:37:49+02:00</time>
      </trkpt>
      <trkpt lat="44.19742" lon="5.2383">
        <ele>1159.4873</ele>
        <time>2011-04-17T11:37:52+02:00</time>
      </trkpt>
      <trkpt lat="44.19743" lon="5.23818">
        <ele>1161.40991</ele>
        <time>2011-04-17T11:37:58+02:00</time>
      </trkpt>
      <trkpt lat="44.19743" lon="5.23807">
        <ele>1161.40991</ele>
        <time>2011-04-17T11:38:04+02:00</time>
      </trkpt>
      <trkpt lat="44.19743" lon="5.23804">
        <ele>1161.40991</ele>
        <time>2011-04-17T11:38:06+02:00</time>
      </trkpt>
      <trkpt lat="44.19744" lon="5.238">
        <ele>1161.40991</ele>
        <time>2011-04-17T11:38:09+02:00</time>
      </trkpt>
      <trkpt lat="44.19742" lon="5.23796">
        <ele>1161.89062</ele>
        <time>2011-04-17T11:38:13+02:00</time>
      </trkpt>
      <trkpt lat="44.19741" lon="5.2379">
        <ele>1160.9292</ele>
        <time>2011-04-17T11:38:16+02:00</time>
      </trkpt>
      <trkpt lat="44.19743" lon="5.23784">
        <ele>1159.4873</ele>
        <time>2011-04-17T11:38:20+02:00</time>
      </trkpt>
      <trkpt lat="44.19747" lon="5.23782">
        <ele>1159.00659</ele>
        <time>2011-04-17T11:38:24+02:00</time>
      </trkpt>
      <trkpt lat="44.19747" lon="5.23785">
        <ele>1158.04541</ele>
        <time>2011-04-17T11:38:32+02:00</time>
      </trkpt>
      <trkpt lat="44.19744" lon="5.23782">
        <ele>1158.04541</ele>
        <time>2011-04-17T11:38:36+02:00</time>
      </trkpt>
      <trkpt lat="44.19741" lon="5.23769">
        <ele>1157.08398</ele>
        <time>2011-04-17T11:38:41+02:00</time>
      </trkpt>
      <trkpt lat="44.19737" lon="5.23763">
        <ele>1155.64209</ele>
        <time>2011-04-17T11:38:46+02:00</time>
      </trkpt>
      <trkpt lat="44.19735" lon="5.23756">
        <ele>1153.71948</ele>
        <time>2011-04-17T11:38:50+02:00</time>
      </trkpt>
      <trkpt lat="44.19735" lon="5.23749">
        <ele>1152.27734</ele>
        <time>2011-04-17T11:38:55+02:00</time>
      </trkpt>
      <trkpt lat="44.19737" lon="5.23744">
        <ele>1151.31616</ele>
        <time>2011-04-17T11:38:59+02:00</time>
      </trkpt>
      <trkpt lat="44.19738" lon="5.23741">
        <ele>1149.39355</ele>
        <time>2011-04-17T11:39:02+02:00</time>
      </trkpt>
      <trkpt lat="44.1974" lon="5.23736">
        <ele>1146.50952</ele>
        <time>2011-04-17T11:39:06+02:00</time>
      </trkpt>
      <trkpt lat="44.19738" lon="5.23728">
        <ele>1144.1062</ele>
        <time>2011-04-17T11:39:10+02:00</time>
      </trkpt>
      <trkpt lat="44.19741" lon="5.23721">
        <ele>1141.22217</ele>
        <time>2011-04-17T11:39:14+02:00</time>
      </trkpt>
      <trkpt lat="44.19742" lon="5.23713">
        <ele>1139.78027</ele>
        <time>2011-04-17T11:39:17+02:00</time>
      </trkpt>
      <trkpt lat="44.1974" lon="5.23703">
        <ele>1136.89624</ele>
        <time>2011-04-17T11:39:21+02:00</time>
      </trkpt>
      <trkpt lat="44.19741" lon="5.23697">
        <ele>1135.45435</ele>
        <time>2011-04-17T11:39:23+02:00</time>
      </trkpt>
      <trkpt lat="44.19737" lon="5.23686">
        <ele>1134.97388</ele>
        <time>2011-04-17T11:39:29+02:00</time>
      </trkpt>
      <trkpt lat="44.19737" lon="5.23679">
        <ele>1134.49316</ele>
        <time>2011-04-17T11:39:34+02:00</time>
      </trkpt>
      <trkpt lat="44.19737" lon="5.23677">
        <ele>1134.01245</ele>
        <time>2011-04-17T11:39:35+02:00</time>
      </trkpt>
      <trkpt lat="44.19739" lon="5.23672">
        <ele>1131.12842</ele>
        <time>2011-04-17T11:39:41+02:00</time>
      </trkpt>
      <trkpt lat="44.19741" lon="5.23667">
        <ele>1130.64771</ele>
        <time>2011-04-17T11:39:44+02:00</time>
      </trkpt>
      <trkpt lat="44.19747" lon="5.23661">
        <ele>1130.64771</ele>
        <time>2011-04-17T11:39:49+02:00</time>
      </trkpt>
      <trkpt lat="44.19749" lon="5.23654">
        <ele>1128.7251</ele>
        <time>2011-04-17T11:39:53+02:00</time>
      </trkpt>
      <trkpt lat="44.1975" lon="5.23646">
        <ele>1124.87988</ele>
        <time>2011-04-17T11:39:57+02:00</time>
      </trkpt>
      <trkpt lat="44.19747" lon="5.23638">
        <ele>1121.51514</ele>
        <time>2011-04-17T11:40:01+02:00</time>
      </trkpt>
      <trkpt lat="44.19746" lon="5.23627">
        <ele>1121.03467</ele>
        <time>2011-04-17T11:40:05+02:00</time>
      </trkpt>
      <trkpt lat="44.19744" lon="5.23622">
        <ele>1120.55396</ele>
        <time>2011-04-17T11:40:08+02:00</time>
      </trkpt>
      <trkpt lat="44.19742" lon="5.23618">
        <ele>1120.55396</ele>
        <time>2011-04-17T11:40:10+02:00</time>
      </trkpt>
      <trkpt lat="44.19743" lon="5.23609">
        <ele>1119.59277</ele>
        <time>2011-04-17T11:40:14+02:00</time>
      </trkpt>
      <trkpt lat="44.1974" lon="5.23601">
        <ele>1119.11206</ele>
        <time>2011-04-17T11:40:18+02:00</time>
      </trkpt>
      <trkpt lat="44.19742" lon="5.23591">
        <ele>1117.18945</ele>
        <time>2011-04-17T11:40:23+02:00</time>
      </trkpt>
      <trkpt lat="44.19738" lon="5.23586">
        <ele>1116.22803</ele>
        <time>2011-04-17T11:40:27+02:00</time>
      </trkpt>
      <trkpt lat="44.19738" lon="5.23578">
        <ele>1115.2666</ele>
        <time>2011-04-17T11:40:32+02:00</time>
      </trkpt>
      <trkpt lat="44.19739" lon="5.23574">
        <ele>1113.82446</ele>
        <time>2011-04-17T11:40:36+02:00</time>
      </trkpt>
      <trkpt lat="44.19744" lon="5.23561">
        <ele>1109.49878</ele>
        <time>2011-04-17T11:40:42+02:00</time>
      </trkpt>
      <trkpt lat="44.19747" lon="5.23552">
        <ele>1106.61475</ele>
        <time>2011-04-17T11:40:47+02:00</time>
      </trkpt>
      <trkpt lat="44.19747" lon="5.23551">
        <ele>1107.09546</ele>
        <time>2011-04-17T11:40:48+02:00</time>
      </trkpt>
      <trkpt lat="44.19747" lon="5.23545">
        <ele>1108.05688</ele>
        <time>2011-04-17T11:40:56+02:00</time>
      </trkpt>
      <trkpt lat="44.19746" lon="5.23542">
        <ele>1108.05688</ele>
        <time>2011-04-17T11:40:58+02:00</time>
      </trkpt>
      <trkpt lat="44.19744" lon="5.23531">
        <ele>1107.09546</ele>
        <time>2011-04-17T11:41:04+02:00</time>
      </trkpt>
      <trkpt lat="44.19744" lon="5.23529">
        <ele>1107.09546</ele>
        <time>2011-04-17T11:41:05+02:00</time>
      </trkpt>
      <trkpt lat="44.19745" lon="5.23519">
        <ele>1107.57617</ele>
        <time>2011-04-17T11:41:11+02:00</time>
      </trkpt>
      <trkpt lat="44.19745" lon="5.23515">
        <ele>1108.05688</ele>
        <time>2011-04-17T11:41:15+02:00</time>
      </trkpt>
      <trkpt lat="44.19746" lon="5.23513">
        <ele>1108.05688</ele>
        <time>2011-04-17T11:41:17+02:00</time>
      </trkpt>
      <trkpt lat="44.19747" lon="5.23505">
        <ele>1108.53735</ele>
        <time>2011-04-17T11:41:22+02:00</time>
      </trkpt>
      <trkpt lat="44.19747" lon="5.23503">
        <ele>1109.01807</ele>
        <time>2011-04-17T11:41:23+02:00</time>
      </trkpt>
      <trkpt lat="44.19746" lon="5.23492">
        <ele>1109.49878</ele>
        <time>2011-04-17T11:41:29+02:00</time>
      </trkpt>
      <trkpt lat="44.19746" lon="5.2349">
        <ele>1109.49878</ele>
        <time>2011-04-17T11:41:30+02:00</time>
      </trkpt>
      <trkpt lat="44.19745" lon="5.23484">
        <ele>1108.53735</ele>
        <time>2011-04-17T11:41:35+02:00</time>
      </trkpt>
      <trkpt lat="44.19744" lon="5.23477">
        <ele>1107.57617</ele>
        <time>2011-04-17T11:41:39+02:00</time>
      </trkpt>
      <trkpt lat="44.19746" lon="5.23476">
        <ele>1107.09546</ele>
        <time>2011-04-17T11:41:44+02:00</time>
      </trkpt>
      <trkpt lat="44.19749" lon="5.23475">
        <ele>1104.21167</ele>
        <time>2011-04-17T11:42:01+02:00</time>
      </trkpt>
      <trkpt lat="44.19747" lon="5.23463">
        <ele>1103.73096</ele>
        <time>2011-04-17T11:42:06+02:00</time>
      </trkpt>
      <trkpt lat="44.19744" lon="5.23457">
        <ele>1103.25024</ele>
        <time>2011-04-17T11:42:10+02:00</time>
      </trkpt>
      <trkpt lat="44.19741" lon="5.23453">
        <ele>1102.76953</ele>
        <time>2011-04-17T11:42:12+02:00</time>
      </trkpt>
      <trkpt lat="44.19734" lon="5.23437">
        <ele>1098.92407</ele>
        <time>2011-04-17T11:42:17+02:00</time>
      </trkpt>
      <trkpt lat="44.19732" lon="5.23426">
        <ele>1096.521</ele>
        <time>2011-04-17T11:42:20+02:00</time>
      </trkpt>
      <trkpt lat="44.19733" lon="5.23407">
        <ele>1095.07886</ele>
        <time>2011-04-17T11:42:25+02:00</time>
      </trkpt>
      <trkpt lat="44.1973" lon="5.2339">
        <ele>1095.07886</ele>
        <time>2011-04-17T11:42:31+02:00</time>
      </trkpt>
      <trkpt lat="44.19727" lon="5.23383">
        <ele>1094.11768</ele>
        <time>2011-04-17T11:42:35+02:00</time>
      </trkpt>
      <trkpt lat="44.19725" lon="5.23366">
        <ele>1091.71436</ele>
        <time>2011-04-17T11:42:40+02:00</time>
      </trkpt>
      <trkpt lat="44.1972" lon="5.23353">
        <ele>1089.79175</ele>
        <time>2011-04-17T11:42:45+02:00</time>
      </trkpt>
      <trkpt lat="44.19722" lon="5.2334">
        <ele>1087.38843</ele>
        <time>2011-04-17T11:42:49+02:00</time>
      </trkpt>
      <trkpt lat="44.19721" lon="5.23326">
        <ele>1085.46582</ele>
        <time>2011-04-17T11:42:54+02:00</time>
      </trkpt>
      <trkpt lat="44.19724" lon="5.23317">
        <ele>1084.02393</ele>
        <time>2011-04-17T11:42:58+02:00</time>
      </trkpt>
      <trkpt lat="44.19725" lon="5.23308">
        <ele>1084.02393</ele>
        <time>2011-04-17T11:43:02+02:00</time>
      </trkpt>
      <trkpt lat="44.19725" lon="5.23303">
        <ele>1084.02393</ele>
        <time>2011-04-17T11:43:04+02:00</time>
      </trkpt>
      <trkpt lat="44.19722" lon="5.23298">
        <ele>1084.98535</ele>
        <time>2011-04-17T11:43:10+02:00</time>
      </trkpt>
      <trkpt lat="44.19721" lon="5.23291">
        <ele>1084.98535</ele>
        <time>2011-04-17T11:43:13+02:00</time>
      </trkpt>
      <trkpt lat="44.19722" lon="5.23286">
        <ele>1085.46582</ele>
        <time>2011-04-17T11:43:15+02:00</time>
      </trkpt>
      <trkpt lat="44.19725" lon="5.23277">
        <ele>1087.86914</ele>
        <time>2011-04-17T11:43:21+02:00</time>
      </trkpt>
      <trkpt lat="44.19726" lon="5.23275">
        <ele>1087.86914</ele>
        <time>2011-04-17T11:43:22+02:00</time>
      </trkpt>
      <trkpt lat="44.19726" lon="5.23269">
        <ele>1089.79175</ele>
        <time>2011-04-17T11:43:26+02:00</time>
      </trkpt>
      <trkpt lat="44.19728" lon="5.23259">
        <ele>1091.71436</ele>
        <time>2011-04-17T11:43:33+02:00</time>
      </trkpt>
      <trkpt lat="44.19728" lon="5.23248">
        <ele>1093.63696</ele>
        <time>2011-04-17T11:43:40+02:00</time>
      </trkpt>
      <trkpt lat="44.19729" lon="5.2324">
        <ele>1096.04028</ele>
        <time>2011-04-17T11:43:47+02:00</time>
      </trkpt>
      <trkpt lat="44.1973" lon="5.2324">
        <ele>1097.00146</ele>
        <time>2011-04-17T11:43:55+02:00</time>
      </trkpt>
      <trkpt lat="44.19731" lon="5.23237">
        <ele>1097.48218</ele>
        <time>2011-04-17T11:44:03+02:00</time>
      </trkpt>
      <trkpt lat="44.19731" lon="5.23232">
        <ele>1098.92407</ele>
        <time>2011-04-17T11:44:08+02:00</time>
      </trkpt>
      <trkpt lat="44.19728" lon="5.23225">
        <ele>1099.40479</ele>
        <time>2011-04-17T11:44:13+02:00</time>
      </trkpt>
      <trkpt lat="44.19728" lon="5.23222">
        <ele>1099.8855</ele>
        <time>2011-04-17T11:44:15+02:00</time>
      </trkpt>
      <trkpt lat="44.19731" lon="5.23218">
        <ele>1100.84692</ele>
        <time>2011-04-17T11:44:19+02:00</time>
      </trkpt>
      <trkpt lat="44.19734" lon="5.23212">
        <ele>1102.28882</ele>
        <time>2011-04-17T11:44:26+02:00</time>
      </trkpt>
      <trkpt lat="44.19738" lon="5.23213">
        <ele>1101.32764</ele>
        <time>2011-04-17T11:44:31+02:00</time>
      </trkpt>
      <trkpt lat="44.19739" lon="5.23211">
        <ele>1099.8855</ele>
        <time>2011-04-17T11:44:35+02:00</time>
      </trkpt>
      <trkpt lat="44.1974" lon="5.23213">
        <ele>1097.48218</ele>
        <time>2011-04-17T11:44:41+02:00</time>
      </trkpt>
      <trkpt lat="44.19743" lon="5.23215">
        <ele>1096.521</ele>
        <time>2011-04-17T11:44:46+02:00</time>
      </trkpt>
      <trkpt lat="44.19745" lon="5.23216">
        <ele>1095.55957</ele>
        <time>2011-04-17T11:44:53+02:00</time>
      </trkpt>
      <trkpt lat="44.19745" lon="5.23219">
        <ele>1095.55957</ele>
        <time>2011-04-17T11:44:57+02:00</time>
      </trkpt>
      <trkpt lat="44.19746" lon="5.23222">
        <ele>1095.07886</ele>
        <time>2011-04-17T11:45:02+02:00</time>
      </trkpt>
      <trkpt lat="44.19747" lon="5.23223">
        <ele>1093.63696</ele>
        <time>2011-04-17T11:45:07+02:00</time>
      </trkpt>
      <trkpt lat="44.19748" lon="5.23227">
        <ele>1092.67578</ele>
        <time>2011-04-17T11:45:11+02:00</time>
      </trkpt>
      <trkpt lat="44.19749" lon="5.2323">
        <ele>1090.75293</ele>
        <time>2011-04-17T11:45:16+02:00</time>
      </trkpt>
      <trkpt lat="44.19752" lon="5.2323">
        <ele>1089.31104</ele>
        <time>2011-04-17T11:45:20+02:00</time>
      </trkpt>
      <trkpt lat="44.19753" lon="5.23227">
        <ele>1086.90771</ele>
        <time>2011-04-17T11:45:24+02:00</time>
      </trkpt>
      <trkpt lat="44.19754" lon="5.23225">
        <ele>1085.46582</ele>
        <time>2011-04-17T11:45:28+02:00</time>
      </trkpt>
      <trkpt lat="44.19755" lon="5.23224">
        <ele>1084.50464</ele>
        <time>2011-04-17T11:45:34+02:00</time>
      </trkpt>
      <trkpt lat="44.19758" lon="5.23223">
        <ele>1084.02393</ele>
        <time>2011-04-17T11:45:39+02:00</time>
      </trkpt>
      <trkpt lat="44.19756" lon="5.23224">
        <ele>1085.94653</ele>
        <time>2011-04-17T11:45:57+02:00</time>
      </trkpt>
      <trkpt lat="44.19754" lon="5.23224">
        <ele>1086.42725</ele>
        <time>2011-04-17T11:46:02+02:00</time>
      </trkpt>
      <trkpt lat="44.19752" lon="5.23225">
        <ele>1087.38843</ele>
        <time>2011-04-17T11:46:08+02:00</time>
      </trkpt>
      <trkpt lat="44.19752" lon="5.23223">
        <ele>1088.83057</ele>
        <time>2011-04-17T11:46:15+02:00</time>
      </trkpt>
      <trkpt lat="44.19752" lon="5.23222">
        <ele>1089.79175</ele>
        <time>2011-04-17T11:46:21+02:00</time>
      </trkpt>
      <trkpt lat="44.19749" lon="5.23217">
        <ele>1092.19507</ele>
        <time>2011-04-17T11:46:31+02:00</time>
      </trkpt>
      <trkpt lat="44.19748" lon="5.23216">
        <ele>1094.11768</ele>
        <time>2011-04-17T11:46:36+02:00</time>
      </trkpt>
      <trkpt lat="44.19747" lon="5.23216">
        <ele>1094.59814</ele>
        <time>2011-04-17T11:46:41+02:00</time>
      </trkpt>
      <trkpt lat="44.19746" lon="5.23213">
        <ele>1096.521</ele>
        <time>2011-04-17T11:46:47+02:00</time>
      </trkpt>
      <trkpt lat="44.19745" lon="5.23212">
        <ele>1098.44336</ele>
        <time>2011-04-17T11:46:52+02:00</time>
      </trkpt>
      <trkpt lat="44.19744" lon="5.23211">
        <ele>1099.40479</ele>
        <time>2011-04-17T11:46:57+02:00</time>
      </trkpt>
      <trkpt lat="44.19741" lon="5.23212">
        <ele>1099.40479</ele>
        <time>2011-04-17T11:47:02+02:00</time>
      </trkpt>
      <trkpt lat="44.19739" lon="5.23213">
        <ele>1098.92407</ele>
        <time>2011-04-17T11:47:09+02:00</time>
      </trkpt>
      <trkpt lat="44.19737" lon="5.23213">
        <ele>1099.40479</ele>
        <time>2011-04-17T11:47:13+02:00</time>
      </trkpt>
      <trkpt lat="44.19734" lon="5.23213">
        <ele>1100.36646</ele>
        <time>2011-04-17T11:47:19+02:00</time>
      </trkpt>
      <trkpt lat="44.19733" lon="5.23213">
        <ele>1101.80835</ele>
        <time>2011-04-17T11:47:27+02:00</time>
      </trkpt>
      <trkpt lat="44.19732" lon="5.23216">
        <ele>1102.28882</ele>
        <time>2011-04-17T11:47:35+02:00</time>
      </trkpt>
      <trkpt lat="44.1973" lon="5.23224">
        <ele>1100.36646</ele>
        <time>2011-04-17T11:47:40+02:00</time>
      </trkpt>
      <trkpt lat="44.1973" lon="5.23225">
        <ele>1099.8855</ele>
        <time>2011-04-17T11:47:41+02:00</time>
      </trkpt>
      <trkpt lat="44.19729" lon="5.23228">
        <ele>1099.40479</ele>
        <time>2011-04-17T11:47:44+02:00</time>
      </trkpt>
      <trkpt lat="44.19732" lon="5.23235">
        <ele>1097.96289</ele>
        <time>2011-04-17T11:47:49+02:00</time>
      </trkpt>
      <trkpt lat="44.19731" lon="5.23239">
        <ele>1097.00146</ele>
        <time>2011-04-17T11:47:51+02:00</time>
      </trkpt>
      <trkpt lat="44.19729" lon="5.23245">
        <ele>1096.04028</ele>
        <time>2011-04-17T11:47:54+02:00</time>
      </trkpt>
      <trkpt lat="44.19728" lon="5.23257">
        <ele>1093.63696</ele>
        <time>2011-04-17T11:47:59+02:00</time>
      </trkpt>
      <trkpt lat="44.19727" lon="5.23273">
        <ele>1090.75293</ele>
        <time>2011-04-17T11:48:04+02:00</time>
      </trkpt>
      <trkpt lat="44.19726" lon="5.23281">
        <ele>1088.83057</ele>
        <time>2011-04-17T11:48:06+02:00</time>
      </trkpt>
      <trkpt lat="44.19724" lon="5.23297">
        <ele>1086.42725</ele>
        <time>2011-04-17T11:48:10+02:00</time>
      </trkpt>
      <trkpt lat="44.19723" lon="5.23303">
        <ele>1085.94653</ele>
        <time>2011-04-17T11:48:12+02:00</time>
      </trkpt>
      <trkpt lat="44.19728" lon="5.23309">
        <ele>1084.98535</ele>
        <time>2011-04-17T11:48:17+02:00</time>
      </trkpt>
      <trkpt lat="44.19727" lon="5.23323">
        <ele>1084.02393</ele>
        <time>2011-04-17T11:48:21+02:00</time>
      </trkpt>
      <trkpt lat="44.1973" lon="5.2334">
        <ele>1084.02393</ele>
        <time>2011-04-17T11:48:26+02:00</time>
      </trkpt>
      <trkpt lat="44.19731" lon="5.23348">
        <ele>1085.94653</ele>
        <time>2011-04-17T11:48:30+02:00</time>
      </trkpt>
      <trkpt lat="44.1973" lon="5.23353">
        <ele>1087.38843</ele>
        <time>2011-04-17T11:48:34+02:00</time>
      </trkpt>
      <trkpt lat="44.19729" lon="5.23356">
        <ele>1087.86914</ele>
        <time>2011-04-17T11:48:36+02:00</time>
      </trkpt>
      <trkpt lat="44.1973" lon="5.23363">
        <ele>1090.27246</ele>
        <time>2011-04-17T11:48:42+02:00</time>
      </trkpt>
      <trkpt lat="44.19732" lon="5.23367">
        <ele>1092.19507</ele>
        <time>2011-04-17T11:48:45+02:00</time>
      </trkpt>
      <trkpt lat="44.19733" lon="5.23373">
        <ele>1094.59814</ele>
        <time>2011-04-17T11:48:50+02:00</time>
      </trkpt>
      <trkpt lat="44.19734" lon="5.23376">
        <ele>1095.55957</ele>
        <time>2011-04-17T11:48:52+02:00</time>
      </trkpt>
      <trkpt lat="44.19733" lon="5.23383">
        <ele>1097.00146</ele>
        <time>2011-04-17T11:48:57+02:00</time>
      </trkpt>
      <trkpt lat="44.19736" lon="5.23392">
        <ele>1099.8855</ele>
        <time>2011-04-17T11:49:04+02:00</time>
      </trkpt>
      <trkpt lat="44.19736" lon="5.23397">
        <ele>1099.40479</ele>
        <time>2011-04-17T11:49:07+02:00</time>
      </trkpt>
      <trkpt lat="44.1974" lon="5.23402">
        <ele>1099.8855</ele>
        <time>2011-04-17T11:49:11+02:00</time>
      </trkpt>
      <trkpt lat="44.19742" lon="5.2341">
        <ele>1099.8855</ele>
        <time>2011-04-17T11:49:15+02:00</time>
      </trkpt>
      <trkpt lat="44.19741" lon="5.23416">
        <ele>1099.40479</ele>
        <time>2011-04-17T11:49:18+02:00</time>
      </trkpt>
      <trkpt lat="44.19745" lon="5.2343">
        <ele>1100.36646</ele>
        <time>2011-04-17T11:49:25+02:00</time>
      </trkpt>
      <trkpt lat="44.1975" lon="5.23439">
        <ele>1102.28882</ele>
        <time>2011-04-17T11:49:30+02:00</time>
      </trkpt>
      <trkpt lat="44.1975" lon="5.23444">
        <ele>1103.73096</ele>
        <time>2011-04-17T11:49:33+02:00</time>
      </trkpt>
      <trkpt lat="44.19753" lon="5.23449">
        <ele>1106.61475</ele>
        <time>2011-04-17T11:49:37+02:00</time>
      </trkpt>
      <trkpt lat="44.19753" lon="5.23458">
        <ele>1107.57617</ele>
        <time>2011-04-17T11:49:44+02:00</time>
      </trkpt>
      <trkpt lat="44.19752" lon="5.23471">
        <ele>1109.01807</ele>
        <time>2011-04-17T11:49:51+02:00</time>
      </trkpt>
      <trkpt lat="44.1975" lon="5.23478">
        <ele>1108.05688</ele>
        <time>2011-04-17T11:49:55+02:00</time>
      </trkpt>
      <trkpt lat="44.19755" lon="5.23484">
        <ele>1108.53735</ele>
        <time>2011-04-17T11:50:00+02:00</time>
      </trkpt>
      <trkpt lat="44.19753" lon="5.2349">
        <ele>1108.53735</ele>
        <time>2011-04-17T11:50:04+02:00</time>
      </trkpt>
      <trkpt lat="44.19753" lon="5.23491">
        <ele>1108.53735</ele>
        <time>2011-04-17T11:50:05+02:00</time>
      </trkpt>
      <trkpt lat="44.19753" lon="5.23494">
        <ele>1109.49878</ele>
        <time>2011-04-17T11:50:07+02:00</time>
      </trkpt>
      <trkpt lat="44.19752" lon="5.23501">
        <ele>1111.42139</ele>
        <time>2011-04-17T11:50:14+02:00</time>
      </trkpt>
      <trkpt lat="44.19751" lon="5.23506">
        <ele>1111.9021</ele>
        <time>2011-04-17T11:50:17+02:00</time>
      </trkpt>
      <trkpt lat="44.19747" lon="5.23515">
        <ele>1110.45996</ele>
        <time>2011-04-17T11:50:22+02:00</time>
      </trkpt>
      <trkpt lat="44.19747" lon="5.2352">
        <ele>1109.49878</ele>
        <time>2011-04-17T11:50:25+02:00</time>
      </trkpt>
      <trkpt lat="44.19747" lon="5.23529">
        <ele>1108.53735</ele>
        <time>2011-04-17T11:50:29+02:00</time>
      </trkpt>
      <trkpt lat="44.19747" lon="5.23535">
        <ele>1107.57617</ele>
        <time>2011-04-17T11:50:33+02:00</time>
      </trkpt>
      <trkpt lat="44.19749" lon="5.23538">
        <ele>1107.57617</ele>
        <time>2011-04-17T11:50:36+02:00</time>
      </trkpt>
      <trkpt lat="44.1975" lon="5.23542">
        <ele>1108.05688</ele>
        <time>2011-04-17T11:50:38+02:00</time>
      </trkpt>
      <trkpt lat="44.1975" lon="5.23551">
        <ele>1109.01807</ele>
        <time>2011-04-17T11:50:43+02:00</time>
      </trkpt>
      <trkpt lat="44.19747" lon="5.23559">
        <ele>1109.01807</ele>
        <time>2011-04-17T11:50:49+02:00</time>
      </trkpt>
      <trkpt lat="44.19746" lon="5.23565">
        <ele>1109.97925</ele>
        <time>2011-04-17T11:50:55+02:00</time>
      </trkpt>
      <trkpt lat="44.19746" lon="5.23569">
        <ele>1110.45996</ele>
        <time>2011-04-17T11:51:02+02:00</time>
      </trkpt>
      <trkpt lat="44.19744" lon="5.23573">
        <ele>1110.94067</ele>
        <time>2011-04-17T11:51:07+02:00</time>
      </trkpt>
      <trkpt lat="44.19742" lon="5.23581">
        <ele>1114.30518</ele>
        <time>2011-04-17T11:51:14+02:00</time>
      </trkpt>
      <trkpt lat="44.19745" lon="5.23586">
        <ele>1116.22803</ele>
        <time>2011-04-17T11:51:19+02:00</time>
      </trkpt>
      <trkpt lat="44.19747" lon="5.23593">
        <ele>1118.15063</ele>
        <time>2011-04-17T11:51:24+02:00</time>
      </trkpt>
      <trkpt lat="44.19748" lon="5.23603">
        <ele>1119.59277</ele>
        <time>2011-04-17T11:51:31+02:00</time>
      </trkpt>
      <trkpt lat="44.19747" lon="5.23608">
        <ele>1120.55396</ele>
        <time>2011-04-17T11:51:34+02:00</time>
      </trkpt>
      <trkpt lat="44.19745" lon="5.23616">
        <ele>1121.99585</ele>
        <time>2011-04-17T11:51:40+02:00</time>
      </trkpt>
      <trkpt lat="44.19746" lon="5.23621">
        <ele>1122.95728</ele>
        <time>2011-04-17T11:51:43+02:00</time>
      </trkpt>
      <trkpt lat="44.19745" lon="5.23631">
        <ele>1123.91846</ele>
        <time>2011-04-17T11:51:49+02:00</time>
      </trkpt>
      <trkpt lat="44.19744" lon="5.23639">
        <ele>1123.91846</ele>
        <time>2011-04-17T11:51:55+02:00</time>
      </trkpt>
      <trkpt lat="44.19745" lon="5.23645">
        <ele>1124.87988</ele>
        <time>2011-04-17T11:52:00+02:00</time>
      </trkpt>
      <trkpt lat="44.19745" lon="5.23649">
        <ele>1126.32178</ele>
        <time>2011-04-17T11:52:04+02:00</time>
      </trkpt>
      <trkpt lat="44.19745" lon="5.23655">
        <ele>1128.24438</ele>
        <time>2011-04-17T11:52:10+02:00</time>
      </trkpt>
      <trkpt lat="44.19744" lon="5.23662">
        <ele>1129.68628</ele>
        <time>2011-04-17T11:52:17+02:00</time>
      </trkpt>
      <trkpt lat="44.19744" lon="5.23666">
        <ele>1131.12842</ele>
        <time>2011-04-17T11:52:22+02:00</time>
      </trkpt>
      <trkpt lat="44.19743" lon="5.2367">
        <ele>1133.05103</ele>
        <time>2011-04-17T11:52:27+02:00</time>
      </trkpt>
      <trkpt lat="44.19741" lon="5.23674">
        <ele>1134.49316</ele>
        <time>2011-04-17T11:52:34+02:00</time>
      </trkpt>
      <trkpt lat="44.19739" lon="5.23678">
        <ele>1136.41577</ele>
        <time>2011-04-17T11:52:40+02:00</time>
      </trkpt>
      <trkpt lat="44.19737" lon="5.23683">
        <ele>1136.89624</ele>
        <time>2011-04-17T11:52:46+02:00</time>
      </trkpt>
      <trkpt lat="44.19736" lon="5.23689">
        <ele>1138.81909</ele>
        <time>2011-04-17T11:52:51+02:00</time>
      </trkpt>
      <trkpt lat="44.19737" lon="5.23691">
        <ele>1140.26099</ele>
        <time>2011-04-17T11:52:55+02:00</time>
      </trkpt>
      <trkpt lat="44.19737" lon="5.23695">
        <ele>1141.70288</ele>
        <time>2011-04-17T11:53:08+02:00</time>
      </trkpt>
      <trkpt lat="44.19737" lon="5.23701">
        <ele>1141.22217</ele>
        <time>2011-04-17T11:53:13+02:00</time>
      </trkpt>
      <trkpt lat="44.19738" lon="5.23707">
        <ele>1142.66431</ele>
        <time>2011-04-17T11:53:19+02:00</time>
      </trkpt>
      <trkpt lat="44.19738" lon="5.23714">
        <ele>1142.66431</ele>
        <time>2011-04-17T11:53:25+02:00</time>
      </trkpt>
      <trkpt lat="44.19739" lon="5.23718">
        <ele>1142.66431</ele>
        <time>2011-04-17T11:53:29+02:00</time>
      </trkpt>
      <trkpt lat="44.19739" lon="5.23722">
        <ele>1143.62549</ele>
        <time>2011-04-17T11:53:33+02:00</time>
      </trkpt>
      <trkpt lat="44.19738" lon="5.23726">
        <ele>1145.5481</ele>
        <time>2011-04-17T11:53:39+02:00</time>
      </trkpt>
      <trkpt lat="44.19738" lon="5.23731">
        <ele>1147.4707</ele>
        <time>2011-04-17T11:53:46+02:00</time>
      </trkpt>
      <trkpt lat="44.19739" lon="5.23735">
        <ele>1149.39355</ele>
        <time>2011-04-17T11:53:52+02:00</time>
      </trkpt>
      <trkpt lat="44.19738" lon="5.23738">
        <ele>1150.35498</ele>
        <time>2011-04-17T11:53:57+02:00</time>
      </trkpt>
      <trkpt lat="44.19738" lon="5.23743">
        <ele>1151.79688</ele>
        <time>2011-04-17T11:54:04+02:00</time>
      </trkpt>
      <trkpt lat="44.19736" lon="5.23748">
        <ele>1153.23877</ele>
        <time>2011-04-17T11:54:10+02:00</time>
      </trkpt>
      <trkpt lat="44.19735" lon="5.23753">
        <ele>1153.71948</ele>
        <time>2011-04-17T11:54:15+02:00</time>
      </trkpt>
      <trkpt lat="44.19735" lon="5.23759">
        <ele>1155.16138</ele>
        <time>2011-04-17T11:54:20+02:00</time>
      </trkpt>
      <trkpt lat="44.19736" lon="5.23763">
        <ele>1156.12256</ele>
        <time>2011-04-17T11:54:25+02:00</time>
      </trkpt>
      <trkpt lat="44.19739" lon="5.23769">
        <ele>1157.5647</ele>
        <time>2011-04-17T11:54:31+02:00</time>
      </trkpt>
      <trkpt lat="44.19742" lon="5.23773">
        <ele>1159.00659</ele>
        <time>2011-04-17T11:54:36+02:00</time>
      </trkpt>
      <trkpt lat="44.19743" lon="5.2378">
        <ele>1159.4873</ele>
        <time>2011-04-17T11:54:40+02:00</time>
      </trkpt>
      <trkpt lat="44.19744" lon="5.23788">
        <ele>1160.44849</ele>
        <time>2011-04-17T11:54:46+02:00</time>
      </trkpt>
      <trkpt lat="44.19745" lon="5.23796">
        <ele>1161.40991</ele>
        <time>2011-04-17T11:54:52+02:00</time>
      </trkpt>
      <trkpt lat="44.19746" lon="5.23798">
        <ele>1161.89062</ele>
        <time>2011-04-17T11:54:54+02:00</time>
      </trkpt>
      <trkpt lat="44.19746" lon="5.23806">
        <ele>1161.40991</ele>
        <time>2011-04-17T11:54:59+02:00</time>
      </trkpt>
      <trkpt lat="44.19746" lon="5.23808">
        <ele>1160.9292</ele>
        <time>2011-04-17T11:55:00+02:00</time>
      </trkpt>
      <trkpt lat="44.19747" lon="5.23811">
        <ele>1159.96777</ele>
        <time>2011-04-17T11:55:02+02:00</time>
      </trkpt>
      <trkpt lat="44.19747" lon="5.23819">
        <ele>1159.4873</ele>
        <time>2011-04-17T11:55:07+02:00</time>
      </trkpt>
      <trkpt lat="44.19745" lon="5.23827">
        <ele>1159.4873</ele>
        <time>2011-04-17T11:55:11+02:00</time>
      </trkpt>
      <trkpt lat="44.19745" lon="5.23831">
        <ele>1159.96777</ele>
        <time>2011-04-17T11:55:13+02:00</time>
      </trkpt>
      <trkpt lat="44.1975" lon="5.23846">
        <ele>1162.37109</ele>
        <time>2011-04-17T11:55:21+02:00</time>
      </trkpt>
      <trkpt lat="44.19749" lon="5.23857">
        <ele>1163.33252</ele>
        <time>2011-04-17T11:55:26+02:00</time>
      </trkpt>
      <trkpt lat="44.19753" lon="5.23868">
        <ele>1160.9292</ele>
        <time>2011-04-17T11:55:29+02:00</time>
      </trkpt>
      <trkpt lat="44.19756" lon="5.23875">
        <ele>1161.40991</ele>
        <time>2011-04-17T11:55:33+02:00</time>
      </trkpt>
      <trkpt lat="44.19756" lon="5.23877">
        <ele>1161.89062</ele>
        <time>2011-04-17T11:55:34+02:00</time>
      </trkpt>
      <trkpt lat="44.19761" lon="5.23886">
        <ele>1164.77466</ele>
        <time>2011-04-17T11:55:40+02:00</time>
      </trkpt>
      <trkpt lat="44.19761" lon="5.239">
        <ele>1165.25537</ele>
        <time>2011-04-17T11:55:45+02:00</time>
      </trkpt>
      <trkpt lat="44.1976" lon="5.23904">
        <ele>1164.29395</ele>
        <time>2011-04-17T11:55:46+02:00</time>
      </trkpt>
      <trkpt lat="44.19763" lon="5.23916">
        <ele>1163.33252</ele>
        <time>2011-04-17T11:55:50+02:00</time>
      </trkpt>
      <trkpt lat="44.19762" lon="5.23919">
        <ele>1162.85181</ele>
        <time>2011-04-17T11:55:51+02:00</time>
      </trkpt>
      <trkpt lat="44.19762" lon="5.23935">
        <ele>1161.40991</ele>
        <time>2011-04-17T11:55:56+02:00</time>
      </trkpt>
      <trkpt lat="44.19762" lon="5.23941">
        <ele>1160.44849</ele>
        <time>2011-04-17T11:55:58+02:00</time>
      </trkpt>
      <trkpt lat="44.19765" lon="5.23946">
        <ele>1159.96777</ele>
        <time>2011-04-17T11:56:00+02:00</time>
      </trkpt>
      <trkpt lat="44.19769" lon="5.23955">
        <ele>1159.96777</ele>
        <time>2011-04-17T11:56:04+02:00</time>
      </trkpt>
      <trkpt lat="44.19774" lon="5.23963">
        <ele>1160.44849</ele>
        <time>2011-04-17T11:56:08+02:00</time>
      </trkpt>
      <trkpt lat="44.19778" lon="5.23973">
        <ele>1160.44849</ele>
        <time>2011-04-17T11:56:13+02:00</time>
      </trkpt>
      <trkpt lat="44.19787" lon="5.23978">
        <ele>1158.52588</ele>
        <time>2011-04-17T11:56:18+02:00</time>
      </trkpt>
      <trkpt lat="44.19794" lon="5.23981">
        <ele>1155.16138</ele>
        <time>2011-04-17T11:56:22+02:00</time>
      </trkpt>
      <trkpt lat="44.198" lon="5.23986">
        <ele>1152.27734</ele>
        <time>2011-04-17T11:56:26+02:00</time>
      </trkpt>
      <trkpt lat="44.19806" lon="5.23987">
        <ele>1148.91284</ele>
        <time>2011-04-17T11:56:30+02:00</time>
      </trkpt>
      <trkpt lat="44.19808" lon="5.23988">
        <ele>1147.95142</ele>
        <time>2011-04-17T11:56:31+02:00</time>
      </trkpt>
      <trkpt lat="44.19816" lon="5.23993">
        <ele>1145.5481</ele>
        <time>2011-04-17T11:56:35+02:00</time>
      </trkpt>
      <trkpt lat="44.19819" lon="5.23996">
        <ele>1144.1062</ele>
        <time>2011-04-17T11:56:37+02:00</time>
      </trkpt>
      <trkpt lat="44.19822" lon="5.24">
        <ele>1140.74146</ele>
        <time>2011-04-17T11:56:43+02:00</time>
      </trkpt>
      <trkpt lat="44.19827" lon="5.24005">
        <ele>1138.33838</ele>
        <time>2011-04-17T11:56:47+02:00</time>
      </trkpt>
      <trkpt lat="44.1983" lon="5.24006">
        <ele>1136.41577</ele>
        <time>2011-04-17T11:56:49+02:00</time>
      </trkpt>
      <trkpt lat="44.19837" lon="5.24009">
        <ele>1134.01245</ele>
        <time>2011-04-17T11:56:54+02:00</time>
      </trkpt>
      <trkpt lat="44.19842" lon="5.24017">
        <ele>1130.64771</ele>
        <time>2011-04-17T11:56:58+02:00</time>
      </trkpt>
      <trkpt lat="44.19849" lon="5.24017">
        <ele>1127.76367</ele>
        <time>2011-04-17T11:57:02+02:00</time>
      </trkpt>
      <trkpt lat="44.1985" lon="5.24019">
        <ele>1127.2832</ele>
        <time>2011-04-17T11:57:03+02:00</time>
      </trkpt>
      <trkpt lat="44.19858" lon="5.24021">
        <ele>1123.91846</ele>
        <time>2011-04-17T11:57:09+02:00</time>
      </trkpt>
      <trkpt lat="44.19859" lon="5.24022">
        <ele>1121.99585</ele>
        <time>2011-04-17T11:57:11+02:00</time>
      </trkpt>
      <trkpt lat="44.1986" lon="5.24026">
        <ele>1121.03467</ele>
        <time>2011-04-17T11:57:13+02:00</time>
      </trkpt>
      <trkpt lat="44.19864" lon="5.24035">
        <ele>1119.11206</ele>
        <time>2011-04-17T11:57:18+02:00</time>
      </trkpt>
      <trkpt lat="44.19871" lon="5.24039">
        <ele>1116.22803</ele>
        <time>2011-04-17T11:57:22+02:00</time>
      </trkpt>
      <trkpt lat="44.19878" lon="5.24045">
        <ele>1114.30518</ele>
        <time>2011-04-17T11:57:26+02:00</time>
      </trkpt>
      <trkpt lat="44.19885" lon="5.2405">
        <ele>1111.9021</ele>
        <time>2011-04-17T11:57:30+02:00</time>
      </trkpt>
      <trkpt lat="44.19896" lon="5.24052">
        <ele>1110.45996</ele>
        <time>2011-04-17T11:57:35+02:00</time>
      </trkpt>
      <trkpt lat="44.199" lon="5.24057">
        <ele>1109.49878</ele>
        <time>2011-04-17T11:57:38+02:00</time>
      </trkpt>
      <trkpt lat="44.19906" lon="5.2406">
        <ele>1108.53735</ele>
        <time>2011-04-17T11:57:43+02:00</time>
      </trkpt>
      <trkpt lat="44.19907" lon="5.24061">
        <ele>1108.53735</ele>
        <time>2011-04-17T11:57:45+02:00</time>
      </trkpt>
      <trkpt lat="44.19916" lon="5.24061">
        <ele>1106.13403</ele>
        <time>2011-04-17T11:57:51+02:00</time>
      </trkpt>
      <trkpt lat="44.19919" lon="5.2406">
        <ele>1105.17285</ele>
        <time>2011-04-17T11:57:53+02:00</time>
      </trkpt>
      <trkpt lat="44.19922" lon="5.24059">
        <ele>1103.73096</ele>
        <time>2011-04-17T11:57:55+02:00</time>
      </trkpt>
      <trkpt lat="44.19933" lon="5.24068">
        <ele>1100.84692</ele>
        <time>2011-04-17T11:58:01+02:00</time>
      </trkpt>
      <trkpt lat="44.19939" lon="5.24077">
        <ele>1099.8855</ele>
        <time>2011-04-17T11:58:06+02:00</time>
      </trkpt>
      <trkpt lat="44.19948" lon="5.2408">
        <ele>1098.44336</ele>
        <time>2011-04-17T11:58:11+02:00</time>
      </trkpt>
      <trkpt lat="44.1995" lon="5.24082">
        <ele>1097.00146</ele>
        <time>2011-04-17T11:58:15+02:00</time>
      </trkpt>
      <trkpt lat="44.19949" lon="5.24081">
        <ele>1097.96289</ele>
        <time>2011-04-17T11:58:29+02:00</time>
      </trkpt>
      <trkpt lat="44.19951" lon="5.24081">
        <ele>1098.44336</ele>
        <time>2011-04-17T11:58:37+02:00</time>
      </trkpt>
      <trkpt lat="44.19953" lon="5.24083">
        <ele>1096.04028</ele>
        <time>2011-04-17T11:58:41+02:00</time>
      </trkpt>
      <trkpt lat="44.19953" lon="5.24085">
        <ele>1095.55957</ele>
        <time>2011-04-17T11:58:48+02:00</time>
      </trkpt>
      <trkpt lat="44.19956" lon="5.24087">
        <ele>1095.55957</ele>
        <time>2011-04-17T11:59:17+02:00</time>
      </trkpt>
      <trkpt lat="44.19958" lon="5.24088">
        <ele>1095.55957</ele>
        <time>2011-04-17T11:59:19+02:00</time>
      </trkpt>
      <trkpt lat="44.19966" lon="5.24092">
        <ele>1093.63696</ele>
        <time>2011-04-17T11:59:24+02:00</time>
      </trkpt>
      <trkpt lat="44.19973" lon="5.24095">
        <ele>1091.71436</ele>
        <time>2011-04-17T11:59:29+02:00</time>
      </trkpt>
      <trkpt lat="44.1998" lon="5.24099">
        <ele>1090.75293</ele>
        <time>2011-04-17T11:59:32+02:00</time>
      </trkpt>
      <trkpt lat="44.19983" lon="5.24101">
        <ele>1090.75293</ele>
        <time>2011-04-17T11:59:33+02:00</time>
      </trkpt>
      <trkpt lat="44.19987" lon="5.24106">
        <ele>1088.83057</ele>
        <time>2011-04-17T11:59:36+02:00</time>
      </trkpt>
      <trkpt lat="44.19994" lon="5.2411">
        <ele>1085.94653</ele>
        <time>2011-04-17T11:59:42+02:00</time>
      </trkpt>
      <trkpt lat="44.19997" lon="5.24113">
        <ele>1082.10107</ele>
        <time>2011-04-17T11:59:48+02:00</time>
      </trkpt>
      <trkpt lat="44.20006" lon="5.2412">
        <ele>1077.77515</ele>
        <time>2011-04-17T11:59:54+02:00</time>
      </trkpt>
      <trkpt lat="44.20011" lon="5.24125">
        <ele>1076.81396</ele>
        <time>2011-04-17T11:59:57+02:00</time>
      </trkpt>
      <trkpt lat="44.20018" lon="5.2413">
        <ele>1074.89136</ele>
        <time>2011-04-17T12:00:00+02:00</time>
      </trkpt>
      <trkpt lat="44.20025" lon="5.24138">
        <ele>1070.56543</ele>
        <time>2011-04-17T12:00:05+02:00</time>
      </trkpt>
      <trkpt lat="44.20031" lon="5.24144">
        <ele>1068.16211</ele>
        <time>2011-04-17T12:00:09+02:00</time>
      </trkpt>
      <trkpt lat="44.20036" lon="5.24147">
        <ele>1064.79736</ele>
        <time>2011-04-17T12:00:13+02:00</time>
      </trkpt>
      <trkpt lat="44.20042" lon="5.24153">
        <ele>1063.35547</ele>
        <time>2011-04-17T12:00:17+02:00</time>
      </trkpt>
      <trkpt lat="44.20043" lon="5.24156">
        <ele>1062.39404</ele>
        <time>2011-04-17T12:00:20+02:00</time>
      </trkpt>
      <trkpt lat="44.20044" lon="5.2416">
        <ele>1061.43286</ele>
        <time>2011-04-17T12:00:24+02:00</time>
      </trkpt>
      <trkpt lat="44.20049" lon="5.24164">
        <ele>1059.02954</ele>
        <time>2011-04-17T12:00:30+02:00</time>
      </trkpt>
      <trkpt lat="44.20054" lon="5.24169">
        <ele>1057.58765</ele>
        <time>2011-04-17T12:00:35+02:00</time>
      </trkpt>
      <trkpt lat="44.20058" lon="5.24179">
        <ele>1055.18433</ele>
        <time>2011-04-17T12:00:39+02:00</time>
      </trkpt>
      <trkpt lat="44.2006" lon="5.2418">
        <ele>1054.22314</ele>
        <time>2011-04-17T12:00:40+02:00</time>
      </trkpt>
      <trkpt lat="44.20069" lon="5.2419">
        <ele>1050.85815</ele>
        <time>2011-04-17T12:00:47+02:00</time>
      </trkpt>
      <trkpt lat="44.20074" lon="5.24194">
        <ele>1047.97437</ele>
        <time>2011-04-17T12:00:51+02:00</time>
      </trkpt>
      <trkpt lat="44.20077" lon="5.24197">
        <ele>1045.57104</ele>
        <time>2011-04-17T12:00:55+02:00</time>
      </trkpt>
      <trkpt lat="44.2008" lon="5.24198">
        <ele>1044.60962</ele>
        <time>2011-04-17T12:00:57+02:00</time>
      </trkpt>
      <trkpt lat="44.20086" lon="5.24197">
        <ele>1041.24512</ele>
        <time>2011-04-17T12:01:00+02:00</time>
      </trkpt>
      <trkpt lat="44.20088" lon="5.24203">
        <ele>1037.88062</ele>
        <time>2011-04-17T12:01:04+02:00</time>
      </trkpt>
      <trkpt lat="44.20096" lon="5.24212">
        <ele>1034.51587</ele>
        <time>2011-04-17T12:01:09+02:00</time>
      </trkpt>
      <trkpt lat="44.20096" lon="5.24213">
        <ele>1033.55444</ele>
        <time>2011-04-17T12:01:10+02:00</time>
      </trkpt>
      <trkpt lat="44.20098" lon="5.24223">
        <ele>1029.22852</ele>
        <time>2011-04-17T12:01:15+02:00</time>
      </trkpt>
      <trkpt lat="44.20106" lon="5.24231">
        <ele>1026.34473</ele>
        <time>2011-04-17T12:01:20+02:00</time>
      </trkpt>
      <trkpt lat="44.20113" lon="5.24238">
        <ele>1023.94141</ele>
        <time>2011-04-17T12:01:24+02:00</time>
      </trkpt>
      <trkpt lat="44.20122" lon="5.24248">
        <ele>1022.98022</ele>
        <time>2011-04-17T12:01:28+02:00</time>
      </trkpt>
      <trkpt lat="44.20132" lon="5.24257">
        <ele>1023.46094</ele>
        <time>2011-04-17T12:01:33+02:00</time>
      </trkpt>
      <trkpt lat="44.20134" lon="5.24261">
        <ele>1023.94141</ele>
        <time>2011-04-17T12:01:35+02:00</time>
      </trkpt>
      <trkpt lat="44.20133" lon="5.24264">
        <ele>1022.0188</ele>
        <time>2011-04-17T12:01:37+02:00</time>
      </trkpt>
      <trkpt lat="44.20135" lon="5.24266">
        <ele>1020.09619</ele>
        <time>2011-04-17T12:01:42+02:00</time>
      </trkpt>
      <trkpt lat="44.20138" lon="5.24271">
        <ele>1017.21216</ele>
        <time>2011-04-17T12:01:48+02:00</time>
      </trkpt>
      <trkpt lat="44.2014" lon="5.24275">
        <ele>1017.69263</ele>
        <time>2011-04-17T12:01:52+02:00</time>
      </trkpt>
      <trkpt lat="44.20141" lon="5.24279">
        <ele>1017.69263</ele>
        <time>2011-04-17T12:01:55+02:00</time>
      </trkpt>
      <trkpt lat="44.2014" lon="5.24283">
        <ele>1016.25073</ele>
        <time>2011-04-17T12:02:00+02:00</time>
      </trkpt>
      <trkpt lat="44.20138" lon="5.24283">
        <ele>1015.28955</ele>
        <time>2011-04-17T12:02:06+02:00</time>
      </trkpt>
      <trkpt lat="44.20136" lon="5.2428">
        <ele>1009.52173</ele>
        <time>2011-04-17T12:02:24+02:00</time>
      </trkpt>
      <trkpt lat="44.20137" lon="5.2428">
        <ele>1007.59912</ele>
        <time>2011-04-17T12:02:46+02:00</time>
      </trkpt>
      <trkpt lat="44.20135" lon="5.2428">
        <ele>1010.96362</ele>
        <time>2011-04-17T12:03:29+02:00</time>
      </trkpt>
      <trkpt lat="44.20131" lon="5.2428">
        <ele>1010.96362</ele>
        <time>2011-04-17T12:03:33+02:00</time>
      </trkpt>
      <trkpt lat="44.20126" lon="5.24281">
        <ele>1009.52173</ele>
        <time>2011-04-17T12:03:37+02:00</time>
      </trkpt>
      <trkpt lat="44.20121" lon="5.24279">
        <ele>1009.04102</ele>
        <time>2011-04-17T12:03:40+02:00</time>
      </trkpt>
      <trkpt lat="44.20112" lon="5.24278">
        <ele>1004.71509</ele>
        <time>2011-04-17T12:03:45+02:00</time>
      </trkpt>
      <trkpt lat="44.20105" lon="5.24276">
        <ele>1000.38916</ele>
        <time>2011-04-17T12:03:49+02:00</time>
      </trkpt>
      <trkpt lat="44.20094" lon="5.24274">
        <ele>995.101807</ele>
        <time>2011-04-17T12:03:54+02:00</time>
      </trkpt>
      <trkpt lat="44.20083" lon="5.24274">
        <ele>989.333984</ele>
        <time>2011-04-17T12:04:00+02:00</time>
      </trkpt>
      <trkpt lat="44.20073" lon="5.24271">
        <ele>987.411133</ele>
        <time>2011-04-17T12:04:04+02:00</time>
      </trkpt>
      <trkpt lat="44.20061" lon="5.2427">
        <ele>984.046631</ele>
        <time>2011-04-17T12:04:09+02:00</time>
      </trkpt>
      <trkpt lat="44.20054" lon="5.24266">
        <ele>983.085205</ele>
        <time>2011-04-17T12:04:13+02:00</time>
      </trkpt>
      <trkpt lat="44.20053" lon="5.24265">
        <ele>982.604736</ele>
        <time>2011-04-17T12:04:14+02:00</time>
      </trkpt>
      <trkpt lat="44.20049" lon="5.24262">
        <ele>985.008057</ele>
        <time>2011-04-17T12:04:18+02:00</time>
      </trkpt>
      <trkpt lat="44.20039" lon="5.24261">
        <ele>985.969238</ele>
        <time>2011-04-17T12:04:23+02:00</time>
      </trkpt>
      <trkpt lat="44.20034" lon="5.24259">
        <ele>986.449951</ele>
        <time>2011-04-17T12:04:25+02:00</time>
      </trkpt>
      <trkpt lat="44.2002" lon="5.24255">
        <ele>986.93042</ele>
        <time>2011-04-17T12:04:31+02:00</time>
      </trkpt>
      <trkpt lat="44.20009" lon="5.24254">
        <ele>986.449951</ele>
        <time>2011-04-17T12:04:36+02:00</time>
      </trkpt>
      <trkpt lat="44.19999" lon="5.24253">
        <ele>985.488525</ele>
        <time>2011-04-17T12:04:40+02:00</time>
      </trkpt>
      <trkpt lat="44.19994" lon="5.24253">
        <ele>985.488525</ele>
        <time>2011-04-17T12:04:42+02:00</time>
      </trkpt>
      <trkpt lat="44.19984" lon="5.24255">
        <ele>985.008057</ele>
        <time>2011-04-17T12:04:46+02:00</time>
      </trkpt>
      <trkpt lat="44.19972" lon="5.24257">
        <ele>988.372803</ele>
        <time>2011-04-17T12:04:51+02:00</time>
      </trkpt>
      <trkpt lat="44.19962" lon="5.24258">
        <ele>990.775879</ele>
        <time>2011-04-17T12:04:55+02:00</time>
      </trkpt>
      <trkpt lat="44.19952" lon="5.24258">
        <ele>988.372803</ele>
        <time>2011-04-17T12:05:00+02:00</time>
      </trkpt>
      <trkpt lat="44.19949" lon="5.24258">
        <ele>987.411133</ele>
        <time>2011-04-17T12:05:04+02:00</time>
      </trkpt>
      <trkpt lat="44.19938" lon="5.24257">
        <ele>985.008057</ele>
        <time>2011-04-17T12:05:09+02:00</time>
      </trkpt>
      <trkpt lat="44.19928" lon="5.24257">
        <ele>984.527344</ele>
        <time>2011-04-17T12:05:13+02:00</time>
      </trkpt>
      <trkpt lat="44.19917" lon="5.24253">
        <ele>982.604736</ele>
        <time>2011-04-17T12:05:18+02:00</time>
      </trkpt>
      <trkpt lat="44.1991" lon="5.24251">
        <ele>981.643311</ele>
        <time>2011-04-17T12:05:22+02:00</time>
      </trkpt>
      <trkpt lat="44.19902" lon="5.2425">
        <ele>985.008057</ele>
        <time>2011-04-17T12:05:28+02:00</time>
      </trkpt>
      <trkpt lat="44.19895" lon="5.24248">
        <ele>985.969238</ele>
        <time>2011-04-17T12:05:32+02:00</time>
      </trkpt>
      <trkpt lat="44.19887" lon="5.24244">
        <ele>985.008057</ele>
        <time>2011-04-17T12:05:36+02:00</time>
      </trkpt>
      <trkpt lat="44.19878" lon="5.24242">
        <ele>982.604736</ele>
        <time>2011-04-17T12:05:41+02:00</time>
      </trkpt>
      <trkpt lat="44.19876" lon="5.24241">
        <ele>982.604736</ele>
        <time>2011-04-17T12:05:42+02:00</time>
      </trkpt>
      <trkpt lat="44.19862" lon="5.2424">
        <ele>980.201416</ele>
        <time>2011-04-17T12:05:48+02:00</time>
      </trkpt>
      <trkpt lat="44.19853" lon="5.2424">
        <ele>982.604736</ele>
        <time>2011-04-17T12:05:52+02:00</time>
      </trkpt>
      <trkpt lat="44.1984" lon="5.24244">
        <ele>985.969238</ele>
        <time>2011-04-17T12:05:58+02:00</time>
      </trkpt>
      <trkpt lat="44.19829" lon="5.24243">
        <ele>986.449951</ele>
        <time>2011-04-17T12:06:02+02:00</time>
      </trkpt>
      <trkpt lat="44.19816" lon="5.24242">
        <ele>985.008057</ele>
        <time>2011-04-17T12:06:07+02:00</time>
      </trkpt>
      <trkpt lat="44.19807" lon="5.24243">
        <ele>988.372803</ele>
        <time>2011-04-17T12:06:12+02:00</time>
      </trkpt>
      <trkpt lat="44.198" lon="5.24241">
        <ele>987.411133</ele>
        <time>2011-04-17T12:06:17+02:00</time>
      </trkpt>
      <trkpt lat="44.19795" lon="5.24238">
        <ele>988.853516</ele>
        <time>2011-04-17T12:06:22+02:00</time>
      </trkpt>
      <trkpt lat="44.19787" lon="5.24237">
        <ele>991.256592</ele>
        <time>2011-04-17T12:06:28+02:00</time>
      </trkpt>
      <trkpt lat="44.19781" lon="5.24239">
        <ele>991.737305</ele>
        <time>2011-04-17T12:06:33+02:00</time>
      </trkpt>
      <trkpt lat="44.19779" lon="5.24238">
        <ele>992.218018</ele>
        <time>2011-04-17T12:06:34+02:00</time>
      </trkpt>
      <trkpt lat="44.19771" lon="5.24235">
        <ele>994.621094</ele>
        <time>2011-04-17T12:06:40+02:00</time>
      </trkpt>
      <trkpt lat="44.19764" lon="5.24232">
        <ele>997.98584</ele>
        <time>2011-04-17T12:06:47+02:00</time>
      </trkpt>
      <trkpt lat="44.19759" lon="5.2423">
        <ele>1000.38916</ele>
        <time>2011-04-17T12:06:51+02:00</time>
      </trkpt>
      <trkpt lat="44.1975" lon="5.24228">
        <ele>1000.38916</ele>
        <time>2011-04-17T12:06:56+02:00</time>
      </trkpt>
      <trkpt lat="44.19743" lon="5.24226">
        <ele>1000.86963</ele>
        <time>2011-04-17T12:07:03+02:00</time>
      </trkpt>
      <trkpt lat="44.19738" lon="5.24224">
        <ele>998.947021</ele>
        <time>2011-04-17T12:07:07+02:00</time>
      </trkpt>
      <trkpt lat="44.19729" lon="5.24224">
        <ele>997.505127</ele>
        <time>2011-04-17T12:07:11+02:00</time>
      </trkpt>
      <trkpt lat="44.19719" lon="5.24221">
        <ele>997.505127</ele>
        <time>2011-04-17T12:07:15+02:00</time>
      </trkpt>
      <trkpt lat="44.19717" lon="5.2422">
        <ele>997.505127</ele>
        <time>2011-04-17T12:07:16+02:00</time>
      </trkpt>
      <trkpt lat="44.19702" lon="5.24223">
        <ele>996.063232</ele>
        <time>2011-04-17T12:07:22+02:00</time>
      </trkpt>
      <trkpt lat="44.19691" lon="5.24224">
        <ele>996.063232</ele>
        <time>2011-04-17T12:07:26+02:00</time>
      </trkpt>
      <trkpt lat="44.1968" lon="5.24225">
        <ele>998.947021</ele>
        <time>2011-04-17T12:07:30+02:00</time>
      </trkpt>
      <trkpt lat="44.19667" lon="5.24226">
        <ele>1004.71509</ele>
        <time>2011-04-17T12:07:34+02:00</time>
      </trkpt>
      <trkpt lat="44.1965" lon="5.24227">
        <ele>1013.36694</ele>
        <time>2011-04-17T12:07:39+02:00</time>
      </trkpt>
      <trkpt lat="44.19634" lon="5.2423">
        <ele>1026.82544</ele>
        <time>2011-04-17T12:07:44+02:00</time>
      </trkpt>
      <trkpt lat="44.19631" lon="5.24231">
        <ele>1031.63184</ele>
        <time>2011-04-17T12:07:45+02:00</time>
      </trkpt>
      <trkpt lat="44.19625" lon="5.24232">
        <ele>1038.36133</ele>
        <time>2011-04-17T12:07:50+02:00</time>
      </trkpt>
      <trkpt lat="44.19621" lon="5.24229">
        <ele>1039.32251</ele>
        <time>2011-04-17T12:07:54+02:00</time>
      </trkpt>
      <trkpt lat="44.19617" lon="5.2422">
        <ele>1033.07373</ele>
        <time>2011-04-17T12:08:00+02:00</time>
      </trkpt>
      <trkpt lat="44.19617" lon="5.24218">
        <ele>1031.15137</ele>
        <time>2011-04-17T12:08:01+02:00</time>
      </trkpt>
      <trkpt lat="44.19614" lon="5.24216">
        <ele>1024.90283</ele>
        <time>2011-04-17T12:08:05+02:00</time>
      </trkpt>
      <trkpt lat="44.19605" lon="5.24211">
        <ele>1021.53809</ele>
        <time>2011-04-17T12:08:11+02:00</time>
      </trkpt>
      <trkpt lat="44.19601" lon="5.24208">
        <ele>1017.21216</ele>
        <time>2011-04-17T12:08:15+02:00</time>
      </trkpt>
      <trkpt lat="44.19597" lon="5.24205">
        <ele>1013.36694</ele>
        <time>2011-04-17T12:08:19+02:00</time>
      </trkpt>
      <trkpt lat="44.19593" lon="5.24201">
        <ele>1011.44434</ele>
        <time>2011-04-17T12:08:24+02:00</time>
      </trkpt>
      <trkpt lat="44.19588" lon="5.24194">
        <ele>1011.44434</ele>
        <time>2011-04-17T12:08:29+02:00</time>
      </trkpt>
      <trkpt lat="44.19585" lon="5.24187">
        <ele>1010.0022</ele>
        <time>2011-04-17T12:08:35+02:00</time>
      </trkpt>
      <trkpt lat="44.1958" lon="5.24182">
        <ele>1009.04102</ele>
        <time>2011-04-17T12:08:41+02:00</time>
      </trkpt>
      <trkpt lat="44.19578" lon="5.24179">
        <ele>1007.59912</ele>
        <time>2011-04-17T12:08:44+02:00</time>
      </trkpt>
      <trkpt lat="44.19579" lon="5.24176">
        <ele>1006.6377</ele>
        <time>2011-04-17T12:08:49+02:00</time>
      </trkpt>
      <trkpt lat="44.19579" lon="5.24171">
        <ele>1005.67651</ele>
        <time>2011-04-17T12:08:52+02:00</time>
      </trkpt>
      <trkpt lat="44.19581" lon="5.24165">
        <ele>1004.23462</ele>
        <time>2011-04-17T12:08:56+02:00</time>
      </trkpt>
      <trkpt lat="44.19581" lon="5.24162">
        <ele>1003.75366</ele>
        <time>2011-04-17T12:09:03+02:00</time>
      </trkpt>
      <trkpt lat="44.19583" lon="5.24163">
        <ele>991.737305</ele>
        <time>2011-04-17T12:09:22+02:00</time>
      </trkpt>
      <trkpt lat="44.19582" lon="5.24168">
        <ele>1010.96362</ele>
        <time>2011-04-17T12:10:14+02:00</time>
      </trkpt>
      <trkpt lat="44.19581" lon="5.24167">
        <ele>1011.44434</ele>
        <time>2011-04-17T12:10:26+02:00</time>
      </trkpt>
      <trkpt lat="44.19581" lon="5.24171">
        <ele>1009.52173</ele>
        <time>2011-04-17T12:10:43+02:00</time>
      </trkpt>
      <trkpt lat="44.1958" lon="5.24174">
        <ele>1008.5603</ele>
        <time>2011-04-17T12:10:48+02:00</time>
      </trkpt>
      <trkpt lat="44.19582" lon="5.24178">
        <ele>1008.07983</ele>
        <time>2011-04-17T12:10:53+02:00</time>
      </trkpt>
      <trkpt lat="44.19581" lon="5.24175">
        <ele>1010.0022</ele>
        <time>2011-04-17T12:10:57+02:00</time>
      </trkpt>
      <trkpt lat="44.19581" lon="5.24169">
        <ele>1008.5603</ele>
        <time>2011-04-17T12:11:01+02:00</time>
      </trkpt>
      <trkpt lat="44.1958" lon="5.24162">
        <ele>1005.1958</ele>
        <time>2011-04-17T12:11:08+02:00</time>
      </trkpt>
      <trkpt lat="44.19579" lon="5.24161">
        <ele>1007.11841</ele>
        <time>2011-04-17T12:11:16+02:00</time>
      </trkpt>
      <trkpt lat="44.19574" lon="5.24155">
        <ele>1018.17334</ele>
        <time>2011-04-17T12:11:46+02:00</time>
      </trkpt>
      <trkpt lat="44.19574" lon="5.24157">
        <ele>1017.69263</ele>
        <time>2011-04-17T12:11:48+02:00</time>
      </trkpt>
      <trkpt lat="44.19573" lon="5.24163">
        <ele>1015.77026</ele>
        <time>2011-04-17T12:11:51+02:00</time>
      </trkpt>
      <trkpt lat="44.19575" lon="5.24166">
        <ele>1012.88623</ele>
        <time>2011-04-17T12:11:54+02:00</time>
      </trkpt>
      <trkpt lat="44.19581" lon="5.24171">
        <ele>1011.44434</ele>
        <time>2011-04-17T12:12:02+02:00</time>
      </trkpt>
      <trkpt lat="44.19584" lon="5.24175">
        <ele>1012.88623</ele>
        <time>2011-04-17T12:12:26+02:00</time>
      </trkpt>
      <trkpt lat="44.19584" lon="5.24175">
        <ele>1012.40552</ele>
        <time>2011-04-17T12:12:32+02:00</time>
      </trkpt>
      <trkpt lat="44.19582" lon="5.24175">
        <ele>1010.96362</ele>
        <time>2011-04-17T12:12:43+02:00</time>
      </trkpt>
      <trkpt lat="44.1958" lon="5.24173">
        <ele>1009.52173</ele>
        <time>2011-04-17T12:12:48+02:00</time>
      </trkpt>
      <trkpt lat="44.19583" lon="5.24176">
        <ele>1009.52173</ele>
        <time>2011-04-17T12:12:54+02:00</time>
      </trkpt>
      <trkpt lat="44.19583" lon="5.24175">
        <ele>1009.52173</ele>
        <time>2011-04-17T12:13:01+02:00</time>
      </trkpt>
      <trkpt lat="44.19581" lon="5.24176">
        <ele>1008.07983</ele>
        <time>2011-04-17T12:13:12+02:00</time>
      </trkpt>
      <trkpt lat="44.19579" lon="5.24177">
        <ele>1009.04102</ele>
        <time>2011-04-17T12:13:22+02:00</time>
      </trkpt>
      <trkpt lat="44.1958" lon="5.24176">
        <ele>1007.59912</ele>
        <time>2011-04-17T12:13:30+02:00</time>
      </trkpt>
      <trkpt lat="44.19583" lon="5.24175">
        <ele>1007.59912</ele>
        <time>2011-04-17T12:13:40+02:00</time>
      </trkpt>
      <trkpt lat="44.19582" lon="5.24175">
        <ele>1008.07983</ele>
        <time>2011-04-17T12:13:42+02:00</time>
      </trkpt>
      <trkpt lat="44.1958" lon="5.24177">
        <ele>1009.52173</ele>
        <time>2011-04-17T12:13:49+02:00</time>
      </trkpt>
      <trkpt lat="44.19581" lon="5.24177">
        <ele>1007.11841</ele>
        <time>2011-04-17T12:13:58+02:00</time>
      </trkpt>
      <trkpt lat="44.1958" lon="5.24183">
        <ele>1009.04102</ele>
        <time>2011-04-17T12:14:12+02:00</time>
      </trkpt>
      <trkpt lat="44.19582" lon="5.24182">
        <ele>1010.0022</ele>
        <time>2011-04-17T12:14:17+02:00</time>
      </trkpt>
      <trkpt lat="44.19583" lon="5.24179">
        <ele>1009.04102</ele>
        <time>2011-04-17T12:14:26+02:00</time>
      </trkpt>
      <trkpt lat="44.19582" lon="5.24178">
        <ele>1008.5603</ele>
        <time>2011-04-17T12:14:37+02:00</time>
      </trkpt>
      <trkpt lat="44.19584" lon="5.24177">
        <ele>1008.5603</ele>
        <time>2011-04-17T12:14:45+02:00</time>
      </trkpt>
      <trkpt lat="44.19579" lon="5.24177">
        <ele>1008.07983</ele>
        <time>2011-04-17T12:15:04+02:00</time>
      </trkpt>
      <trkpt lat="44.1958" lon="5.24177">
        <ele>1008.5603</ele>
        <time>2011-04-17T12:15:12+02:00</time>
      </trkpt>
      <trkpt lat="44.19581" lon="5.24174">
        <ele>1007.59912</ele>
        <time>2011-04-17T12:15:23+02:00</time>
      </trkpt>
      <trkpt lat="44.19583" lon="5.2417">
        <ele>1007.11841</ele>
        <time>2011-04-17T12:15:32+02:00</time>
      </trkpt>
      <trkpt lat="44.19583" lon="5.24172">
        <ele>1006.6377</ele>
        <time>2011-04-17T12:15:38+02:00</time>
      </trkpt>
      <trkpt lat="44.19582" lon="5.24172">
        <ele>1007.11841</ele>
        <time>2011-04-17T12:15:43+02:00</time>
      </trkpt>
      <trkpt lat="44.19583" lon="5.24173">
        <ele>1010.96362</ele>
        <time>2011-04-17T12:15:52+02:00</time>
      </trkpt>
      <trkpt lat="44.19577" lon="5.24173">
        <ele>1010.48291</ele>
        <time>2011-04-17T12:15:59+02:00</time>
      </trkpt>
      <trkpt lat="44.19575" lon="5.24173">
        <ele>1008.07983</ele>
        <time>2011-04-17T12:16:06+02:00</time>
      </trkpt>
      <trkpt lat="44.19571" lon="5.24174">
        <ele>1007.11841</ele>
        <time>2011-04-17T12:16:14+02:00</time>
      </trkpt>
      <trkpt lat="44.1957" lon="5.24175">
        <ele>1008.07983</ele>
        <time>2011-04-17T12:16:22+02:00</time>
      </trkpt>
      <trkpt lat="44.19568" lon="5.24176">
        <ele>1008.07983</ele>
        <time>2011-04-17T12:16:27+02:00</time>
      </trkpt>
      <trkpt lat="44.19565" lon="5.24173">
        <ele>1008.5603</ele>
        <time>2011-04-17T12:16:35+02:00</time>
      </trkpt>
      <trkpt lat="44.19562" lon="5.24171">
        <ele>1008.07983</ele>
        <time>2011-04-17T12:16:39+02:00</time>
      </trkpt>
      <trkpt lat="44.19559" lon="5.2417">
        <ele>1008.07983</ele>
        <time>2011-04-17T12:16:41+02:00</time>
      </trkpt>
      <trkpt lat="44.19541" lon="5.24168">
        <ele>1006.15698</ele>
        <time>2011-04-17T12:16:49+02:00</time>
      </trkpt>
      <trkpt lat="44.19522" lon="5.24171">
        <ele>1005.67651</ele>
        <time>2011-04-17T12:16:56+02:00</time>
      </trkpt>
      <trkpt lat="44.19501" lon="5.24181">
        <ele>1005.1958</ele>
        <time>2011-04-17T12:17:04+02:00</time>
      </trkpt>
      <trkpt lat="44.19485" lon="5.2419">
        <ele>1006.15698</ele>
        <time>2011-04-17T12:17:10+02:00</time>
      </trkpt>
      <trkpt lat="44.19466" lon="5.24196">
        <ele>1006.6377</ele>
        <time>2011-04-17T12:17:17+02:00</time>
      </trkpt>
      <trkpt lat="44.19441" lon="5.2421">
        <ele>1009.04102</ele>
        <time>2011-04-17T12:17:26+02:00</time>
      </trkpt>
      <trkpt lat="44.19422" lon="5.24226">
        <ele>1009.52173</ele>
        <time>2011-04-17T12:17:34+02:00</time>
      </trkpt>
      <trkpt lat="44.19401" lon="5.24243">
        <ele>1010.96362</ele>
        <time>2011-04-17T12:17:43+02:00</time>
      </trkpt>
      <trkpt lat="44.1938" lon="5.24269">
        <ele>1010.96362</ele>
        <time>2011-04-17T12:17:53+02:00</time>
      </trkpt>
      <trkpt lat="44.19364" lon="5.24295">
        <ele>1010.96362</ele>
        <time>2011-04-17T12:18:02+02:00</time>
      </trkpt>
      <trkpt lat="44.19352" lon="5.24323">
        <ele>1011.44434</ele>
        <time>2011-04-17T12:18:10+02:00</time>
      </trkpt>
      <trkpt lat="44.19338" lon="5.2436">
        <ele>1012.40552</ele>
        <time>2011-04-17T12:18:20+02:00</time>
      </trkpt>
      <trkpt lat="44.19326" lon="5.2437">
        <ele>1012.88623</ele>
        <time>2011-04-17T12:18:25+02:00</time>
      </trkpt>
      <trkpt lat="44.19309" lon="5.24367">
        <ele>1013.84741</ele>
        <time>2011-04-17T12:18:31+02:00</time>
      </trkpt>
      <trkpt lat="44.19287" lon="5.24359">
        <ele>1015.28955</ele>
        <time>2011-04-17T12:18:39+02:00</time>
      </trkpt>
      <trkpt lat="44.19264" lon="5.24342">
        <ele>1016.73145</ele>
        <time>2011-04-17T12:18:48+02:00</time>
      </trkpt>
      <trkpt lat="44.19245" lon="5.24323">
        <ele>1018.65405</ele>
        <time>2011-04-17T12:18:56+02:00</time>
      </trkpt>
      <trkpt lat="44.19226" lon="5.24303">
        <ele>1019.13477</ele>
        <time>2011-04-17T12:19:04+02:00</time>
      </trkpt>
      <trkpt lat="44.19204" lon="5.24276">
        <ele>1020.09619</ele>
        <time>2011-04-17T12:19:14+02:00</time>
      </trkpt>
      <trkpt lat="44.19183" lon="5.24244">
        <ele>1017.69263</ele>
        <time>2011-04-17T12:19:24+02:00</time>
      </trkpt>
      <trkpt lat="44.19171" lon="5.24218">
        <ele>1021.53809</ele>
        <time>2011-04-17T12:19:32+02:00</time>
      </trkpt>
      <trkpt lat="44.19157" lon="5.24194">
        <ele>1024.90283</ele>
        <time>2011-04-17T12:19:40+02:00</time>
      </trkpt>
      <trkpt lat="44.19144" lon="5.24181">
        <ele>1025.3833</ele>
        <time>2011-04-17T12:19:46+02:00</time>
      </trkpt>
      <trkpt lat="44.1913" lon="5.24169">
        <ele>1025.86401</ele>
        <time>2011-04-17T12:19:52+02:00</time>
      </trkpt>
      <trkpt lat="44.19116" lon="5.24169">
        <ele>1026.34473</ele>
        <time>2011-04-17T12:19:57+02:00</time>
      </trkpt>
      <trkpt lat="44.19103" lon="5.24181">
        <ele>1026.34473</ele>
        <time>2011-04-17T12:20:03+02:00</time>
      </trkpt>
      <trkpt lat="44.19094" lon="5.242">
        <ele>1025.86401</ele>
        <time>2011-04-17T12:20:09+02:00</time>
      </trkpt>
      <trkpt lat="44.19086" lon="5.24235">
        <ele>1025.86401</ele>
        <time>2011-04-17T12:20:19+02:00</time>
      </trkpt>
      <trkpt lat="44.19079" lon="5.2426">
        <ele>1026.82544</ele>
        <time>2011-04-17T12:20:27+02:00</time>
      </trkpt>
      <trkpt lat="44.19071" lon="5.24286">
        <ele>1027.78662</ele>
        <time>2011-04-17T12:20:35+02:00</time>
      </trkpt>
      <trkpt lat="44.19066" lon="5.24311">
        <ele>1027.78662</ele>
        <time>2011-04-17T12:20:43+02:00</time>
      </trkpt>
      <trkpt lat="44.19066" lon="5.24336">
        <ele>1028.74805</ele>
        <time>2011-04-17T12:20:50+02:00</time>
      </trkpt>
      <trkpt lat="44.19069" lon="5.24372">
        <ele>1029.70923</ele>
        <time>2011-04-17T12:21:00+02:00</time>
      </trkpt>
      <trkpt lat="44.19071" lon="5.24394">
        <ele>1030.18994</ele>
        <time>2011-04-17T12:21:06+02:00</time>
      </trkpt>
      <trkpt lat="44.19074" lon="5.24423">
        <ele>1030.67065</ele>
        <time>2011-04-17T12:21:14+02:00</time>
      </trkpt>
      <trkpt lat="44.19076" lon="5.24452">
        <ele>1032.11255</ele>
        <time>2011-04-17T12:21:22+02:00</time>
      </trkpt>
      <trkpt lat="44.19077" lon="5.24489">
        <ele>1034.51587</ele>
        <time>2011-04-17T12:21:32+02:00</time>
      </trkpt>
      <trkpt lat="44.1908" lon="5.24525">
        <ele>1035.95776</ele>
        <time>2011-04-17T12:21:41+02:00</time>
      </trkpt>
      <trkpt lat="44.19083" lon="5.24555">
        <ele>1036.43872</ele>
        <time>2011-04-17T12:21:49+02:00</time>
      </trkpt>
      <trkpt lat="44.19086" lon="5.24586">
        <ele>1036.91919</ele>
        <time>2011-04-17T12:21:57+02:00</time>
      </trkpt>
      <trkpt lat="44.19088" lon="5.24622">
        <ele>1037.88062</ele>
        <time>2011-04-17T12:22:06+02:00</time>
      </trkpt>
      <trkpt lat="44.19089" lon="5.24657">
        <ele>1039.32251</ele>
        <time>2011-04-17T12:22:15+02:00</time>
      </trkpt>
      <trkpt lat="44.19089" lon="5.24686">
        <ele>1039.32251</ele>
        <time>2011-04-17T12:22:23+02:00</time>
      </trkpt>
      <trkpt lat="44.19087" lon="5.24711">
        <ele>1039.80322</ele>
        <time>2011-04-17T12:22:30+02:00</time>
      </trkpt>
      <trkpt lat="44.19085" lon="5.24736">
        <ele>1040.28394</ele>
        <time>2011-04-17T12:22:37+02:00</time>
      </trkpt>
      <trkpt lat="44.19087" lon="5.24763">
        <ele>1041.24512</ele>
        <time>2011-04-17T12:22:44+02:00</time>
      </trkpt>
      <trkpt lat="44.1909" lon="5.24793">
        <ele>1042.68726</ele>
        <time>2011-04-17T12:22:52+02:00</time>
      </trkpt>
      <trkpt lat="44.19091" lon="5.24819">
        <ele>1043.64844</ele>
        <time>2011-04-17T12:22:59+02:00</time>
      </trkpt>
      <trkpt lat="44.19087" lon="5.24844">
        <ele>1045.09033</ele>
        <time>2011-04-17T12:23:06+02:00</time>
      </trkpt>
      <trkpt lat="44.19077" lon="5.2485">
        <ele>1046.53247</ele>
        <time>2011-04-17T12:23:10+02:00</time>
      </trkpt>
      <trkpt lat="44.19068" lon="5.24841">
        <ele>1048.45483</ele>
        <time>2011-04-17T12:23:14+02:00</time>
      </trkpt>
      <trkpt lat="44.19058" lon="5.24806">
        <ele>1056.62622</ele>
        <time>2011-04-17T12:23:23+02:00</time>
      </trkpt>
      <trkpt lat="44.19051" lon="5.24783">
        <ele>1063.35547</ele>
        <time>2011-04-17T12:23:29+02:00</time>
      </trkpt>
      <trkpt lat="44.1904" lon="5.24755">
        <ele>1066.23926</ele>
        <time>2011-04-17T12:23:37+02:00</time>
      </trkpt>
      <trkpt lat="44.19026" lon="5.24733">
        <ele>1063.83594</ele>
        <time>2011-04-17T12:23:44+02:00</time>
      </trkpt>
      <trkpt lat="44.19016" lon="5.24717">
        <ele>1063.35547</ele>
        <time>2011-04-17T12:23:49+02:00</time>
      </trkpt>
      <trkpt lat="44.19007" lon="5.24693">
        <ele>1067.20068</ele>
        <time>2011-04-17T12:23:56+02:00</time>
      </trkpt>
      <trkpt lat="44.18995" lon="5.24665">
        <ele>1067.68115</ele>
        <time>2011-04-17T12:24:04+02:00</time>
      </trkpt>
      <trkpt lat="44.1898" lon="5.24639">
        <ele>1066.71997</ele>
        <time>2011-04-17T12:24:12+02:00</time>
      </trkpt>
      <trkpt lat="44.18968" lon="5.24617">
        <ele>1068.16211</ele>
        <time>2011-04-17T12:24:19+02:00</time>
      </trkpt>
      <trkpt lat="44.18952" lon="5.24596">
        <ele>1066.71997</ele>
        <time>2011-04-17T12:24:27+02:00</time>
      </trkpt>
      <trkpt lat="44.1894" lon="5.2458">
        <ele>1065.27808</ele>
        <time>2011-04-17T12:24:33+02:00</time>
      </trkpt>
      <trkpt lat="44.18927" lon="5.24561">
        <ele>1066.71997</ele>
        <time>2011-04-17T12:24:40+02:00</time>
      </trkpt>
      <trkpt lat="44.18915" lon="5.24541">
        <ele>1067.68115</ele>
        <time>2011-04-17T12:24:47+02:00</time>
      </trkpt>
      <trkpt lat="44.18904" lon="5.2452">
        <ele>1070.08472</ele>
        <time>2011-04-17T12:24:54+02:00</time>
      </trkpt>
      <trkpt lat="44.1889" lon="5.24494">
        <ele>1071.04614</ele>
        <time>2011-04-17T12:25:03+02:00</time>
      </trkpt>
      <trkpt lat="44.18877" lon="5.2447">
        <ele>1072.96875</ele>
        <time>2011-04-17T12:25:11+02:00</time>
      </trkpt>
      <trkpt lat="44.18864" lon="5.24446">
        <ele>1072.48804</ele>
        <time>2011-04-17T12:25:19+02:00</time>
      </trkpt>
      <trkpt lat="44.18854" lon="5.2442">
        <ele>1072.00732</ele>
        <time>2011-04-17T12:25:27+02:00</time>
      </trkpt>
      <trkpt lat="44.18844" lon="5.24398">
        <ele>1070.56543</ele>
        <time>2011-04-17T12:25:34+02:00</time>
      </trkpt>
      <trkpt lat="44.18842" lon="5.24382">
        <ele>1075.37183</ele>
        <time>2011-04-17T12:25:39+02:00</time>
      </trkpt>
      <trkpt lat="44.18833" lon="5.24353">
        <ele>1072.48804</ele>
        <time>2011-04-17T12:25:47+02:00</time>
      </trkpt>
      <trkpt lat="44.18828" lon="5.2433">
        <ele>1072.00732</ele>
        <time>2011-04-17T12:25:53+02:00</time>
      </trkpt>
      <trkpt lat="44.18821" lon="5.24303">
        <ele>1072.96875</ele>
        <time>2011-04-17T12:26:00+02:00</time>
      </trkpt>
      <trkpt lat="44.18812" lon="5.24273">
        <ele>1072.00732</ele>
        <time>2011-04-17T12:26:08+02:00</time>
      </trkpt>
      <trkpt lat="44.18801" lon="5.24249">
        <ele>1069.60425</ele>
        <time>2011-04-17T12:26:15+02:00</time>
      </trkpt>
      <trkpt lat="44.18794" lon="5.2424">
        <ele>1070.08472</ele>
        <time>2011-04-17T12:26:19+02:00</time>
      </trkpt>
      <trkpt lat="44.18791" lon="5.24237">
        <ele>1070.08472</ele>
        <time>2011-04-17T12:26:28+02:00</time>
      </trkpt>
      <trkpt lat="44.18783" lon="5.24233">
        <ele>1070.56543</ele>
        <time>2011-04-17T12:26:32+02:00</time>
      </trkpt>
      <trkpt lat="44.18774" lon="5.24232">
        <ele>1071.52661</ele>
        <time>2011-04-17T12:26:36+02:00</time>
      </trkpt>
      <trkpt lat="44.18772" lon="5.2424">
        <ele>1072.96875</ele>
        <time>2011-04-17T12:26:40+02:00</time>
      </trkpt>
      <trkpt lat="44.18782" lon="5.24257">
        <ele>1075.37183</ele>
        <time>2011-04-17T12:26:48+02:00</time>
      </trkpt>
      <trkpt lat="44.18785" lon="5.24273">
        <ele>1076.33325</ele>
        <time>2011-04-17T12:26:54+02:00</time>
      </trkpt>
      <trkpt lat="44.18788" lon="5.2429">
        <ele>1077.77515</ele>
        <time>2011-04-17T12:27:01+02:00</time>
      </trkpt>
      <trkpt lat="44.18791" lon="5.24307">
        <ele>1077.29468</ele>
        <time>2011-04-17T12:27:08+02:00</time>
      </trkpt>
      <trkpt lat="44.18794" lon="5.2433">
        <ele>1078.73657</ele>
        <time>2011-04-17T12:27:17+02:00</time>
      </trkpt>
      <trkpt lat="44.18795" lon="5.24344">
        <ele>1081.13989</ele>
        <time>2011-04-17T12:27:22+02:00</time>
      </trkpt>
      <trkpt lat="44.18798" lon="5.24358">
        <ele>1082.10107</ele>
        <time>2011-04-17T12:27:27+02:00</time>
      </trkpt>
      <trkpt lat="44.18801" lon="5.24373">
        <ele>1083.06226</ele>
        <time>2011-04-17T12:27:32+02:00</time>
      </trkpt>
      <trkpt lat="44.18805" lon="5.2439">
        <ele>1084.50464</ele>
        <time>2011-04-17T12:27:38+02:00</time>
      </trkpt>
      <trkpt lat="44.18812" lon="5.24416">
        <ele>1088.34985</ele>
        <time>2011-04-17T12:27:47+02:00</time>
      </trkpt>
      <trkpt lat="44.18816" lon="5.24435">
        <ele>1089.31104</ele>
        <time>2011-04-17T12:27:54+02:00</time>
      </trkpt>
      <trkpt lat="44.18822" lon="5.24454">
        <ele>1090.27246</ele>
        <time>2011-04-17T12:28:01+02:00</time>
      </trkpt>
      <trkpt lat="44.18827" lon="5.2447">
        <ele>1092.67578</ele>
        <time>2011-04-17T12:28:07+02:00</time>
      </trkpt>
      <trkpt lat="44.18832" lon="5.24489">
        <ele>1093.63696</ele>
        <time>2011-04-17T12:28:14+02:00</time>
      </trkpt>
      <trkpt lat="44.18839" lon="5.24507">
        <ele>1096.04028</ele>
        <time>2011-04-17T12:28:21+02:00</time>
      </trkpt>
      <trkpt lat="44.18843" lon="5.24523">
        <ele>1096.521</ele>
        <time>2011-04-17T12:28:27+02:00</time>
      </trkpt>
      <trkpt lat="44.18848" lon="5.24542">
        <ele>1097.48218</ele>
        <time>2011-04-17T12:28:34+02:00</time>
      </trkpt>
      <trkpt lat="44.18849" lon="5.24547">
        <ele>1097.48218</ele>
        <time>2011-04-17T12:28:36+02:00</time>
      </trkpt>
      <trkpt lat="44.18855" lon="5.24562">
        <ele>1098.92407</ele>
        <time>2011-04-17T12:28:42+02:00</time>
      </trkpt>
      <trkpt lat="44.18862" lon="5.2458">
        <ele>1101.32764</ele>
        <time>2011-04-17T12:28:49+02:00</time>
      </trkpt>
      <trkpt lat="44.18864" lon="5.24585">
        <ele>1101.80835</ele>
        <time>2011-04-17T12:28:51+02:00</time>
      </trkpt>
      <trkpt lat="44.1887" lon="5.24601">
        <ele>1101.32764</ele>
        <time>2011-04-17T12:28:57+02:00</time>
      </trkpt>
      <trkpt lat="44.18872" lon="5.24608">
        <ele>1101.32764</ele>
        <time>2011-04-17T12:29:00+02:00</time>
      </trkpt>
      <trkpt lat="44.1888" lon="5.24625">
        <ele>1103.25024</ele>
        <time>2011-04-17T12:29:07+02:00</time>
      </trkpt>
      <trkpt lat="44.18886" lon="5.2464">
        <ele>1103.25024</ele>
        <time>2011-04-17T12:29:13+02:00</time>
      </trkpt>
      <trkpt lat="44.18895" lon="5.24661">
        <ele>1102.28882</ele>
        <time>2011-04-17T12:29:21+02:00</time>
      </trkpt>
      <trkpt lat="44.189" lon="5.24676">
        <ele>1102.76953</ele>
        <time>2011-04-17T12:29:26+02:00</time>
      </trkpt>
      <trkpt lat="44.18901" lon="5.24683">
        <ele>1102.28882</ele>
        <time>2011-04-17T12:29:29+02:00</time>
      </trkpt>
      <trkpt lat="44.1891" lon="5.24706">
        <ele>1101.80835</ele>
        <time>2011-04-17T12:29:38+02:00</time>
      </trkpt>
      <trkpt lat="44.18917" lon="5.24724">
        <ele>1101.80835</ele>
        <time>2011-04-17T12:29:45+02:00</time>
      </trkpt>
      <trkpt lat="44.18922" lon="5.24737">
        <ele>1104.69214</ele>
        <time>2011-04-17T12:29:50+02:00</time>
      </trkpt>
      <trkpt lat="44.18929" lon="5.24753">
        <ele>1106.13403</ele>
        <time>2011-04-17T12:29:57+02:00</time>
      </trkpt>
      <trkpt lat="44.18933" lon="5.24769">
        <ele>1106.61475</ele>
        <time>2011-04-17T12:30:03+02:00</time>
      </trkpt>
      <trkpt lat="44.1894" lon="5.2479">
        <ele>1109.97925</ele>
        <time>2011-04-17T12:30:12+02:00</time>
      </trkpt>
      <trkpt lat="44.18946" lon="5.24809">
        <ele>1112.38257</ele>
        <time>2011-04-17T12:30:19+02:00</time>
      </trkpt>
      <trkpt lat="44.18953" lon="5.24827">
        <ele>1113.34399</ele>
        <time>2011-04-17T12:30:26+02:00</time>
      </trkpt>
      <trkpt lat="44.18961" lon="5.24847">
        <ele>1114.78589</ele>
        <time>2011-04-17T12:30:34+02:00</time>
      </trkpt>
      <trkpt lat="44.18965" lon="5.24866">
        <ele>1114.78589</ele>
        <time>2011-04-17T12:30:41+02:00</time>
      </trkpt>
      <trkpt lat="44.18971" lon="5.24888">
        <ele>1116.22803</ele>
        <time>2011-04-17T12:30:49+02:00</time>
      </trkpt>
      <trkpt lat="44.18977" lon="5.24909">
        <ele>1117.66992</ele>
        <time>2011-04-17T12:30:57+02:00</time>
      </trkpt>
      <trkpt lat="44.18983" lon="5.2493">
        <ele>1119.59277</ele>
        <time>2011-04-17T12:31:05+02:00</time>
      </trkpt>
      <trkpt lat="44.18989" lon="5.24952">
        <ele>1120.55396</ele>
        <time>2011-04-17T12:31:13+02:00</time>
      </trkpt>
      <trkpt lat="44.1899" lon="5.24957">
        <ele>1120.55396</ele>
        <time>2011-04-17T12:31:15+02:00</time>
      </trkpt>
      <trkpt lat="44.18995" lon="5.24988">
        <ele>1119.59277</ele>
        <time>2011-04-17T12:31:25+02:00</time>
      </trkpt>
      <trkpt lat="44.19001" lon="5.25011">
        <ele>1121.03467</ele>
        <time>2011-04-17T12:31:33+02:00</time>
      </trkpt>
      <trkpt lat="44.19005" lon="5.2503">
        <ele>1123.43799</ele>
        <time>2011-04-17T12:31:40+02:00</time>
      </trkpt>
      <trkpt lat="44.19007" lon="5.25043">
        <ele>1126.80249</ele>
        <time>2011-04-17T12:31:46+02:00</time>
      </trkpt>
      <trkpt lat="44.19007" lon="5.2506">
        <ele>1127.2832</ele>
        <time>2011-04-17T12:31:52+02:00</time>
      </trkpt>
      <trkpt lat="44.19008" lon="5.25075">
        <ele>1128.24438</ele>
        <time>2011-04-17T12:31:58+02:00</time>
      </trkpt>
      <trkpt lat="44.19011" lon="5.25092">
        <ele>1130.16699</ele>
        <time>2011-04-17T12:32:05+02:00</time>
      </trkpt>
      <trkpt lat="44.19013" lon="5.25106">
        <ele>1130.16699</ele>
        <time>2011-04-17T12:32:11+02:00</time>
      </trkpt>
      <trkpt lat="44.19014" lon="5.25125">
        <ele>1130.64771</ele>
        <time>2011-04-17T12:32:19+02:00</time>
      </trkpt>
      <trkpt lat="44.19016" lon="5.25145">
        <ele>1130.64771</ele>
        <time>2011-04-17T12:32:28+02:00</time>
      </trkpt>
      <trkpt lat="44.19019" lon="5.2516">
        <ele>1131.12842</ele>
        <time>2011-04-17T12:32:35+02:00</time>
      </trkpt>
      <trkpt lat="44.19022" lon="5.25176">
        <ele>1131.12842</ele>
        <time>2011-04-17T12:32:43+02:00</time>
      </trkpt>
      <trkpt lat="44.19026" lon="5.25191">
        <ele>1132.08984</ele>
        <time>2011-04-17T12:32:50+02:00</time>
      </trkpt>
      <trkpt lat="44.1903" lon="5.25205">
        <ele>1132.57056</ele>
        <time>2011-04-17T12:32:57+02:00</time>
      </trkpt>
      <trkpt lat="44.19033" lon="5.25215">
        <ele>1134.01245</ele>
        <time>2011-04-17T12:33:02+02:00</time>
      </trkpt>
      <trkpt lat="44.19037" lon="5.25228">
        <ele>1135.45435</ele>
        <time>2011-04-17T12:33:08+02:00</time>
      </trkpt>
      <trkpt lat="44.1904" lon="5.25239">
        <ele>1135.93506</ele>
        <time>2011-04-17T12:33:13+02:00</time>
      </trkpt>
      <trkpt lat="44.19043" lon="5.25249">
        <ele>1138.33838</ele>
        <time>2011-04-17T12:33:18+02:00</time>
      </trkpt>
      <trkpt lat="44.19045" lon="5.25271">
        <ele>1139.78027</ele>
        <time>2011-04-17T12:33:27+02:00</time>
      </trkpt>
      <trkpt lat="44.19049" lon="5.25283">
        <ele>1140.74146</ele>
        <time>2011-04-17T12:33:33+02:00</time>
      </trkpt>
      <trkpt lat="44.19053" lon="5.25296">
        <ele>1143.62549</ele>
        <time>2011-04-17T12:33:40+02:00</time>
      </trkpt>
      <trkpt lat="44.19056" lon="5.25309">
        <ele>1145.5481</ele>
        <time>2011-04-17T12:33:47+02:00</time>
      </trkpt>
      <trkpt lat="44.19061" lon="5.25322">
        <ele>1147.95142</ele>
        <time>2011-04-17T12:33:54+02:00</time>
      </trkpt>
      <trkpt lat="44.19066" lon="5.25335">
        <ele>1148.43213</ele>
        <time>2011-04-17T12:34:01+02:00</time>
      </trkpt>
      <trkpt lat="44.1907" lon="5.25348">
        <ele>1148.43213</ele>
        <time>2011-04-17T12:34:08+02:00</time>
      </trkpt>
      <trkpt lat="44.19071" lon="5.2535">
        <ele>1148.43213</ele>
        <time>2011-04-17T12:34:09+02:00</time>
      </trkpt>
      <trkpt lat="44.19074" lon="5.25358">
        <ele>1148.43213</ele>
        <time>2011-04-17T12:34:13+02:00</time>
      </trkpt>
      <trkpt lat="44.19079" lon="5.25376">
        <ele>1149.39355</ele>
        <time>2011-04-17T12:34:22+02:00</time>
      </trkpt>
      <trkpt lat="44.19084" lon="5.25391">
        <ele>1149.87427</ele>
        <time>2011-04-17T12:34:30+02:00</time>
      </trkpt>
      <trkpt lat="44.1909" lon="5.25405">
        <ele>1150.35498</ele>
        <time>2011-04-17T12:34:38+02:00</time>
      </trkpt>
      <trkpt lat="44.19096" lon="5.25414">
        <ele>1151.79688</ele>
        <time>2011-04-17T12:34:44+02:00</time>
      </trkpt>
      <trkpt lat="44.19103" lon="5.25429">
        <ele>1153.23877</ele>
        <time>2011-04-17T12:34:52+02:00</time>
      </trkpt>
      <trkpt lat="44.1911" lon="5.2544">
        <ele>1153.23877</ele>
        <time>2011-04-17T12:34:59+02:00</time>
      </trkpt>
      <trkpt lat="44.19118" lon="5.25454">
        <ele>1154.68066</ele>
        <time>2011-04-17T12:35:07+02:00</time>
      </trkpt>
      <trkpt lat="44.19123" lon="5.25465">
        <ele>1154.2002</ele>
        <time>2011-04-17T12:35:13+02:00</time>
      </trkpt>
      <trkpt lat="44.1913" lon="5.25477">
        <ele>1155.16138</ele>
        <time>2011-04-17T12:35:20+02:00</time>
      </trkpt>
      <trkpt lat="44.19134" lon="5.2549">
        <ele>1156.60327</ele>
        <time>2011-04-17T12:35:26+02:00</time>
      </trkpt>
      <trkpt lat="44.1914" lon="5.25504">
        <ele>1157.5647</ele>
        <time>2011-04-17T12:35:33+02:00</time>
      </trkpt>
      <trkpt lat="44.19146" lon="5.2552">
        <ele>1158.04541</ele>
        <time>2011-04-17T12:35:41+02:00</time>
      </trkpt>
      <trkpt lat="44.1915" lon="5.25528">
        <ele>1158.52588</ele>
        <time>2011-04-17T12:35:48+02:00</time>
      </trkpt>
      <trkpt lat="44.19152" lon="5.25526">
        <ele>1158.04541</ele>
        <time>2011-04-17T12:35:53+02:00</time>
      </trkpt>
      <trkpt lat="44.19152" lon="5.25527">
        <ele>1157.5647</ele>
        <time>2011-04-17T12:35:57+02:00</time>
      </trkpt>
      <trkpt lat="44.19152" lon="5.25529">
        <ele>1158.52588</ele>
        <time>2011-04-17T12:36:03+02:00</time>
      </trkpt>
      <trkpt lat="44.19153" lon="5.2553">
        <ele>1159.96777</ele>
        <time>2011-04-17T12:36:12+02:00</time>
      </trkpt>
      <trkpt lat="44.19152" lon="5.25531">
        <ele>1165.25537</ele>
        <time>2011-04-17T12:36:49+02:00</time>
      </trkpt>
      <trkpt lat="44.19154" lon="5.25536">
        <ele>1164.77466</ele>
        <time>2011-04-17T12:36:54+02:00</time>
      </trkpt>
      <trkpt lat="44.19155" lon="5.25538">
        <ele>1164.77466</ele>
        <time>2011-04-17T12:37:00+02:00</time>
      </trkpt>
      <trkpt lat="44.19155" lon="5.25541">
        <ele>1164.29395</ele>
        <time>2011-04-17T12:37:02+02:00</time>
      </trkpt>
      <trkpt lat="44.19158" lon="5.25548">
        <ele>1164.29395</ele>
        <time>2011-04-17T12:37:08+02:00</time>
      </trkpt>
      <trkpt lat="44.1916" lon="5.25548">
        <ele>1163.81299</ele>
        <time>2011-04-17T12:37:10+02:00</time>
      </trkpt>
      <trkpt lat="44.19163" lon="5.25555">
        <ele>1164.29395</ele>
        <time>2011-04-17T12:37:15+02:00</time>
      </trkpt>
      <trkpt lat="44.19165" lon="5.2556">
        <ele>1165.25537</ele>
        <time>2011-04-17T12:37:18+02:00</time>
      </trkpt>
      <trkpt lat="44.19168" lon="5.25573">
        <ele>1167.65845</ele>
        <time>2011-04-17T12:37:25+02:00</time>
      </trkpt>
      <trkpt lat="44.19169" lon="5.25585">
        <ele>1170.06177</ele>
        <time>2011-04-17T12:37:31+02:00</time>
      </trkpt>
      <trkpt lat="44.19169" lon="5.25587">
        <ele>1171.50366</ele>
        <time>2011-04-17T12:37:33+02:00</time>
      </trkpt>
      <trkpt lat="44.19174" lon="5.25602">
        <ele>1171.98438</ele>
        <time>2011-04-17T12:37:39+02:00</time>
      </trkpt>
      <trkpt lat="44.19176" lon="5.25607">
        <ele>1171.98438</ele>
        <time>2011-04-17T12:37:42+02:00</time>
      </trkpt>
      <trkpt lat="44.19181" lon="5.25624">
        <ele>1173.42651</ele>
        <time>2011-04-17T12:37:49+02:00</time>
      </trkpt>
      <trkpt lat="44.19183" lon="5.25629">
        <ele>1174.86841</ele>
        <time>2011-04-17T12:37:52+02:00</time>
      </trkpt>
      <trkpt lat="44.19185" lon="5.25643">
        <ele>1175.34888</ele>
        <time>2011-04-17T12:37:58+02:00</time>
      </trkpt>
      <trkpt lat="44.19186" lon="5.25649">
        <ele>1175.34888</ele>
        <time>2011-04-17T12:38:01+02:00</time>
      </trkpt>
      <trkpt lat="44.19189" lon="5.25662">
        <ele>1178.23291</ele>
        <time>2011-04-17T12:38:07+02:00</time>
      </trkpt>
      <trkpt lat="44.19189" lon="5.25665">
        <ele>1178.71362</ele>
        <time>2011-04-17T12:38:08+02:00</time>
      </trkpt>
      <trkpt lat="44.19192" lon="5.25681">
        <ele>1180.15576</ele>
        <time>2011-04-17T12:38:15+02:00</time>
      </trkpt>
      <trkpt lat="44.19193" lon="5.25688">
        <ele>1181.11719</ele>
        <time>2011-04-17T12:38:18+02:00</time>
      </trkpt>
      <trkpt lat="44.19194" lon="5.25707">
        <ele>1182.07837</ele>
        <time>2011-04-17T12:38:26+02:00</time>
      </trkpt>
      <trkpt lat="44.19194" lon="5.25717">
        <ele>1182.07837</ele>
        <time>2011-04-17T12:38:30+02:00</time>
      </trkpt>
      <trkpt lat="44.19197" lon="5.25729">
        <ele>1184.9624</ele>
        <time>2011-04-17T12:38:36+02:00</time>
      </trkpt>
      <trkpt lat="44.19197" lon="5.25737">
        <ele>1189.28809</ele>
        <time>2011-04-17T12:38:41+02:00</time>
      </trkpt>
      <trkpt lat="44.19197" lon="5.25749">
        <ele>1195.53662</ele>
        <time>2011-04-17T12:38:47+02:00</time>
      </trkpt>
      <trkpt lat="44.19196" lon="5.25753">
        <ele>1196.97876</ele>
        <time>2011-04-17T12:38:49+02:00</time>
      </trkpt>
      <trkpt lat="44.19196" lon="5.2577">
        <ele>1200.82397</ele>
        <time>2011-04-17T12:38:56+02:00</time>
      </trkpt>
      <trkpt lat="44.19194" lon="5.25784">
        <ele>1201.7854</ele>
        <time>2011-04-17T12:39:03+02:00</time>
      </trkpt>
      <trkpt lat="44.19197" lon="5.25798">
        <ele>1194.5752</ele>
        <time>2011-04-17T12:39:09+02:00</time>
      </trkpt>
      <trkpt lat="44.19197" lon="5.25808">
        <ele>1192.17212</ele>
        <time>2011-04-17T12:39:15+02:00</time>
      </trkpt>
      <trkpt lat="44.19195" lon="5.25814">
        <ele>1189.7688</ele>
        <time>2011-04-17T12:39:22+02:00</time>
      </trkpt>
      <trkpt lat="44.19194" lon="5.25818">
        <ele>1187.36548</ele>
        <time>2011-04-17T12:39:33+02:00</time>
      </trkpt>
      <trkpt lat="44.19192" lon="5.25822">
        <ele>1190.24951</ele>
        <time>2011-04-17T12:39:40+02:00</time>
      </trkpt>
      <trkpt lat="44.19191" lon="5.25822">
        <ele>1192.65283</ele>
        <time>2011-04-17T12:39:44+02:00</time>
      </trkpt>
      <trkpt lat="44.19192" lon="5.25824">
        <ele>1193.61401</ele>
        <time>2011-04-17T12:39:50+02:00</time>
      </trkpt>
      <trkpt lat="44.19182" lon="5.25826">
        <ele>1191.69141</ele>
        <time>2011-04-17T12:39:58+02:00</time>
      </trkpt>
      <trkpt lat="44.19182" lon="5.25824">
        <ele>1192.17212</ele>
        <time>2011-04-17T12:40:05+02:00</time>
      </trkpt>
      <trkpt lat="44.19178" lon="5.25824">
        <ele>1190.72998</ele>
        <time>2011-04-17T12:40:12+02:00</time>
      </trkpt>
      <trkpt lat="44.19174" lon="5.25828">
        <ele>1190.24951</ele>
        <time>2011-04-17T12:40:22+02:00</time>
      </trkpt>
      <trkpt lat="44.19169" lon="5.25823">
        <ele>1189.28809</ele>
        <time>2011-04-17T12:40:27+02:00</time>
      </trkpt>
      <trkpt lat="44.19166" lon="5.2582">
        <ele>1187.84619</ele>
        <time>2011-04-17T12:40:33+02:00</time>
      </trkpt>
      <trkpt lat="44.19164" lon="5.25816">
        <ele>1189.7688</ele>
        <time>2011-04-17T12:40:52+02:00</time>
      </trkpt>
      <trkpt lat="44.1916" lon="5.2581">
        <ele>1188.3269</ele>
        <time>2011-04-17T12:40:57+02:00</time>
      </trkpt>
      <trkpt lat="44.19154" lon="5.25796">
        <ele>1186.88477</ele>
        <time>2011-04-17T12:41:05+02:00</time>
      </trkpt>
      <trkpt lat="44.19149" lon="5.25782">
        <ele>1187.36548</ele>
        <time>2011-04-17T12:41:12+02:00</time>
      </trkpt>
      <trkpt lat="44.19144" lon="5.25769">
        <ele>1187.84619</ele>
        <time>2011-04-17T12:41:18+02:00</time>
      </trkpt>
      <trkpt lat="44.19139" lon="5.25763">
        <ele>1188.3269</ele>
        <time>2011-04-17T12:41:22+02:00</time>
      </trkpt>
      <trkpt lat="44.19138" lon="5.25761">
        <ele>1188.3269</ele>
        <time>2011-04-17T12:41:23+02:00</time>
      </trkpt>
      <trkpt lat="44.19129" lon="5.25746">
        <ele>1188.80762</ele>
        <time>2011-04-17T12:41:31+02:00</time>
      </trkpt>
      <trkpt lat="44.19123" lon="5.25736">
        <ele>1189.7688</ele>
        <time>2011-04-17T12:41:37+02:00</time>
      </trkpt>
      <trkpt lat="44.19114" lon="5.25722">
        <ele>1192.17212</ele>
        <time>2011-04-17T12:41:46+02:00</time>
      </trkpt>
      <trkpt lat="44.19107" lon="5.2571">
        <ele>1195.05591</ele>
        <time>2011-04-17T12:41:53+02:00</time>
      </trkpt>
      <trkpt lat="44.19099" lon="5.257">
        <ele>1196.49829</ele>
        <time>2011-04-17T12:42:00+02:00</time>
      </trkpt>
      <trkpt lat="44.19092" lon="5.25691">
        <ele>1196.97876</ele>
        <time>2011-04-17T12:42:06+02:00</time>
      </trkpt>
      <trkpt lat="44.19084" lon="5.25679">
        <ele>1197.45947</ele>
        <time>2011-04-17T12:42:14+02:00</time>
      </trkpt>
      <trkpt lat="44.19078" lon="5.25671">
        <ele>1198.42065</ele>
        <time>2011-04-17T12:42:19+02:00</time>
      </trkpt>
      <trkpt lat="44.19073" lon="5.25663">
        <ele>1200.34351</ele>
        <time>2011-04-17T12:42:25+02:00</time>
      </trkpt>
      <trkpt lat="44.19066" lon="5.25654">
        <ele>1203.22729</ele>
        <time>2011-04-17T12:42:33+02:00</time>
      </trkpt>
      <trkpt lat="44.19059" lon="5.25646">
        <ele>1205.63062</ele>
        <time>2011-04-17T12:42:40+02:00</time>
      </trkpt>
      <trkpt lat="44.19052" lon="5.25636">
        <ele>1207.55322</ele>
        <time>2011-04-17T12:42:47+02:00</time>
      </trkpt>
      <trkpt lat="44.19046" lon="5.25625">
        <ele>1209.47583</ele>
        <time>2011-04-17T12:42:54+02:00</time>
      </trkpt>
      <trkpt lat="44.19039" lon="5.25613">
        <ele>1209.9563</ele>
        <time>2011-04-17T12:43:02+02:00</time>
      </trkpt>
      <trkpt lat="44.19033" lon="5.25604">
        <ele>1210.43701</ele>
        <time>2011-04-17T12:43:09+02:00</time>
      </trkpt>
      <trkpt lat="44.19026" lon="5.25596">
        <ele>1210.91772</ele>
        <time>2011-04-17T12:43:15+02:00</time>
      </trkpt>
      <trkpt lat="44.19019" lon="5.25588">
        <ele>1211.39844</ele>
        <time>2011-04-17T12:43:21+02:00</time>
      </trkpt>
      <trkpt lat="44.1901" lon="5.25579">
        <ele>1212.35986</ele>
        <time>2011-04-17T12:43:28+02:00</time>
      </trkpt>
      <trkpt lat="44.19" lon="5.25565">
        <ele>1212.84058</ele>
        <time>2011-04-17T12:43:37+02:00</time>
      </trkpt>
      <trkpt lat="44.18991" lon="5.25554">
        <ele>1213.80176</ele>
        <time>2011-04-17T12:43:45+02:00</time>
      </trkpt>
      <trkpt lat="44.18981" lon="5.25546">
        <ele>1215.2439</ele>
        <time>2011-04-17T12:43:52+02:00</time>
      </trkpt>
      <trkpt lat="44.1897" lon="5.25533">
        <ele>1220.05029</ele>
        <time>2011-04-17T12:44:01+02:00</time>
      </trkpt>
      <trkpt lat="44.18962" lon="5.25527">
        <ele>1220.05029</ele>
        <time>2011-04-17T12:44:07+02:00</time>
      </trkpt>
      <trkpt lat="44.18951" lon="5.25517">
        <ele>1221.9729</ele>
        <time>2011-04-17T12:44:15+02:00</time>
      </trkpt>
      <trkpt lat="44.18938" lon="5.25508">
        <ele>1222.93433</ele>
        <time>2011-04-17T12:44:24+02:00</time>
      </trkpt>
      <trkpt lat="44.18928" lon="5.25497">
        <ele>1226.29883</ele>
        <time>2011-04-17T12:44:32+02:00</time>
      </trkpt>
      <trkpt lat="44.18921" lon="5.25485">
        <ele>1227.26025</ele>
        <time>2011-04-17T12:44:39+02:00</time>
      </trkpt>
      <trkpt lat="44.18914" lon="5.25465">
        <ele>1227.26025</ele>
        <time>2011-04-17T12:44:49+02:00</time>
      </trkpt>
      <trkpt lat="44.18907" lon="5.25447">
        <ele>1226.29883</ele>
        <time>2011-04-17T12:44:58+02:00</time>
      </trkpt>
      <trkpt lat="44.18901" lon="5.2543">
        <ele>1226.77954</ele>
        <time>2011-04-17T12:45:06+02:00</time>
      </trkpt>
      <trkpt lat="44.18895" lon="5.25412">
        <ele>1227.26025</ele>
        <time>2011-04-17T12:45:15+02:00</time>
      </trkpt>
      <trkpt lat="44.18891" lon="5.25398">
        <ele>1228.22168</ele>
        <time>2011-04-17T12:45:22+02:00</time>
      </trkpt>
      <trkpt lat="44.18885" lon="5.25384">
        <ele>1228.70239</ele>
        <time>2011-04-17T12:45:30+02:00</time>
      </trkpt>
      <trkpt lat="44.1888" lon="5.25371">
        <ele>1230.14429</ele>
        <time>2011-04-17T12:45:37+02:00</time>
      </trkpt>
      <trkpt lat="44.18873" lon="5.25356">
        <ele>1231.58618</ele>
        <time>2011-04-17T12:45:45+02:00</time>
      </trkpt>
      <trkpt lat="44.18867" lon="5.25343">
        <ele>1232.54761</ele>
        <time>2011-04-17T12:45:52+02:00</time>
      </trkpt>
      <trkpt lat="44.18859" lon="5.25324">
        <ele>1233.50879</ele>
        <time>2011-04-17T12:46:01+02:00</time>
      </trkpt>
      <trkpt lat="44.18853" lon="5.25309">
        <ele>1234.47021</ele>
        <time>2011-04-17T12:46:09+02:00</time>
      </trkpt>
      <trkpt lat="44.18847" lon="5.25294">
        <ele>1235.4314</ele>
        <time>2011-04-17T12:46:17+02:00</time>
      </trkpt>
      <trkpt lat="44.18841" lon="5.25282">
        <ele>1236.39282</ele>
        <time>2011-04-17T12:46:24+02:00</time>
      </trkpt>
      <trkpt lat="44.18837" lon="5.25269">
        <ele>1237.354</ele>
        <time>2011-04-17T12:46:31+02:00</time>
      </trkpt>
      <trkpt lat="44.1883" lon="5.25249">
        <ele>1239.27661</ele>
        <time>2011-04-17T12:46:41+02:00</time>
      </trkpt>
      <trkpt lat="44.18826" lon="5.25235">
        <ele>1240.23804</ele>
        <time>2011-04-17T12:46:48+02:00</time>
      </trkpt>
      <trkpt lat="44.18824" lon="5.25217">
        <ele>1241.67993</ele>
        <time>2011-04-17T12:46:57+02:00</time>
      </trkpt>
      <trkpt lat="44.1882" lon="5.252">
        <ele>1243.60254</ele>
        <time>2011-04-17T12:47:05+02:00</time>
      </trkpt>
      <trkpt lat="44.18817" lon="5.25185">
        <ele>1244.56396</ele>
        <time>2011-04-17T12:47:12+02:00</time>
      </trkpt>
      <trkpt lat="44.18812" lon="5.25166">
        <ele>1246.96729</ele>
        <time>2011-04-17T12:47:21+02:00</time>
      </trkpt>
      <trkpt lat="44.18808" lon="5.25154">
        <ele>1247.92871</ele>
        <time>2011-04-17T12:47:27+02:00</time>
      </trkpt>
      <trkpt lat="44.18804" lon="5.25142">
        <ele>1248.40918</ele>
        <time>2011-04-17T12:47:34+02:00</time>
      </trkpt>
      <trkpt lat="44.18799" lon="5.2513">
        <ele>1248.40918</ele>
        <time>2011-04-17T12:47:41+02:00</time>
      </trkpt>
      <trkpt lat="44.18796" lon="5.25116">
        <ele>1249.85132</ele>
        <time>2011-04-17T12:47:48+02:00</time>
      </trkpt>
      <trkpt lat="44.18792" lon="5.25102">
        <ele>1252.25439</ele>
        <time>2011-04-17T12:47:55+02:00</time>
      </trkpt>
      <trkpt lat="44.18788" lon="5.25085">
        <ele>1253.69653</ele>
        <time>2011-04-17T12:48:03+02:00</time>
      </trkpt>
      <trkpt lat="44.18782" lon="5.25073">
        <ele>1252.25439</ele>
        <time>2011-04-17T12:48:10+02:00</time>
      </trkpt>
      <trkpt lat="44.18778" lon="5.25061">
        <ele>1252.73511</ele>
        <time>2011-04-17T12:48:16+02:00</time>
      </trkpt>
      <trkpt lat="44.18772" lon="5.25048">
        <ele>1252.73511</ele>
        <time>2011-04-17T12:48:23+02:00</time>
      </trkpt>
      <trkpt lat="44.18766" lon="5.25034">
        <ele>1254.17725</ele>
        <time>2011-04-17T12:48:30+02:00</time>
      </trkpt>
      <trkpt lat="44.18761" lon="5.25024">
        <ele>1256.58032</ele>
        <time>2011-04-17T12:48:36+02:00</time>
      </trkpt>
      <trkpt lat="44.18754" lon="5.25013">
        <ele>1257.54175</ele>
        <time>2011-04-17T12:48:43+02:00</time>
      </trkpt>
      <trkpt lat="44.18748" lon="5.25004">
        <ele>1258.02246</ele>
        <time>2011-04-17T12:48:49+02:00</time>
      </trkpt>
      <trkpt lat="44.18745" lon="5.25">
        <ele>1258.98364</ele>
        <time>2011-04-17T12:48:52+02:00</time>
      </trkpt>
      <trkpt lat="44.18741" lon="5.24995">
        <ele>1260.42578</ele>
        <time>2011-04-17T12:48:57+02:00</time>
      </trkpt>
      <trkpt lat="44.18737" lon="5.24987">
        <ele>1261.86792</ele>
        <time>2011-04-17T12:49:02+02:00</time>
      </trkpt>
      <trkpt lat="44.18731" lon="5.24978">
        <ele>1262.8291</ele>
        <time>2011-04-17T12:49:08+02:00</time>
      </trkpt>
      <trkpt lat="44.18722" lon="5.24968">
        <ele>1263.79028</ele>
        <time>2011-04-17T12:49:15+02:00</time>
      </trkpt>
      <trkpt lat="44.18716" lon="5.24958">
        <ele>1264.271</ele>
        <time>2011-04-17T12:49:21+02:00</time>
      </trkpt>
      <trkpt lat="44.1871" lon="5.24951">
        <ele>1264.271</ele>
        <time>2011-04-17T12:49:26+02:00</time>
      </trkpt>
      <trkpt lat="44.18703" lon="5.24957">
        <ele>1265.23242</ele>
        <time>2011-04-17T12:49:33+02:00</time>
      </trkpt>
      <trkpt lat="44.18703" lon="5.24959">
        <ele>1265.71313</ele>
        <time>2011-04-17T12:49:34+02:00</time>
      </trkpt>
      <trkpt lat="44.18706" lon="5.24966">
        <ele>1266.67432</ele>
        <time>2011-04-17T12:49:38+02:00</time>
      </trkpt>
      <trkpt lat="44.18711" lon="5.24972">
        <ele>1267.6355</ele>
        <time>2011-04-17T12:49:43+02:00</time>
      </trkpt>
      <trkpt lat="44.18718" lon="5.24982">
        <ele>1269.07764</ele>
        <time>2011-04-17T12:49:50+02:00</time>
      </trkpt>
      <trkpt lat="44.18722" lon="5.24992">
        <ele>1269.55835</ele>
        <time>2011-04-17T12:49:56+02:00</time>
      </trkpt>
      <trkpt lat="44.18727" lon="5.25004">
        <ele>1269.55835</ele>
        <time>2011-04-17T12:50:04+02:00</time>
      </trkpt>
      <trkpt lat="44.18731" lon="5.25012">
        <ele>1270.03882</ele>
        <time>2011-04-17T12:50:09+02:00</time>
      </trkpt>
      <trkpt lat="44.18733" lon="5.25017">
        <ele>1271.00024</ele>
        <time>2011-04-17T12:50:12+02:00</time>
      </trkpt>
      <trkpt lat="44.18738" lon="5.25029">
        <ele>1273.40356</ele>
        <time>2011-04-17T12:50:19+02:00</time>
      </trkpt>
      <trkpt lat="44.1874" lon="5.25041">
        <ele>1273.40356</ele>
        <time>2011-04-17T12:50:25+02:00</time>
      </trkpt>
      <trkpt lat="44.18745" lon="5.25058">
        <ele>1274.36475</ele>
        <time>2011-04-17T12:50:34+02:00</time>
      </trkpt>
      <trkpt lat="44.18747" lon="5.25071">
        <ele>1274.36475</ele>
        <time>2011-04-17T12:50:41+02:00</time>
      </trkpt>
      <trkpt lat="44.18748" lon="5.25084">
        <ele>1274.84546</ele>
        <time>2011-04-17T12:50:48+02:00</time>
      </trkpt>
      <trkpt lat="44.1875" lon="5.2509">
        <ele>1274.84546</ele>
        <time>2011-04-17T12:50:52+02:00</time>
      </trkpt>
      <trkpt lat="44.1875" lon="5.25105">
        <ele>1275.32593</ele>
        <time>2011-04-17T12:50:59+02:00</time>
      </trkpt>
      <trkpt lat="44.18751" lon="5.25119">
        <ele>1275.32593</ele>
        <time>2011-04-17T12:51:06+02:00</time>
      </trkpt>
      <trkpt lat="44.18752" lon="5.25131">
        <ele>1275.80664</ele>
        <time>2011-04-17T12:51:12+02:00</time>
      </trkpt>
      <trkpt lat="44.18753" lon="5.25148">
        <ele>1277.72949</ele>
        <time>2011-04-17T12:51:21+02:00</time>
      </trkpt>
      <trkpt lat="44.18754" lon="5.25159">
        <ele>1279.17139</ele>
        <time>2011-04-17T12:51:27+02:00</time>
      </trkpt>
      <trkpt lat="44.18755" lon="5.25176">
        <ele>1280.61353</ele>
        <time>2011-04-17T12:51:36+02:00</time>
      </trkpt>
      <trkpt lat="44.18755" lon="5.25189">
        <ele>1281.09424</ele>
        <time>2011-04-17T12:51:43+02:00</time>
      </trkpt>
      <trkpt lat="44.18756" lon="5.25204">
        <ele>1283.97803</ele>
        <time>2011-04-17T12:51:50+02:00</time>
      </trkpt>
      <trkpt lat="44.18757" lon="5.25219">
        <ele>1284.45874</ele>
        <time>2011-04-17T12:51:58+02:00</time>
      </trkpt>
      <trkpt lat="44.18758" lon="5.25231">
        <ele>1285.41992</ele>
        <time>2011-04-17T12:52:04+02:00</time>
      </trkpt>
      <trkpt lat="44.18758" lon="5.25243">
        <ele>1287.34253</ele>
        <time>2011-04-17T12:52:11+02:00</time>
      </trkpt>
      <trkpt lat="44.18759" lon="5.25257">
        <ele>1287.34253</ele>
        <time>2011-04-17T12:52:18+02:00</time>
      </trkpt>
      <trkpt lat="44.18759" lon="5.25269">
        <ele>1288.30396</ele>
        <time>2011-04-17T12:52:24+02:00</time>
      </trkpt>
      <trkpt lat="44.1876" lon="5.25283">
        <ele>1289.26514</ele>
        <time>2011-04-17T12:52:31+02:00</time>
      </trkpt>
      <trkpt lat="44.18761" lon="5.25298">
        <ele>1290.70703</ele>
        <time>2011-04-17T12:52:39+02:00</time>
      </trkpt>
      <trkpt lat="44.18763" lon="5.25315">
        <ele>1291.66846</ele>
        <time>2011-04-17T12:52:47+02:00</time>
      </trkpt>
      <trkpt lat="44.18765" lon="5.25329">
        <ele>1292.14941</ele>
        <time>2011-04-17T12:52:54+02:00</time>
      </trkpt>
      <trkpt lat="44.18767" lon="5.25343">
        <ele>1292.63013</ele>
        <time>2011-04-17T12:53:02+02:00</time>
      </trkpt>
      <trkpt lat="44.1877" lon="5.2536">
        <ele>1293.59131</ele>
        <time>2011-04-17T12:53:10+02:00</time>
      </trkpt>
      <trkpt lat="44.1877" lon="5.25373">
        <ele>1294.55249</ele>
        <time>2011-04-17T12:53:16+02:00</time>
      </trkpt>
      <trkpt lat="44.18771" lon="5.25386">
        <ele>1297.43652</ele>
        <time>2011-04-17T12:53:23+02:00</time>
      </trkpt>
      <trkpt lat="44.18775" lon="5.25402">
        <ele>1299.83984</ele>
        <time>2011-04-17T12:53:31+02:00</time>
      </trkpt>
      <trkpt lat="44.18777" lon="5.25417">
        <ele>1299.83984</ele>
        <time>2011-04-17T12:53:38+02:00</time>
      </trkpt>
      <trkpt lat="44.18778" lon="5.25428">
        <ele>1299.83984</ele>
        <time>2011-04-17T12:53:44+02:00</time>
      </trkpt>
      <trkpt lat="44.18779" lon="5.25439">
        <ele>1299.83984</ele>
        <time>2011-04-17T12:53:50+02:00</time>
      </trkpt>
      <trkpt lat="44.18779" lon="5.25455">
        <ele>1300.80103</ele>
        <time>2011-04-17T12:53:58+02:00</time>
      </trkpt>
      <trkpt lat="44.18781" lon="5.25468">
        <ele>1302.72363</ele>
        <time>2011-04-17T12:54:04+02:00</time>
      </trkpt>
      <trkpt lat="44.18783" lon="5.25484">
        <ele>1305.60767</ele>
        <time>2011-04-17T12:54:12+02:00</time>
      </trkpt>
      <trkpt lat="44.18784" lon="5.25497">
        <ele>1307.04956</ele>
        <time>2011-04-17T12:54:20+02:00</time>
      </trkpt>
      <trkpt lat="44.18786" lon="5.25508">
        <ele>1306.56885</ele>
        <time>2011-04-17T12:54:26+02:00</time>
      </trkpt>
      <trkpt lat="44.18788" lon="5.25522">
        <ele>1306.56885</ele>
        <time>2011-04-17T12:54:33+02:00</time>
      </trkpt>
      <trkpt lat="44.1879" lon="5.25537">
        <ele>1308.4917</ele>
        <time>2011-04-17T12:54:40+02:00</time>
      </trkpt>
      <trkpt lat="44.18791" lon="5.25549">
        <ele>1308.4917</ele>
        <time>2011-04-17T12:54:46+02:00</time>
      </trkpt>
      <trkpt lat="44.18794" lon="5.25567">
        <ele>1309.45312</ele>
        <time>2011-04-17T12:54:54+02:00</time>
      </trkpt>
      <trkpt lat="44.18797" lon="5.25581">
        <ele>1309.45312</ele>
        <time>2011-04-17T12:55:01+02:00</time>
      </trkpt>
      <trkpt lat="44.188" lon="5.25599">
        <ele>1312.81763</ele>
        <time>2011-04-17T12:55:10+02:00</time>
      </trkpt>
      <trkpt lat="44.18804" lon="5.2561">
        <ele>1312.81763</ele>
        <time>2011-04-17T12:55:16+02:00</time>
      </trkpt>
      <trkpt lat="44.18809" lon="5.25625">
        <ele>1311.85645</ele>
        <time>2011-04-17T12:55:23+02:00</time>
      </trkpt>
      <trkpt lat="44.18817" lon="5.25638">
        <ele>1312.33691</ele>
        <time>2011-04-17T12:55:30+02:00</time>
      </trkpt>
      <trkpt lat="44.18828" lon="5.25655">
        <ele>1311.85645</ele>
        <time>2011-04-17T12:55:39+02:00</time>
      </trkpt>
      <trkpt lat="44.18837" lon="5.25668">
        <ele>1311.37573</ele>
        <time>2011-04-17T12:55:46+02:00</time>
      </trkpt>
      <trkpt lat="44.1885" lon="5.2569">
        <ele>1311.85645</ele>
        <time>2011-04-17T12:55:57+02:00</time>
      </trkpt>
      <trkpt lat="44.1886" lon="5.25708">
        <ele>1313.29834</ele>
        <time>2011-04-17T12:56:06+02:00</time>
      </trkpt>
      <trkpt lat="44.18868" lon="5.25723">
        <ele>1315.22095</ele>
        <time>2011-04-17T12:56:14+02:00</time>
      </trkpt>
      <trkpt lat="44.18873" lon="5.25735">
        <ele>1317.14355</ele>
        <time>2011-04-17T12:56:20+02:00</time>
      </trkpt>
      <trkpt lat="44.18878" lon="5.25753">
        <ele>1319.54688</ele>
        <time>2011-04-17T12:56:28+02:00</time>
      </trkpt>
      <trkpt lat="44.18882" lon="5.25768">
        <ele>1320.98877</ele>
        <time>2011-04-17T12:56:35+02:00</time>
      </trkpt>
      <trkpt lat="44.18885" lon="5.25782">
        <ele>1322.43066</ele>
        <time>2011-04-17T12:56:42+02:00</time>
      </trkpt>
      <trkpt lat="44.18888" lon="5.25796">
        <ele>1322.43066</ele>
        <time>2011-04-17T12:56:48+02:00</time>
      </trkpt>
      <trkpt lat="44.1889" lon="5.25811">
        <ele>1323.39209</ele>
        <time>2011-04-17T12:56:55+02:00</time>
      </trkpt>
      <trkpt lat="44.18891" lon="5.25828">
        <ele>1323.87256</ele>
        <time>2011-04-17T12:57:02+02:00</time>
      </trkpt>
      <trkpt lat="44.18892" lon="5.25843">
        <ele>1325.79541</ele>
        <time>2011-04-17T12:57:09+02:00</time>
      </trkpt>
      <trkpt lat="44.18894" lon="5.25859">
        <ele>1326.75684</ele>
        <time>2011-04-17T12:57:16+02:00</time>
      </trkpt>
      <trkpt lat="44.18895" lon="5.25881">
        <ele>1330.12134</ele>
        <time>2011-04-17T12:57:26+02:00</time>
      </trkpt>
      <trkpt lat="44.18896" lon="5.25899">
        <ele>1330.60205</ele>
        <time>2011-04-17T12:57:34+02:00</time>
      </trkpt>
      <trkpt lat="44.18896" lon="5.25913">
        <ele>1331.08276</ele>
        <time>2011-04-17T12:57:40+02:00</time>
      </trkpt>
      <trkpt lat="44.18896" lon="5.25928">
        <ele>1333.00513</ele>
        <time>2011-04-17T12:57:47+02:00</time>
      </trkpt>
      <trkpt lat="44.18899" lon="5.25951">
        <ele>1334.44727</ele>
        <time>2011-04-17T12:57:57+02:00</time>
      </trkpt>
      <trkpt lat="44.189" lon="5.25969">
        <ele>1334.92798</ele>
        <time>2011-04-17T12:58:05+02:00</time>
      </trkpt>
      <trkpt lat="44.18898" lon="5.25989">
        <ele>1337.81177</ele>
        <time>2011-04-17T12:58:14+02:00</time>
      </trkpt>
      <trkpt lat="44.18897" lon="5.26003">
        <ele>1338.77319</ele>
        <time>2011-04-17T12:58:20+02:00</time>
      </trkpt>
      <trkpt lat="44.18898" lon="5.26009">
        <ele>1340.21533</ele>
        <time>2011-04-17T12:58:23+02:00</time>
      </trkpt>
      <trkpt lat="44.18897" lon="5.26028">
        <ele>1342.61865</ele>
        <time>2011-04-17T12:58:31+02:00</time>
      </trkpt>
      <trkpt lat="44.1889" lon="5.2604">
        <ele>1343.57983</ele>
        <time>2011-04-17T12:58:38+02:00</time>
      </trkpt>
      <trkpt lat="44.1888" lon="5.26041">
        <ele>1344.54102</ele>
        <time>2011-04-17T12:58:45+02:00</time>
      </trkpt>
      <trkpt lat="44.18878" lon="5.2604">
        <ele>1344.54102</ele>
        <time>2011-04-17T12:58:47+02:00</time>
      </trkpt>
      <trkpt lat="44.18868" lon="5.26026">
        <ele>1345.02173</ele>
        <time>2011-04-17T12:58:55+02:00</time>
      </trkpt>
      <trkpt lat="44.18864" lon="5.26017">
        <ele>1344.54102</ele>
        <time>2011-04-17T12:59:00+02:00</time>
      </trkpt>
      <trkpt lat="44.18859" lon="5.26012">
        <ele>1342.61865</ele>
        <time>2011-04-17T12:59:05+02:00</time>
      </trkpt>
      <trkpt lat="44.18857" lon="5.26009">
        <ele>1341.17651</ele>
        <time>2011-04-17T12:59:08+02:00</time>
      </trkpt>
      <trkpt lat="44.18854" lon="5.25996">
        <ele>1338.29248</ele>
        <time>2011-04-17T12:59:13+02:00</time>
      </trkpt>
      <trkpt lat="44.18855" lon="5.25972">
        <ele>1333.96655</ele>
        <time>2011-04-17T12:59:17+02:00</time>
      </trkpt>
      <trkpt lat="44.18858" lon="5.25948">
        <ele>1329.15991</ele>
        <time>2011-04-17T12:59:22+02:00</time>
      </trkpt>
      <trkpt lat="44.18856" lon="5.25934">
        <ele>1327.23755</ele>
        <time>2011-04-17T12:59:28+02:00</time>
      </trkpt>
      <trkpt lat="44.18851" lon="5.2592">
        <ele>1330.12134</ele>
        <time>2011-04-17T12:59:34+02:00</time>
      </trkpt>
      <trkpt lat="44.18847" lon="5.2591">
        <ele>1331.56323</ele>
        <time>2011-04-17T12:59:40+02:00</time>
      </trkpt>
      <trkpt lat="44.18845" lon="5.25907">
        <ele>1330.60205</ele>
        <time>2011-04-17T12:59:50+02:00</time>
      </trkpt>
      <trkpt lat="44.18846" lon="5.25905">
        <ele>1332.04395</ele>
        <time>2011-04-17T13:00:10+02:00</time>
      </trkpt>
      <trkpt lat="44.18845" lon="5.259">
        <ele>1334.44727</ele>
        <time>2011-04-17T13:00:24+02:00</time>
      </trkpt>
      <trkpt lat="44.18838" lon="5.25891">
        <ele>1336.36987</ele>
        <time>2011-04-17T13:00:29+02:00</time>
      </trkpt>
      <trkpt lat="44.18825" lon="5.25878">
        <ele>1337.33105</ele>
        <time>2011-04-17T13:00:37+02:00</time>
      </trkpt>
      <trkpt lat="44.18817" lon="5.25869">
        <ele>1339.73438</ele>
        <time>2011-04-17T13:00:43+02:00</time>
      </trkpt>
      <trkpt lat="44.18814" lon="5.25864">
        <ele>1341.17651</ele>
        <time>2011-04-17T13:00:48+02:00</time>
      </trkpt>
      <trkpt lat="44.18809" lon="5.25857">
        <ele>1344.54102</ele>
        <time>2011-04-17T13:00:55+02:00</time>
      </trkpt>
      <trkpt lat="44.18803" lon="5.25853">
        <ele>1346.94434</ele>
        <time>2011-04-17T13:01:03+02:00</time>
      </trkpt>
      <trkpt lat="44.18798" lon="5.2585">
        <ele>1346.46387</ele>
        <time>2011-04-17T13:01:08+02:00</time>
      </trkpt>
      <trkpt lat="44.18789" lon="5.25844">
        <ele>1346.94434</ele>
        <time>2011-04-17T13:01:16+02:00</time>
      </trkpt>
      <trkpt lat="44.18786" lon="5.25841">
        <ele>1345.02173</ele>
        <time>2011-04-17T13:01:22+02:00</time>
      </trkpt>
      <trkpt lat="44.1878" lon="5.25837">
        <ele>1345.98315</ele>
        <time>2011-04-17T13:01:26+02:00</time>
      </trkpt>
      <trkpt lat="44.18768" lon="5.2582">
        <ele>1347.42505</ele>
        <time>2011-04-17T13:01:35+02:00</time>
      </trkpt>
      <trkpt lat="44.18755" lon="5.2581">
        <ele>1349.34766</ele>
        <time>2011-04-17T13:01:42+02:00</time>
      </trkpt>
      <trkpt lat="44.18742" lon="5.2579">
        <ele>1348.38623</ele>
        <time>2011-04-17T13:01:48+02:00</time>
      </trkpt>
      <trkpt lat="44.18731" lon="5.25773">
        <ele>1349.34766</ele>
        <time>2011-04-17T13:01:53+02:00</time>
      </trkpt>
      <trkpt lat="44.18717" lon="5.25759">
        <ele>1349.34766</ele>
        <time>2011-04-17T13:01:59+02:00</time>
      </trkpt>
      <trkpt lat="44.18714" lon="5.25751">
        <ele>1353.67358</ele>
        <time>2011-04-17T13:02:04+02:00</time>
      </trkpt>
      <trkpt lat="44.18712" lon="5.2575">
        <ele>1354.1543</ele>
        <time>2011-04-17T13:02:09+02:00</time>
      </trkpt>
      <trkpt lat="44.1871" lon="5.25753">
        <ele>1354.1543</ele>
        <time>2011-04-17T13:02:11+02:00</time>
      </trkpt>
      <trkpt lat="44.18705" lon="5.25762">
        <ele>1354.1543</ele>
        <time>2011-04-17T13:02:15+02:00</time>
      </trkpt>
      <trkpt lat="44.18698" lon="5.25774">
        <ele>1353.19287</ele>
        <time>2011-04-17T13:02:21+02:00</time>
      </trkpt>
      <trkpt lat="44.18692" lon="5.25778">
        <ele>1352.71216</ele>
        <time>2011-04-17T13:02:25+02:00</time>
      </trkpt>
      <trkpt lat="44.18686" lon="5.2578">
        <ele>1352.23145</ele>
        <time>2011-04-17T13:02:29+02:00</time>
      </trkpt>
      <trkpt lat="44.18675" lon="5.25778">
        <ele>1350.30908</ele>
        <time>2011-04-17T13:02:36+02:00</time>
      </trkpt>
      <trkpt lat="44.18665" lon="5.2577">
        <ele>1349.82837</ele>
        <time>2011-04-17T13:02:43+02:00</time>
      </trkpt>
      <trkpt lat="44.18653" lon="5.25759">
        <ele>1352.71216</ele>
        <time>2011-04-17T13:02:50+02:00</time>
      </trkpt>
      <trkpt lat="44.18645" lon="5.25752">
        <ele>1354.63477</ele>
        <time>2011-04-17T13:02:56+02:00</time>
      </trkpt>
      <trkpt lat="44.18634" lon="5.25742">
        <ele>1357.99976</ele>
        <time>2011-04-17T13:03:04+02:00</time>
      </trkpt>
      <trkpt lat="44.18625" lon="5.25737">
        <ele>1360.40283</ele>
        <time>2011-04-17T13:03:11+02:00</time>
      </trkpt>
      <trkpt lat="44.18613" lon="5.25732">
        <ele>1359.44165</ele>
        <time>2011-04-17T13:03:18+02:00</time>
      </trkpt>
      <trkpt lat="44.18598" lon="5.2572">
        <ele>1358.96094</ele>
        <time>2011-04-17T13:03:27+02:00</time>
      </trkpt>
      <trkpt lat="44.18586" lon="5.25706">
        <ele>1360.88354</ele>
        <time>2011-04-17T13:03:35+02:00</time>
      </trkpt>
      <trkpt lat="44.18576" lon="5.25691">
        <ele>1360.88354</ele>
        <time>2011-04-17T13:03:40+02:00</time>
      </trkpt>
      <trkpt lat="44.18567" lon="5.25662">
        <ele>1360.40283</ele>
        <time>2011-04-17T13:03:45+02:00</time>
      </trkpt>
      <trkpt lat="44.18559" lon="5.25642">
        <ele>1361.36426</ele>
        <time>2011-04-17T13:03:49+02:00</time>
      </trkpt>
      <trkpt lat="44.18552" lon="5.25632">
        <ele>1361.84497</ele>
        <time>2011-04-17T13:03:55+02:00</time>
      </trkpt>
      <trkpt lat="44.18543" lon="5.25623">
        <ele>1361.84497</ele>
        <time>2011-04-17T13:04:03+02:00</time>
      </trkpt>
      <trkpt lat="44.18534" lon="5.25615">
        <ele>1362.80615</ele>
        <time>2011-04-17T13:04:10+02:00</time>
      </trkpt>
      <trkpt lat="44.18524" lon="5.25606">
        <ele>1364.72876</ele>
        <time>2011-04-17T13:04:18+02:00</time>
      </trkpt>
      <trkpt lat="44.18518" lon="5.25599">
        <ele>1366.17065</ele>
        <time>2011-04-17T13:04:24+02:00</time>
      </trkpt>
      <trkpt lat="44.18508" lon="5.25591">
        <ele>1367.61255</ele>
        <time>2011-04-17T13:04:33+02:00</time>
      </trkpt>
      <trkpt lat="44.18497" lon="5.25582">
        <ele>1369.5354</ele>
        <time>2011-04-17T13:04:42+02:00</time>
      </trkpt>
      <trkpt lat="44.18488" lon="5.25574">
        <ele>1370.01587</ele>
        <time>2011-04-17T13:04:50+02:00</time>
      </trkpt>
      <trkpt lat="44.1848" lon="5.25569">
        <ele>1370.49658</ele>
        <time>2011-04-17T13:04:56+02:00</time>
      </trkpt>
      <trkpt lat="44.1847" lon="5.25562">
        <ele>1371.45776</ele>
        <time>2011-04-17T13:05:04+02:00</time>
      </trkpt>
      <trkpt lat="44.18461" lon="5.25557">
        <ele>1372.41943</ele>
        <time>2011-04-17T13:05:11+02:00</time>
      </trkpt>
      <trkpt lat="44.18456" lon="5.25556">
        <ele>1371.45776</ele>
        <time>2011-04-17T13:05:17+02:00</time>
      </trkpt>
      <trkpt lat="44.18449" lon="5.25558">
        <ele>1370.01587</ele>
        <time>2011-04-17T13:05:24+02:00</time>
      </trkpt>
      <trkpt lat="44.18443" lon="5.25558">
        <ele>1370.49658</ele>
        <time>2011-04-17T13:05:29+02:00</time>
      </trkpt>
      <trkpt lat="44.18436" lon="5.2556">
        <ele>1370.97729</ele>
        <time>2011-04-17T13:05:38+02:00</time>
      </trkpt>
      <trkpt lat="44.18428" lon="5.2556">
        <ele>1373.38086</ele>
        <time>2011-04-17T13:05:46+02:00</time>
      </trkpt>
      <trkpt lat="44.18419" lon="5.25562">
        <ele>1375.78394</ele>
        <time>2011-04-17T13:05:55+02:00</time>
      </trkpt>
      <trkpt lat="44.1841" lon="5.25564">
        <ele>1377.22607</ele>
        <time>2011-04-17T13:06:04+02:00</time>
      </trkpt>
      <trkpt lat="44.18403" lon="5.25565">
        <ele>1378.66797</ele>
        <time>2011-04-17T13:06:11+02:00</time>
      </trkpt>
      <trkpt lat="44.18397" lon="5.25568">
        <ele>1380.10986</ele>
        <time>2011-04-17T13:06:18+02:00</time>
      </trkpt>
      <trkpt lat="44.18389" lon="5.25569">
        <ele>1381.55176</ele>
        <time>2011-04-17T13:06:26+02:00</time>
      </trkpt>
      <trkpt lat="44.18388" lon="5.25569">
        <ele>1381.55176</ele>
        <time>2011-04-17T13:06:27+02:00</time>
      </trkpt>
      <trkpt lat="44.18376" lon="5.25569">
        <ele>1382.51318</ele>
        <time>2011-04-17T13:06:36+02:00</time>
      </trkpt>
      <trkpt lat="44.18362" lon="5.25571">
        <ele>1383.47437</ele>
        <time>2011-04-17T13:06:46+02:00</time>
      </trkpt>
      <trkpt lat="44.18352" lon="5.25571">
        <ele>1384.43579</ele>
        <time>2011-04-17T13:06:54+02:00</time>
      </trkpt>
      <trkpt lat="44.18345" lon="5.25573">
        <ele>1385.39697</ele>
        <time>2011-04-17T13:07:01+02:00</time>
      </trkpt>
      <trkpt lat="44.18338" lon="5.2557">
        <ele>1386.3584</ele>
        <time>2011-04-17T13:07:09+02:00</time>
      </trkpt>
      <trkpt lat="44.18336" lon="5.25573">
        <ele>1386.83887</ele>
        <time>2011-04-17T13:07:12+02:00</time>
      </trkpt>
      <trkpt lat="44.1833" lon="5.25574">
        <ele>1386.83887</ele>
        <time>2011-04-17T13:07:17+02:00</time>
      </trkpt>
      <trkpt lat="44.1832" lon="5.25563">
        <ele>1388.76196</ele>
        <time>2011-04-17T13:07:27+02:00</time>
      </trkpt>
      <trkpt lat="44.1831" lon="5.25556">
        <ele>1389.72314</ele>
        <time>2011-04-17T13:07:35+02:00</time>
      </trkpt>
      <trkpt lat="44.18295" lon="5.25549">
        <ele>1390.68433</ele>
        <time>2011-04-17T13:07:47+02:00</time>
      </trkpt>
      <trkpt lat="44.18282" lon="5.25542">
        <ele>1391.64575</ele>
        <time>2011-04-17T13:07:58+02:00</time>
      </trkpt>
      <trkpt lat="44.18272" lon="5.25536">
        <ele>1392.12646</ele>
        <time>2011-04-17T13:08:08+02:00</time>
      </trkpt>
      <trkpt lat="44.18266" lon="5.25533">
        <ele>1392.60718</ele>
        <time>2011-04-17T13:08:13+02:00</time>
      </trkpt>
      <trkpt lat="44.1826" lon="5.25529">
        <ele>1392.60718</ele>
        <time>2011-04-17T13:08:17+02:00</time>
      </trkpt>
      <trkpt lat="44.18246" lon="5.25528">
        <ele>1394.04907</ele>
        <time>2011-04-17T13:08:25+02:00</time>
      </trkpt>
      <trkpt lat="44.18241" lon="5.2553">
        <ele>1394.52954</ele>
        <time>2011-04-17T13:08:28+02:00</time>
      </trkpt>
      <trkpt lat="44.1824" lon="5.25542">
        <ele>1395.97168</ele>
        <time>2011-04-17T13:08:34+02:00</time>
      </trkpt>
      <trkpt lat="44.18239" lon="5.25559">
        <ele>1398.37476</ele>
        <time>2011-04-17T13:08:42+02:00</time>
      </trkpt>
      <trkpt lat="44.18238" lon="5.25575">
        <ele>1399.33618</ele>
        <time>2011-04-17T13:08:50+02:00</time>
      </trkpt>
      <trkpt lat="44.18235" lon="5.2559">
        <ele>1400.77808</ele>
        <time>2011-04-17T13:08:58+02:00</time>
      </trkpt>
      <trkpt lat="44.18233" lon="5.25603">
        <ele>1402.21997</ele>
        <time>2011-04-17T13:09:05+02:00</time>
      </trkpt>
      <trkpt lat="44.1823" lon="5.25613">
        <ele>1402.70068</ele>
        <time>2011-04-17T13:09:11+02:00</time>
      </trkpt>
      <trkpt lat="44.18226" lon="5.25625">
        <ele>1403.1814</ele>
        <time>2011-04-17T13:09:17+02:00</time>
      </trkpt>
      <trkpt lat="44.1822" lon="5.25637">
        <ele>1403.66211</ele>
        <time>2011-04-17T13:09:24+02:00</time>
      </trkpt>
      <trkpt lat="44.18218" lon="5.25638">
        <ele>1404.14307</ele>
        <time>2011-04-17T13:09:26+02:00</time>
      </trkpt>
      <trkpt lat="44.18209" lon="5.25639">
        <ele>1406.06543</ele>
        <time>2011-04-17T13:09:32+02:00</time>
      </trkpt>
      <trkpt lat="44.18195" lon="5.25642">
        <ele>1408.46875</ele>
        <time>2011-04-17T13:09:42+02:00</time>
      </trkpt>
      <trkpt lat="44.18185" lon="5.25648">
        <ele>1410.39136</ele>
        <time>2011-04-17T13:09:49+02:00</time>
      </trkpt>
      <trkpt lat="44.18179" lon="5.25664">
        <ele>1411.8335</ele>
        <time>2011-04-17T13:09:57+02:00</time>
      </trkpt>
      <trkpt lat="44.18181" lon="5.2568">
        <ele>1412.31396</ele>
        <time>2011-04-17T13:10:03+02:00</time>
      </trkpt>
      <trkpt lat="44.18186" lon="5.25701">
        <ele>1413.75586</ele>
        <time>2011-04-17T13:10:11+02:00</time>
      </trkpt>
      <trkpt lat="44.18194" lon="5.25728">
        <ele>1413.75586</ele>
        <time>2011-04-17T13:10:20+02:00</time>
      </trkpt>
      <trkpt lat="44.18202" lon="5.25749">
        <ele>1414.71729</ele>
        <time>2011-04-17T13:10:28+02:00</time>
      </trkpt>
      <trkpt lat="44.18206" lon="5.25758">
        <ele>1414.71729</ele>
        <time>2011-04-17T13:10:34+02:00</time>
      </trkpt>
      <trkpt lat="44.18206" lon="5.25758">
        <ele>1414.71729</ele>
        <time>2011-04-17T13:10:42+02:00</time>
      </trkpt>
      <trkpt lat="44.18205" lon="5.25758">
        <ele>1415.198</ele>
        <time>2011-04-17T13:10:51+02:00</time>
      </trkpt>
      <trkpt lat="44.18205" lon="5.25757">
        <ele>1415.67871</ele>
        <time>2011-04-17T13:11:00+02:00</time>
      </trkpt>
      <trkpt lat="44.18205" lon="5.25758">
        <ele>1416.15918</ele>
        <time>2011-04-17T13:11:09+02:00</time>
      </trkpt>
      <trkpt lat="44.18205" lon="5.25758">
        <ele>1416.15918</ele>
        <time>2011-04-17T13:11:15+02:00</time>
      </trkpt>
      <trkpt lat="44.18206" lon="5.2576">
        <ele>1415.67871</ele>
        <time>2011-04-17T13:11:20+02:00</time>
      </trkpt>
      <trkpt lat="44.18205" lon="5.2576">
        <ele>1416.15918</ele>
        <time>2011-04-17T13:11:28+02:00</time>
      </trkpt>
      <trkpt lat="44.18204" lon="5.25761">
        <ele>1416.15918</ele>
        <time>2011-04-17T13:11:33+02:00</time>
      </trkpt>
      <trkpt lat="44.18204" lon="5.25768">
        <ele>1416.15918</ele>
        <time>2011-04-17T13:11:42+02:00</time>
      </trkpt>
      <trkpt lat="44.18203" lon="5.25772">
        <ele>1416.63989</ele>
        <time>2011-04-17T13:11:51+02:00</time>
      </trkpt>
      <trkpt lat="44.18203" lon="5.25773">
        <ele>1416.63989</ele>
        <time>2011-04-17T13:11:57+02:00</time>
      </trkpt>
      <trkpt lat="44.18203" lon="5.25773">
        <ele>1417.60107</ele>
        <time>2011-04-17T13:12:02+02:00</time>
      </trkpt>
      <trkpt lat="44.18203" lon="5.25774">
        <ele>1418.08179</ele>
        <time>2011-04-17T13:12:11+02:00</time>
      </trkpt>
      <trkpt lat="44.18203" lon="5.25774">
        <ele>1418.08179</ele>
        <time>2011-04-17T13:12:19+02:00</time>
      </trkpt>
      <trkpt lat="44.18202" lon="5.25774">
        <ele>1418.08179</ele>
        <time>2011-04-17T13:12:24+02:00</time>
      </trkpt>
      <trkpt lat="44.18202" lon="5.25775">
        <ele>1417.12061</ele>
        <time>2011-04-17T13:12:30+02:00</time>
      </trkpt>
      <trkpt lat="44.18202" lon="5.25775">
        <ele>1416.15918</ele>
        <time>2011-04-17T13:12:41+02:00</time>
      </trkpt>
      <trkpt lat="44.18202" lon="5.25774">
        <ele>1415.67871</ele>
        <time>2011-04-17T13:12:50+02:00</time>
      </trkpt>
    </trkseg>
  </trk>
</gpx>